<?xml version='1.0' encoding='UTF-8'?><gpx version="1.1" creator="JPX - https://github.com/jenetics/jpx" xmlns="http://www.topografix.com/GPX/1/1"><trk><trkseg><trkpt lat="45.7959779" lon="11.4217248"><ele>520.0</ele><time>2026-04-18T13:17:37.144Z</time></trkpt><trkpt lat="45.795915" lon="11.4217806"><ele>520.0</ele><time>2026-04-18T13:17:39.144Z</time></trkpt><trkpt lat="45.7958877" lon="11.4219105"><ele>520.0</ele><time>2026-04-18T13:17:40.145Z</time></trkpt><trkpt lat="45.7958498" lon="11.4220099"><ele>520.0</ele><time>2026-04-18T13:17:41.144Z</time></trkpt><trkpt lat="45.7958097" lon="11.4221331"><ele>520.0</ele><time>2026-04-18T13:17:42.145Z</time></trkpt><trkpt lat="45.7957858" lon="11.4222662"><ele>520.0</ele><time>2026-04-18T13:17:43.145Z</time></trkpt><trkpt lat="45.7957684" lon="11.4224269"><ele>523.5</ele><time>2026-04-18T13:17:44.144Z</time></trkpt><trkpt lat="45.7957449" lon="11.4225812"><ele>527.0</ele><time>2026-04-18T13:17:45.144Z</time></trkpt><trkpt lat="45.7957265" lon="11.4227438"><ele>530.5</ele><time>2026-04-18T13:17:46.143Z</time></trkpt><trkpt lat="45.7956731" lon="11.4229088"><ele>534.0</ele><time>2026-04-18T13:17:47.145Z</time></trkpt><trkpt lat="45.7956363" lon="11.4230869"><ele>536.75</ele><time>2026-04-18T13:17:48.144Z</time></trkpt><trkpt lat="45.7956104" lon="11.423268"><ele>539.5</ele><time>2026-04-18T13:17:49.145Z</time></trkpt><trkpt lat="45.7955881" lon="11.4234443"><ele>542.25</ele><time>2026-04-18T13:17:50.145Z</time></trkpt><trkpt lat="45.795573" lon="11.4236273"><ele>545.0</ele><time>2026-04-18T13:17:51.145Z</time></trkpt><trkpt lat="45.7955683" lon="11.4238079"><ele>546.8</ele><time>2026-04-18T13:17:52.143Z</time></trkpt><trkpt lat="45.7955586" lon="11.4239673"><ele>548.6</ele><time>2026-04-18T13:17:53.145Z</time></trkpt><trkpt lat="45.7955328" lon="11.424114"><ele>550.4</ele><time>2026-04-18T13:17:54.143Z</time></trkpt><trkpt lat="45.795493" lon="11.4242504"><ele>552.2</ele><time>2026-04-18T13:17:55.144Z</time></trkpt><trkpt lat="45.7954421" lon="11.4243756"><ele>554.0</ele><time>2026-04-18T13:17:56.145Z</time></trkpt><trkpt lat="45.795399" lon="11.4244853"><ele>554.0</ele><time>2026-04-18T13:17:57.144Z</time></trkpt><trkpt lat="45.7953653" lon="11.424584"><ele>554.0</ele><time>2026-04-18T13:17:58.145Z</time></trkpt><trkpt lat="45.7953335" lon="11.4246782"><ele>554.0</ele><time>2026-04-18T13:17:59.143Z</time></trkpt><trkpt lat="45.7952996" lon="11.4248018"><ele>554.0</ele><time>2026-04-18T13:18:01.144Z</time></trkpt><trkpt lat="45.7952904" lon="11.4249006"><ele>554.0</ele><time>2026-04-18T13:18:10.143Z</time></trkpt><trkpt lat="45.7952697" lon="11.4250081"><ele>554.0</ele><time>2026-04-18T13:18:11.145Z</time></trkpt><trkpt lat="45.7952427" lon="11.4251243"><ele>553.5</ele><time>2026-04-18T13:18:12.144Z</time></trkpt><trkpt lat="45.7952089" lon="11.4252589"><ele>553.0</ele><time>2026-04-18T13:18:13.144Z</time></trkpt><trkpt lat="45.7951606" lon="11.4254045"><ele>552.5</ele><time>2026-04-18T13:18:14.144Z</time></trkpt><trkpt lat="45.7951092" lon="11.4255568"><ele>552.0</ele><time>2026-04-18T13:18:15.144Z</time></trkpt><trkpt lat="45.7950589" lon="11.425717"><ele>552.0</ele><time>2026-04-18T13:18:16.144Z</time></trkpt><trkpt lat="45.7950085" lon="11.4258894"><ele>552.0</ele><time>2026-04-18T13:18:17.145Z</time></trkpt><trkpt lat="45.7949515" lon="11.4260744"><ele>552.0</ele><time>2026-04-18T13:18:18.144Z</time></trkpt><trkpt lat="45.794885" lon="11.4262609"><ele>552.0</ele><time>2026-04-18T13:18:19.145Z</time></trkpt><trkpt lat="45.7948045" lon="11.4264372"><ele>557.0</ele><time>2026-04-18T13:18:20.144Z</time></trkpt><trkpt lat="45.7947094" lon="11.4266063"><ele>562.0</ele><time>2026-04-18T13:18:21.143Z</time></trkpt><trkpt lat="45.7945985" lon="11.4267641"><ele>567.0</ele><time>2026-04-18T13:18:22.145Z</time></trkpt><trkpt lat="45.7944899" lon="11.4269322"><ele>567.0</ele><time>2026-04-18T13:18:23.143Z</time></trkpt><trkpt lat="45.7944051" lon="11.4271401"><ele>567.0</ele><time>2026-04-18T13:18:24.145Z</time></trkpt><trkpt lat="45.7943333" lon="11.4273518"><ele>567.0</ele><time>2026-04-18T13:18:25.145Z</time></trkpt><trkpt lat="45.7942853" lon="11.4275752"><ele>565.3333333333334</ele><time>2026-04-18T13:18:26.144Z</time></trkpt><trkpt lat="45.7942485" lon="11.4278048"><ele>563.6666666666667</ele><time>2026-04-18T13:18:27.143Z</time></trkpt><trkpt lat="45.7942037" lon="11.4280327"><ele>562.0</ele><time>2026-04-18T13:18:28.145Z</time></trkpt><trkpt lat="45.7941767" lon="11.4282714"><ele>562.0</ele><time>2026-04-18T13:18:29.143Z</time></trkpt><trkpt lat="45.7941379" lon="11.428502"><ele>562.0</ele><time>2026-04-18T13:18:30.145Z</time></trkpt><trkpt lat="45.794096" lon="11.4287312"><ele>562.0</ele><time>2026-04-18T13:18:31.145Z</time></trkpt><trkpt lat="45.7940532" lon="11.4289582"><ele>565.6666666666667</ele><time>2026-04-18T13:18:32.144Z</time></trkpt><trkpt lat="45.7940036" lon="11.4291837"><ele>569.3333333333334</ele><time>2026-04-18T13:18:33.145Z</time></trkpt><trkpt lat="45.7939528" lon="11.4294138"><ele>573.0</ele><time>2026-04-18T13:18:34.144Z</time></trkpt><trkpt lat="45.793903" lon="11.4296424"><ele>574.5</ele><time>2026-04-18T13:18:35.145Z</time></trkpt><trkpt lat="45.7938501" lon="11.4298711"><ele>576.0</ele><time>2026-04-18T13:18:36.144Z</time></trkpt><trkpt lat="45.793801" lon="11.4300806"><ele>577.5</ele><time>2026-04-18T13:18:37.145Z</time></trkpt><trkpt lat="45.793767" lon="11.4302553"><ele>579.0</ele><time>2026-04-18T13:18:38.145Z</time></trkpt><trkpt lat="45.7937502" lon="11.4303983"><ele>579.0</ele><time>2026-04-18T13:18:39.145Z</time></trkpt><trkpt lat="45.7937562" lon="11.4305117"><ele>579.0</ele><time>2026-04-18T13:18:40.144Z</time></trkpt><trkpt lat="45.7937749" lon="11.4306099"><ele>579.0</ele><time>2026-04-18T13:18:41.145Z</time></trkpt><trkpt lat="45.7939338" lon="11.4306534"><ele>579.0</ele><time>2026-04-18T13:18:43.144Z</time></trkpt><trkpt lat="45.7940079" lon="11.4305043"><ele>579.0</ele><time>2026-04-18T13:18:44.144Z</time></trkpt><trkpt lat="45.7940603" lon="11.4304221"><ele>579.0</ele><time>2026-04-18T13:18:45.145Z</time></trkpt><trkpt lat="45.7940589" lon="11.430238"><ele>579.0</ele><time>2026-04-18T13:18:46.144Z</time></trkpt><trkpt lat="45.7940748" lon="11.4300599"><ele>579.0</ele><time>2026-04-18T13:18:47.145Z</time></trkpt><trkpt lat="45.7941115" lon="11.4298966"><ele>579.0</ele><time>2026-04-18T13:18:48.144Z</time></trkpt><trkpt lat="45.7941748" lon="11.4297211"><ele>577.5</ele><time>2026-04-18T13:18:49.144Z</time></trkpt><trkpt lat="45.7942505" lon="11.429548"><ele>576.0</ele><time>2026-04-18T13:18:50.143Z</time></trkpt><trkpt lat="45.7943234" lon="11.4293714"><ele>574.5</ele><time>2026-04-18T13:18:51.143Z</time></trkpt><trkpt lat="45.7943966" lon="11.4291821"><ele>573.0</ele><time>2026-04-18T13:18:52.145Z</time></trkpt><trkpt lat="45.794475" lon="11.4289875"><ele>581.6666666666666</ele><time>2026-04-18T13:18:53.144Z</time></trkpt><trkpt lat="45.7945493" lon="11.4287859"><ele>590.3333333333333</ele><time>2026-04-18T13:18:54.145Z</time></trkpt><trkpt lat="45.7946256" lon="11.4285743"><ele>599.0</ele><time>2026-04-18T13:18:55.144Z</time></trkpt><trkpt lat="45.7947026" lon="11.4283616"><ele>599.0</ele><time>2026-04-18T13:18:56.144Z</time></trkpt><trkpt lat="45.7947802" lon="11.4281559"><ele>599.0</ele><time>2026-04-18T13:18:57.143Z</time></trkpt><trkpt lat="45.7948651" lon="11.4279629"><ele>599.0</ele><time>2026-04-18T13:18:58.145Z</time></trkpt><trkpt lat="45.7949533" lon="11.4277698"><ele>594.6666666666666</ele><time>2026-04-18T13:18:59.144Z</time></trkpt><trkpt lat="45.7950634" lon="11.427606"><ele>590.3333333333334</ele><time>2026-04-18T13:19:00.143Z</time></trkpt><trkpt lat="45.7952011" lon="11.4274684"><ele>586.0</ele><time>2026-04-18T13:19:01.144Z</time></trkpt><trkpt lat="45.7953323" lon="11.4273319"><ele>591.0</ele><time>2026-04-18T13:19:02.143Z</time></trkpt><trkpt lat="45.7954502" lon="11.427171"><ele>596.0</ele><time>2026-04-18T13:19:03.143Z</time></trkpt><trkpt lat="45.795551" lon="11.4269879"><ele>601.0</ele><time>2026-04-18T13:19:04.144Z</time></trkpt><trkpt lat="45.7956498" lon="11.4268009"><ele>601.0</ele><time>2026-04-18T13:19:05.144Z</time></trkpt><trkpt lat="45.7957451" lon="11.4266128"><ele>601.0</ele><time>2026-04-18T13:19:06.145Z</time></trkpt><trkpt lat="45.795832" lon="11.4264358"><ele>601.0</ele><time>2026-04-18T13:19:07.144Z</time></trkpt><trkpt lat="45.7959024" lon="11.4262731"><ele>601.0</ele><time>2026-04-18T13:19:08.144Z</time></trkpt><trkpt lat="45.7959498" lon="11.4261241"><ele>598.6666666666667</ele><time>2026-04-18T13:19:09.144Z</time></trkpt><trkpt lat="45.7959919" lon="11.4260118"><ele>596.3333333333334</ele><time>2026-04-18T13:19:10.143Z</time></trkpt><trkpt lat="45.7960455" lon="11.4259324"><ele>594.0</ele><time>2026-04-18T13:19:11.145Z</time></trkpt><trkpt lat="45.7961097" lon="11.4258986"><ele>591.6666666666666</ele><time>2026-04-18T13:19:12.143Z</time></trkpt><trkpt lat="45.7961955" lon="11.4259877"><ele>589.3333333333333</ele><time>2026-04-18T13:19:14.145Z</time></trkpt><trkpt lat="45.7961927" lon="11.4260808"><ele>587.0</ele><time>2026-04-18T13:19:15.145Z</time></trkpt><trkpt lat="45.7961566" lon="11.4261834"><ele>590.5</ele><time>2026-04-18T13:19:16.144Z</time></trkpt><trkpt lat="45.7960904" lon="11.4262965"><ele>594.0</ele><time>2026-04-18T13:19:17.144Z</time></trkpt><trkpt lat="45.7960103" lon="11.4264211"><ele>597.5</ele><time>2026-04-18T13:19:18.144Z</time></trkpt><trkpt lat="45.7959338" lon="11.4265774"><ele>601.0</ele><time>2026-04-18T13:19:19.143Z</time></trkpt><trkpt lat="45.7958704" lon="11.4267536"><ele>601.0</ele><time>2026-04-18T13:19:20.144Z</time></trkpt><trkpt lat="45.7958084" lon="11.4269395"><ele>601.0</ele><time>2026-04-18T13:19:21.144Z</time></trkpt><trkpt lat="45.7957437" lon="11.4271449"><ele>601.0</ele><time>2026-04-18T13:19:22.143Z</time></trkpt><trkpt lat="45.7956791" lon="11.4273551"><ele>607.3333333333334</ele><time>2026-04-18T13:19:23.145Z</time></trkpt><trkpt lat="45.7956067" lon="11.4275646"><ele>613.6666666666666</ele><time>2026-04-18T13:19:24.145Z</time></trkpt><trkpt lat="45.7955237" lon="11.4277744"><ele>620.0</ele><time>2026-04-18T13:19:25.145Z</time></trkpt><trkpt lat="45.795439" lon="11.4279837"><ele>624.3333333333333</ele><time>2026-04-18T13:19:26.144Z</time></trkpt><trkpt lat="45.7953701" lon="11.4282073"><ele>628.6666666666666</ele><time>2026-04-18T13:19:27.145Z</time></trkpt><trkpt lat="45.7953078" lon="11.4284371"><ele>633.0</ele><time>2026-04-18T13:19:28.144Z</time></trkpt><trkpt lat="45.7952694" lon="11.4286829"><ele>638.0</ele><time>2026-04-18T13:19:29.144Z</time></trkpt><trkpt lat="45.7952297" lon="11.4289272"><ele>643.0</ele><time>2026-04-18T13:19:30.144Z</time></trkpt><trkpt lat="45.7951907" lon="11.4291686"><ele>648.0</ele><time>2026-04-18T13:19:31.144Z</time></trkpt><trkpt lat="45.7951536" lon="11.4294078"><ele>637.6666666666666</ele><time>2026-04-18T13:19:32.143Z</time></trkpt><trkpt lat="45.7951233" lon="11.4296488"><ele>627.3333333333333</ele><time>2026-04-18T13:19:33.143Z</time></trkpt><trkpt lat="45.7950911" lon="11.4298862"><ele>617.0</ele><time>2026-04-18T13:19:34.144Z</time></trkpt><trkpt lat="45.7950633" lon="11.4301234"><ele>617.0</ele><time>2026-04-18T13:19:35.143Z</time></trkpt><trkpt lat="45.7950318" lon="11.430362"><ele>617.0</ele><time>2026-04-18T13:19:36.145Z</time></trkpt><trkpt lat="45.7949967" lon="11.4305968"><ele>617.0</ele><time>2026-04-18T13:19:37.145Z</time></trkpt><trkpt lat="45.7949644" lon="11.4308303"><ele>619.6666666666666</ele><time>2026-04-18T13:19:38.145Z</time></trkpt><trkpt lat="45.79493" lon="11.4310652"><ele>622.3333333333334</ele><time>2026-04-18T13:19:39.145Z</time></trkpt><trkpt lat="45.7948917" lon="11.4312963"><ele>625.0</ele><time>2026-04-18T13:19:40.144Z</time></trkpt><trkpt lat="45.7948531" lon="11.4315324"><ele>629.3333333333334</ele><time>2026-04-18T13:19:41.143Z</time></trkpt><trkpt lat="45.7948137" lon="11.4317749"><ele>633.6666666666666</ele><time>2026-04-18T13:19:42.145Z</time></trkpt><trkpt lat="45.7947808" lon="11.4320154"><ele>638.0</ele><time>2026-04-18T13:19:43.145Z</time></trkpt><trkpt lat="45.7947439" lon="11.4322545"><ele>641.6666666666666</ele><time>2026-04-18T13:19:44.145Z</time></trkpt><trkpt lat="45.7946936" lon="11.4324907"><ele>645.3333333333334</ele><time>2026-04-18T13:19:45.143Z</time></trkpt><trkpt lat="45.7946316" lon="11.4327182"><ele>649.0</ele><time>2026-04-18T13:19:46.144Z</time></trkpt><trkpt lat="45.7945607" lon="11.4329456"><ele>653.3333333333334</ele><time>2026-04-18T13:19:47.143Z</time></trkpt><trkpt lat="45.7944852" lon="11.433171"><ele>657.6666666666666</ele><time>2026-04-18T13:19:48.143Z</time></trkpt><trkpt lat="45.7944102" lon="11.4334"><ele>662.0</ele><time>2026-04-18T13:19:49.145Z</time></trkpt><trkpt lat="45.7943362" lon="11.4336306"><ele>656.6666666666666</ele><time>2026-04-18T13:19:50.144Z</time></trkpt><trkpt lat="45.7942546" lon="11.4338514"><ele>651.3333333333334</ele><time>2026-04-18T13:19:51.145Z</time></trkpt><trkpt lat="45.7941611" lon="11.4340569"><ele>646.0</ele><time>2026-04-18T13:19:52.145Z</time></trkpt><trkpt lat="45.7940582" lon="11.4342467"><ele>646.0</ele><time>2026-04-18T13:19:53.145Z</time></trkpt><trkpt lat="45.7939524" lon="11.4344137"><ele>646.0</ele><time>2026-04-18T13:19:54.145Z</time></trkpt><trkpt lat="45.7938495" lon="11.4345516"><ele>646.0</ele><time>2026-04-18T13:19:55.144Z</time></trkpt><trkpt lat="45.7937591" lon="11.4346648"><ele>646.0</ele><time>2026-04-18T13:19:56.145Z</time></trkpt><trkpt lat="45.7936986" lon="11.4347656"><ele>647.0</ele><time>2026-04-18T13:19:57.144Z</time></trkpt><trkpt lat="45.7936636" lon="11.4348801"><ele>648.0</ele><time>2026-04-18T13:19:58.143Z</time></trkpt><trkpt lat="45.793675" lon="11.4349933"><ele>649.0</ele><time>2026-04-18T13:19:59.144Z</time></trkpt><trkpt lat="45.7937322" lon="11.4350778"><ele>650.0</ele><time>2026-04-18T13:20:00.145Z</time></trkpt><trkpt lat="45.7937817" lon="11.4351474"><ele>651.0</ele><time>2026-04-18T13:20:01.145Z</time></trkpt><trkpt lat="45.7938816" lon="11.4351829"><ele>652.0</ele><time>2026-04-18T13:20:02.144Z</time></trkpt><trkpt lat="45.7939695" lon="11.435114"><ele>652.0</ele><time>2026-04-18T13:20:03.144Z</time></trkpt><trkpt lat="45.7939849" lon="11.4348213"><ele>652.0</ele><time>2026-04-18T13:20:04.145Z</time></trkpt><trkpt lat="45.7940581" lon="11.4346899"><ele>652.0</ele><time>2026-04-18T13:20:05.144Z</time></trkpt><trkpt lat="45.7941371" lon="11.4345506"><ele>652.0</ele><time>2026-04-18T13:20:06.144Z</time></trkpt><trkpt lat="45.7942246" lon="11.4344101"><ele>650.5</ele><time>2026-04-18T13:20:07.145Z</time></trkpt><trkpt lat="45.7943218" lon="11.4342686"><ele>649.0</ele><time>2026-04-18T13:20:08.144Z</time></trkpt><trkpt lat="45.7944263" lon="11.4341317"><ele>647.5</ele><time>2026-04-18T13:20:09.145Z</time></trkpt><trkpt lat="45.7945148" lon="11.4339522"><ele>646.0</ele><time>2026-04-18T13:20:10.144Z</time></trkpt><trkpt lat="45.7946275" lon="11.433775"><ele>651.3333333333334</ele><time>2026-04-18T13:20:11.144Z</time></trkpt><trkpt lat="45.7947364" lon="11.4336097"><ele>656.6666666666666</ele><time>2026-04-18T13:20:12.145Z</time></trkpt><trkpt lat="45.7948507" lon="11.4334346"><ele>662.0</ele><time>2026-04-18T13:20:13.144Z</time></trkpt><trkpt lat="45.7949675" lon="11.4332583"><ele>662.0</ele><time>2026-04-18T13:20:14.145Z</time></trkpt><trkpt lat="45.7950814" lon="11.4330756"><ele>662.0</ele><time>2026-04-18T13:20:15.144Z</time></trkpt><trkpt lat="45.7951906" lon="11.4328949"><ele>662.0</ele><time>2026-04-18T13:20:16.143Z</time></trkpt><trkpt lat="45.7952985" lon="11.4326975"><ele>667.0</ele><time>2026-04-18T13:20:17.145Z</time></trkpt><trkpt lat="45.7953954" lon="11.4324841"><ele>672.0</ele><time>2026-04-18T13:20:18.143Z</time></trkpt><trkpt lat="45.7954763" lon="11.4322582"><ele>677.0</ele><time>2026-04-18T13:20:19.145Z</time></trkpt><trkpt lat="45.7955402" lon="11.4320162"><ele>677.0</ele><time>2026-04-18T13:20:20.145Z</time></trkpt><trkpt lat="45.7955939" lon="11.4317622"><ele>677.0</ele><time>2026-04-18T13:20:21.145Z</time></trkpt><trkpt lat="45.7956476" lon="11.4315093"><ele>677.0</ele><time>2026-04-18T13:20:22.145Z</time></trkpt><trkpt lat="45.7957123" lon="11.4312643"><ele>675.0</ele><time>2026-04-18T13:20:23.144Z</time></trkpt><trkpt lat="45.7957928" lon="11.4310312"><ele>673.0</ele><time>2026-04-18T13:20:24.145Z</time></trkpt><trkpt lat="45.7958831" lon="11.4307978"><ele>671.0</ele><time>2026-04-18T13:20:25.144Z</time></trkpt><trkpt lat="45.79599" lon="11.4305715"><ele>680.3333333333333</ele><time>2026-04-18T13:20:26.144Z</time></trkpt><trkpt lat="45.7961047" lon="11.4303469"><ele>689.6666666666666</ele><time>2026-04-18T13:20:27.144Z</time></trkpt><trkpt lat="45.7962077" lon="11.4300998"><ele>699.0</ele><time>2026-04-18T13:20:28.144Z</time></trkpt><trkpt lat="45.7962927" lon="11.4298332"><ele>696.3333333333334</ele><time>2026-04-18T13:20:29.145Z</time></trkpt><trkpt lat="45.7963722" lon="11.4295574"><ele>693.6666666666667</ele><time>2026-04-18T13:20:30.145Z</time></trkpt><trkpt lat="45.7964547" lon="11.4292774"><ele>691.0</ele><time>2026-04-18T13:20:31.144Z</time></trkpt><trkpt lat="45.7965441" lon="11.4290022"><ele>686.3333333333334</ele><time>2026-04-18T13:20:32.144Z</time></trkpt><trkpt lat="45.796641" lon="11.428737"><ele>681.6666666666666</ele><time>2026-04-18T13:20:33.145Z</time></trkpt><trkpt lat="45.7967308" lon="11.4285001"><ele>677.0</ele><time>2026-04-18T13:20:34.144Z</time></trkpt><trkpt lat="45.7968064" lon="11.4283002"><ele>680.6</ele><time>2026-04-18T13:20:35.145Z</time></trkpt><trkpt lat="45.7968705" lon="11.4281301"><ele>684.2</ele><time>2026-04-18T13:20:36.144Z</time></trkpt><trkpt lat="45.7969405" lon="11.4279984"><ele>687.8</ele><time>2026-04-18T13:20:37.143Z</time></trkpt><trkpt lat="45.7970114" lon="11.4279188"><ele>691.4</ele><time>2026-04-18T13:20:38.143Z</time></trkpt><trkpt lat="45.7970685" lon="11.4278519"><ele>695.0</ele><time>2026-04-18T13:20:39.145Z</time></trkpt><trkpt lat="45.7971214" lon="11.4280338"><ele>699.25</ele><time>2026-04-18T13:20:41.144Z</time></trkpt><trkpt lat="45.7970882" lon="11.428131"><ele>703.5</ele><time>2026-04-18T13:20:42.145Z</time></trkpt><trkpt lat="45.7970172" lon="11.4282521"><ele>707.75</ele><time>2026-04-18T13:20:43.145Z</time></trkpt><trkpt lat="45.796924" lon="11.42838"><ele>712.0</ele><time>2026-04-18T13:20:44.143Z</time></trkpt><trkpt lat="45.7968431" lon="11.4285542"><ele>705.0</ele><time>2026-04-18T13:20:45.144Z</time></trkpt><trkpt lat="45.7967838" lon="11.4287531"><ele>698.0</ele><time>2026-04-18T13:20:46.145Z</time></trkpt><trkpt lat="45.7967338" lon="11.4289776"><ele>691.0</ele><time>2026-04-18T13:20:47.144Z</time></trkpt><trkpt lat="45.7966878" lon="11.4292151"><ele>691.0</ele><time>2026-04-18T13:20:48.145Z</time></trkpt><trkpt lat="45.7966619" lon="11.4294581"><ele>691.0</ele><time>2026-04-18T13:20:49.144Z</time></trkpt><trkpt lat="45.7966514" lon="11.4297048"><ele>691.0</ele><time>2026-04-18T13:20:50.145Z</time></trkpt><trkpt lat="45.7966401" lon="11.4299613"><ele>693.6666666666667</ele><time>2026-04-18T13:20:51.145Z</time></trkpt><trkpt lat="45.7966084" lon="11.430207"><ele>696.3333333333334</ele><time>2026-04-18T13:20:52.143Z</time></trkpt><trkpt lat="45.7965413" lon="11.4304363"><ele>699.0</ele><time>2026-04-18T13:20:53.145Z</time></trkpt><trkpt lat="45.79647" lon="11.4306706"><ele>702.0</ele><time>2026-04-18T13:20:54.143Z</time></trkpt><trkpt lat="45.7964013" lon="11.4309094"><ele>705.0</ele><time>2026-04-18T13:20:55.144Z</time></trkpt><trkpt lat="45.7963369" lon="11.4311572"><ele>708.0</ele><time>2026-04-18T13:20:56.145Z</time></trkpt><trkpt lat="45.7962872" lon="11.4314117"><ele>712.0</ele><time>2026-04-18T13:20:57.143Z</time></trkpt><trkpt lat="45.7962632" lon="11.4316753"><ele>716.0</ele><time>2026-04-18T13:20:58.143Z</time></trkpt><trkpt lat="45.7962613" lon="11.4319376"><ele>720.0</ele><time>2026-04-18T13:20:59.144Z</time></trkpt><trkpt lat="45.7962771" lon="11.4321961"><ele>722.0</ele><time>2026-04-18T13:21:00.145Z</time></trkpt><trkpt lat="45.7962947" lon="11.4324583"><ele>724.0</ele><time>2026-04-18T13:21:01.145Z</time></trkpt><trkpt lat="45.7962916" lon="11.4327175"><ele>726.0</ele><time>2026-04-18T13:21:02.143Z</time></trkpt><trkpt lat="45.7962591" lon="11.4329693"><ele>729.6666666666666</ele><time>2026-04-18T13:21:03.145Z</time></trkpt><trkpt lat="45.796208" lon="11.4332226"><ele>733.3333333333333</ele><time>2026-04-18T13:21:04.143Z</time></trkpt><trkpt lat="45.7961503" lon="11.4334775"><ele>737.0</ele><time>2026-04-18T13:21:05.144Z</time></trkpt><trkpt lat="45.796093" lon="11.4337422"><ele>740.6666666666666</ele><time>2026-04-18T13:21:06.145Z</time></trkpt><trkpt lat="45.796033" lon="11.4340053"><ele>744.3333333333334</ele><time>2026-04-18T13:21:07.145Z</time></trkpt><trkpt lat="45.7959748" lon="11.4342728"><ele>748.0</ele><time>2026-04-18T13:21:08.145Z</time></trkpt><trkpt lat="45.7959193" lon="11.4345409"><ele>738.3333333333334</ele><time>2026-04-18T13:21:09.144Z</time></trkpt><trkpt lat="45.7958664" lon="11.4348094"><ele>728.6666666666666</ele><time>2026-04-18T13:21:10.144Z</time></trkpt><trkpt lat="45.7958138" lon="11.4350713"><ele>719.0</ele><time>2026-04-18T13:21:11.142Z</time></trkpt><trkpt lat="45.7957541" lon="11.4353037"><ele>721.5</ele><time>2026-04-18T13:21:12.144Z</time></trkpt><trkpt lat="45.7956814" lon="11.4354939"><ele>724.0</ele><time>2026-04-18T13:21:13.142Z</time></trkpt><trkpt lat="45.7955904" lon="11.4356386"><ele>726.5</ele><time>2026-04-18T13:21:14.143Z</time></trkpt><trkpt lat="45.7954897" lon="11.4357597"><ele>729.0</ele><time>2026-04-18T13:21:15.144Z</time></trkpt><trkpt lat="45.7953995" lon="11.4358734"><ele>729.0</ele><time>2026-04-18T13:21:16.144Z</time></trkpt><trkpt lat="45.7953505" lon="11.4359921"><ele>729.0</ele><time>2026-04-18T13:21:17.144Z</time></trkpt><trkpt lat="45.795348" lon="11.4361158"><ele>729.0</ele><time>2026-04-18T13:21:18.143Z</time></trkpt><trkpt lat="45.7953909" lon="11.4362114"><ele>729.0</ele><time>2026-04-18T13:21:19.143Z</time></trkpt><trkpt lat="45.7954594" lon="11.4362832"><ele>729.0</ele><time>2026-04-18T13:21:20.144Z</time></trkpt><trkpt lat="45.7955512" lon="11.4363324"><ele>729.0</ele><time>2026-04-18T13:21:21.143Z</time></trkpt><trkpt lat="45.7956352" lon="11.4362875"><ele>729.0</ele><time>2026-04-18T13:21:22.143Z</time></trkpt><trkpt lat="45.7957063" lon="11.436029"><ele>729.0</ele><time>2026-04-18T13:21:23.144Z</time></trkpt><trkpt lat="45.7957821" lon="11.4359235"><ele>729.0</ele><time>2026-04-18T13:21:24.143Z</time></trkpt><trkpt lat="45.7958616" lon="11.4357969"><ele>729.0</ele><time>2026-04-18T13:21:25.142Z</time></trkpt><trkpt lat="45.7959362" lon="11.4356414"><ele>726.5</ele><time>2026-04-18T13:21:26.144Z</time></trkpt><trkpt lat="45.795996" lon="11.4354672"><ele>724.0</ele><time>2026-04-18T13:21:27.143Z</time></trkpt><trkpt lat="45.7960586" lon="11.4352999"><ele>721.5</ele><time>2026-04-18T13:21:28.143Z</time></trkpt><trkpt lat="45.7961196" lon="11.4351255"><ele>719.0</ele><time>2026-04-18T13:21:29.143Z</time></trkpt><trkpt lat="45.7961835" lon="11.434948"><ele>728.6666666666666</ele><time>2026-04-18T13:21:30.142Z</time></trkpt><trkpt lat="45.7962475" lon="11.4347561"><ele>738.3333333333334</ele><time>2026-04-18T13:21:31.143Z</time></trkpt><trkpt lat="45.7963168" lon="11.4345438"><ele>748.0</ele><time>2026-04-18T13:21:32.143Z</time></trkpt><trkpt lat="45.7963885" lon="11.4343164"><ele>748.0</ele><time>2026-04-18T13:21:33.143Z</time></trkpt><trkpt lat="45.7964695" lon="11.4340743"><ele>748.0</ele><time>2026-04-18T13:21:34.142Z</time></trkpt><trkpt lat="45.7965556" lon="11.4338291"><ele>748.0</ele><time>2026-04-18T13:21:35.144Z</time></trkpt><trkpt lat="45.7966422" lon="11.4335803"><ele>744.3333333333334</ele><time>2026-04-18T13:21:36.143Z</time></trkpt><trkpt lat="45.7967271" lon="11.4333335"><ele>740.6666666666666</ele><time>2026-04-18T13:21:37.144Z</time></trkpt><trkpt lat="45.7968054" lon="11.4330842"><ele>737.0</ele><time>2026-04-18T13:21:38.144Z</time></trkpt><trkpt lat="45.7968664" lon="11.4328296"><ele>746.6666666666666</ele><time>2026-04-18T13:21:39.143Z</time></trkpt><trkpt lat="45.7969133" lon="11.432571"><ele>756.3333333333334</ele><time>2026-04-18T13:21:40.143Z</time></trkpt><trkpt lat="45.7969543" lon="11.4323182"><ele>766.0</ele><time>2026-04-18T13:21:41.143Z</time></trkpt><trkpt lat="45.7969991" lon="11.4320728"><ele>766.0</ele><time>2026-04-18T13:21:42.144Z</time></trkpt><trkpt lat="45.7970508" lon="11.4318457"><ele>766.0</ele><time>2026-04-18T13:21:43.143Z</time></trkpt><trkpt lat="45.7971199" lon="11.4316238"><ele>766.0</ele><time>2026-04-18T13:21:44.143Z</time></trkpt><trkpt lat="45.7972101" lon="11.4314109"><ele>761.3333333333334</ele><time>2026-04-18T13:21:45.144Z</time></trkpt><trkpt lat="45.7973211" lon="11.4312097"><ele>756.6666666666666</ele><time>2026-04-18T13:21:46.143Z</time></trkpt><trkpt lat="45.7974266" lon="11.430999"><ele>752.0</ele><time>2026-04-18T13:21:47.144Z</time></trkpt><trkpt lat="45.7975105" lon="11.4307846"><ele>752.0</ele><time>2026-04-18T13:21:48.143Z</time></trkpt><trkpt lat="45.7975757" lon="11.4305769"><ele>752.0</ele><time>2026-04-18T13:21:49.144Z</time></trkpt><trkpt lat="45.7976244" lon="11.4303767"><ele>752.0</ele><time>2026-04-18T13:21:50.144Z</time></trkpt><trkpt lat="45.7976625" lon="11.4301829"><ele>752.0</ele><time>2026-04-18T13:21:51.143Z</time></trkpt><trkpt lat="45.7976992" lon="11.4299896"><ele>757.25</ele><time>2026-04-18T13:21:52.144Z</time></trkpt><trkpt lat="45.7977364" lon="11.4297922"><ele>762.5</ele><time>2026-04-18T13:21:53.142Z</time></trkpt><trkpt lat="45.797774" lon="11.4296029"><ele>767.75</ele><time>2026-04-18T13:21:54.144Z</time></trkpt><trkpt lat="45.7978072" lon="11.4294344"><ele>773.0</ele><time>2026-04-18T13:21:55.143Z</time></trkpt><trkpt lat="45.7978434" lon="11.4292856"><ele>773.0000000000001</ele><time>2026-04-18T13:21:56.143Z</time></trkpt><trkpt lat="45.7978858" lon="11.4291742"><ele>773.0</ele><time>2026-04-18T13:21:57.143Z</time></trkpt><trkpt lat="45.7979445" lon="11.4291175"><ele>773.0</ele><time>2026-04-18T13:21:58.143Z</time></trkpt><trkpt lat="45.7980106" lon="11.4291077"><ele>773.0</ele><time>2026-04-18T13:21:59.143Z</time></trkpt><trkpt lat="45.7981119" lon="11.4291889"><ele>773.0000000000001</ele><time>2026-04-18T13:22:01.144Z</time></trkpt><trkpt lat="45.798094" lon="11.4292944"><ele>773.0</ele><time>2026-04-18T13:22:02.143Z</time></trkpt><trkpt lat="45.7980745" lon="11.4294167"><ele>773.0</ele><time>2026-04-18T13:22:03.144Z</time></trkpt><trkpt lat="45.7980242" lon="11.4295575"><ele>773.0</ele><time>2026-04-18T13:22:04.144Z</time></trkpt><trkpt lat="45.7979722" lon="11.4297246"><ele>773.0</ele><time>2026-04-18T13:22:05.143Z</time></trkpt><trkpt lat="45.7979255" lon="11.429928"><ele>773.0</ele><time>2026-04-18T13:22:06.144Z</time></trkpt><trkpt lat="45.7978934" lon="11.430169"><ele>777.0</ele><time>2026-04-18T13:22:07.144Z</time></trkpt><trkpt lat="45.7978713" lon="11.4304387"><ele>781.0</ele><time>2026-04-18T13:22:08.144Z</time></trkpt><trkpt lat="45.7978482" lon="11.4307247"><ele>785.0</ele><time>2026-04-18T13:22:09.143Z</time></trkpt><trkpt lat="45.7977983" lon="11.4310036"><ele>788.0</ele><time>2026-04-18T13:22:10.142Z</time></trkpt><trkpt lat="45.7977138" lon="11.4312677"><ele>791.0</ele><time>2026-04-18T13:22:11.143Z</time></trkpt><trkpt lat="45.7976082" lon="11.4315191"><ele>794.0</ele><time>2026-04-18T13:22:12.143Z</time></trkpt><trkpt lat="45.7975171" lon="11.4317673"><ele>788.0</ele><time>2026-04-18T13:22:13.143Z</time></trkpt><trkpt lat="45.7974503" lon="11.4320354"><ele>782.0</ele><time>2026-04-18T13:22:14.143Z</time></trkpt><trkpt lat="45.7974156" lon="11.4323058"><ele>776.0</ele><time>2026-04-18T13:22:15.143Z</time></trkpt><trkpt lat="45.797398" lon="11.432578"><ele>776.0</ele><time>2026-04-18T13:22:16.144Z</time></trkpt><trkpt lat="45.7973812" lon="11.432852"><ele>776.0</ele><time>2026-04-18T13:22:17.144Z</time></trkpt><trkpt lat="45.7973671" lon="11.4331309"><ele>776.0</ele><time>2026-04-18T13:22:18.143Z</time></trkpt><trkpt lat="45.7973396" lon="11.4334177"><ele>779.6666666666667</ele><time>2026-04-18T13:22:19.143Z</time></trkpt><trkpt lat="45.7973065" lon="11.4336981"><ele>783.3333333333333</ele><time>2026-04-18T13:22:20.143Z</time></trkpt><trkpt lat="45.7972673" lon="11.4339753"><ele>787.0</ele><time>2026-04-18T13:22:21.144Z</time></trkpt><trkpt lat="45.7972282" lon="11.4342515"><ele>789.3333333333333</ele><time>2026-04-18T13:22:22.142Z</time></trkpt><trkpt lat="45.7971863" lon="11.4345292"><ele>791.6666666666667</ele><time>2026-04-18T13:22:23.142Z</time></trkpt><trkpt lat="45.797145" lon="11.434809"><ele>794.0</ele><time>2026-04-18T13:22:24.144Z</time></trkpt><trkpt lat="45.7971037" lon="11.4350918"><ele>795.3333333333334</ele><time>2026-04-18T13:22:25.142Z</time></trkpt><trkpt lat="45.7970621" lon="11.4353763"><ele>796.6666666666667</ele><time>2026-04-18T13:22:26.143Z</time></trkpt><trkpt lat="45.7970095" lon="11.4356561"><ele>798.0</ele><time>2026-04-18T13:22:27.142Z</time></trkpt><trkpt lat="45.7969449" lon="11.4359309"><ele>800.6666666666667</ele><time>2026-04-18T13:22:28.142Z</time></trkpt><trkpt lat="45.7968733" lon="11.4361951"><ele>803.3333333333334</ele><time>2026-04-18T13:22:29.143Z</time></trkpt><trkpt lat="45.7968021" lon="11.4364167"><ele>806.0</ele><time>2026-04-18T13:22:30.144Z</time></trkpt><trkpt lat="45.7967314" lon="11.4365875"><ele>808.4</ele><time>2026-04-18T13:22:31.142Z</time></trkpt><trkpt lat="45.796677" lon="11.4367268"><ele>810.8</ele><time>2026-04-18T13:22:32.144Z</time></trkpt><trkpt lat="45.7966512" lon="11.4368596"><ele>813.1999999999999</ele><time>2026-04-18T13:22:33.143Z</time></trkpt><trkpt lat="45.7966381" lon="11.436977"><ele>815.5999999999999</ele><time>2026-04-18T13:22:34.142Z</time></trkpt><trkpt lat="45.7967133" lon="11.437101"><ele>818.0</ele><time>2026-04-18T13:22:36.143Z</time></trkpt><trkpt lat="45.7968832" lon="11.4370921"><ele>818.0</ele><time>2026-04-18T13:22:37.142Z</time></trkpt><trkpt lat="45.7969313" lon="11.4369716"><ele>818.0</ele><time>2026-04-18T13:22:38.144Z</time></trkpt><trkpt lat="45.7969574" lon="11.4366882"><ele>818.0</ele><time>2026-04-18T13:22:39.143Z</time></trkpt><trkpt lat="45.7970119" lon="11.4365183"><ele>818.0</ele><time>2026-04-18T13:22:40.144Z</time></trkpt><trkpt lat="45.7970756" lon="11.4363282"><ele>814.0</ele><time>2026-04-18T13:22:41.143Z</time></trkpt><trkpt lat="45.797141" lon="11.436139"><ele>810.0</ele><time>2026-04-18T13:22:42.144Z</time></trkpt><trkpt lat="45.7972031" lon="11.4359344"><ele>806.0</ele><time>2026-04-18T13:22:43.143Z</time></trkpt><trkpt lat="45.7972688" lon="11.4357208"><ele>806.0</ele><time>2026-04-18T13:22:44.144Z</time></trkpt><trkpt lat="45.797338" lon="11.4354968"><ele>806.0</ele><time>2026-04-18T13:22:45.143Z</time></trkpt><trkpt lat="45.797408" lon="11.435268"><ele>806.0</ele><time>2026-04-18T13:22:46.142Z</time></trkpt><trkpt lat="45.797482" lon="11.4350278"><ele>803.3333333333334</ele><time>2026-04-18T13:22:47.143Z</time></trkpt><trkpt lat="45.7975564" lon="11.4347814"><ele>800.6666666666667</ele><time>2026-04-18T13:22:48.143Z</time></trkpt><trkpt lat="45.7976322" lon="11.4345384"><ele>798.0</ele><time>2026-04-18T13:22:49.143Z</time></trkpt><trkpt lat="45.7977012" lon="11.4342959"><ele>808.6666666666667</ele><time>2026-04-18T13:22:50.143Z</time></trkpt><trkpt lat="45.7977704" lon="11.4340493"><ele>819.3333333333334</ele><time>2026-04-18T13:22:51.142Z</time></trkpt><trkpt lat="45.7978287" lon="11.4337912"><ele>830.0</ele><time>2026-04-18T13:22:52.144Z</time></trkpt><trkpt lat="45.7978835" lon="11.4335272"><ele>830.0</ele><time>2026-04-18T13:22:53.143Z</time></trkpt><trkpt lat="45.7979411" lon="11.4332611"><ele>830.0</ele><time>2026-04-18T13:22:54.143Z</time></trkpt><trkpt lat="45.7979983" lon="11.432993"><ele>830.0</ele><time>2026-04-18T13:22:55.143Z</time></trkpt><trkpt lat="45.7980743" lon="11.4327471"><ele>827.0</ele><time>2026-04-18T13:22:56.143Z</time></trkpt><trkpt lat="45.7981689" lon="11.4325075"><ele>824.0</ele><time>2026-04-18T13:22:57.144Z</time></trkpt><trkpt lat="45.7982738" lon="11.4322645"><ele>821.0</ele><time>2026-04-18T13:22:58.143Z</time></trkpt><trkpt lat="45.7983792" lon="11.4320251"><ele>816.6666666666667</ele><time>2026-04-18T13:22:59.143Z</time></trkpt><trkpt lat="45.7984796" lon="11.431786"><ele>812.3333333333333</ele><time>2026-04-18T13:23:00.144Z</time></trkpt><trkpt lat="45.7985569" lon="11.4315448"><ele>808.0</ele><time>2026-04-18T13:23:01.144Z</time></trkpt><trkpt lat="45.7985991" lon="11.4312969"><ele>819.6666666666666</ele><time>2026-04-18T13:23:02.144Z</time></trkpt><trkpt lat="45.7986253" lon="11.4310616"><ele>831.3333333333333</ele><time>2026-04-18T13:23:03.143Z</time></trkpt><trkpt lat="45.7986589" lon="11.4308494"><ele>843.0</ele><time>2026-04-18T13:23:04.142Z</time></trkpt><trkpt lat="45.7987196" lon="11.4306456"><ele>838.6666666666667</ele><time>2026-04-18T13:23:05.142Z</time></trkpt><trkpt lat="45.7988002" lon="11.4304493"><ele>834.3333333333334</ele><time>2026-04-18T13:23:06.143Z</time></trkpt><trkpt lat="45.7988959" lon="11.430251"><ele>830.0</ele><time>2026-04-18T13:23:07.143Z</time></trkpt><trkpt lat="45.798987" lon="11.4300391"><ele>830.0</ele><time>2026-04-18T13:23:08.143Z</time></trkpt><trkpt lat="45.7990811" lon="11.4298203"><ele>830.0</ele><time>2026-04-18T13:23:09.143Z</time></trkpt><trkpt lat="45.7991659" lon="11.4295958"><ele>830.0</ele><time>2026-04-18T13:23:10.143Z</time></trkpt><trkpt lat="45.7992398" lon="11.4293679"><ele>827.6666666666667</ele><time>2026-04-18T13:23:11.144Z</time></trkpt><trkpt lat="45.7993113" lon="11.4291353"><ele>825.3333333333333</ele><time>2026-04-18T13:23:12.143Z</time></trkpt><trkpt lat="45.7993819" lon="11.4289102"><ele>823.0</ele><time>2026-04-18T13:23:13.144Z</time></trkpt><trkpt lat="45.799441" lon="11.4286823"><ele>835.3333333333333</ele><time>2026-04-18T13:23:14.143Z</time></trkpt><trkpt lat="45.7994833" lon="11.4284498"><ele>847.6666666666667</ele><time>2026-04-18T13:23:15.143Z</time></trkpt><trkpt lat="45.7995068" lon="11.4282168"><ele>860.0</ele><time>2026-04-18T13:23:16.143Z</time></trkpt><trkpt lat="45.7995134" lon="11.4279837"><ele>857.5</ele><time>2026-04-18T13:23:17.143Z</time></trkpt><trkpt lat="45.7995229" lon="11.4277829"><ele>855.0</ele><time>2026-04-18T13:23:18.144Z</time></trkpt><trkpt lat="45.7995602" lon="11.4276152"><ele>852.5</ele><time>2026-04-18T13:23:19.144Z</time></trkpt><trkpt lat="45.7996192" lon="11.4274585"><ele>850.0</ele><time>2026-04-18T13:23:20.143Z</time></trkpt><trkpt lat="45.7997148" lon="11.4273212"><ele>850.0</ele><time>2026-04-18T13:23:21.144Z</time></trkpt><trkpt lat="45.7998291" lon="11.4271819"><ele>850.0</ele><time>2026-04-18T13:23:22.143Z</time></trkpt><trkpt lat="45.799937" lon="11.4270195"><ele>850.0</ele><time>2026-04-18T13:23:23.142Z</time></trkpt><trkpt lat="45.8000127" lon="11.4268291"><ele>851.6666666666666</ele><time>2026-04-18T13:23:24.144Z</time></trkpt><trkpt lat="45.8000676" lon="11.4265925"><ele>853.3333333333333</ele><time>2026-04-18T13:23:25.143Z</time></trkpt><trkpt lat="45.8001339" lon="11.4263796"><ele>855.0</ele><time>2026-04-18T13:23:26.142Z</time></trkpt><trkpt lat="45.8002155" lon="11.4262156"><ele>855.0</ele><time>2026-04-18T13:23:27.143Z</time></trkpt><trkpt lat="45.8003194" lon="11.4260961"><ele>855.0</ele><time>2026-04-18T13:23:28.143Z</time></trkpt><trkpt lat="45.8004523" lon="11.4260139"><ele>855.0</ele><time>2026-04-18T13:23:29.143Z</time></trkpt><trkpt lat="45.8005958" lon="11.4259364"><ele>855.0</ele><time>2026-04-18T13:23:30.143Z</time></trkpt><trkpt lat="45.8007032" lon="11.4258155"><ele>855.0</ele><time>2026-04-18T13:23:31.144Z</time></trkpt><trkpt lat="45.800789" lon="11.4256468"><ele>855.0</ele><time>2026-04-18T13:23:32.143Z</time></trkpt><trkpt lat="45.8008431" lon="11.4254424"><ele>855.0</ele><time>2026-04-18T13:23:33.144Z</time></trkpt><trkpt lat="45.8008813" lon="11.4252096"><ele>859.0</ele><time>2026-04-18T13:23:34.143Z</time></trkpt><trkpt lat="45.8009354" lon="11.4250044"><ele>863.0</ele><time>2026-04-18T13:23:35.142Z</time></trkpt><trkpt lat="45.8010137" lon="11.4248439"><ele>867.0</ele><time>2026-04-18T13:23:36.143Z</time></trkpt><trkpt lat="45.8011232" lon="11.4247025"><ele>871.0</ele><time>2026-04-18T13:23:37.142Z</time></trkpt><trkpt lat="45.8012396" lon="11.4245708"><ele>871.0</ele><time>2026-04-18T13:23:38.144Z</time></trkpt><trkpt lat="45.8013314" lon="11.4244351"><ele>871.0</ele><time>2026-04-18T13:23:39.144Z</time></trkpt><trkpt lat="45.8013918" lon="11.4242645"><ele>871.0</ele><time>2026-04-18T13:23:40.142Z</time></trkpt><trkpt lat="45.801429" lon="11.4240924"><ele>871.0</ele><time>2026-04-18T13:23:41.143Z</time></trkpt><trkpt lat="45.8014351" lon="11.4239155"><ele>870.25</ele><time>2026-04-18T13:23:42.142Z</time></trkpt><trkpt lat="45.8014202" lon="11.4237347"><ele>869.5</ele><time>2026-04-18T13:23:43.142Z</time></trkpt><trkpt lat="45.8013898" lon="11.4235694"><ele>868.75</ele><time>2026-04-18T13:23:44.144Z</time></trkpt><trkpt lat="45.8013622" lon="11.4234135"><ele>868.0</ele><time>2026-04-18T13:23:45.142Z</time></trkpt><trkpt lat="45.8013423" lon="11.4232504"><ele>868.0</ele><time>2026-04-18T13:23:46.143Z</time></trkpt><trkpt lat="45.8013416" lon="11.4230731"><ele>868.0</ele><time>2026-04-18T13:23:47.143Z</time></trkpt><trkpt lat="45.8013685" lon="11.4228964"><ele>868.0</ele><time>2026-04-18T13:23:48.144Z</time></trkpt><trkpt lat="45.801427" lon="11.4227325"><ele>868.0</ele><time>2026-04-18T13:23:49.143Z</time></trkpt><trkpt lat="45.8015157" lon="11.4226063"><ele>867.5</ele><time>2026-04-18T13:23:50.143Z</time></trkpt><trkpt lat="45.8016286" lon="11.4225192"><ele>867.0</ele><time>2026-04-18T13:23:51.144Z</time></trkpt><trkpt lat="45.8017579" lon="11.4224553"><ele>866.5</ele><time>2026-04-18T13:23:52.143Z</time></trkpt><trkpt lat="45.8018925" lon="11.4224028"><ele>866.0</ele><time>2026-04-18T13:23:53.144Z</time></trkpt><trkpt lat="45.8020347" lon="11.4223628"><ele>866.0</ele><time>2026-04-18T13:23:54.144Z</time></trkpt><trkpt lat="45.8021752" lon="11.4223509"><ele>866.0</ele><time>2026-04-18T13:23:55.144Z</time></trkpt><trkpt lat="45.8023275" lon="11.4223641"><ele>866.0</ele><time>2026-04-18T13:23:56.143Z</time></trkpt><trkpt lat="45.8024841" lon="11.4224053"><ele>866.0</ele><time>2026-04-18T13:23:57.142Z</time></trkpt><trkpt lat="45.8026437" lon="11.4224588"><ele>866.0</ele><time>2026-04-18T13:23:58.143Z</time></trkpt><trkpt lat="45.802811" lon="11.4225042"><ele>866.0</ele><time>2026-04-18T13:23:59.143Z</time></trkpt><trkpt lat="45.8029962" lon="11.4225515"><ele>864.3333333333334</ele><time>2026-04-18T13:24:00.143Z</time></trkpt><trkpt lat="45.8031956" lon="11.4226078"><ele>862.6666666666667</ele><time>2026-04-18T13:24:01.142Z</time></trkpt><trkpt lat="45.8034089" lon="11.4226716"><ele>861.0</ele><time>2026-04-18T13:24:02.143Z</time></trkpt><trkpt lat="45.8036353" lon="11.4227432"><ele>859.5</ele><time>2026-04-18T13:24:03.142Z</time></trkpt><trkpt lat="45.8038685" lon="11.4228175"><ele>858.0</ele><time>2026-04-18T13:24:04.144Z</time></trkpt><trkpt lat="45.8040985" lon="11.4228722"><ele>860.0</ele><time>2026-04-18T13:24:05.144Z</time></trkpt><trkpt lat="45.8043348" lon="11.4228974"><ele>862.0</ele><time>2026-04-18T13:24:06.144Z</time></trkpt><trkpt lat="45.8045717" lon="11.4229241"><ele>862.0</ele><time>2026-04-18T13:24:07.143Z</time></trkpt><trkpt lat="45.804802" lon="11.4229339"><ele>862.0</ele><time>2026-04-18T13:24:08.143Z</time></trkpt><trkpt lat="45.8050198" lon="11.4229545"><ele>862.0</ele><time>2026-04-18T13:24:09.143Z</time></trkpt><trkpt lat="45.8052242" lon="11.4229741"><ele>870.0</ele><time>2026-04-18T13:24:10.142Z</time></trkpt><trkpt lat="45.8054053" lon="11.4229894"><ele>878.0</ele><time>2026-04-18T13:24:11.143Z</time></trkpt><trkpt lat="45.8055798" lon="11.4230259"><ele>886.0</ele><time>2026-04-18T13:24:12.143Z</time></trkpt><trkpt lat="45.8057384" lon="11.4231143"><ele>886.0</ele><time>2026-04-18T13:24:13.143Z</time></trkpt><trkpt lat="45.8058941" lon="11.4232057"><ele>886.0</ele><time>2026-04-18T13:24:14.144Z</time></trkpt><trkpt lat="45.8060495" lon="11.4233123"><ele>886.0</ele><time>2026-04-18T13:24:15.144Z</time></trkpt><trkpt lat="45.8062115" lon="11.4234257"><ele>881.3333333333333</ele><time>2026-04-18T13:24:16.144Z</time></trkpt><trkpt lat="45.806316" lon="11.4236228"><ele>876.6666666666667</ele><time>2026-04-18T13:24:17.144Z</time></trkpt><trkpt lat="45.8064582" lon="11.4237539"><ele>872.0</ele><time>2026-04-18T13:24:18.143Z</time></trkpt><trkpt lat="45.8065892" lon="11.4238803"><ele>879.3333333333334</ele><time>2026-04-18T13:24:19.143Z</time></trkpt><trkpt lat="45.8067457" lon="11.4239722"><ele>886.6666666666667</ele><time>2026-04-18T13:24:20.143Z</time></trkpt><trkpt lat="45.8069126" lon="11.4240389"><ele>894.0</ele><time>2026-04-18T13:24:21.143Z</time></trkpt><trkpt lat="45.8070642" lon="11.4240806"><ele>894.0</ele><time>2026-04-18T13:24:22.143Z</time></trkpt><trkpt lat="45.8072126" lon="11.4240761"><ele>894.0</ele><time>2026-04-18T13:24:23.144Z</time></trkpt><trkpt lat="45.807369" lon="11.4241114"><ele>894.0</ele><time>2026-04-18T13:24:24.144Z</time></trkpt><trkpt lat="45.8075085" lon="11.424168"><ele>892.6666666666667</ele><time>2026-04-18T13:24:25.143Z</time></trkpt><trkpt lat="45.8076639" lon="11.4242402"><ele>891.3333333333334</ele><time>2026-04-18T13:24:26.143Z</time></trkpt><trkpt lat="45.8078142" lon="11.4243744"><ele>890.0</ele><time>2026-04-18T13:24:27.143Z</time></trkpt><trkpt lat="45.807946" lon="11.4245074"><ele>890.0</ele><time>2026-04-18T13:24:28.143Z</time></trkpt><trkpt lat="45.8080996" lon="11.4246352"><ele>890.0</ele><time>2026-04-18T13:24:29.143Z</time></trkpt><trkpt lat="45.8082054" lon="11.4247937"><ele>890.0</ele><time>2026-04-18T13:24:30.143Z</time></trkpt><trkpt lat="45.8083666" lon="11.4248325"><ele>895.0</ele><time>2026-04-18T13:24:31.144Z</time></trkpt><trkpt lat="45.8085185" lon="11.4249601"><ele>900.0</ele><time>2026-04-18T13:24:32.143Z</time></trkpt><trkpt lat="45.8087471" lon="11.4249521"><ele>905.0</ele><time>2026-04-18T13:24:33.142Z</time></trkpt><trkpt lat="45.8089476" lon="11.424998"><ele>905.0</ele><time>2026-04-18T13:24:34.144Z</time></trkpt><trkpt lat="45.8091535" lon="11.4250672"><ele>905.0</ele><time>2026-04-18T13:24:35.144Z</time></trkpt><trkpt lat="45.8093382" lon="11.4251473"><ele>905.0</ele><time>2026-04-18T13:24:36.144Z</time></trkpt><trkpt lat="45.8095383" lon="11.425299"><ele>906.0</ele><time>2026-04-18T13:24:37.144Z</time></trkpt><trkpt lat="45.8096689" lon="11.4254817"><ele>907.0</ele><time>2026-04-18T13:24:38.144Z</time></trkpt><trkpt lat="45.809771" lon="11.4256927"><ele>908.0</ele><time>2026-04-18T13:24:39.143Z</time></trkpt><trkpt lat="45.8099158" lon="11.4258623"><ele>908.0</ele><time>2026-04-18T13:24:40.144Z</time></trkpt><trkpt lat="45.8100608" lon="11.4260244"><ele>908.0</ele><time>2026-04-18T13:24:41.143Z</time></trkpt><trkpt lat="45.8101609" lon="11.4261474"><ele>908.0</ele><time>2026-04-18T13:24:42.144Z</time></trkpt><trkpt lat="45.8103443" lon="11.4262782"><ele>909.0</ele><time>2026-04-18T13:24:43.143Z</time></trkpt><trkpt lat="45.8104963" lon="11.4263261"><ele>910.0</ele><time>2026-04-18T13:24:44.144Z</time></trkpt><trkpt lat="45.8106389" lon="11.4263426"><ele>911.0</ele><time>2026-04-18T13:24:45.143Z</time></trkpt><trkpt lat="45.8107374" lon="11.4262896"><ele>912.0</ele><time>2026-04-18T13:24:46.143Z</time></trkpt><trkpt lat="45.8108361" lon="11.4263001"><ele>915.0</ele><time>2026-04-18T13:24:47.144Z</time></trkpt><trkpt lat="45.8109387" lon="11.4263244"><ele>918.0</ele><time>2026-04-18T13:24:48.143Z</time></trkpt><trkpt lat="45.8110403" lon="11.4263496"><ele>921.0</ele><time>2026-04-18T13:24:49.142Z</time></trkpt><trkpt lat="45.8111428" lon="11.4263954"><ele>924.0</ele><time>2026-04-18T13:24:50.144Z</time></trkpt><trkpt lat="45.8112514" lon="11.4264576"><ele>927.0</ele><time>2026-04-18T13:24:51.142Z</time></trkpt><trkpt lat="45.8113609" lon="11.426532"><ele>927.0</ele><time>2026-04-18T13:24:52.143Z</time></trkpt><trkpt lat="45.8114717" lon="11.4266124"><ele>927.0</ele><time>2026-04-18T13:24:53.143Z</time></trkpt><trkpt lat="45.811588" lon="11.4267045"><ele>927.0</ele><time>2026-04-18T13:24:54.144Z</time></trkpt><trkpt lat="45.8117074" lon="11.4267976"><ele>927.0</ele><time>2026-04-18T13:24:55.142Z</time></trkpt><trkpt lat="45.8118319" lon="11.4268959"><ele>929.0</ele><time>2026-04-18T13:24:56.143Z</time></trkpt><trkpt lat="45.8119591" lon="11.4269933"><ele>931.0</ele><time>2026-04-18T13:24:57.144Z</time></trkpt><trkpt lat="45.8120833" lon="11.4270879"><ele>933.0</ele><time>2026-04-18T13:24:58.144Z</time></trkpt><trkpt lat="45.8121908" lon="11.4271769"><ele>935.0</ele><time>2026-04-18T13:24:59.143Z</time></trkpt><trkpt lat="45.8122988" lon="11.4272243"><ele>935.0000000000001</ele><time>2026-04-18T13:25:00.144Z</time></trkpt><trkpt lat="45.8123859" lon="11.427262"><ele>935.0</ele><time>2026-04-18T13:25:01.144Z</time></trkpt><trkpt lat="45.8123457" lon="11.4271542"><ele>935.0</ele><time>2026-04-18T13:25:03.143Z</time></trkpt><trkpt lat="45.8123858" lon="11.4270836"><ele>935.0</ele><time>2026-04-18T13:25:05.143Z</time></trkpt><trkpt lat="45.8124687" lon="11.4270704"><ele>935.0000000000001</ele><time>2026-04-18T13:25:08.143Z</time></trkpt><trkpt lat="45.8125679" lon="11.427114"><ele>935.0</ele><time>2026-04-18T13:25:10.143Z</time></trkpt><trkpt lat="45.8126679" lon="11.4271678"><ele>936.8</ele><time>2026-04-18T13:25:12.143Z</time></trkpt><trkpt lat="45.8127627" lon="11.4272405"><ele>938.6</ele><time>2026-04-18T13:25:14.144Z</time></trkpt><trkpt lat="45.812871" lon="11.4273388"><ele>940.4000000000001</ele><time>2026-04-18T13:25:16.144Z</time></trkpt><trkpt lat="45.8129294" lon="11.4274033"><ele>942.2</ele><time>2026-04-18T13:25:17.143Z</time></trkpt><trkpt lat="45.8129884" lon="11.4274734"><ele>944.0</ele><time>2026-04-18T13:25:18.143Z</time></trkpt><trkpt lat="45.8130581" lon="11.4275442"><ele>944.0</ele><time>2026-04-18T13:25:19.144Z</time></trkpt><trkpt lat="45.8131284" lon="11.4276288"><ele>944.0000000000001</ele><time>2026-04-18T13:25:20.144Z</time></trkpt><trkpt lat="45.8132048" lon="11.4277132"><ele>944.0000000000001</ele><time>2026-04-18T13:25:21.143Z</time></trkpt><trkpt lat="45.8132843" lon="11.4277968"><ele>944.0</ele><time>2026-04-18T13:25:22.143Z</time></trkpt><trkpt lat="45.813365" lon="11.4278769"><ele>944.0</ele><time>2026-04-18T13:25:23.143Z</time></trkpt><trkpt lat="45.8134451" lon="11.4279595"><ele>944.6</ele><time>2026-04-18T13:25:24.143Z</time></trkpt><trkpt lat="45.8135218" lon="11.4280305"><ele>945.2</ele><time>2026-04-18T13:25:25.144Z</time></trkpt><trkpt lat="45.8135991" lon="11.4281012"><ele>945.8000000000001</ele><time>2026-04-18T13:25:26.144Z</time></trkpt><trkpt lat="45.8136777" lon="11.4281794"><ele>946.4000000000001</ele><time>2026-04-18T13:25:27.144Z</time></trkpt><trkpt lat="45.8137527" lon="11.4282501"><ele>947.0</ele><time>2026-04-18T13:25:28.144Z</time></trkpt><trkpt lat="45.8138263" lon="11.4283113"><ele>947.0000000000001</ele><time>2026-04-18T13:25:29.142Z</time></trkpt><trkpt lat="45.8138967" lon="11.4283561"><ele>947.0</ele><time>2026-04-18T13:25:30.143Z</time></trkpt><trkpt lat="45.8139671" lon="11.4284004"><ele>947.0</ele><time>2026-04-18T13:25:31.143Z</time></trkpt><trkpt lat="45.8140366" lon="11.4284433"><ele>947.0</ele><time>2026-04-18T13:25:32.144Z</time></trkpt><trkpt lat="45.8141126" lon="11.4284701"><ele>947.0000000000001</ele><time>2026-04-18T13:25:33.143Z</time></trkpt><trkpt lat="45.8141831" lon="11.4285051"><ele>947.0</ele><time>2026-04-18T13:25:34.143Z</time></trkpt><trkpt lat="45.8142548" lon="11.4285338"><ele>947.0000000000001</ele><time>2026-04-18T13:25:35.144Z</time></trkpt><trkpt lat="45.8143075" lon="11.4286106"><ele>947.0</ele><time>2026-04-18T13:25:36.143Z</time></trkpt><trkpt lat="45.8143721" lon="11.4286487"><ele>947.0</ele><time>2026-04-18T13:25:37.142Z</time></trkpt><trkpt lat="45.8144252" lon="11.4287127"><ele>947.0</ele><time>2026-04-18T13:25:38.144Z</time></trkpt><trkpt lat="45.8144803" lon="11.4287791"><ele>947.0000000000001</ele><time>2026-04-18T13:25:39.143Z</time></trkpt><trkpt lat="45.8145314" lon="11.4288551"><ele>947.0</ele><time>2026-04-18T13:25:40.144Z</time></trkpt><trkpt lat="45.8145949" lon="11.4289473"><ele>948.75</ele><time>2026-04-18T13:25:41.143Z</time></trkpt><trkpt lat="45.8146773" lon="11.4290663"><ele>950.5</ele><time>2026-04-18T13:25:42.143Z</time></trkpt><trkpt lat="45.8147732" lon="11.4291764"><ele>952.25</ele><time>2026-04-18T13:25:43.143Z</time></trkpt><trkpt lat="45.8148962" lon="11.4293178"><ele>954.0</ele><time>2026-04-18T13:25:44.144Z</time></trkpt><trkpt lat="45.8150007" lon="11.4294584"><ele>954.0</ele><time>2026-04-18T13:25:45.144Z</time></trkpt><trkpt lat="45.8151021" lon="11.4296243"><ele>954.0</ele><time>2026-04-18T13:25:46.143Z</time></trkpt><trkpt lat="45.8151902" lon="11.4298142"><ele>954.0</ele><time>2026-04-18T13:25:47.143Z</time></trkpt><trkpt lat="45.8152735" lon="11.4300188"><ele>960.3333333333333</ele><time>2026-04-18T13:25:48.144Z</time></trkpt><trkpt lat="45.8153334" lon="11.4302412"><ele>966.6666666666666</ele><time>2026-04-18T13:25:49.144Z</time></trkpt><trkpt lat="45.8153944" lon="11.4304679"><ele>973.0</ele><time>2026-04-18T13:25:50.143Z</time></trkpt><trkpt lat="45.8154609" lon="11.430696"><ele>973.0</ele><time>2026-04-18T13:25:51.142Z</time></trkpt><trkpt lat="45.8155233" lon="11.4309247"><ele>973.0</ele><time>2026-04-18T13:25:52.144Z</time></trkpt><trkpt lat="45.8155899" lon="11.4311568"><ele>973.0</ele><time>2026-04-18T13:25:53.143Z</time></trkpt><trkpt lat="45.8156531" lon="11.4313912"><ele>973.3333333333333</ele><time>2026-04-18T13:25:54.144Z</time></trkpt><trkpt lat="45.8157234" lon="11.4316279"><ele>973.6666666666667</ele><time>2026-04-18T13:25:55.143Z</time></trkpt><trkpt lat="45.8157923" lon="11.4318661"><ele>974.0</ele><time>2026-04-18T13:25:56.144Z</time></trkpt><trkpt lat="45.8158629" lon="11.4320933"><ele>973.0</ele><time>2026-04-18T13:25:57.143Z</time></trkpt><trkpt lat="45.8159454" lon="11.4323325"><ele>972.0</ele><time>2026-04-18T13:25:58.144Z</time></trkpt><trkpt lat="45.8160181" lon="11.4325689"><ele>971.0</ele><time>2026-04-18T13:25:59.144Z</time></trkpt><trkpt lat="45.8161084" lon="11.4327974"><ele>976.0</ele><time>2026-04-18T13:26:00.143Z</time></trkpt><trkpt lat="45.8162117" lon="11.4330279"><ele>981.0</ele><time>2026-04-18T13:26:01.143Z</time></trkpt><trkpt lat="45.8163204" lon="11.4332406"><ele>986.0</ele><time>2026-04-18T13:26:02.143Z</time></trkpt><trkpt lat="45.8164398" lon="11.4334436"><ele>986.0</ele><time>2026-04-18T13:26:03.143Z</time></trkpt><trkpt lat="45.8165532" lon="11.4336505"><ele>986.0</ele><time>2026-04-18T13:26:04.143Z</time></trkpt><trkpt lat="45.8166667" lon="11.4338499"><ele>986.0</ele><time>2026-04-18T13:26:05.142Z</time></trkpt><trkpt lat="45.8167806" lon="11.4340759"><ele>985.0</ele><time>2026-04-18T13:26:06.143Z</time></trkpt><trkpt lat="45.8168941" lon="11.4342852"><ele>984.0</ele><time>2026-04-18T13:26:07.142Z</time></trkpt><trkpt lat="45.8170126" lon="11.4344947"><ele>983.0</ele><time>2026-04-18T13:26:08.143Z</time></trkpt><trkpt lat="45.817138" lon="11.4347035"><ele>983.0</ele><time>2026-04-18T13:26:09.143Z</time></trkpt><trkpt lat="45.8172653" lon="11.434912"><ele>983.0</ele><time>2026-04-18T13:26:10.143Z</time></trkpt><trkpt lat="45.817414" lon="11.4350877"><ele>983.0</ele><time>2026-04-18T13:26:11.142Z</time></trkpt><trkpt lat="45.8175592" lon="11.4352418"><ele>982.3333333333334</ele><time>2026-04-18T13:26:12.142Z</time></trkpt><trkpt lat="45.8177386" lon="11.435389"><ele>981.6666666666667</ele><time>2026-04-18T13:26:13.143Z</time></trkpt><trkpt lat="45.8179155" lon="11.4354954"><ele>981.0</ele><time>2026-04-18T13:26:14.142Z</time></trkpt><trkpt lat="45.818089" lon="11.4356156"><ele>981.0</ele><time>2026-04-18T13:26:15.142Z</time></trkpt><trkpt lat="45.818269" lon="11.4357311"><ele>981.0</ele><time>2026-04-18T13:26:16.143Z</time></trkpt><trkpt lat="45.8184562" lon="11.4358295"><ele>981.0</ele><time>2026-04-18T13:26:17.141Z</time></trkpt><trkpt lat="45.818633" lon="11.4359421"><ele>984.6666666666667</ele><time>2026-04-18T13:26:18.142Z</time></trkpt><trkpt lat="45.818813" lon="11.4360487"><ele>988.3333333333334</ele><time>2026-04-18T13:26:19.142Z</time></trkpt><trkpt lat="45.8189904" lon="11.4361648"><ele>992.0</ele><time>2026-04-18T13:26:20.143Z</time></trkpt><trkpt lat="45.8191633" lon="11.4362914"><ele>994.3333333333334</ele><time>2026-04-18T13:26:21.143Z</time></trkpt><trkpt lat="45.8193281" lon="11.4364348"><ele>996.6666666666667</ele><time>2026-04-18T13:26:22.142Z</time></trkpt><trkpt lat="45.8194847" lon="11.4365952"><ele>999.0</ele><time>2026-04-18T13:26:23.142Z</time></trkpt><trkpt lat="45.8196406" lon="11.4367581"><ele>999.0</ele><time>2026-04-18T13:26:24.142Z</time></trkpt><trkpt lat="45.8198029" lon="11.4369267"><ele>999.0</ele><time>2026-04-18T13:26:25.142Z</time></trkpt><trkpt lat="45.8199624" lon="11.4370891"><ele>999.0</ele><time>2026-04-18T13:26:26.142Z</time></trkpt><trkpt lat="45.8201213" lon="11.4372564"><ele>1000.0</ele><time>2026-04-18T13:26:27.141Z</time></trkpt><trkpt lat="45.8202774" lon="11.4374149"><ele>1001.0</ele><time>2026-04-18T13:26:28.143Z</time></trkpt><trkpt lat="45.8204356" lon="11.4375747"><ele>1002.0</ele><time>2026-04-18T13:26:29.143Z</time></trkpt><trkpt lat="45.8206001" lon="11.4377336"><ele>1002.0</ele><time>2026-04-18T13:26:30.141Z</time></trkpt><trkpt lat="45.8207617" lon="11.4378875"><ele>1002.0</ele><time>2026-04-18T13:26:31.142Z</time></trkpt><trkpt lat="45.8209188" lon="11.4380326"><ele>1002.0</ele><time>2026-04-18T13:26:32.142Z</time></trkpt><trkpt lat="45.821071" lon="11.4381619"><ele>1000.6666666666667</ele><time>2026-04-18T13:26:33.143Z</time></trkpt><trkpt lat="45.8212153" lon="11.4382698"><ele>999.3333333333334</ele><time>2026-04-18T13:26:34.142Z</time></trkpt><trkpt lat="45.8213507" lon="11.4383597"><ele>998.0</ele><time>2026-04-18T13:26:35.142Z</time></trkpt><trkpt lat="45.8214841" lon="11.4384383"><ele>998.0</ele><time>2026-04-18T13:26:36.143Z</time></trkpt><trkpt lat="45.8216174" lon="11.438514"><ele>998.0</ele><time>2026-04-18T13:26:37.142Z</time></trkpt><trkpt lat="45.8217574" lon="11.4385783"><ele>998.0</ele><time>2026-04-18T13:26:38.142Z</time></trkpt><trkpt lat="45.8218975" lon="11.4386374"><ele>998.0</ele><time>2026-04-18T13:26:39.141Z</time></trkpt><trkpt lat="45.8220417" lon="11.4386707"><ele>999.5</ele><time>2026-04-18T13:26:40.142Z</time></trkpt><trkpt lat="45.8221872" lon="11.4386949"><ele>1001.0</ele><time>2026-04-18T13:26:41.142Z</time></trkpt><trkpt lat="45.822339" lon="11.4386836"><ele>1002.5</ele><time>2026-04-18T13:26:42.142Z</time></trkpt><trkpt lat="45.8224821" lon="11.4386645"><ele>1004.0</ele><time>2026-04-18T13:26:43.143Z</time></trkpt><trkpt lat="45.8226289" lon="11.438615"><ele>1004.3333333333334</ele><time>2026-04-18T13:26:44.143Z</time></trkpt><trkpt lat="45.8227763" lon="11.4385581"><ele>1004.6666666666667</ele><time>2026-04-18T13:26:45.143Z</time></trkpt><trkpt lat="45.8229148" lon="11.4384986"><ele>1005.0</ele><time>2026-04-18T13:26:46.142Z</time></trkpt><trkpt lat="45.8230637" lon="11.4384172"><ele>1005.0</ele><time>2026-04-18T13:26:47.141Z</time></trkpt><trkpt lat="45.823215" lon="11.4383348"><ele>1005.0</ele><time>2026-04-18T13:26:48.141Z</time></trkpt><trkpt lat="45.8233649" lon="11.4382587"><ele>1005.0</ele><time>2026-04-18T13:26:49.141Z</time></trkpt><trkpt lat="45.8235229" lon="11.4381788"><ele>1006.6666666666667</ele><time>2026-04-18T13:26:50.142Z</time></trkpt><trkpt lat="45.8236797" lon="11.4381033"><ele>1008.3333333333334</ele><time>2026-04-18T13:26:51.142Z</time></trkpt><trkpt lat="45.8238395" lon="11.4380255"><ele>1010.0</ele><time>2026-04-18T13:26:52.142Z</time></trkpt><trkpt lat="45.8240046" lon="11.4379354"><ele>1011.5</ele><time>2026-04-18T13:26:53.141Z</time></trkpt><trkpt lat="45.8241663" lon="11.4378418"><ele>1013.0</ele><time>2026-04-18T13:26:54.143Z</time></trkpt><trkpt lat="45.8245792" lon="11.4375432"><ele>1013.0</ele><time>2026-04-18T13:26:56.617Z</time></trkpt><trkpt lat="45.8248161" lon="11.4373331"><ele>1013.0</ele><time>2026-04-18T13:26:58.142Z</time></trkpt><trkpt lat="45.8249789" lon="11.4372022"><ele>1014.6666666666667</ele><time>2026-04-18T13:26:59.143Z</time></trkpt><trkpt lat="45.8251568" lon="11.4370794"><ele>1016.3333333333333</ele><time>2026-04-18T13:27:00.142Z</time></trkpt><trkpt lat="45.8253402" lon="11.4369685"><ele>1018.0</ele><time>2026-04-18T13:27:01.142Z</time></trkpt><trkpt lat="45.8255281" lon="11.4368906"><ele>1018.0</ele><time>2026-04-18T13:27:02.142Z</time></trkpt><trkpt lat="45.8257239" lon="11.4368148"><ele>1018.0</ele><time>2026-04-18T13:27:03.142Z</time></trkpt><trkpt lat="45.8259341" lon="11.4368128"><ele>1018.0</ele><time>2026-04-18T13:27:04.142Z</time></trkpt><trkpt lat="45.8261432" lon="11.4367727"><ele>1017.6666666666666</ele><time>2026-04-18T13:27:05.141Z</time></trkpt><trkpt lat="45.8263509" lon="11.4367406"><ele>1017.3333333333333</ele><time>2026-04-18T13:27:06.142Z</time></trkpt><trkpt lat="45.8265663" lon="11.4367128"><ele>1017.0</ele><time>2026-04-18T13:27:07.141Z</time></trkpt><trkpt lat="45.8267826" lon="11.4366872"><ele>1017.6666666666667</ele><time>2026-04-18T13:27:08.141Z</time></trkpt><trkpt lat="45.8269971" lon="11.4366546"><ele>1018.3333333333334</ele><time>2026-04-18T13:27:09.142Z</time></trkpt><trkpt lat="45.8272137" lon="11.4366162"><ele>1019.0</ele><time>2026-04-18T13:27:10.142Z</time></trkpt><trkpt lat="45.8274317" lon="11.4365775"><ele>1018.3333333333334</ele><time>2026-04-18T13:27:11.142Z</time></trkpt><trkpt lat="45.8276469" lon="11.4365362"><ele>1017.6666666666667</ele><time>2026-04-18T13:27:12.142Z</time></trkpt><trkpt lat="45.8278581" lon="11.4364734"><ele>1017.0</ele><time>2026-04-18T13:27:13.142Z</time></trkpt><trkpt lat="45.8280697" lon="11.4364125"><ele>1017.0</ele><time>2026-04-18T13:27:14.143Z</time></trkpt><trkpt lat="45.8282824" lon="11.436336"><ele>1017.0</ele><time>2026-04-18T13:27:15.142Z</time></trkpt><trkpt lat="45.8284901" lon="11.4362674"><ele>1017.0</ele><time>2026-04-18T13:27:16.143Z</time></trkpt><trkpt lat="45.828702" lon="11.4362013"><ele>1020.0</ele><time>2026-04-18T13:27:17.143Z</time></trkpt><trkpt lat="45.8289147" lon="11.4361295"><ele>1023.0</ele><time>2026-04-18T13:27:18.142Z</time></trkpt><trkpt lat="45.8291276" lon="11.4360566"><ele>1026.0</ele><time>2026-04-18T13:27:19.143Z</time></trkpt><trkpt lat="45.8293343" lon="11.4359885"><ele>1026.3333333333333</ele><time>2026-04-18T13:27:20.142Z</time></trkpt><trkpt lat="45.8295304" lon="11.435927"><ele>1026.6666666666665</ele><time>2026-04-18T13:27:21.143Z</time></trkpt><trkpt lat="45.8297325" lon="11.4358511"><ele>1027.0</ele><time>2026-04-18T13:27:22.141Z</time></trkpt><trkpt lat="45.8299307" lon="11.4358055"><ele>1027.0</ele><time>2026-04-18T13:27:23.141Z</time></trkpt><trkpt lat="45.8301262" lon="11.435769"><ele>1027.0</ele><time>2026-04-18T13:27:24.142Z</time></trkpt><trkpt lat="45.8303195" lon="11.4357393"><ele>1027.0</ele><time>2026-04-18T13:27:25.141Z</time></trkpt><trkpt lat="45.8305139" lon="11.4357084"><ele>1028.3333333333333</ele><time>2026-04-18T13:27:26.141Z</time></trkpt><trkpt lat="45.8307052" lon="11.4356757"><ele>1029.6666666666667</ele><time>2026-04-18T13:27:27.143Z</time></trkpt><trkpt lat="45.8308942" lon="11.4356297"><ele>1031.0</ele><time>2026-04-18T13:27:28.143Z</time></trkpt><trkpt lat="45.8310882" lon="11.4355641"><ele>1032.6666666666667</ele><time>2026-04-18T13:27:29.143Z</time></trkpt><trkpt lat="45.8312794" lon="11.4354839"><ele>1034.3333333333333</ele><time>2026-04-18T13:27:30.141Z</time></trkpt><trkpt lat="45.8314812" lon="11.4354054"><ele>1036.0</ele><time>2026-04-18T13:27:31.141Z</time></trkpt><trkpt lat="45.8316897" lon="11.4353367"><ele>1036.3333333333333</ele><time>2026-04-18T13:27:32.142Z</time></trkpt><trkpt lat="45.8318897" lon="11.4352551"><ele>1036.6666666666667</ele><time>2026-04-18T13:27:33.142Z</time></trkpt><trkpt lat="45.8320726" lon="11.435175"><ele>1037.0</ele><time>2026-04-18T13:27:34.142Z</time></trkpt><trkpt lat="45.8322498" lon="11.4350838"><ele>1037.0</ele><time>2026-04-18T13:27:35.142Z</time></trkpt><trkpt lat="45.8324147" lon="11.4349841"><ele>1037.0</ele><time>2026-04-18T13:27:36.141Z</time></trkpt><trkpt lat="45.8325718" lon="11.4348695"><ele>1037.0</ele><time>2026-04-18T13:27:37.142Z</time></trkpt><trkpt lat="45.8327255" lon="11.4347603"><ele>1037.0</ele><time>2026-04-18T13:27:38.142Z</time></trkpt><trkpt lat="45.8328679" lon="11.4346418"><ele>1037.0</ele><time>2026-04-18T13:27:39.143Z</time></trkpt><trkpt lat="45.8329892" lon="11.4345296"><ele>1037.0</ele><time>2026-04-18T13:27:40.142Z</time></trkpt><trkpt lat="45.833097" lon="11.4344226"><ele>1037.0</ele><time>2026-04-18T13:27:41.142Z</time></trkpt><trkpt lat="45.8332011" lon="11.4343065"><ele>1037.25</ele><time>2026-04-18T13:27:42.142Z</time></trkpt><trkpt lat="45.8333012" lon="11.4341882"><ele>1037.5</ele><time>2026-04-18T13:27:43.141Z</time></trkpt><trkpt lat="45.8333932" lon="11.4340799"><ele>1037.75</ele><time>2026-04-18T13:27:44.142Z</time></trkpt><trkpt lat="45.8334802" lon="11.4339778"><ele>1038.0</ele><time>2026-04-18T13:27:45.142Z</time></trkpt><trkpt lat="45.8336506" lon="11.4337681"><ele>1038.0</ele><time>2026-04-18T13:27:47.142Z</time></trkpt><trkpt lat="45.8337419" lon="11.4336679"><ele>1038.0</ele><time>2026-04-18T13:27:48.141Z</time></trkpt><trkpt lat="45.8338291" lon="11.4335634"><ele>1038.0</ele><time>2026-04-18T13:27:49.143Z</time></trkpt><trkpt lat="45.8339233" lon="11.4334665"><ele>1038.0</ele><time>2026-04-18T13:27:50.143Z</time></trkpt><trkpt lat="45.8340202" lon="11.4333703"><ele>1038.0</ele><time>2026-04-18T13:27:51.142Z</time></trkpt><trkpt lat="45.8341293" lon="11.4332825"><ele>1038.0</ele><time>2026-04-18T13:27:52.142Z</time></trkpt><trkpt lat="45.8342446" lon="11.4331979"><ele>1038.0</ele><time>2026-04-18T13:27:53.142Z</time></trkpt><trkpt lat="45.8343683" lon="11.433124"><ele>1038.0</ele><time>2026-04-18T13:27:54.143Z</time></trkpt><trkpt lat="45.8345017" lon="11.4330564"><ele>1039.25</ele><time>2026-04-18T13:27:55.141Z</time></trkpt><trkpt lat="45.8346351" lon="11.4330083"><ele>1040.5</ele><time>2026-04-18T13:27:56.143Z</time></trkpt><trkpt lat="45.8347771" lon="11.4329748"><ele>1041.75</ele><time>2026-04-18T13:27:57.142Z</time></trkpt><trkpt lat="45.8349241" lon="11.4329573"><ele>1043.0</ele><time>2026-04-18T13:27:58.142Z</time></trkpt><trkpt lat="45.8350699" lon="11.4329531"><ele>1043.5</ele><time>2026-04-18T13:27:59.144Z</time></trkpt><trkpt lat="45.8351998" lon="11.4329497"><ele>1044.0</ele><time>2026-04-18T13:28:00.143Z</time></trkpt><trkpt lat="45.8353228" lon="11.4329447"><ele>1044.5</ele><time>2026-04-18T13:28:01.143Z</time></trkpt><trkpt lat="45.8354465" lon="11.4329428"><ele>1045.0</ele><time>2026-04-18T13:28:02.143Z</time></trkpt><trkpt lat="45.8355699" lon="11.4329365"><ele>1045.0</ele><time>2026-04-18T13:28:03.143Z</time></trkpt><trkpt lat="45.8356903" lon="11.4329339"><ele>1045.0</ele><time>2026-04-18T13:28:04.142Z</time></trkpt><trkpt lat="45.8358001" lon="11.43292"><ele>1045.0</ele><time>2026-04-18T13:28:05.142Z</time></trkpt><trkpt lat="45.8359057" lon="11.4328978"><ele>1045.0</ele><time>2026-04-18T13:28:06.142Z</time></trkpt><trkpt lat="45.8360123" lon="11.4328623"><ele>1045.0</ele><time>2026-04-18T13:28:07.142Z</time></trkpt><trkpt lat="45.8361194" lon="11.4328185"><ele>1045.0</ele><time>2026-04-18T13:28:08.142Z</time></trkpt><trkpt lat="45.8362286" lon="11.4327711"><ele>1045.0</ele><time>2026-04-18T13:28:09.142Z</time></trkpt><trkpt lat="45.8363347" lon="11.4327202"><ele>1045.0</ele><time>2026-04-18T13:28:10.143Z</time></trkpt><trkpt lat="45.8364455" lon="11.4326667"><ele>1045.0</ele><time>2026-04-18T13:28:11.142Z</time></trkpt><trkpt lat="45.8365542" lon="11.432616"><ele>1045.0</ele><time>2026-04-18T13:28:12.142Z</time></trkpt><trkpt lat="45.8366537" lon="11.4325694"><ele>1045.0</ele><time>2026-04-18T13:28:13.142Z</time></trkpt><trkpt lat="45.8367487" lon="11.4325211"><ele>1045.0</ele><time>2026-04-18T13:28:14.142Z</time></trkpt><trkpt lat="45.8368456" lon="11.4324763"><ele>1045.0</ele><time>2026-04-18T13:28:15.141Z</time></trkpt><trkpt lat="45.8369423" lon="11.4324288"><ele>1045.0</ele><time>2026-04-18T13:28:16.142Z</time></trkpt><trkpt lat="45.8370422" lon="11.4323806"><ele>1046.2</ele><time>2026-04-18T13:28:17.141Z</time></trkpt><trkpt lat="45.8371429" lon="11.4323378"><ele>1047.4</ele><time>2026-04-18T13:28:18.141Z</time></trkpt><trkpt lat="45.837246" lon="11.432291"><ele>1048.6</ele><time>2026-04-18T13:28:19.143Z</time></trkpt><trkpt lat="45.8373557" lon="11.4322457"><ele>1049.8</ele><time>2026-04-18T13:28:20.142Z</time></trkpt><trkpt lat="45.8374738" lon="11.4322023"><ele>1051.0</ele><time>2026-04-18T13:28:21.142Z</time></trkpt><trkpt lat="45.8376034" lon="11.4321642"><ele>1050.5</ele><time>2026-04-18T13:28:22.142Z</time></trkpt><trkpt lat="45.837742" lon="11.4321389"><ele>1050.0</ele><time>2026-04-18T13:28:23.142Z</time></trkpt><trkpt lat="45.8378874" lon="11.4321313"><ele>1049.5</ele><time>2026-04-18T13:28:24.142Z</time></trkpt><trkpt lat="45.8380363" lon="11.4321359"><ele>1049.0</ele><time>2026-04-18T13:28:25.143Z</time></trkpt><trkpt lat="45.8381901" lon="11.4321569"><ele>1049.5</ele><time>2026-04-18T13:28:26.143Z</time></trkpt><trkpt lat="45.8383423" lon="11.4321857"><ele>1050.0</ele><time>2026-04-18T13:28:27.142Z</time></trkpt><trkpt lat="45.8384825" lon="11.4322206"><ele>1050.5</ele><time>2026-04-18T13:28:28.142Z</time></trkpt><trkpt lat="45.8386126" lon="11.4322474"><ele>1051.0</ele><time>2026-04-18T13:28:29.142Z</time></trkpt><trkpt lat="45.8387418" lon="11.4322706"><ele>1051.0</ele><time>2026-04-18T13:28:30.143Z</time></trkpt><trkpt lat="45.8388676" lon="11.4322878"><ele>1051.0</ele><time>2026-04-18T13:28:31.143Z</time></trkpt><trkpt lat="45.8389899" lon="11.4323196"><ele>1051.0</ele><time>2026-04-18T13:28:32.143Z</time></trkpt><trkpt lat="45.8391124" lon="11.432361"><ele>1051.0</ele><time>2026-04-18T13:28:33.143Z</time></trkpt><trkpt lat="45.8392353" lon="11.432413"><ele>1050.75</ele><time>2026-04-18T13:28:34.143Z</time></trkpt><trkpt lat="45.8393575" lon="11.4324828"><ele>1050.5</ele><time>2026-04-18T13:28:35.143Z</time></trkpt><trkpt lat="45.8394801" lon="11.4325699"><ele>1050.25</ele><time>2026-04-18T13:28:36.142Z</time></trkpt><trkpt lat="45.8396044" lon="11.4326662"><ele>1050.0</ele><time>2026-04-18T13:28:37.143Z</time></trkpt><trkpt lat="45.8397276" lon="11.4327673"><ele>1050.0</ele><time>2026-04-18T13:28:38.143Z</time></trkpt><trkpt lat="45.8398459" lon="11.4328624"><ele>1050.0</ele><time>2026-04-18T13:28:39.142Z</time></trkpt><trkpt lat="45.8399603" lon="11.4329508"><ele>1050.0</ele><time>2026-04-18T13:28:40.143Z</time></trkpt><trkpt lat="45.8400678" lon="11.433042"><ele>1050.0</ele><time>2026-04-18T13:28:41.142Z</time></trkpt><trkpt lat="45.8401685" lon="11.4331232"><ele>1049.6</ele><time>2026-04-18T13:28:42.141Z</time></trkpt><trkpt lat="45.8402639" lon="11.4332059"><ele>1049.2</ele><time>2026-04-18T13:28:43.142Z</time></trkpt><trkpt lat="45.8403525" lon="11.433285"><ele>1048.8</ele><time>2026-04-18T13:28:44.142Z</time></trkpt><trkpt lat="45.8404336" lon="11.4333725"><ele>1048.4</ele><time>2026-04-18T13:28:45.141Z</time></trkpt><trkpt lat="45.840508" lon="11.4334696"><ele>1048.0</ele><time>2026-04-18T13:28:46.143Z</time></trkpt><trkpt lat="45.8405784" lon="11.4335726"><ele>1048.0</ele><time>2026-04-18T13:28:47.142Z</time></trkpt><trkpt lat="45.8406526" lon="11.4336795"><ele>1048.0</ele><time>2026-04-18T13:28:48.143Z</time></trkpt><trkpt lat="45.8407386" lon="11.4337765"><ele>1048.0</ele><time>2026-04-18T13:28:49.142Z</time></trkpt><trkpt lat="45.8408391" lon="11.433852"><ele>1048.0</ele><time>2026-04-18T13:28:50.142Z</time></trkpt><trkpt lat="45.8409481" lon="11.4338906"><ele>1048.0</ele><time>2026-04-18T13:28:51.143Z</time></trkpt><trkpt lat="45.8410635" lon="11.4339129"><ele>1048.75</ele><time>2026-04-18T13:28:52.143Z</time></trkpt><trkpt lat="45.8411839" lon="11.4339374"><ele>1049.5</ele><time>2026-04-18T13:28:53.142Z</time></trkpt><trkpt lat="45.8412994" lon="11.4339868"><ele>1050.25</ele><time>2026-04-18T13:28:54.142Z</time></trkpt><trkpt lat="45.8414115" lon="11.4340649"><ele>1051.0</ele><time>2026-04-18T13:28:55.143Z</time></trkpt><trkpt lat="45.8415182" lon="11.4341657"><ele>1051.0</ele><time>2026-04-18T13:28:56.142Z</time></trkpt><trkpt lat="45.8416224" lon="11.4342722"><ele>1051.0</ele><time>2026-04-18T13:28:57.143Z</time></trkpt><trkpt lat="45.8417233" lon="11.4343731"><ele>1051.0</ele><time>2026-04-18T13:28:58.143Z</time></trkpt><trkpt lat="45.8418188" lon="11.434471"><ele>1051.0</ele><time>2026-04-18T13:28:59.141Z</time></trkpt><trkpt lat="45.8418188" lon="11.434471"><ele>1051.0</ele><time>2026-04-18T13:28:59.141Z</time></trkpt><trkpt lat="45.8422752" lon="11.4349365"><ele>1051.0</ele><time>2026-04-18T13:29:05.142Z</time></trkpt><trkpt lat="45.8423422" lon="11.4350041"><ele>1051.0</ele><time>2026-04-18T13:29:06.143Z</time></trkpt><trkpt lat="45.8424085" lon="11.4350691"><ele>1051.0</ele><time>2026-04-18T13:29:07.143Z</time></trkpt><trkpt lat="45.8424746" lon="11.4351356"><ele>1051.0</ele><time>2026-04-18T13:29:08.142Z</time></trkpt><trkpt lat="45.8425431" lon="11.4352084"><ele>1051.0</ele><time>2026-04-18T13:29:09.141Z</time></trkpt><trkpt lat="45.8426165" lon="11.4352846"><ele>1051.0</ele><time>2026-04-18T13:29:10.142Z</time></trkpt><trkpt lat="45.8426954" lon="11.4353669"><ele>1050.8</ele><time>2026-04-18T13:29:11.142Z</time></trkpt><trkpt lat="45.8427815" lon="11.4354526"><ele>1050.6</ele><time>2026-04-18T13:29:12.142Z</time></trkpt><trkpt lat="45.8428716" lon="11.4355459"><ele>1050.4</ele><time>2026-04-18T13:29:13.143Z</time></trkpt><trkpt lat="45.8429673" lon="11.4356382"><ele>1050.2</ele><time>2026-04-18T13:29:14.143Z</time></trkpt><trkpt lat="45.8430582" lon="11.435733"><ele>1050.0</ele><time>2026-04-18T13:29:15.142Z</time></trkpt><trkpt lat="45.8431427" lon="11.4358204"><ele>1050.0</ele><time>2026-04-18T13:29:16.143Z</time></trkpt><trkpt lat="45.8432189" lon="11.4359038"><ele>1050.0</ele><time>2026-04-18T13:29:17.143Z</time></trkpt><trkpt lat="45.8432817" lon="11.4359766"><ele>1050.0</ele><time>2026-04-18T13:29:18.143Z</time></trkpt><trkpt lat="45.843335" lon="11.4360609"><ele>1050.0</ele><time>2026-04-18T13:29:19.142Z</time></trkpt><trkpt lat="45.8433799" lon="11.4361549"><ele>1050.0</ele><time>2026-04-18T13:29:20.142Z</time></trkpt><trkpt lat="45.8434177" lon="11.436257"><ele>1050.0</ele><time>2026-04-18T13:29:21.143Z</time></trkpt><trkpt lat="45.8434358" lon="11.4363698"><ele>1050.3333333333333</ele><time>2026-04-18T13:29:22.143Z</time></trkpt><trkpt lat="45.8434284" lon="11.4364789"><ele>1050.6666666666667</ele><time>2026-04-18T13:29:23.143Z</time></trkpt><trkpt lat="45.8433942" lon="11.4365854"><ele>1051.0</ele><time>2026-04-18T13:29:24.141Z</time></trkpt><trkpt lat="45.8433505" lon="11.4366944"><ele>1051.3333333333335</ele><time>2026-04-18T13:29:25.142Z</time></trkpt><trkpt lat="45.8432991" lon="11.4368079"><ele>1051.6666666666667</ele><time>2026-04-18T13:29:26.142Z</time></trkpt><trkpt lat="45.8432474" lon="11.4369346"><ele>1052.0</ele><time>2026-04-18T13:29:27.142Z</time></trkpt><trkpt lat="45.8431951" lon="11.4370719"><ele>1051.0</ele><time>2026-04-18T13:29:28.142Z</time></trkpt><trkpt lat="45.8431396" lon="11.437219"><ele>1050.0</ele><time>2026-04-18T13:29:29.143Z</time></trkpt><trkpt lat="45.8430794" lon="11.4373788"><ele>1049.0</ele><time>2026-04-18T13:29:30.143Z</time></trkpt><trkpt lat="45.8430143" lon="11.437533"><ele>1048.0</ele><time>2026-04-18T13:29:31.143Z</time></trkpt><trkpt lat="45.8429453" lon="11.4376645"><ele>1048.0</ele><time>2026-04-18T13:29:32.141Z</time></trkpt><trkpt lat="45.8428637" lon="11.4377691"><ele>1048.0</ele><time>2026-04-18T13:29:33.142Z</time></trkpt><trkpt lat="45.8427633" lon="11.4378493"><ele>1048.0</ele><time>2026-04-18T13:29:34.142Z</time></trkpt><trkpt lat="45.8426488" lon="11.4379249"><ele>1048.0</ele><time>2026-04-18T13:29:35.142Z</time></trkpt><trkpt lat="45.842525" lon="11.4380084"><ele>1047.75</ele><time>2026-04-18T13:29:36.142Z</time></trkpt><trkpt lat="45.8423967" lon="11.4380909"><ele>1047.5</ele><time>2026-04-18T13:29:37.143Z</time></trkpt><trkpt lat="45.8422589" lon="11.4381755"><ele>1047.25</ele><time>2026-04-18T13:29:38.142Z</time></trkpt><trkpt lat="45.8421198" lon="11.4382685"><ele>1047.0</ele><time>2026-04-18T13:29:39.141Z</time></trkpt><trkpt lat="45.8419785" lon="11.43837"><ele>1047.0</ele><time>2026-04-18T13:29:40.142Z</time></trkpt><trkpt lat="45.841848" lon="11.4384934"><ele>1047.0</ele><time>2026-04-18T13:29:41.141Z</time></trkpt><trkpt lat="45.8417251" lon="11.4386234"><ele>1047.0</ele><time>2026-04-18T13:29:42.143Z</time></trkpt><trkpt lat="45.8416044" lon="11.4387654"><ele>1046.6666666666667</ele><time>2026-04-18T13:29:43.142Z</time></trkpt><trkpt lat="45.8414897" lon="11.4389141"><ele>1046.3333333333335</ele><time>2026-04-18T13:29:44.143Z</time></trkpt><trkpt lat="45.8413781" lon="11.4390663"><ele>1046.0</ele><time>2026-04-18T13:29:45.142Z</time></trkpt><trkpt lat="45.8412667" lon="11.4392272"><ele>1046.0</ele><time>2026-04-18T13:29:46.143Z</time></trkpt><trkpt lat="45.8411537" lon="11.4393795"><ele>1046.0</ele><time>2026-04-18T13:29:47.142Z</time></trkpt><trkpt lat="45.8410378" lon="11.439533"><ele>1046.0</ele><time>2026-04-18T13:29:48.141Z</time></trkpt><trkpt lat="45.8409251" lon="11.4396742"><ele>1046.3333333333335</ele><time>2026-04-18T13:29:49.142Z</time></trkpt><trkpt lat="45.8407936" lon="11.4398436"><ele>1046.6666666666667</ele><time>2026-04-18T13:29:50.143Z</time></trkpt><trkpt lat="45.8406646" lon="11.4400097"><ele>1047.0</ele><time>2026-04-18T13:29:51.143Z</time></trkpt><trkpt lat="45.8405321" lon="11.4401765"><ele>1047.0</ele><time>2026-04-18T13:29:52.142Z</time></trkpt><trkpt lat="45.8403989" lon="11.4403455"><ele>1047.0</ele><time>2026-04-18T13:29:53.141Z</time></trkpt><trkpt lat="45.8401304" lon="11.4406888"><ele>1048.3333333333333</ele><time>2026-04-18T13:29:55.142Z</time></trkpt><trkpt lat="45.8400002" lon="11.4408549"><ele>1049.6666666666665</ele><time>2026-04-18T13:29:56.141Z</time></trkpt><trkpt lat="45.8398783" lon="11.441009"><ele>1051.0</ele><time>2026-04-18T13:29:57.143Z</time></trkpt><trkpt lat="45.8397551" lon="11.4411419"><ele>1051.0</ele><time>2026-04-18T13:29:58.143Z</time></trkpt><trkpt lat="45.8396201" lon="11.4412523"><ele>1051.0</ele><time>2026-04-18T13:29:59.142Z</time></trkpt><trkpt lat="45.8394707" lon="11.4413403"><ele>1051.0</ele><time>2026-04-18T13:30:00.141Z</time></trkpt><trkpt lat="45.839308" lon="11.4414118"><ele>1051.3333333333333</ele><time>2026-04-18T13:30:01.142Z</time></trkpt><trkpt lat="45.8391451" lon="11.4414951"><ele>1051.6666666666667</ele><time>2026-04-18T13:30:02.142Z</time></trkpt><trkpt lat="45.8389779" lon="11.4416107"><ele>1052.0</ele><time>2026-04-18T13:30:03.143Z</time></trkpt><trkpt lat="45.8388151" lon="11.441742"><ele>1052.0</ele><time>2026-04-18T13:30:04.142Z</time></trkpt><trkpt lat="45.8386666" lon="11.4419251"><ele>1052.0</ele><time>2026-04-18T13:30:05.142Z</time></trkpt><trkpt lat="45.8385439" lon="11.4420836"><ele>1052.0</ele><time>2026-04-18T13:30:06.143Z</time></trkpt><trkpt lat="45.8384517" lon="11.4422549"><ele>1055.0</ele><time>2026-04-18T13:30:07.142Z</time></trkpt><trkpt lat="45.8383513" lon="11.4424201"><ele>1058.0</ele><time>2026-04-18T13:30:08.142Z</time></trkpt><trkpt lat="45.8383488" lon="11.4426838"><ele>1061.0</ele><time>2026-04-18T13:30:09.143Z</time></trkpt><trkpt lat="45.8383197" lon="11.4429287"><ele>1060.3333333333335</ele><time>2026-04-18T13:30:10.142Z</time></trkpt><trkpt lat="45.8382873" lon="11.4431963"><ele>1059.6666666666667</ele><time>2026-04-18T13:30:11.142Z</time></trkpt><trkpt lat="45.8382519" lon="11.4434866"><ele>1059.0</ele><time>2026-04-18T13:30:12.143Z</time></trkpt><trkpt lat="45.8382121" lon="11.4437791"><ele>1058.3333333333333</ele><time>2026-04-18T13:30:13.142Z</time></trkpt><trkpt lat="45.8381684" lon="11.4440766"><ele>1057.6666666666665</ele><time>2026-04-18T13:30:14.142Z</time></trkpt><trkpt lat="45.8381222" lon="11.4443841"><ele>1057.0</ele><time>2026-04-18T13:30:15.142Z</time></trkpt><trkpt lat="45.8380694" lon="11.4446868"><ele>1056.0</ele><time>2026-04-18T13:30:16.142Z</time></trkpt><trkpt lat="45.8380105" lon="11.4449682"><ele>1055.0</ele><time>2026-04-18T13:30:17.142Z</time></trkpt><trkpt lat="45.8379376" lon="11.4452269"><ele>1054.0</ele><time>2026-04-18T13:30:18.143Z</time></trkpt><trkpt lat="45.8378513" lon="11.4454679"><ele>1051.6666666666665</ele><time>2026-04-18T13:30:19.142Z</time></trkpt><trkpt lat="45.837749" lon="11.4456992"><ele>1049.3333333333333</ele><time>2026-04-18T13:30:20.142Z</time></trkpt><trkpt lat="45.8376717" lon="11.4459263"><ele>1047.0</ele><time>2026-04-18T13:30:21.141Z</time></trkpt><trkpt lat="45.8376339" lon="11.4461579"><ele>1044.3333333333333</ele><time>2026-04-18T13:30:22.142Z</time></trkpt><trkpt lat="45.8376319" lon="11.4463808"><ele>1041.6666666666665</ele><time>2026-04-18T13:30:23.143Z</time></trkpt><trkpt lat="45.8376516" lon="11.4466058"><ele>1039.0</ele><time>2026-04-18T13:30:24.142Z</time></trkpt><trkpt lat="45.8376762" lon="11.446844"><ele>1039.0</ele><time>2026-04-18T13:30:25.142Z</time></trkpt><trkpt lat="45.8376685" lon="11.4470715"><ele>1039.0</ele><time>2026-04-18T13:30:26.142Z</time></trkpt><trkpt lat="45.8376396" lon="11.4472999"><ele>1039.0</ele><time>2026-04-18T13:30:27.143Z</time></trkpt><trkpt lat="45.8375792" lon="11.4475151"><ele>1043.75</ele><time>2026-04-18T13:30:28.141Z</time></trkpt><trkpt lat="45.8375024" lon="11.4477017"><ele>1048.5</ele><time>2026-04-18T13:30:29.143Z</time></trkpt><trkpt lat="45.8374369" lon="11.4478723"><ele>1053.25</ele><time>2026-04-18T13:30:30.141Z</time></trkpt><trkpt lat="45.8374054" lon="11.4480358"><ele>1058.0</ele><time>2026-04-18T13:30:31.143Z</time></trkpt><trkpt lat="45.8374051" lon="11.4481945"><ele>1058.0</ele><time>2026-04-18T13:30:32.142Z</time></trkpt><trkpt lat="45.8374084" lon="11.4483639"><ele>1058.0</ele><time>2026-04-18T13:30:33.142Z</time></trkpt><trkpt lat="45.8374401" lon="11.4484995"><ele>1058.0</ele><time>2026-04-18T13:30:34.141Z</time></trkpt><trkpt lat="45.8376343" lon="11.4485701"><ele>1058.0</ele><time>2026-04-18T13:30:35.141Z</time></trkpt><trkpt lat="45.8377509" lon="11.4486738"><ele>1056.6666666666667</ele><time>2026-04-18T13:30:36.142Z</time></trkpt><trkpt lat="45.8378977" lon="11.4487453"><ele>1055.3333333333333</ele><time>2026-04-18T13:30:37.143Z</time></trkpt><trkpt lat="45.8380537" lon="11.4488032"><ele>1054.0</ele><time>2026-04-18T13:30:38.143Z</time></trkpt><trkpt lat="45.8382131" lon="11.4488619"><ele>1054.0</ele><time>2026-04-18T13:30:39.143Z</time></trkpt><trkpt lat="45.8383724" lon="11.4489174"><ele>1054.0</ele><time>2026-04-18T13:30:40.143Z</time></trkpt><trkpt lat="45.8385157" lon="11.4489805"><ele>1054.0</ele><time>2026-04-18T13:30:41.142Z</time></trkpt><trkpt lat="45.838637" lon="11.4490319"><ele>1054.0</ele><time>2026-04-18T13:30:42.142Z</time></trkpt><trkpt lat="45.8387341" lon="11.4490855"><ele>1053.1666666666665</ele><time>2026-04-18T13:30:43.142Z</time></trkpt><trkpt lat="45.8388136" lon="11.4491456"><ele>1052.3333333333333</ele><time>2026-04-18T13:30:44.143Z</time></trkpt><trkpt lat="45.8388917" lon="11.4492181"><ele>1051.5</ele><time>2026-04-18T13:30:45.142Z</time></trkpt><trkpt lat="45.8389658" lon="11.4492968"><ele>1050.6666666666667</ele><time>2026-04-18T13:30:46.142Z</time></trkpt><trkpt lat="45.8390172" lon="11.4493784"><ele>1049.8333333333335</ele><time>2026-04-18T13:30:47.142Z</time></trkpt><trkpt lat="45.8390659" lon="11.449449"><ele>1049.0</ele><time>2026-04-18T13:30:48.143Z</time></trkpt><trkpt lat="45.8390503" lon="11.4495962"><ele>1049.857142857143</ele><time>2026-04-18T13:30:50.141Z</time></trkpt><trkpt lat="45.8390305" lon="11.449685"><ele>1050.7142857142858</ele><time>2026-04-18T13:30:51.142Z</time></trkpt><trkpt lat="45.8389708" lon="11.4497576"><ele>1051.5714285714287</ele><time>2026-04-18T13:30:52.141Z</time></trkpt><trkpt lat="45.8389263" lon="11.4498361"><ele>1052.4285714285716</ele><time>2026-04-18T13:30:53.141Z</time></trkpt><trkpt lat="45.8388721" lon="11.449912"><ele>1053.2857142857144</ele><time>2026-04-18T13:30:54.141Z</time></trkpt><trkpt lat="45.838844" lon="11.4499989"><ele>1054.142857142857</ele><time>2026-04-18T13:30:56.142Z</time></trkpt><trkpt lat="45.8388626" lon="11.450103"><ele>1055.0</ele><time>2026-04-18T13:30:59.141Z</time></trkpt><trkpt lat="45.8389101" lon="11.4502067"><ele>1055.0</ele><time>2026-04-18T13:31:00.14Z</time></trkpt><trkpt lat="45.8389548" lon="11.4503264"><ele>1055.0</ele><time>2026-04-18T13:31:01.14Z</time></trkpt><trkpt lat="45.838978" lon="11.4504651"><ele>1055.0</ele><time>2026-04-18T13:31:02.141Z</time></trkpt><trkpt lat="45.8389864" lon="11.4506326"><ele>1055.0</ele><time>2026-04-18T13:31:03.141Z</time></trkpt><trkpt lat="45.8389767" lon="11.4508127"><ele>1055.0</ele><time>2026-04-18T13:31:04.142Z</time></trkpt><trkpt lat="45.8389601" lon="11.4510006"><ele>1054.0</ele><time>2026-04-18T13:31:05.142Z</time></trkpt><trkpt lat="45.8389368" lon="11.4511681"><ele>1053.0</ele><time>2026-04-18T13:31:06.142Z</time></trkpt><trkpt lat="45.8389172" lon="11.4513157"><ele>1052.0</ele><time>2026-04-18T13:31:07.141Z</time></trkpt><trkpt lat="45.8388996" lon="11.4514295"><ele>1051.0</ele><time>2026-04-18T13:31:08.141Z</time></trkpt><trkpt lat="45.838878" lon="11.4515476"><ele>1050.0</ele><time>2026-04-18T13:31:09.141Z</time></trkpt><trkpt lat="45.8388512" lon="11.4516765"><ele>1049.5</ele><time>2026-04-18T13:31:10.142Z</time></trkpt><trkpt lat="45.8388157" lon="11.4518167"><ele>1049.0</ele><time>2026-04-18T13:31:11.142Z</time></trkpt><trkpt lat="45.8387656" lon="11.4519744"><ele>1048.5</ele><time>2026-04-18T13:31:12.142Z</time></trkpt><trkpt lat="45.8387073" lon="11.4521228"><ele>1048.0</ele><time>2026-04-18T13:31:13.142Z</time></trkpt><trkpt lat="45.838645" lon="11.4522685"><ele>1047.0</ele><time>2026-04-18T13:31:14.141Z</time></trkpt><trkpt lat="45.8385809" lon="11.4524142"><ele>1046.0</ele><time>2026-04-18T13:31:15.141Z</time></trkpt><trkpt lat="45.838536" lon="11.4525762"><ele>1045.0</ele><time>2026-04-18T13:31:16.142Z</time></trkpt><trkpt lat="45.838499" lon="11.4527431"><ele>1044.0</ele><time>2026-04-18T13:31:17.142Z</time></trkpt><trkpt lat="45.838479" lon="11.4529133"><ele>1042.8333333333333</ele><time>2026-04-18T13:31:18.142Z</time></trkpt><trkpt lat="45.8384641" lon="11.4530635"><ele>1041.6666666666667</ele><time>2026-04-18T13:31:19.142Z</time></trkpt><trkpt lat="45.8384588" lon="11.4531927"><ele>1040.5</ele><time>2026-04-18T13:31:20.141Z</time></trkpt><trkpt lat="45.8384579" lon="11.4532849"><ele>1039.3333333333335</ele><time>2026-04-18T13:31:21.141Z</time></trkpt><trkpt lat="45.8384622" lon="11.4533857"><ele>1038.1666666666667</ele><time>2026-04-18T13:31:25.142Z</time></trkpt><trkpt lat="45.8384769" lon="11.4534826"><ele>1037.0</ele><time>2026-04-18T13:31:27.141Z</time></trkpt><trkpt lat="45.8384831" lon="11.453616"><ele>1036.6666666666667</ele><time>2026-04-18T13:31:29.142Z</time></trkpt><trkpt lat="45.838463" lon="11.4537082"><ele>1036.3333333333335</ele><time>2026-04-18T13:31:30.141Z</time></trkpt><trkpt lat="45.8384428" lon="11.4538209"><ele>1036.0</ele><time>2026-04-18T13:31:31.14Z</time></trkpt><trkpt lat="45.8384276" lon="11.4539473"><ele>1035.6666666666667</ele><time>2026-04-18T13:31:32.141Z</time></trkpt><trkpt lat="45.8384188" lon="11.4540683"><ele>1035.3333333333333</ele><time>2026-04-18T13:31:33.141Z</time></trkpt><trkpt lat="45.8384159" lon="11.4541749"><ele>1035.0</ele><time>2026-04-18T13:31:34.141Z</time></trkpt><trkpt lat="45.8384072" lon="11.4543261"><ele>1034.2</ele><time>2026-04-18T13:31:36.14Z</time></trkpt><trkpt lat="45.8384048" lon="11.4544517"><ele>1033.4</ele><time>2026-04-18T13:31:38.141Z</time></trkpt><trkpt lat="45.8384057" lon="11.4546212"><ele>1032.6</ele><time>2026-04-18T13:31:40.141Z</time></trkpt><trkpt lat="45.8384095" lon="11.4547308"><ele>1031.8</ele><time>2026-04-18T13:31:41.142Z</time></trkpt><trkpt lat="45.8384151" lon="11.4548594"><ele>1031.0</ele><time>2026-04-18T13:31:42.141Z</time></trkpt><trkpt lat="45.8384217" lon="11.4550051"><ele>1030.75</ele><time>2026-04-18T13:31:43.141Z</time></trkpt><trkpt lat="45.8384237" lon="11.455155"><ele>1030.5</ele><time>2026-04-18T13:31:44.141Z</time></trkpt><trkpt lat="45.838433" lon="11.4553154"><ele>1030.25</ele><time>2026-04-18T13:31:45.142Z</time></trkpt><trkpt lat="45.8384395" lon="11.4554877"><ele>1030.0</ele><time>2026-04-18T13:31:46.142Z</time></trkpt><trkpt lat="45.8384466" lon="11.4556661"><ele>1029.4</ele><time>2026-04-18T13:31:47.14Z</time></trkpt><trkpt lat="45.8384522" lon="11.455842"><ele>1028.8</ele><time>2026-04-18T13:31:48.141Z</time></trkpt><trkpt lat="45.8384555" lon="11.4560115"><ele>1028.2</ele><time>2026-04-18T13:31:49.142Z</time></trkpt><trkpt lat="45.8384635" lon="11.4561628"><ele>1027.6</ele><time>2026-04-18T13:31:50.141Z</time></trkpt><trkpt lat="45.8384689" lon="11.4563064"><ele>1027.0</ele><time>2026-04-18T13:31:51.14Z</time></trkpt><trkpt lat="45.8384697" lon="11.4564482"><ele>1026.6</ele><time>2026-04-18T13:31:52.141Z</time></trkpt><trkpt lat="45.8384709" lon="11.4565964"><ele>1026.2</ele><time>2026-04-18T13:31:53.141Z</time></trkpt><trkpt lat="45.8384706" lon="11.456747"><ele>1025.8</ele><time>2026-04-18T13:31:54.141Z</time></trkpt><trkpt lat="45.8384708" lon="11.4569059"><ele>1025.4</ele><time>2026-04-18T13:31:55.141Z</time></trkpt><trkpt lat="45.8384719" lon="11.4570704"><ele>1025.0</ele><time>2026-04-18T13:31:56.141Z</time></trkpt><trkpt lat="45.8384652" lon="11.4572485"><ele>1025.0</ele><time>2026-04-18T13:31:57.141Z</time></trkpt><trkpt lat="45.8384583" lon="11.4574316"><ele>1025.0</ele><time>2026-04-18T13:31:58.142Z</time></trkpt><trkpt lat="45.8384519" lon="11.4576234"><ele>1025.0</ele><time>2026-04-18T13:31:59.141Z</time></trkpt><trkpt lat="45.8384439" lon="11.4578211"><ele>1025.0</ele><time>2026-04-18T13:32:00.141Z</time></trkpt><trkpt lat="45.8384361" lon="11.4580222"><ele>1023.6666666666667</ele><time>2026-04-18T13:32:01.141Z</time></trkpt><trkpt lat="45.8384252" lon="11.4582337"><ele>1022.3333333333333</ele><time>2026-04-18T13:32:02.14Z</time></trkpt><trkpt lat="45.8384237" lon="11.4584564"><ele>1021.0</ele><time>2026-04-18T13:32:03.14Z</time></trkpt><trkpt lat="45.838414" lon="11.4586695"><ele>1020.25</ele><time>2026-04-18T13:32:04.141Z</time></trkpt><trkpt lat="45.8384061" lon="11.4588669"><ele>1019.5</ele><time>2026-04-18T13:32:05.141Z</time></trkpt><trkpt lat="45.8384002" lon="11.4590591"><ele>1018.75</ele><time>2026-04-18T13:32:06.14Z</time></trkpt><trkpt lat="45.8383909" lon="11.4592415"><ele>1018.0</ele><time>2026-04-18T13:32:07.141Z</time></trkpt><trkpt lat="45.8383829" lon="11.4594133"><ele>1018.0</ele><time>2026-04-18T13:32:08.141Z</time></trkpt><trkpt lat="45.8383763" lon="11.4595741"><ele>1018.0</ele><time>2026-04-18T13:32:09.141Z</time></trkpt><trkpt lat="45.8383682" lon="11.4597256"><ele>1018.0</ele><time>2026-04-18T13:32:10.141Z</time></trkpt><trkpt lat="45.8383572" lon="11.4598721"><ele>1018.0</ele><time>2026-04-18T13:32:11.141Z</time></trkpt><trkpt lat="45.8383357" lon="11.4600325"><ele>1018.0</ele><time>2026-04-18T13:32:12.141Z</time></trkpt><trkpt lat="45.8383034" lon="11.4601972"><ele>1018.0</ele><time>2026-04-18T13:32:13.141Z</time></trkpt><trkpt lat="45.8382617" lon="11.4603699"><ele>1018.0</ele><time>2026-04-18T13:32:14.142Z</time></trkpt><trkpt lat="45.8382141" lon="11.4605415"><ele>1018.0</ele><time>2026-04-18T13:32:15.141Z</time></trkpt><trkpt lat="45.8381645" lon="11.4607054"><ele>1018.0</ele><time>2026-04-18T13:32:16.141Z</time></trkpt><trkpt lat="45.8381187" lon="11.4608611"><ele>1018.0</ele><time>2026-04-18T13:32:17.141Z</time></trkpt><trkpt lat="45.8380786" lon="11.4610048"><ele>1018.0</ele><time>2026-04-18T13:32:18.142Z</time></trkpt><trkpt lat="45.8380535" lon="11.4611469"><ele>1018.0</ele><time>2026-04-18T13:32:19.141Z</time></trkpt><trkpt lat="45.8380506" lon="11.4612841"><ele>1018.0</ele><time>2026-04-18T13:32:20.141Z</time></trkpt><trkpt lat="45.8380801" lon="11.4614023"><ele>1018.0</ele><time>2026-04-18T13:32:21.142Z</time></trkpt><trkpt lat="45.8381393" lon="11.461495"><ele>1017.5999999999999</ele><time>2026-04-18T13:32:22.141Z</time></trkpt><trkpt lat="45.8382285" lon="11.4615485"><ele>1017.1999999999999</ele><time>2026-04-18T13:32:23.141Z</time></trkpt><trkpt lat="45.8383249" lon="11.4615996"><ele>1016.8</ele><time>2026-04-18T13:32:24.141Z</time></trkpt><trkpt lat="45.8384543" lon="11.4615531"><ele>1016.4</ele><time>2026-04-18T13:32:25.141Z</time></trkpt><trkpt lat="45.8385705" lon="11.4615677"><ele>1016.0</ele><time>2026-04-18T13:32:26.142Z</time></trkpt><trkpt lat="45.838675" lon="11.4616158"><ele>1016.0</ele><time>2026-04-18T13:32:27.14Z</time></trkpt><trkpt lat="45.8387777" lon="11.4616937"><ele>1016.0</ele><time>2026-04-18T13:32:28.14Z</time></trkpt><trkpt lat="45.8388663" lon="11.4618244"><ele>1016.0</ele><time>2026-04-18T13:32:29.142Z</time></trkpt><trkpt lat="45.8389508" lon="11.4619843"><ele>1016.0</ele><time>2026-04-18T13:32:30.142Z</time></trkpt><trkpt lat="45.8390396" lon="11.4621633"><ele>1016.0</ele><time>2026-04-18T13:32:31.142Z</time></trkpt><trkpt lat="45.8391399" lon="11.462354"><ele>1016.0</ele><time>2026-04-18T13:32:32.141Z</time></trkpt><trkpt lat="45.8392388" lon="11.4625449"><ele>1016.0</ele><time>2026-04-18T13:32:33.141Z</time></trkpt><trkpt lat="45.8393469" lon="11.4627439"><ele>1016.0</ele><time>2026-04-18T13:32:34.141Z</time></trkpt><trkpt lat="45.8394628" lon="11.462945"><ele>1016.0</ele><time>2026-04-18T13:32:35.141Z</time></trkpt><trkpt lat="45.8395921" lon="11.463135"><ele>1016.0</ele><time>2026-04-18T13:32:36.141Z</time></trkpt><trkpt lat="45.8397171" lon="11.4633327"><ele>1012.0</ele><time>2026-04-18T13:32:37.141Z</time></trkpt><trkpt lat="45.839846" lon="11.4635329"><ele>1008.0</ele><time>2026-04-18T13:32:38.14Z</time></trkpt><trkpt lat="45.839973" lon="11.4637303"><ele>1004.0</ele><time>2026-04-18T13:32:39.141Z</time></trkpt><trkpt lat="45.8400922" lon="11.4639315"><ele>1004.0</ele><time>2026-04-18T13:32:40.141Z</time></trkpt><trkpt lat="45.8402058" lon="11.4641267"><ele>1004.0</ele><time>2026-04-18T13:32:41.142Z</time></trkpt><trkpt lat="45.8403225" lon="11.4643117"><ele>1004.0</ele><time>2026-04-18T13:32:42.14Z</time></trkpt><trkpt lat="45.8404392" lon="11.4644977"><ele>1002.6666666666667</ele><time>2026-04-18T13:32:43.14Z</time></trkpt><trkpt lat="45.8405489" lon="11.4646877"><ele>1001.3333333333333</ele><time>2026-04-18T13:32:44.141Z</time></trkpt><trkpt lat="45.8406538" lon="11.4648843"><ele>1000.0</ele><time>2026-04-18T13:32:45.14Z</time></trkpt><trkpt lat="45.8407517" lon="11.4650757"><ele>1000.0</ele><time>2026-04-18T13:32:46.142Z</time></trkpt><trkpt lat="45.8408401" lon="11.4652608"><ele>1000.0</ele><time>2026-04-18T13:32:47.142Z</time></trkpt><trkpt lat="45.8409285" lon="11.4654412"><ele>1000.0</ele><time>2026-04-18T13:32:48.14Z</time></trkpt><trkpt lat="45.8410169" lon="11.4655937"><ele>1000.0</ele><time>2026-04-18T13:32:49.142Z</time></trkpt><trkpt lat="45.8411196" lon="11.4657362"><ele>1001.5</ele><time>2026-04-18T13:32:50.141Z</time></trkpt><trkpt lat="45.8412352" lon="11.4658733"><ele>1003.0</ele><time>2026-04-18T13:32:51.141Z</time></trkpt><trkpt lat="45.8413643" lon="11.4659584"><ele>1004.5</ele><time>2026-04-18T13:32:52.14Z</time></trkpt><trkpt lat="45.8414914" lon="11.4660586"><ele>1006.0</ele><time>2026-04-18T13:32:53.141Z</time></trkpt><trkpt lat="45.8416127" lon="11.4661338"><ele>1006.0</ele><time>2026-04-18T13:32:54.141Z</time></trkpt><trkpt lat="45.8417225" lon="11.4661822"><ele>1005.9999999999999</ele><time>2026-04-18T13:32:55.142Z</time></trkpt><trkpt lat="45.8418306" lon="11.4662393"><ele>1005.9999999999999</ele><time>2026-04-18T13:32:56.14Z</time></trkpt><trkpt lat="45.8419373" lon="11.466304"><ele>1006.0</ele><time>2026-04-18T13:32:57.141Z</time></trkpt><trkpt lat="45.8420162" lon="11.4663581"><ele>1006.0</ele><time>2026-04-18T13:32:58.141Z</time></trkpt><trkpt lat="45.8421138" lon="11.4664056"><ele>1005.8333333333333</ele><time>2026-04-18T13:32:59.141Z</time></trkpt><trkpt lat="45.8422135" lon="11.4664642"><ele>1005.6666666666666</ele><time>2026-04-18T13:33:00.142Z</time></trkpt><trkpt lat="45.8422841" lon="11.4665069"><ele>1005.5</ele><time>2026-04-18T13:33:01.142Z</time></trkpt><trkpt lat="45.8423467" lon="11.4665519"><ele>1005.3333333333333</ele><time>2026-04-18T13:33:03.141Z</time></trkpt><trkpt lat="45.8424068" lon="11.4665249"><ele>1005.1666666666666</ele><time>2026-04-18T13:33:44.141Z</time></trkpt><trkpt lat="45.8423332" lon="11.4664778"><ele>1005.0</ele><time>2026-04-18T13:33:46.141Z</time></trkpt><trkpt lat="45.8422029" lon="11.4664166"><ele>1005.0</ele><time>2026-04-18T13:33:48.14Z</time></trkpt><trkpt lat="45.8421203" lon="11.4663752"><ele>1005.0</ele><time>2026-04-18T13:33:49.141Z</time></trkpt><trkpt lat="45.8420266" lon="11.4663171"><ele>1005.0</ele><time>2026-04-18T13:33:50.141Z</time></trkpt><trkpt lat="45.8419439" lon="11.4662592"><ele>1005.0</ele><time>2026-04-18T13:33:51.141Z</time></trkpt><trkpt lat="45.8418674" lon="11.4662139"><ele>1005.0</ele><time>2026-04-18T13:33:52.141Z</time></trkpt><trkpt lat="45.8417922" lon="11.4661556"><ele>1005.1666666666666</ele><time>2026-04-18T13:33:53.142Z</time></trkpt><trkpt lat="45.8417205" lon="11.4661169"><ele>1005.3333333333333</ele><time>2026-04-18T13:33:54.141Z</time></trkpt><trkpt lat="45.8416374" lon="11.4660389"><ele>1005.5</ele><time>2026-04-18T13:33:56.142Z</time></trkpt><trkpt lat="45.8415818" lon="11.4659919"><ele>1005.6666666666666</ele><time>2026-04-18T13:34:05.14Z</time></trkpt><trkpt lat="45.8415664" lon="11.4660805"><ele>1005.8333333333333</ele><time>2026-04-18T13:34:14.141Z</time></trkpt><trkpt lat="45.8416286" lon="11.4661179"><ele>1006.0</ele><time>2026-04-18T13:34:15.142Z</time></trkpt><trkpt lat="45.8417674" lon="11.466206"><ele>1005.75</ele><time>2026-04-18T13:34:17.14Z</time></trkpt><trkpt lat="45.8418765" lon="11.4662793"><ele>1005.5</ele><time>2026-04-18T13:34:18.14Z</time></trkpt><trkpt lat="45.8419851" lon="11.4663472"><ele>1005.25</ele><time>2026-04-18T13:34:19.141Z</time></trkpt><trkpt lat="45.842115" lon="11.4664227"><ele>1005.0</ele><time>2026-04-18T13:34:20.142Z</time></trkpt><trkpt lat="45.8422561" lon="11.4665078"><ele>1005.0</ele><time>2026-04-18T13:34:21.142Z</time></trkpt><trkpt lat="45.8423923" lon="11.4665726"><ele>1005.0</ele><time>2026-04-18T13:34:22.142Z</time></trkpt><trkpt lat="45.8425342" lon="11.4666019"><ele>1005.0</ele><time>2026-04-18T13:34:23.141Z</time></trkpt><trkpt lat="45.8426815" lon="11.4666108"><ele>1005.0</ele><time>2026-04-18T13:34:24.14Z</time></trkpt><trkpt lat="45.8428287" lon="11.4665947"><ele>1005.0</ele><time>2026-04-18T13:34:25.142Z</time></trkpt><trkpt lat="45.8429826" lon="11.466524"><ele>1005.0</ele><time>2026-04-18T13:34:26.141Z</time></trkpt><trkpt lat="45.8431401" lon="11.4664482"><ele>1005.0</ele><time>2026-04-18T13:34:27.141Z</time></trkpt><trkpt lat="45.8433013" lon="11.466368"><ele>1005.3333333333333</ele><time>2026-04-18T13:34:28.14Z</time></trkpt><trkpt lat="45.8434686" lon="11.4662992"><ele>1005.6666666666666</ele><time>2026-04-18T13:34:29.141Z</time></trkpt><trkpt lat="45.8436282" lon="11.4662307"><ele>1006.0</ele><time>2026-04-18T13:34:30.141Z</time></trkpt><trkpt lat="45.8437841" lon="11.4661652"><ele>1001.3333333333333</ele><time>2026-04-18T13:34:31.141Z</time></trkpt><trkpt lat="45.8439357" lon="11.4661002"><ele>996.6666666666667</ele><time>2026-04-18T13:34:32.141Z</time></trkpt><trkpt lat="45.8440921" lon="11.4660304"><ele>992.0</ele><time>2026-04-18T13:34:33.14Z</time></trkpt><trkpt lat="45.8442505" lon="11.465961"><ele>993.0</ele><time>2026-04-18T13:34:34.141Z</time></trkpt><trkpt lat="45.844415" lon="11.46588"><ele>994.0</ele><time>2026-04-18T13:34:35.142Z</time></trkpt><trkpt lat="45.8445762" lon="11.4657858"><ele>995.0</ele><time>2026-04-18T13:34:36.141Z</time></trkpt><trkpt lat="45.8447352" lon="11.4656692"><ele>995.0</ele><time>2026-04-18T13:34:37.142Z</time></trkpt><trkpt lat="45.8448851" lon="11.4655444"><ele>995.0</ele><time>2026-04-18T13:34:38.141Z</time></trkpt><trkpt lat="45.845037" lon="11.4654182"><ele>995.0</ele><time>2026-04-18T13:34:39.141Z</time></trkpt><trkpt lat="45.8451898" lon="11.4652906"><ele>992.75</ele><time>2026-04-18T13:34:40.141Z</time></trkpt><trkpt lat="45.8453341" lon="11.4651842"><ele>990.5</ele><time>2026-04-18T13:34:41.141Z</time></trkpt><trkpt lat="45.8454565" lon="11.4651153"><ele>988.25</ele><time>2026-04-18T13:34:42.141Z</time></trkpt><trkpt lat="45.8455631" lon="11.4650667"><ele>986.0</ele><time>2026-04-18T13:34:43.142Z</time></trkpt><trkpt lat="45.8456709" lon="11.4650543"><ele>986.0</ele><time>2026-04-18T13:34:44.14Z</time></trkpt><trkpt lat="45.845785" lon="11.4650754"><ele>986.0</ele><time>2026-04-18T13:34:45.141Z</time></trkpt><trkpt lat="45.8459015" lon="11.4651367"><ele>986.0</ele><time>2026-04-18T13:34:46.141Z</time></trkpt><trkpt lat="45.8460153" lon="11.465209"><ele>986.0</ele><time>2026-04-18T13:34:47.141Z</time></trkpt><trkpt lat="45.8461334" lon="11.465294"><ele>986.5</ele><time>2026-04-18T13:34:48.14Z</time></trkpt><trkpt lat="45.8462549" lon="11.4653949"><ele>987.0</ele><time>2026-04-18T13:34:49.14Z</time></trkpt><trkpt lat="45.8463788" lon="11.4655035"><ele>987.5</ele><time>2026-04-18T13:34:50.141Z</time></trkpt><trkpt lat="45.846501" lon="11.4656237"><ele>988.0</ele><time>2026-04-18T13:34:51.142Z</time></trkpt><trkpt lat="45.8466242" lon="11.4657522"><ele>989.3333333333333</ele><time>2026-04-18T13:34:52.143Z</time></trkpt><trkpt lat="45.8467412" lon="11.46589"><ele>990.6666666666667</ele><time>2026-04-18T13:34:53.141Z</time></trkpt><trkpt lat="45.8468531" lon="11.4660385"><ele>992.0</ele><time>2026-04-18T13:34:54.142Z</time></trkpt><trkpt lat="45.8469623" lon="11.466191"><ele>991.3333333333334</ele><time>2026-04-18T13:34:55.141Z</time></trkpt><trkpt lat="45.8470718" lon="11.4663579"><ele>990.6666666666667</ele><time>2026-04-18T13:34:56.142Z</time></trkpt><trkpt lat="45.847185" lon="11.4665189"><ele>990.0</ele><time>2026-04-18T13:34:57.141Z</time></trkpt><trkpt lat="45.8472984" lon="11.4666943"><ele>990.0</ele><time>2026-04-18T13:34:58.141Z</time></trkpt><trkpt lat="45.8474146" lon="11.4668783"><ele>990.0</ele><time>2026-04-18T13:34:59.141Z</time></trkpt><trkpt lat="45.8475292" lon="11.4670716"><ele>990.0</ele><time>2026-04-18T13:35:00.14Z</time></trkpt><trkpt lat="45.8476468" lon="11.4672738"><ele>988.0</ele><time>2026-04-18T13:35:01.142Z</time></trkpt><trkpt lat="45.8477669" lon="11.4674781"><ele>986.0</ele><time>2026-04-18T13:35:02.141Z</time></trkpt><trkpt lat="45.847884" lon="11.4676934"><ele>984.0</ele><time>2026-04-18T13:35:03.14Z</time></trkpt><trkpt lat="45.8480031" lon="11.4679103"><ele>981.3333333333333</ele><time>2026-04-18T13:35:04.141Z</time></trkpt><trkpt lat="45.8481256" lon="11.4681311"><ele>978.6666666666666</ele><time>2026-04-18T13:35:05.14Z</time></trkpt><trkpt lat="45.8482505" lon="11.4683506"><ele>976.0</ele><time>2026-04-18T13:35:06.141Z</time></trkpt><trkpt lat="45.8483755" lon="11.4685754"><ele>976.6666666666666</ele><time>2026-04-18T13:35:07.141Z</time></trkpt><trkpt lat="45.8485002" lon="11.4688057"><ele>977.3333333333333</ele><time>2026-04-18T13:35:08.141Z</time></trkpt><trkpt lat="45.8486196" lon="11.4690295"><ele>978.0</ele><time>2026-04-18T13:35:09.14Z</time></trkpt><trkpt lat="45.8487258" lon="11.4692567"><ele>978.0</ele><time>2026-04-18T13:35:10.141Z</time></trkpt><trkpt lat="45.8488184" lon="11.4694976"><ele>978.0</ele><time>2026-04-18T13:35:11.141Z</time></trkpt><trkpt lat="45.848906" lon="11.4697589"><ele>978.0</ele><time>2026-04-18T13:35:12.142Z</time></trkpt><trkpt lat="45.8489981" lon="11.470032"><ele>979.0</ele><time>2026-04-18T13:35:13.141Z</time></trkpt><trkpt lat="45.8491053" lon="11.4703175"><ele>980.0</ele><time>2026-04-18T13:35:14.141Z</time></trkpt><trkpt lat="45.84922" lon="11.4706118"><ele>979.0</ele><time>2026-04-18T13:35:15.142Z</time></trkpt><trkpt lat="45.8493383" lon="11.4708958"><ele>978.0</ele><time>2026-04-18T13:35:16.142Z</time></trkpt><trkpt lat="45.8494516" lon="11.4711636"><ele>977.0</ele><time>2026-04-18T13:35:17.142Z</time></trkpt><trkpt lat="45.8495586" lon="11.4714284"><ele>973.6666666666667</ele><time>2026-04-18T13:35:18.142Z</time></trkpt><trkpt lat="45.8496544" lon="11.471683"><ele>970.3333333333333</ele><time>2026-04-18T13:35:19.142Z</time></trkpt><trkpt lat="45.8497378" lon="11.471928"><ele>967.0</ele><time>2026-04-18T13:35:20.141Z</time></trkpt><trkpt lat="45.8498154" lon="11.4721551"><ele>966.0</ele><time>2026-04-18T13:35:21.14Z</time></trkpt><trkpt lat="45.8498899" lon="11.4723665"><ele>965.0</ele><time>2026-04-18T13:35:22.142Z</time></trkpt><trkpt lat="45.8499518" lon="11.4725544"><ele>964.0</ele><time>2026-04-18T13:35:23.142Z</time></trkpt><trkpt lat="45.8500196" lon="11.4727103"><ele>963.0</ele><time>2026-04-18T13:35:24.141Z</time></trkpt><trkpt lat="45.8501061" lon="11.472834"><ele>962.0</ele><time>2026-04-18T13:35:25.141Z</time></trkpt><trkpt lat="45.8502118" lon="11.4729515"><ele>961.0</ele><time>2026-04-18T13:35:26.141Z</time></trkpt><trkpt lat="45.8503415" lon="11.4729701"><ele>960.0</ele><time>2026-04-18T13:35:27.14Z</time></trkpt><trkpt lat="45.8504849" lon="11.4730143"><ele>959.0</ele><time>2026-04-18T13:35:28.142Z</time></trkpt><trkpt lat="45.8506427" lon="11.4730397"><ele>959.0</ele><time>2026-04-18T13:35:29.141Z</time></trkpt><trkpt lat="45.850814" lon="11.473077"><ele>959.0</ele><time>2026-04-18T13:35:30.142Z</time></trkpt><trkpt lat="45.8509881" lon="11.4731101"><ele>959.0</ele><time>2026-04-18T13:35:31.141Z</time></trkpt><trkpt lat="45.8511653" lon="11.473142"><ele>959.6666666666667</ele><time>2026-04-18T13:35:32.142Z</time></trkpt><trkpt lat="45.8513422" lon="11.4731766"><ele>960.3333333333333</ele><time>2026-04-18T13:35:33.141Z</time></trkpt><trkpt lat="45.8514978" lon="11.4732097"><ele>961.0</ele><time>2026-04-18T13:35:34.141Z</time></trkpt><trkpt lat="45.8516332" lon="11.4732417"><ele>961.0</ele><time>2026-04-18T13:35:35.142Z</time></trkpt><trkpt lat="45.8517596" lon="11.4733025"><ele>961.0</ele><time>2026-04-18T13:35:36.141Z</time></trkpt><trkpt lat="45.8518666" lon="11.473394"><ele>961.0</ele><time>2026-04-18T13:35:37.141Z</time></trkpt><trkpt lat="45.851957" lon="11.4735191"><ele>961.0</ele><time>2026-04-18T13:35:38.141Z</time></trkpt><trkpt lat="45.8520324" lon="11.4736795"><ele>963.6666666666666</ele><time>2026-04-18T13:35:39.142Z</time></trkpt><trkpt lat="45.852097" lon="11.4738692"><ele>966.3333333333333</ele><time>2026-04-18T13:35:40.141Z</time></trkpt><trkpt lat="45.8521589" lon="11.4740666"><ele>969.0</ele><time>2026-04-18T13:35:41.141Z</time></trkpt><trkpt lat="45.8522201" lon="11.4742813"><ele>969.0</ele><time>2026-04-18T13:35:42.142Z</time></trkpt><trkpt lat="45.8522902" lon="11.4745068"><ele>969.0</ele><time>2026-04-18T13:35:43.142Z</time></trkpt><trkpt lat="45.8523648" lon="11.4747387"><ele>969.0</ele><time>2026-04-18T13:35:44.142Z</time></trkpt><trkpt lat="45.8524572" lon="11.4749822"><ele>970.3333333333333</ele><time>2026-04-18T13:35:45.14Z</time></trkpt><trkpt lat="45.8525677" lon="11.4752234"><ele>971.6666666666666</ele><time>2026-04-18T13:35:46.141Z</time></trkpt><trkpt lat="45.8526865" lon="11.4754671"><ele>973.0</ele><time>2026-04-18T13:35:47.142Z</time></trkpt><trkpt lat="45.8528114" lon="11.4757095"><ele>974.6666666666666</ele><time>2026-04-18T13:35:48.141Z</time></trkpt><trkpt lat="45.8529481" lon="11.4759473"><ele>976.3333333333333</ele><time>2026-04-18T13:35:49.141Z</time></trkpt><trkpt lat="45.8530735" lon="11.4761659"><ele>978.0</ele><time>2026-04-18T13:35:50.141Z</time></trkpt><trkpt lat="45.8531737" lon="11.4763262"><ele>975.25</ele><time>2026-04-18T13:35:51.142Z</time></trkpt><trkpt lat="45.8532659" lon="11.4764414"><ele>972.5</ele><time>2026-04-18T13:35:52.141Z</time></trkpt><trkpt lat="45.8533677" lon="11.4765266"><ele>969.75</ele><time>2026-04-18T13:35:53.14Z</time></trkpt><trkpt lat="45.8534817" lon="11.4765619"><ele>967.0</ele><time>2026-04-18T13:35:54.141Z</time></trkpt><trkpt lat="45.8535959" lon="11.4765881"><ele>966.75</ele><time>2026-04-18T13:35:55.141Z</time></trkpt><trkpt lat="45.8537252" lon="11.4764955"><ele>966.5</ele><time>2026-04-18T13:35:56.142Z</time></trkpt><trkpt lat="45.8538072" lon="11.4763096"><ele>966.25</ele><time>2026-04-18T13:35:57.141Z</time></trkpt><trkpt lat="45.853881" lon="11.4761444"><ele>966.0</ele><time>2026-04-18T13:35:58.141Z</time></trkpt><trkpt lat="45.8539569" lon="11.4759544"><ele>966.0</ele><time>2026-04-18T13:35:59.141Z</time></trkpt><trkpt lat="45.8540359" lon="11.4757546"><ele>966.0</ele><time>2026-04-18T13:36:00.14Z</time></trkpt><trkpt lat="45.8541204" lon="11.4755422"><ele>966.0</ele><time>2026-04-18T13:36:01.141Z</time></trkpt><trkpt lat="45.8542135" lon="11.4753203"><ele>962.3333333333333</ele><time>2026-04-18T13:36:02.141Z</time></trkpt><trkpt lat="45.8543052" lon="11.4750856"><ele>958.6666666666666</ele><time>2026-04-18T13:36:03.141Z</time></trkpt><trkpt lat="45.8544009" lon="11.4748439"><ele>955.0</ele><time>2026-04-18T13:36:04.14Z</time></trkpt><trkpt lat="45.8545033" lon="11.4746102"><ele>958.3333333333333</ele><time>2026-04-18T13:36:05.14Z</time></trkpt><trkpt lat="45.8546067" lon="11.4743715"><ele>961.6666666666667</ele><time>2026-04-18T13:36:06.142Z</time></trkpt><trkpt lat="45.8547172" lon="11.4741271"><ele>965.0</ele><time>2026-04-18T13:36:07.141Z</time></trkpt><trkpt lat="45.8548327" lon="11.4738851"><ele>964.0</ele><time>2026-04-18T13:36:08.14Z</time></trkpt><trkpt lat="45.8549449" lon="11.473638"><ele>963.0</ele><time>2026-04-18T13:36:09.14Z</time></trkpt><trkpt lat="45.8550643" lon="11.4733938"><ele>962.0</ele><time>2026-04-18T13:36:10.142Z</time></trkpt><trkpt lat="45.8551751" lon="11.4731424"><ele>963.0</ele><time>2026-04-18T13:36:11.141Z</time></trkpt><trkpt lat="45.8552912" lon="11.4729036"><ele>964.0</ele><time>2026-04-18T13:36:12.142Z</time></trkpt><trkpt lat="45.8554018" lon="11.4726588"><ele>965.0</ele><time>2026-04-18T13:36:13.14Z</time></trkpt><trkpt lat="45.8555071" lon="11.4724339"><ele>965.0</ele><time>2026-04-18T13:36:14.142Z</time></trkpt><trkpt lat="45.8556089" lon="11.4722275"><ele>965.0</ele><time>2026-04-18T13:36:15.142Z</time></trkpt><trkpt lat="45.8557067" lon="11.4720313"><ele>965.0</ele><time>2026-04-18T13:36:16.142Z</time></trkpt><trkpt lat="45.8558059" lon="11.4718569"><ele>965.25</ele><time>2026-04-18T13:36:17.142Z</time></trkpt><trkpt lat="45.8559168" lon="11.4717109"><ele>965.5</ele><time>2026-04-18T13:36:18.141Z</time></trkpt><trkpt lat="45.8560367" lon="11.4716054"><ele>965.75</ele><time>2026-04-18T13:36:19.14Z</time></trkpt><trkpt lat="45.8561636" lon="11.471534"><ele>966.0</ele><time>2026-04-18T13:36:20.14Z</time></trkpt><trkpt lat="45.8562957" lon="11.4714979"><ele>967.0</ele><time>2026-04-18T13:36:21.141Z</time></trkpt><trkpt lat="45.8564331" lon="11.4714988"><ele>968.0</ele><time>2026-04-18T13:36:22.141Z</time></trkpt><trkpt lat="45.8565796" lon="11.4715295"><ele>969.0</ele><time>2026-04-18T13:36:23.141Z</time></trkpt><trkpt lat="45.8567287" lon="11.4715809"><ele>970.0</ele><time>2026-04-18T13:36:24.14Z</time></trkpt><trkpt lat="45.8568825" lon="11.471639"><ele>971.0</ele><time>2026-04-18T13:36:25.141Z</time></trkpt><trkpt lat="45.8570443" lon="11.4716939"><ele>972.0</ele><time>2026-04-18T13:36:26.142Z</time></trkpt><trkpt lat="45.857211" lon="11.4717583"><ele>973.0</ele><time>2026-04-18T13:36:27.141Z</time></trkpt><trkpt lat="45.8573778" lon="11.4718135"><ele>973.0</ele><time>2026-04-18T13:36:28.141Z</time></trkpt><trkpt lat="45.8575489" lon="11.4718828"><ele>973.0</ele><time>2026-04-18T13:36:29.142Z</time></trkpt><trkpt lat="45.8577246" lon="11.4719425"><ele>973.0</ele><time>2026-04-18T13:36:30.14Z</time></trkpt><trkpt lat="45.8579002" lon="11.4720095"><ele>974.3333333333333</ele><time>2026-04-18T13:36:31.141Z</time></trkpt><trkpt lat="45.8580781" lon="11.4720754"><ele>975.6666666666667</ele><time>2026-04-18T13:36:32.141Z</time></trkpt><trkpt lat="45.8582515" lon="11.4721406"><ele>977.0</ele><time>2026-04-18T13:36:33.141Z</time></trkpt><trkpt lat="45.8584163" lon="11.4721981"><ele>978.3333333333334</ele><time>2026-04-18T13:36:34.14Z</time></trkpt><trkpt lat="45.8585705" lon="11.4722559"><ele>979.6666666666667</ele><time>2026-04-18T13:36:35.142Z</time></trkpt><trkpt lat="45.8587175" lon="11.4722924"><ele>981.0</ele><time>2026-04-18T13:36:36.142Z</time></trkpt><trkpt lat="45.8588643" lon="11.4723164"><ele>981.0</ele><time>2026-04-18T13:36:37.142Z</time></trkpt><trkpt lat="45.8590293" lon="11.4722624"><ele>981.0</ele><time>2026-04-18T13:36:38.14Z</time></trkpt><trkpt lat="45.85918" lon="11.472226"><ele>981.0</ele><time>2026-04-18T13:36:39.141Z</time></trkpt><trkpt lat="45.8593368" lon="11.4721853"><ele>981.0</ele><time>2026-04-18T13:36:40.141Z</time></trkpt><trkpt lat="45.8595026" lon="11.4721381"><ele>981.0</ele><time>2026-04-18T13:36:41.141Z</time></trkpt><trkpt lat="45.8596718" lon="11.4721044"><ele>981.0</ele><time>2026-04-18T13:36:42.142Z</time></trkpt><trkpt lat="45.8598383" lon="11.4721011"><ele>981.0</ele><time>2026-04-18T13:36:43.14Z</time></trkpt><trkpt lat="45.8600097" lon="11.4721164"><ele>981.0</ele><time>2026-04-18T13:36:44.141Z</time></trkpt><trkpt lat="45.8601787" lon="11.4721453"><ele>981.0</ele><time>2026-04-18T13:36:45.14Z</time></trkpt><trkpt lat="45.8603457" lon="11.4721884"><ele>982.3333333333333</ele><time>2026-04-18T13:36:46.141Z</time></trkpt><trkpt lat="45.8605166" lon="11.4722316"><ele>983.6666666666666</ele><time>2026-04-18T13:36:47.141Z</time></trkpt><trkpt lat="45.8606891" lon="11.472277"><ele>985.0</ele><time>2026-04-18T13:36:48.141Z</time></trkpt><trkpt lat="45.8608516" lon="11.472316"><ele>985.5</ele><time>2026-04-18T13:36:49.142Z</time></trkpt><trkpt lat="45.8610024" lon="11.4723487"><ele>986.0</ele><time>2026-04-18T13:36:50.142Z</time></trkpt><trkpt lat="45.8611444" lon="11.4723867"><ele>986.5</ele><time>2026-04-18T13:36:51.142Z</time></trkpt><trkpt lat="45.8612907" lon="11.4724246"><ele>987.0</ele><time>2026-04-18T13:36:52.141Z</time></trkpt><trkpt lat="45.8614373" lon="11.4724585"><ele>987.0</ele><time>2026-04-18T13:36:53.141Z</time></trkpt><trkpt lat="45.8615815" lon="11.4724956"><ele>987.0</ele><time>2026-04-18T13:36:54.14Z</time></trkpt><trkpt lat="45.861722" lon="11.472529"><ele>987.0</ele><time>2026-04-18T13:36:55.141Z</time></trkpt><trkpt lat="45.8618663" lon="11.4725317"><ele>987.0</ele><time>2026-04-18T13:36:56.141Z</time></trkpt><trkpt lat="45.862007" lon="11.4725111"><ele>987.25</ele><time>2026-04-18T13:36:57.142Z</time></trkpt><trkpt lat="45.8621487" lon="11.4724964"><ele>987.5</ele><time>2026-04-18T13:36:58.142Z</time></trkpt><trkpt lat="45.8622712" lon="11.4724536"><ele>987.75</ele><time>2026-04-18T13:36:59.141Z</time></trkpt><trkpt lat="45.8623798" lon="11.4724133"><ele>988.0</ele><time>2026-04-18T13:37:00.142Z</time></trkpt><trkpt lat="45.8624806" lon="11.4723719"><ele>988.0</ele><time>2026-04-18T13:37:01.141Z</time></trkpt><trkpt lat="45.8625568" lon="11.4723741"><ele>988.0</ele><time>2026-04-18T13:37:04.142Z</time></trkpt><trkpt lat="45.8626518" lon="11.47239"><ele>988.0</ele><time>2026-04-18T13:37:08.14Z</time></trkpt><trkpt lat="45.8627529" lon="11.4723792"><ele>988.0</ele><time>2026-04-18T13:37:10.141Z</time></trkpt><trkpt lat="45.8628606" lon="11.4723655"><ele>988.0</ele><time>2026-04-18T13:37:12.14Z</time></trkpt><trkpt lat="45.86297" lon="11.4724019"><ele>988.4999999999999</ele><time>2026-04-18T13:37:14.141Z</time></trkpt><trkpt lat="45.8630335" lon="11.4724253"><ele>989.0</ele><time>2026-04-18T13:37:15.141Z</time></trkpt><trkpt lat="45.8630988" lon="11.4724646"><ele>989.5</ele><time>2026-04-18T13:37:16.142Z</time></trkpt><trkpt lat="45.8631727" lon="11.4725055"><ele>990.0</ele><time>2026-04-18T13:37:17.141Z</time></trkpt><trkpt lat="45.863253" lon="11.4725484"><ele>990.4999999999999</ele><time>2026-04-18T13:37:18.142Z</time></trkpt><trkpt lat="45.8633492" lon="11.4726069"><ele>991.0</ele><time>2026-04-18T13:37:19.142Z</time></trkpt><trkpt lat="45.8634361" lon="11.4726685"><ele>991.1666666666666</ele><time>2026-04-18T13:37:20.14Z</time></trkpt><trkpt lat="45.8635286" lon="11.4727279"><ele>991.3333333333333</ele><time>2026-04-18T13:37:21.14Z</time></trkpt><trkpt lat="45.8636109" lon="11.4727852"><ele>991.5</ele><time>2026-04-18T13:37:22.14Z</time></trkpt><trkpt lat="45.8636815" lon="11.47285"><ele>991.6666666666667</ele><time>2026-04-18T13:37:23.141Z</time></trkpt><trkpt lat="45.8637435" lon="11.4729012"><ele>991.8333333333334</ele><time>2026-04-18T13:37:24.141Z</time></trkpt><trkpt lat="45.8638009" lon="11.4729484"><ele>992.0</ele><time>2026-04-18T13:37:25.141Z</time></trkpt><trkpt lat="45.8638884" lon="11.4730607"><ele>992.6</ele><time>2026-04-18T13:37:27.141Z</time></trkpt><trkpt lat="45.8639658" lon="11.4732036"><ele>993.2</ele><time>2026-04-18T13:37:29.141Z</time></trkpt><trkpt lat="45.8639995" lon="11.4732949"><ele>993.8</ele><time>2026-04-18T13:37:30.141Z</time></trkpt><trkpt lat="45.8640444" lon="11.4733938"><ele>994.4</ele><time>2026-04-18T13:37:31.141Z</time></trkpt><trkpt lat="45.8640934" lon="11.473501"><ele>995.0</ele><time>2026-04-18T13:37:32.14Z</time></trkpt><trkpt lat="45.8641459" lon="11.4735981"><ele>995.0</ele><time>2026-04-18T13:37:33.141Z</time></trkpt><trkpt lat="45.8642206" lon="11.4737209"><ele>995.0</ele><time>2026-04-18T13:37:35.142Z</time></trkpt><trkpt lat="45.8643083" lon="11.4738229"><ele>995.0</ele><time>2026-04-18T13:37:37.142Z</time></trkpt><trkpt lat="45.8643597" lon="11.4738827"><ele>995.0</ele><time>2026-04-18T13:37:38.142Z</time></trkpt><trkpt lat="45.864421" lon="11.4739523"><ele>995.0</ele><time>2026-04-18T13:37:39.141Z</time></trkpt><trkpt lat="45.8644868" lon="11.4740323"><ele>995.2</ele><time>2026-04-18T13:37:40.142Z</time></trkpt><trkpt lat="45.8645619" lon="11.4741205"><ele>995.4</ele><time>2026-04-18T13:37:41.141Z</time></trkpt><trkpt lat="45.8646378" lon="11.4742081"><ele>995.5999999999999</ele><time>2026-04-18T13:37:42.142Z</time></trkpt><trkpt lat="45.8647197" lon="11.4742994"><ele>995.8</ele><time>2026-04-18T13:37:43.142Z</time></trkpt><trkpt lat="45.8647955" lon="11.4743855"><ele>996.0</ele><time>2026-04-18T13:37:44.141Z</time></trkpt><trkpt lat="45.8648833" lon="11.4744655"><ele>996.0</ele><time>2026-04-18T13:37:45.141Z</time></trkpt><trkpt lat="45.8649634" lon="11.4745435"><ele>995.9999999999999</ele><time>2026-04-18T13:37:46.14Z</time></trkpt><trkpt lat="45.8650468" lon="11.4746288"><ele>995.9999999999999</ele><time>2026-04-18T13:37:47.141Z</time></trkpt><trkpt lat="45.8651318" lon="11.4747201"><ele>996.0</ele><time>2026-04-18T13:37:48.141Z</time></trkpt><trkpt lat="45.8652143" lon="11.4748124"><ele>996.0</ele><time>2026-04-18T13:37:49.141Z</time></trkpt><trkpt lat="45.8652932" lon="11.4749027"><ele>995.75</ele><time>2026-04-18T13:37:50.142Z</time></trkpt><trkpt lat="45.8653911" lon="11.4749968"><ele>995.5</ele><time>2026-04-18T13:37:51.142Z</time></trkpt><trkpt lat="45.8654789" lon="11.4750895"><ele>995.25</ele><time>2026-04-18T13:37:52.141Z</time></trkpt><trkpt lat="45.8655772" lon="11.4751921"><ele>995.0</ele><time>2026-04-18T13:37:53.141Z</time></trkpt><trkpt lat="45.8656723" lon="11.4752954"><ele>995.0</ele><time>2026-04-18T13:37:54.14Z</time></trkpt><trkpt lat="45.8657695" lon="11.4754053"><ele>995.0</ele><time>2026-04-18T13:37:55.141Z</time></trkpt><trkpt lat="45.8658708" lon="11.4755097"><ele>995.0</ele><time>2026-04-18T13:37:56.142Z</time></trkpt><trkpt lat="45.8659721" lon="11.4756205"><ele>995.0</ele><time>2026-04-18T13:37:57.141Z</time></trkpt><trkpt lat="45.8660736" lon="11.4757272"><ele>995.75</ele><time>2026-04-18T13:37:58.142Z</time></trkpt><trkpt lat="45.8661715" lon="11.4758262"><ele>996.5</ele><time>2026-04-18T13:37:59.14Z</time></trkpt><trkpt lat="45.866267" lon="11.4759318"><ele>997.25</ele><time>2026-04-18T13:38:00.141Z</time></trkpt><trkpt lat="45.8663643" lon="11.4760313"><ele>998.0</ele><time>2026-04-18T13:38:01.142Z</time></trkpt><trkpt lat="45.8664622" lon="11.4761282"><ele>998.0</ele><time>2026-04-18T13:38:02.141Z</time></trkpt><trkpt lat="45.8665595" lon="11.4762249"><ele>998.0</ele><time>2026-04-18T13:38:03.142Z</time></trkpt><trkpt lat="45.8666548" lon="11.4763232"><ele>998.0</ele><time>2026-04-18T13:38:04.142Z</time></trkpt><trkpt lat="45.8667537" lon="11.4764247"><ele>998.0</ele><time>2026-04-18T13:38:05.14Z</time></trkpt><trkpt lat="45.8668478" lon="11.4765244"><ele>997.5</ele><time>2026-04-18T13:38:06.141Z</time></trkpt><trkpt lat="45.8669528" lon="11.4766335"><ele>997.0</ele><time>2026-04-18T13:38:07.141Z</time></trkpt><trkpt lat="45.8670466" lon="11.4767404"><ele>996.5</ele><time>2026-04-18T13:38:08.141Z</time></trkpt><trkpt lat="45.8671465" lon="11.476848"><ele>996.0</ele><time>2026-04-18T13:38:09.142Z</time></trkpt><trkpt lat="45.8672347" lon="11.4769395"><ele>996.0</ele><time>2026-04-18T13:38:10.14Z</time></trkpt><trkpt lat="45.8673143" lon="11.4770233"><ele>995.9999999999999</ele><time>2026-04-18T13:38:11.142Z</time></trkpt><trkpt lat="45.8673884" lon="11.4771038"><ele>995.9999999999999</ele><time>2026-04-18T13:38:12.141Z</time></trkpt><trkpt lat="45.8674604" lon="11.4771874"><ele>996.0</ele><time>2026-04-18T13:38:13.141Z</time></trkpt><trkpt lat="45.8675295" lon="11.4772744"><ele>996.0</ele><time>2026-04-18T13:38:14.141Z</time></trkpt><trkpt lat="45.8676016" lon="11.4773538"><ele>996.8</ele><time>2026-04-18T13:38:15.142Z</time></trkpt><trkpt lat="45.8676764" lon="11.4774348"><ele>997.5999999999999</ele><time>2026-04-18T13:38:16.141Z</time></trkpt><trkpt lat="45.8677565" lon="11.4775184"><ele>998.4</ele><time>2026-04-18T13:38:17.142Z</time></trkpt><trkpt lat="45.8678444" lon="11.4776035"><ele>999.2</ele><time>2026-04-18T13:38:18.141Z</time></trkpt><trkpt lat="45.8679339" lon="11.477703"><ele>1000.0</ele><time>2026-04-18T13:38:19.142Z</time></trkpt><trkpt lat="45.8680304" lon="11.4778076"><ele>1000.0</ele><time>2026-04-18T13:38:20.141Z</time></trkpt><trkpt lat="45.8681296" lon="11.4779135"><ele>1000.0</ele><time>2026-04-18T13:38:21.142Z</time></trkpt><trkpt lat="45.8682392" lon="11.4780272"><ele>1000.0</ele><time>2026-04-18T13:38:22.141Z</time></trkpt><trkpt lat="45.8683481" lon="11.4781435"><ele>1000.0</ele><time>2026-04-18T13:38:23.141Z</time></trkpt><trkpt lat="45.8684511" lon="11.4782395"><ele>999.25</ele><time>2026-04-18T13:38:24.141Z</time></trkpt><trkpt lat="45.8685517" lon="11.4783475"><ele>998.5</ele><time>2026-04-18T13:38:25.142Z</time></trkpt><trkpt lat="45.8686537" lon="11.4784557"><ele>997.75</ele><time>2026-04-18T13:38:26.14Z</time></trkpt><trkpt lat="45.8687555" lon="11.4785647"><ele>997.0</ele><time>2026-04-18T13:38:27.142Z</time></trkpt><trkpt lat="45.8688586" lon="11.4786767"><ele>998.25</ele><time>2026-04-18T13:38:28.142Z</time></trkpt><trkpt lat="45.8689624" lon="11.4787849"><ele>999.5</ele><time>2026-04-18T13:38:29.14Z</time></trkpt><trkpt lat="45.8690684" lon="11.4788922"><ele>1000.75</ele><time>2026-04-18T13:38:30.14Z</time></trkpt><trkpt lat="45.8691685" lon="11.4789928"><ele>1002.0</ele><time>2026-04-18T13:38:31.141Z</time></trkpt><trkpt lat="45.8692631" lon="11.479095"><ele>1002.6666666666666</ele><time>2026-04-18T13:38:32.141Z</time></trkpt><trkpt lat="45.8693478" lon="11.4791925"><ele>1003.3333333333333</ele><time>2026-04-18T13:38:33.142Z</time></trkpt><trkpt lat="45.8694185" lon="11.4792869"><ele>1004.0</ele><time>2026-04-18T13:38:34.142Z</time></trkpt><trkpt lat="45.8694631" lon="11.4793761"><ele>1004.6666666666666</ele><time>2026-04-18T13:38:35.142Z</time></trkpt><trkpt lat="45.8694969" lon="11.4794542"><ele>1005.3333333333333</ele><time>2026-04-18T13:38:36.141Z</time></trkpt><trkpt lat="45.8695203" lon="11.4795446"><ele>1006.0</ele><time>2026-04-18T13:38:37.141Z</time></trkpt><trkpt lat="45.8695338" lon="11.4796554"><ele>1006.0</ele><time>2026-04-18T13:38:38.142Z</time></trkpt><trkpt lat="45.869536" lon="11.4797621"><ele>1005.9999999999999</ele><time>2026-04-18T13:38:39.142Z</time></trkpt><trkpt lat="45.8695332" lon="11.4798852"><ele>1005.9999999999999</ele><time>2026-04-18T13:38:40.14Z</time></trkpt><trkpt lat="45.8695229" lon="11.4800335"><ele>1006.0</ele><time>2026-04-18T13:38:41.141Z</time></trkpt><trkpt lat="45.8695014" lon="11.4801974"><ele>1006.0</ele><time>2026-04-18T13:38:42.142Z</time></trkpt><trkpt lat="45.8694562" lon="11.4803724"><ele>1006.25</ele><time>2026-04-18T13:38:43.142Z</time></trkpt><trkpt lat="45.8693878" lon="11.4805448"><ele>1006.5</ele><time>2026-04-18T13:38:44.141Z</time></trkpt><trkpt lat="45.8693102" lon="11.4806999"><ele>1006.75</ele><time>2026-04-18T13:38:45.141Z</time></trkpt><trkpt lat="45.8692366" lon="11.4808416"><ele>1007.0</ele><time>2026-04-18T13:38:46.14Z</time></trkpt><trkpt lat="45.8691598" lon="11.4809712"><ele>1007.0</ele><time>2026-04-18T13:38:47.142Z</time></trkpt><trkpt lat="45.8690807" lon="11.4811001"><ele>1007.0</ele><time>2026-04-18T13:38:48.142Z</time></trkpt><trkpt lat="45.869002" lon="11.4812275"><ele>1007.0</ele><time>2026-04-18T13:38:49.141Z</time></trkpt><trkpt lat="45.8689258" lon="11.4813618"><ele>1007.0</ele><time>2026-04-18T13:38:50.142Z</time></trkpt><trkpt lat="45.8688501" lon="11.4814875"><ele>1008.4000000000001</ele><time>2026-04-18T13:38:51.142Z</time></trkpt><trkpt lat="45.8687895" lon="11.4816159"><ele>1009.8000000000001</ele><time>2026-04-18T13:38:52.14Z</time></trkpt><trkpt lat="45.8687367" lon="11.4817474"><ele>1011.2</ele><time>2026-04-18T13:38:53.141Z</time></trkpt><trkpt lat="45.8686955" lon="11.4818908"><ele>1012.6</ele><time>2026-04-18T13:38:54.141Z</time></trkpt><trkpt lat="45.8687118" lon="11.4820466"><ele>1014.0</ele><time>2026-04-18T13:38:55.141Z</time></trkpt><trkpt lat="45.8687394" lon="11.4822025"><ele>1014.0</ele><time>2026-04-18T13:38:56.14Z</time></trkpt><trkpt lat="45.8687818" lon="11.482348"><ele>1014.0</ele><time>2026-04-18T13:38:57.141Z</time></trkpt><trkpt lat="45.8688368" lon="11.4824939"><ele>1014.0</ele><time>2026-04-18T13:38:58.141Z</time></trkpt><trkpt lat="45.8689039" lon="11.4826324"><ele>1014.0</ele><time>2026-04-18T13:38:59.142Z</time></trkpt><trkpt lat="45.8689768" lon="11.48278"><ele>1014.0</ele><time>2026-04-18T13:39:00.14Z</time></trkpt><trkpt lat="45.8690513" lon="11.4829255"><ele>1014.0</ele><time>2026-04-18T13:39:01.14Z</time></trkpt><trkpt lat="45.8691036" lon="11.4830998"><ele>1014.0</ele><time>2026-04-18T13:39:02.142Z</time></trkpt><trkpt lat="45.8691588" lon="11.4832744"><ele>1014.0</ele><time>2026-04-18T13:39:03.141Z</time></trkpt><trkpt lat="45.8691787" lon="11.4834652"><ele>1014.0</ele><time>2026-04-18T13:39:04.141Z</time></trkpt><trkpt lat="45.8691998" lon="11.4836548"><ele>1014.0</ele><time>2026-04-18T13:39:05.142Z</time></trkpt><trkpt lat="45.8692007" lon="11.4838533"><ele>1014.0</ele><time>2026-04-18T13:39:06.141Z</time></trkpt><trkpt lat="45.8691904" lon="11.4840336"><ele>1014.0</ele><time>2026-04-18T13:39:07.141Z</time></trkpt><trkpt lat="45.8691751" lon="11.4842082"><ele>1014.0</ele><time>2026-04-18T13:39:08.141Z</time></trkpt><trkpt lat="45.8691487" lon="11.4843701"><ele>1014.0</ele><time>2026-04-18T13:39:09.142Z</time></trkpt><trkpt lat="45.869095" lon="11.4845115"><ele>1014.0</ele><time>2026-04-18T13:39:10.142Z</time></trkpt><trkpt lat="45.869035" lon="11.4846485"><ele>1014.0</ele><time>2026-04-18T13:39:11.141Z</time></trkpt><trkpt lat="45.8689378" lon="11.484772"><ele>1014.5</ele><time>2026-04-18T13:39:12.141Z</time></trkpt><trkpt lat="45.8688523" lon="11.4848931"><ele>1015.0</ele><time>2026-04-18T13:39:13.142Z</time></trkpt><trkpt lat="45.8687641" lon="11.4850078"><ele>1015.5</ele><time>2026-04-18T13:39:14.142Z</time></trkpt><trkpt lat="45.8686768" lon="11.4851153"><ele>1016.0</ele><time>2026-04-18T13:39:15.141Z</time></trkpt><trkpt lat="45.8685921" lon="11.4852291"><ele>1016.0</ele><time>2026-04-18T13:39:16.142Z</time></trkpt><trkpt lat="45.8685051" lon="11.4853452"><ele>1015.9999999999999</ele><time>2026-04-18T13:39:17.142Z</time></trkpt><trkpt lat="45.8684246" lon="11.485447"><ele>1015.9999999999999</ele><time>2026-04-18T13:39:18.142Z</time></trkpt><trkpt lat="45.8683548" lon="11.4855458"><ele>1016.0</ele><time>2026-04-18T13:39:19.142Z</time></trkpt><trkpt lat="45.8682877" lon="11.4856519"><ele>1016.0</ele><time>2026-04-18T13:39:20.141Z</time></trkpt><trkpt lat="45.8682418" lon="11.4857659"><ele>1016.0</ele><time>2026-04-18T13:39:21.141Z</time></trkpt><trkpt lat="45.8682219" lon="11.4858751"><ele>1015.9999999999999</ele><time>2026-04-18T13:39:22.141Z</time></trkpt><trkpt lat="45.8682228" lon="11.4859972"><ele>1015.9999999999999</ele><time>2026-04-18T13:39:23.142Z</time></trkpt><trkpt lat="45.868247" lon="11.4861245"><ele>1016.0</ele><time>2026-04-18T13:39:24.142Z</time></trkpt><trkpt lat="45.86829" lon="11.486258"><ele>1016.0</ele><time>2026-04-18T13:39:25.14Z</time></trkpt><trkpt lat="45.8683528" lon="11.4864106"><ele>1018.0</ele><time>2026-04-18T13:39:26.142Z</time></trkpt><trkpt lat="45.8684436" lon="11.4865855"><ele>1020.0</ele><time>2026-04-18T13:39:27.141Z</time></trkpt><trkpt lat="45.8685425" lon="11.4867858"><ele>1022.0</ele><time>2026-04-18T13:39:28.141Z</time></trkpt><trkpt lat="45.8686387" lon="11.4869929"><ele>1022.3333333333334</ele><time>2026-04-18T13:39:29.142Z</time></trkpt><trkpt lat="45.8687402" lon="11.4872042"><ele>1022.6666666666667</ele><time>2026-04-18T13:39:30.14Z</time></trkpt><trkpt lat="45.8688345" lon="11.4874188"><ele>1023.0</ele><time>2026-04-18T13:39:31.14Z</time></trkpt><trkpt lat="45.868933" lon="11.4876382"><ele>1023.0</ele><time>2026-04-18T13:39:32.141Z</time></trkpt><trkpt lat="45.8690274" lon="11.4878538"><ele>1023.0</ele><time>2026-04-18T13:39:33.14Z</time></trkpt><trkpt lat="45.8691219" lon="11.4880593"><ele>1023.0</ele><time>2026-04-18T13:39:34.141Z</time></trkpt><trkpt lat="45.8692165" lon="11.4882605"><ele>1022.6666666666667</ele><time>2026-04-18T13:39:35.142Z</time></trkpt><trkpt lat="45.8693128" lon="11.4884569"><ele>1022.3333333333334</ele><time>2026-04-18T13:39:36.141Z</time></trkpt><trkpt lat="45.8694089" lon="11.4886528"><ele>1022.0</ele><time>2026-04-18T13:39:37.142Z</time></trkpt><trkpt lat="45.869498" lon="11.4888327"><ele>1022.0</ele><time>2026-04-18T13:39:38.141Z</time></trkpt><trkpt lat="45.869573" lon="11.4890041"><ele>1022.0</ele><time>2026-04-18T13:39:39.141Z</time></trkpt><trkpt lat="45.8696369" lon="11.4891603"><ele>1022.0</ele><time>2026-04-18T13:39:40.141Z</time></trkpt><trkpt lat="45.8696778" lon="11.4893072"><ele>1022.0</ele><time>2026-04-18T13:39:41.142Z</time></trkpt><trkpt lat="45.8696877" lon="11.4894621"><ele>1019.75</ele><time>2026-04-18T13:39:42.142Z</time></trkpt><trkpt lat="45.8696659" lon="11.4896276"><ele>1017.5</ele><time>2026-04-18T13:39:43.141Z</time></trkpt><trkpt lat="45.8696105" lon="11.4897936"><ele>1015.25</ele><time>2026-04-18T13:39:44.141Z</time></trkpt><trkpt lat="45.8695333" lon="11.4899568"><ele>1013.0</ele><time>2026-04-18T13:39:45.141Z</time></trkpt><trkpt lat="45.8694452" lon="11.4901272"><ele>1013.0</ele><time>2026-04-18T13:39:46.141Z</time></trkpt><trkpt lat="45.8693537" lon="11.4903128"><ele>1013.0</ele><time>2026-04-18T13:39:47.142Z</time></trkpt><trkpt lat="45.8692593" lon="11.4905042"><ele>1013.0</ele><time>2026-04-18T13:39:48.14Z</time></trkpt><trkpt lat="45.8691576" lon="11.4906977"><ele>1012.3333333333334</ele><time>2026-04-18T13:39:49.141Z</time></trkpt><trkpt lat="45.8690552" lon="11.4908994"><ele>1011.6666666666667</ele><time>2026-04-18T13:39:50.141Z</time></trkpt><trkpt lat="45.8689479" lon="11.4911064"><ele>1011.0</ele><time>2026-04-18T13:39:51.14Z</time></trkpt><trkpt lat="45.8688478" lon="11.4913045"><ele>1009.0</ele><time>2026-04-18T13:39:52.14Z</time></trkpt><trkpt lat="45.8687534" lon="11.491501"><ele>1007.0</ele><time>2026-04-18T13:39:53.14Z</time></trkpt><trkpt lat="45.8686567" lon="11.4916914"><ele>1005.0</ele><time>2026-04-18T13:39:54.14Z</time></trkpt><trkpt lat="45.8685654" lon="11.4918776"><ele>1005.0</ele><time>2026-04-18T13:39:55.14Z</time></trkpt><trkpt lat="45.8684748" lon="11.492056"><ele>1005.0</ele><time>2026-04-18T13:39:56.141Z</time></trkpt><trkpt lat="45.8683893" lon="11.4922318"><ele>1005.0</ele><time>2026-04-18T13:39:57.142Z</time></trkpt><trkpt lat="45.8683121" lon="11.4924043"><ele>1005.0</ele><time>2026-04-18T13:39:58.141Z</time></trkpt><trkpt lat="45.8682482" lon="11.4925802"><ele>1005.75</ele><time>2026-04-18T13:39:59.141Z</time></trkpt><trkpt lat="45.8681984" lon="11.4927623"><ele>1006.5</ele><time>2026-04-18T13:40:00.14Z</time></trkpt><trkpt lat="45.8681603" lon="11.4929563"><ele>1007.25</ele><time>2026-04-18T13:40:01.141Z</time></trkpt><trkpt lat="45.8681286" lon="11.4931516"><ele>1008.0</ele><time>2026-04-18T13:40:02.141Z</time></trkpt><trkpt lat="45.8681097" lon="11.4933463"><ele>1006.5</ele><time>2026-04-18T13:40:03.142Z</time></trkpt><trkpt lat="45.8681062" lon="11.4935401"><ele>1005.0</ele><time>2026-04-18T13:40:04.142Z</time></trkpt><trkpt lat="45.868115" lon="11.4937355"><ele>1003.5</ele><time>2026-04-18T13:40:05.142Z</time></trkpt><trkpt lat="45.8681383" lon="11.4939242"><ele>1002.0</ele><time>2026-04-18T13:40:06.141Z</time></trkpt><trkpt lat="45.8681699" lon="11.4941051"><ele>1000.75</ele><time>2026-04-18T13:40:07.141Z</time></trkpt><trkpt lat="45.8682107" lon="11.4942825"><ele>999.5</ele><time>2026-04-18T13:40:08.141Z</time></trkpt><trkpt lat="45.8682519" lon="11.4944534"><ele>998.25</ele><time>2026-04-18T13:40:09.141Z</time></trkpt><trkpt lat="45.8683005" lon="11.4946166"><ele>997.0</ele><time>2026-04-18T13:40:10.142Z</time></trkpt><trkpt lat="45.8683522" lon="11.4947773"><ele>995.0</ele><time>2026-04-18T13:40:11.14Z</time></trkpt><trkpt lat="45.8684033" lon="11.4949329"><ele>993.0</ele><time>2026-04-18T13:40:12.14Z</time></trkpt><trkpt lat="45.8684536" lon="11.4950863"><ele>991.0</ele><time>2026-04-18T13:40:13.14Z</time></trkpt><trkpt lat="45.8685041" lon="11.4952348"><ele>989.0</ele><time>2026-04-18T13:40:14.141Z</time></trkpt><trkpt lat="45.8685558" lon="11.4953865"><ele>988.25</ele><time>2026-04-18T13:40:15.142Z</time></trkpt><trkpt lat="45.868609" lon="11.4955435"><ele>987.5</ele><time>2026-04-18T13:40:16.142Z</time></trkpt><trkpt lat="45.8686629" lon="11.4957077"><ele>986.75</ele><time>2026-04-18T13:40:17.141Z</time></trkpt><trkpt lat="45.8687265" lon="11.4958699"><ele>986.0</ele><time>2026-04-18T13:40:18.141Z</time></trkpt><trkpt lat="45.8687872" lon="11.4960261"><ele>986.0</ele><time>2026-04-18T13:40:19.141Z</time></trkpt><trkpt lat="45.8688432" lon="11.4961673"><ele>985.9999999999999</ele><time>2026-04-18T13:40:20.14Z</time></trkpt><trkpt lat="45.8688936" lon="11.4962853"><ele>985.9999999999999</ele><time>2026-04-18T13:40:21.142Z</time></trkpt><trkpt lat="45.8689465" lon="11.4963988"><ele>986.0</ele><time>2026-04-18T13:40:22.142Z</time></trkpt><trkpt lat="45.8690038" lon="11.4965093"><ele>986.0</ele><time>2026-04-18T13:40:23.141Z</time></trkpt><trkpt lat="45.8690682" lon="11.4966245"><ele>985.5</ele><time>2026-04-18T13:40:24.142Z</time></trkpt><trkpt lat="45.869139" lon="11.4967469"><ele>985.0</ele><time>2026-04-18T13:40:25.141Z</time></trkpt><trkpt lat="45.8692133" lon="11.4968756"><ele>984.5</ele><time>2026-04-18T13:40:26.142Z</time></trkpt><trkpt lat="45.8692983" lon="11.497006"><ele>984.0</ele><time>2026-04-18T13:40:27.141Z</time></trkpt><trkpt lat="45.8693759" lon="11.4971302"><ele>983.8000000000001</ele><time>2026-04-18T13:40:28.142Z</time></trkpt><trkpt lat="45.8694515" lon="11.4972475"><ele>983.6000000000001</ele><time>2026-04-18T13:40:29.141Z</time></trkpt><trkpt lat="45.8695129" lon="11.4973455"><ele>983.4</ele><time>2026-04-18T13:40:30.141Z</time></trkpt><trkpt lat="45.8695655" lon="11.4974271"><ele>983.2</ele><time>2026-04-18T13:40:31.141Z</time></trkpt><trkpt lat="45.8696332" lon="11.4975392"><ele>983.0</ele><time>2026-04-18T13:40:33.142Z</time></trkpt><trkpt lat="45.8696811" lon="11.4976202"><ele>983.0</ele><time>2026-04-18T13:40:35.141Z</time></trkpt><trkpt lat="45.8697603" lon="11.4977388"><ele>983.0</ele><time>2026-04-18T13:40:37.141Z</time></trkpt><trkpt lat="45.869822" lon="11.4978201"><ele>983.0</ele><time>2026-04-18T13:40:38.141Z</time></trkpt><trkpt lat="45.8698952" lon="11.4979258"><ele>983.0</ele><time>2026-04-18T13:40:39.141Z</time></trkpt><trkpt lat="45.8699804" lon="11.4980563"><ele>983.0</ele><time>2026-04-18T13:40:40.141Z</time></trkpt><trkpt lat="45.8700763" lon="11.4982045"><ele>984.75</ele><time>2026-04-18T13:40:41.14Z</time></trkpt><trkpt lat="45.8701745" lon="11.4983543"><ele>986.5</ele><time>2026-04-18T13:40:42.141Z</time></trkpt><trkpt lat="45.8702696" lon="11.4985087"><ele>988.25</ele><time>2026-04-18T13:40:43.141Z</time></trkpt><trkpt lat="45.8703594" lon="11.4986566"><ele>990.0</ele><time>2026-04-18T13:40:44.142Z</time></trkpt><trkpt lat="45.8704475" lon="11.4988012"><ele>990.0</ele><time>2026-04-18T13:40:45.141Z</time></trkpt><trkpt lat="45.8705283" lon="11.4989338"><ele>990.0</ele><time>2026-04-18T13:40:46.141Z</time></trkpt><trkpt lat="45.8706068" lon="11.4990593"><ele>990.0</ele><time>2026-04-18T13:40:47.141Z</time></trkpt><trkpt lat="45.8706839" lon="11.4991857"><ele>990.0</ele><time>2026-04-18T13:40:48.141Z</time></trkpt><trkpt lat="45.8707631" lon="11.4993134"><ele>990.0</ele><time>2026-04-18T13:40:49.141Z</time></trkpt><trkpt lat="45.8708422" lon="11.4994367"><ele>990.0</ele><time>2026-04-18T13:40:50.142Z</time></trkpt><trkpt lat="45.8709149" lon="11.4995557"><ele>990.0</ele><time>2026-04-18T13:40:51.14Z</time></trkpt><trkpt lat="45.8709815" lon="11.4996635"><ele>990.0</ele><time>2026-04-18T13:40:52.141Z</time></trkpt><trkpt lat="45.8710434" lon="11.4997572"><ele>990.0</ele><time>2026-04-18T13:40:53.142Z</time></trkpt><trkpt lat="45.8710993" lon="11.4998499"><ele>991.2</ele><time>2026-04-18T13:40:54.141Z</time></trkpt><trkpt lat="45.871165" lon="11.4999484"><ele>992.4</ele><time>2026-04-18T13:40:55.141Z</time></trkpt><trkpt lat="45.8712357" lon="11.5000555"><ele>993.5999999999999</ele><time>2026-04-18T13:40:56.141Z</time></trkpt><trkpt lat="45.8713092" lon="11.5001701"><ele>994.8</ele><time>2026-04-18T13:40:57.14Z</time></trkpt><trkpt lat="45.8713876" lon="11.5002917"><ele>996.0</ele><time>2026-04-18T13:40:58.141Z</time></trkpt><trkpt lat="45.8714708" lon="11.5004185"><ele>996.25</ele><time>2026-04-18T13:40:59.141Z</time></trkpt><trkpt lat="45.8715604" lon="11.5005502"><ele>996.5</ele><time>2026-04-18T13:41:00.141Z</time></trkpt><trkpt lat="45.8716505" lon="11.5006876"><ele>996.75</ele><time>2026-04-18T13:41:01.14Z</time></trkpt><trkpt lat="45.8717483" lon="11.5008323"><ele>997.0</ele><time>2026-04-18T13:41:02.141Z</time></trkpt><trkpt lat="45.871857" lon="11.5009846"><ele>999.6666666666666</ele><time>2026-04-18T13:41:03.141Z</time></trkpt><trkpt lat="45.8719705" lon="11.5011502"><ele>1002.3333333333333</ele><time>2026-04-18T13:41:04.141Z</time></trkpt><trkpt lat="45.8720763" lon="11.5013155"><ele>1005.0</ele><time>2026-04-18T13:41:05.141Z</time></trkpt><trkpt lat="45.8721789" lon="11.5014883"><ele>1005.0</ele><time>2026-04-18T13:41:06.14Z</time></trkpt><trkpt lat="45.8722741" lon="11.5016708"><ele>1005.0</ele><time>2026-04-18T13:41:07.14Z</time></trkpt><trkpt lat="45.8723609" lon="11.5018605"><ele>1005.0</ele><time>2026-04-18T13:41:08.141Z</time></trkpt><trkpt lat="45.8724438" lon="11.5020528"><ele>1005.25</ele><time>2026-04-18T13:41:09.141Z</time></trkpt><trkpt lat="45.8725185" lon="11.5022403"><ele>1005.5</ele><time>2026-04-18T13:41:10.141Z</time></trkpt><trkpt lat="45.872592" lon="11.502417"><ele>1005.75</ele><time>2026-04-18T13:41:11.141Z</time></trkpt><trkpt lat="45.8726691" lon="11.5025923"><ele>1006.0</ele><time>2026-04-18T13:41:12.142Z</time></trkpt><trkpt lat="45.8727498" lon="11.5028001"><ele>1008.0</ele><time>2026-04-18T13:41:13.141Z</time></trkpt><trkpt lat="45.8728302" lon="11.5030078"><ele>1010.0</ele><time>2026-04-18T13:41:14.14Z</time></trkpt><trkpt lat="45.8729037" lon="11.5032201"><ele>1012.0</ele><time>2026-04-18T13:41:15.14Z</time></trkpt><trkpt lat="45.8729719" lon="11.5034314"><ele>1012.0</ele><time>2026-04-18T13:41:16.142Z</time></trkpt><trkpt lat="45.8730369" lon="11.5036383"><ele>1012.0</ele><time>2026-04-18T13:41:17.141Z</time></trkpt><trkpt lat="45.873096" lon="11.5038332"><ele>1012.0</ele><time>2026-04-18T13:41:18.14Z</time></trkpt><trkpt lat="45.8731546" lon="11.5040235"><ele>1011.75</ele><time>2026-04-18T13:41:19.141Z</time></trkpt><trkpt lat="45.8732139" lon="11.5042083"><ele>1011.5</ele><time>2026-04-18T13:41:20.141Z</time></trkpt><trkpt lat="45.8732661" lon="11.5043897"><ele>1011.25</ele><time>2026-04-18T13:41:21.141Z</time></trkpt><trkpt lat="45.8733172" lon="11.5045646"><ele>1011.0</ele><time>2026-04-18T13:41:22.141Z</time></trkpt><trkpt lat="45.8733652" lon="11.5047348"><ele>1011.0</ele><time>2026-04-18T13:41:23.141Z</time></trkpt><trkpt lat="45.8734087" lon="11.5048857"><ele>1010.9999999999999</ele><time>2026-04-18T13:41:24.141Z</time></trkpt><trkpt lat="45.8734454" lon="11.5050252"><ele>1010.9999999999999</ele><time>2026-04-18T13:41:25.141Z</time></trkpt><trkpt lat="45.8734647" lon="11.5051575"><ele>1011.0</ele><time>2026-04-18T13:41:26.141Z</time></trkpt><trkpt lat="45.8734693" lon="11.5052784"><ele>1011.0</ele><time>2026-04-18T13:41:27.14Z</time></trkpt><trkpt lat="45.8734633" lon="11.5053951"><ele>1011.6666666666666</ele><time>2026-04-18T13:41:28.141Z</time></trkpt><trkpt lat="45.8734542" lon="11.5054944"><ele>1012.3333333333333</ele><time>2026-04-18T13:41:29.142Z</time></trkpt><trkpt lat="45.8734748" lon="11.5056149"><ele>1013.0</ele><time>2026-04-18T13:41:31.142Z</time></trkpt><trkpt lat="45.8735444" lon="11.5056553"><ele>1013.6666666666666</ele><time>2026-04-18T13:41:33.142Z</time></trkpt><trkpt lat="45.8736235" lon="11.5057184"><ele>1014.3333333333333</ele><time>2026-04-18T13:41:35.14Z</time></trkpt><trkpt lat="45.8736877" lon="11.5058714"><ele>1015.0</ele><time>2026-04-18T13:41:37.141Z</time></trkpt><trkpt lat="45.8737172" lon="11.5059517"><ele>1014.9999999999999</ele><time>2026-04-18T13:41:38.141Z</time></trkpt><trkpt lat="45.87375" lon="11.506045"><ele>1015.0</ele><time>2026-04-18T13:41:39.141Z</time></trkpt><trkpt lat="45.8737852" lon="11.5061506"><ele>1015.0</ele><time>2026-04-18T13:41:40.142Z</time></trkpt><trkpt lat="45.8738231" lon="11.5062663"><ele>1015.0</ele><time>2026-04-18T13:41:41.14Z</time></trkpt><trkpt lat="45.8738635" lon="11.5063868"><ele>1014.9999999999999</ele><time>2026-04-18T13:41:42.142Z</time></trkpt><trkpt lat="45.8738938" lon="11.5064962"><ele>1015.0</ele><time>2026-04-18T13:41:43.142Z</time></trkpt><trkpt lat="45.8739227" lon="11.506593"><ele>1013.6</ele><time>2026-04-18T13:41:44.141Z</time></trkpt><trkpt lat="45.8739769" lon="11.5067449"><ele>1012.2</ele><time>2026-04-18T13:41:46.141Z</time></trkpt><trkpt lat="45.8740473" lon="11.5069065"><ele>1010.8</ele><time>2026-04-18T13:41:48.142Z</time></trkpt><trkpt lat="45.8740976" lon="11.5069882"><ele>1009.4</ele><time>2026-04-18T13:41:49.141Z</time></trkpt><trkpt lat="45.8741449" lon="11.5070827"><ele>1008.0</ele><time>2026-04-18T13:41:50.141Z</time></trkpt><trkpt lat="45.8741978" lon="11.5071845"><ele>1006.8333333333334</ele><time>2026-04-18T13:41:51.141Z</time></trkpt><trkpt lat="45.8742564" lon="11.5072836"><ele>1005.6666666666667</ele><time>2026-04-18T13:41:52.141Z</time></trkpt><trkpt lat="45.8743131" lon="11.5073802"><ele>1004.5</ele><time>2026-04-18T13:41:53.141Z</time></trkpt><trkpt lat="45.874369" lon="11.5074617"><ele>1003.3333333333334</ele><time>2026-04-18T13:41:54.142Z</time></trkpt><trkpt lat="45.8744178" lon="11.5075359"><ele>1002.1666666666667</ele><time>2026-04-18T13:41:55.141Z</time></trkpt><trkpt lat="45.8744926" lon="11.5076594"><ele>1001.0</ele><time>2026-04-18T13:41:57.142Z</time></trkpt><trkpt lat="45.8745174" lon="11.5077486"><ele>1001.0</ele><time>2026-04-18T13:41:59.142Z</time></trkpt><trkpt lat="45.8745169" lon="11.5078417"><ele>1001.0</ele><time>2026-04-18T13:42:01.142Z</time></trkpt><trkpt lat="45.8745494" lon="11.5079445"><ele>1001.0</ele><time>2026-04-18T13:42:03.141Z</time></trkpt><trkpt lat="45.8746071" lon="11.5079854"><ele>1001.0</ele><time>2026-04-18T13:42:05.141Z</time></trkpt><trkpt lat="45.8746252" lon="11.507882"><ele>1001.0</ele><time>2026-04-18T13:42:08.141Z</time></trkpt><trkpt lat="45.8745558" lon="11.5078335"><ele>1001.0</ele><time>2026-04-18T13:42:09.142Z</time></trkpt><trkpt lat="45.8744883" lon="11.5078198"><ele>1001.0</ele><time>2026-04-18T13:42:10.141Z</time></trkpt><trkpt lat="45.8744008" lon="11.5078059"><ele>1001.0</ele><time>2026-04-18T13:42:11.141Z</time></trkpt><trkpt lat="45.8743009" lon="11.5077797"><ele>1000.9999999999999</ele><time>2026-04-18T13:42:12.141Z</time></trkpt><trkpt lat="45.874198" lon="11.5077317"><ele>1000.9999999999999</ele><time>2026-04-18T13:42:13.141Z</time></trkpt><trkpt lat="45.8740942" lon="11.5076693"><ele>1001.0</ele><time>2026-04-18T13:42:14.141Z</time></trkpt><trkpt lat="45.8739813" lon="11.5076019"><ele>1001.0</ele><time>2026-04-18T13:42:15.141Z</time></trkpt><trkpt lat="45.8738652" lon="11.5075343"><ele>1000.8</ele><time>2026-04-18T13:42:16.141Z</time></trkpt><trkpt lat="45.8737527" lon="11.5074698"><ele>1000.5999999999999</ele><time>2026-04-18T13:42:17.141Z</time></trkpt><trkpt lat="45.87365" lon="11.5074063"><ele>1000.4</ele><time>2026-04-18T13:42:18.142Z</time></trkpt><trkpt lat="45.8735491" lon="11.50736"><ele>1000.2</ele><time>2026-04-18T13:42:19.141Z</time></trkpt><trkpt lat="45.8734602" lon="11.5073066"><ele>1000.0</ele><time>2026-04-18T13:42:20.141Z</time></trkpt><trkpt lat="45.8733673" lon="11.5072532"><ele>1000.0</ele><time>2026-04-18T13:42:21.141Z</time></trkpt><trkpt lat="45.873265" lon="11.5071898"><ele>1000.0</ele><time>2026-04-18T13:42:22.141Z</time></trkpt><trkpt lat="45.8731553" lon="11.5071258"><ele>1000.0</ele><time>2026-04-18T13:42:23.141Z</time></trkpt><trkpt lat="45.8730466" lon="11.5070628"><ele>1000.0</ele><time>2026-04-18T13:42:24.141Z</time></trkpt><trkpt lat="45.8729578" lon="11.5070028"><ele>1000.0</ele><time>2026-04-18T13:42:25.141Z</time></trkpt><trkpt lat="45.8728995" lon="11.5069531"><ele>1000.4999999999999</ele><time>2026-04-18T13:42:26.14Z</time></trkpt><trkpt lat="45.8728652" lon="11.5068716"><ele>1001.0</ele><time>2026-04-18T13:42:28.14Z</time></trkpt><trkpt lat="45.8728855" lon="11.5067792"><ele>1001.5</ele><time>2026-04-18T13:42:30.141Z</time></trkpt><trkpt lat="45.8729301" lon="11.5066713"><ele>1002.0</ele><time>2026-04-18T13:42:32.14Z</time></trkpt><trkpt lat="45.8729101" lon="11.5065803"><ele>1002.4999999999999</ele><time>2026-04-18T13:42:34.14Z</time></trkpt><trkpt lat="45.8728609" lon="11.5066774"><ele>1003.0</ele><time>2026-04-18T13:42:38.14Z</time></trkpt><trkpt lat="45.8727597" lon="11.5067986"><ele>1003.0</ele><time>2026-04-18T13:42:40.141Z</time></trkpt><trkpt lat="45.8726945" lon="11.5068587"><ele>1003.0</ele><time>2026-04-18T13:42:41.142Z</time></trkpt><trkpt lat="45.8726256" lon="11.5069518"><ele>1003.0</ele><time>2026-04-18T13:42:42.141Z</time></trkpt><trkpt lat="45.8725746" lon="11.5070721"><ele>1003.0</ele><time>2026-04-18T13:42:43.141Z</time></trkpt><trkpt lat="45.8725388" lon="11.5072179"><ele>1003.0</ele><time>2026-04-18T13:42:44.142Z</time></trkpt><trkpt lat="45.8725098" lon="11.5073827"><ele>1002.75</ele><time>2026-04-18T13:42:45.141Z</time></trkpt><trkpt lat="45.8724847" lon="11.5075617"><ele>1002.5</ele><time>2026-04-18T13:42:46.141Z</time></trkpt><trkpt lat="45.8724572" lon="11.5077461"><ele>1002.25</ele><time>2026-04-18T13:42:47.141Z</time></trkpt><trkpt lat="45.8724355" lon="11.5079232"><ele>1002.0</ele><time>2026-04-18T13:42:48.14Z</time></trkpt><trkpt lat="45.8724091" lon="11.5080933"><ele>1001.6</ele><time>2026-04-18T13:42:49.141Z</time></trkpt><trkpt lat="45.8723873" lon="11.50826"><ele>1001.2</ele><time>2026-04-18T13:42:50.14Z</time></trkpt><trkpt lat="45.872365" lon="11.5084182"><ele>1000.8</ele><time>2026-04-18T13:42:51.141Z</time></trkpt><trkpt lat="45.8723433" lon="11.5085688"><ele>1000.4</ele><time>2026-04-18T13:42:52.142Z</time></trkpt><trkpt lat="45.8723247" lon="11.5086977"><ele>1000.0</ele><time>2026-04-18T13:42:53.142Z</time></trkpt><trkpt lat="45.8723099" lon="11.5087963"><ele>999.3333333333333</ele><time>2026-04-18T13:42:54.142Z</time></trkpt><trkpt lat="45.8722916" lon="11.5089109"><ele>998.6666666666666</ele><time>2026-04-18T13:42:56.141Z</time></trkpt><trkpt lat="45.8722722" lon="11.5090421"><ele>998.0</ele><time>2026-04-18T13:42:59.141Z</time></trkpt><trkpt lat="45.8722596" lon="11.5091707"><ele>997.3333333333333</ele><time>2026-04-18T13:43:01.142Z</time></trkpt><trkpt lat="45.8722416" lon="11.509313"><ele>996.6666666666666</ele><time>2026-04-18T13:43:03.141Z</time></trkpt><trkpt lat="45.8722299" lon="11.5094019"><ele>996.0</ele><time>2026-04-18T13:43:04.141Z</time></trkpt><trkpt lat="45.872214" lon="11.5094927"><ele>996.0</ele><time>2026-04-18T13:43:05.141Z</time></trkpt><trkpt lat="45.872197" lon="11.5095965"><ele>995.9999999999999</ele><time>2026-04-18T13:43:06.142Z</time></trkpt><trkpt lat="45.8721804" lon="11.5097051"><ele>996.0</ele><time>2026-04-18T13:43:07.14Z</time></trkpt><trkpt lat="45.872162" lon="11.5098168"><ele>996.0</ele><time>2026-04-18T13:43:08.14Z</time></trkpt><trkpt lat="45.8721338" lon="11.5099126"><ele>995.9999999999999</ele><time>2026-04-18T13:43:09.141Z</time></trkpt><trkpt lat="45.872099" lon="11.5099884"><ele>996.0</ele><time>2026-04-18T13:43:10.142Z</time></trkpt><trkpt lat="45.8720537" lon="11.5100576"><ele>996.0</ele><time>2026-04-18T13:43:11.141Z</time></trkpt><trkpt lat="45.8719943" lon="11.5101215"><ele>996.0</ele><time>2026-04-18T13:43:12.142Z</time></trkpt><trkpt lat="45.8719251" lon="11.510175"><ele>996.0</ele><time>2026-04-18T13:43:13.142Z</time></trkpt><trkpt lat="45.8718462" lon="11.5102246"><ele>996.0</ele><time>2026-04-18T13:43:14.142Z</time></trkpt><trkpt lat="45.8717641" lon="11.5102773"><ele>996.0</ele><time>2026-04-18T13:43:15.141Z</time></trkpt><trkpt lat="45.8716866" lon="11.5103306"><ele>996.0</ele><time>2026-04-18T13:43:16.14Z</time></trkpt><trkpt lat="45.8716094" lon="11.510382"><ele>996.0</ele><time>2026-04-18T13:43:17.141Z</time></trkpt><trkpt lat="45.8715366" lon="11.510434"><ele>996.0</ele><time>2026-04-18T13:43:18.14Z</time></trkpt><trkpt lat="45.8714711" lon="11.5104891"><ele>996.0</ele><time>2026-04-18T13:43:19.141Z</time></trkpt><trkpt lat="45.8714084" lon="11.5105423"><ele>996.0</ele><time>2026-04-18T13:43:20.141Z</time></trkpt><trkpt lat="45.8713546" lon="11.5106068"><ele>996.0</ele><time>2026-04-18T13:43:21.142Z</time></trkpt><trkpt lat="45.8712961" lon="11.5107575"><ele>996.0</ele><time>2026-04-18T13:43:23.14Z</time></trkpt><trkpt lat="45.8712974" lon="11.5108635"><ele>996.0</ele><time>2026-04-18T13:43:24.142Z</time></trkpt><trkpt lat="45.8713097" lon="11.5109701"><ele>996.0</ele><time>2026-04-18T13:43:25.142Z</time></trkpt><trkpt lat="45.8713305" lon="11.5110815"><ele>996.0</ele><time>2026-04-18T13:43:26.141Z</time></trkpt><trkpt lat="45.8713517" lon="11.5112"><ele>996.0</ele><time>2026-04-18T13:43:27.142Z</time></trkpt><trkpt lat="45.871373" lon="11.5113298"><ele>996.0</ele><time>2026-04-18T13:43:28.141Z</time></trkpt><trkpt lat="45.8713898" lon="11.5114475"><ele>996.0</ele><time>2026-04-18T13:43:29.141Z</time></trkpt><trkpt lat="45.8714073" lon="11.5115563"><ele>996.0</ele><time>2026-04-18T13:43:30.141Z</time></trkpt><trkpt lat="45.8714309" lon="11.5116494"><ele>996.1999999999999</ele><time>2026-04-18T13:43:31.141Z</time></trkpt><trkpt lat="45.8714668" lon="11.5117254"><ele>996.3999999999999</ele><time>2026-04-18T13:43:32.141Z</time></trkpt><trkpt lat="45.8715726" lon="11.5118169"><ele>996.6</ele><time>2026-04-18T13:43:34.141Z</time></trkpt><trkpt lat="45.871662" lon="11.5117609"><ele>996.8</ele><time>2026-04-18T13:43:35.142Z</time></trkpt><trkpt lat="45.8717558" lon="11.511721"><ele>997.0</ele><time>2026-04-18T13:43:36.14Z</time></trkpt><trkpt lat="45.8718606" lon="11.5116782"><ele>997.0</ele><time>2026-04-18T13:43:37.141Z</time></trkpt><trkpt lat="45.8719642" lon="11.5116447"><ele>997.0</ele><time>2026-04-18T13:43:38.142Z</time></trkpt><trkpt lat="45.872074" lon="11.5116098"><ele>997.0</ele><time>2026-04-18T13:43:39.14Z</time></trkpt><trkpt lat="45.8721929" lon="11.5115725"><ele>997.0</ele><time>2026-04-18T13:43:40.141Z</time></trkpt><trkpt lat="45.872323" lon="11.511537"><ele>997.0</ele><time>2026-04-18T13:43:41.141Z</time></trkpt><trkpt lat="45.8724607" lon="11.5114977"><ele>997.0</ele><time>2026-04-18T13:43:42.14Z</time></trkpt><trkpt lat="45.872596" lon="11.5114577"><ele>997.0</ele><time>2026-04-18T13:43:43.141Z</time></trkpt><trkpt lat="45.8727385" lon="11.5114176"><ele>997.0</ele><time>2026-04-18T13:43:44.142Z</time></trkpt><trkpt lat="45.8728866" lon="11.511385"><ele>997.5</ele><time>2026-04-18T13:43:45.141Z</time></trkpt><trkpt lat="45.8730288" lon="11.5113463"><ele>998.0</ele><time>2026-04-18T13:43:46.142Z</time></trkpt><trkpt lat="45.8731669" lon="11.5113128"><ele>998.5</ele><time>2026-04-18T13:43:47.142Z</time></trkpt><trkpt lat="45.8732995" lon="11.5112738"><ele>999.0</ele><time>2026-04-18T13:43:48.141Z</time></trkpt><trkpt lat="45.8734323" lon="11.5112376"><ele>999.5</ele><time>2026-04-18T13:43:49.142Z</time></trkpt><trkpt lat="45.8735692" lon="11.5112021"><ele>1000.0</ele><time>2026-04-18T13:43:50.141Z</time></trkpt><trkpt lat="45.8737081" lon="11.5111677"><ele>1000.5</ele><time>2026-04-18T13:43:51.141Z</time></trkpt><trkpt lat="45.8738458" lon="11.5111279"><ele>1001.0</ele><time>2026-04-18T13:43:52.141Z</time></trkpt><trkpt lat="45.8739825" lon="11.511094"><ele>1001.0</ele><time>2026-04-18T13:43:53.141Z</time></trkpt><trkpt lat="45.8741072" lon="11.511057"><ele>1001.0</ele><time>2026-04-18T13:43:54.141Z</time></trkpt><trkpt lat="45.8742221" lon="11.5110239"><ele>1001.0</ele><time>2026-04-18T13:43:55.14Z</time></trkpt><trkpt lat="45.8743322" lon="11.5109987"><ele>1001.0</ele><time>2026-04-18T13:43:56.141Z</time></trkpt><trkpt lat="45.8744381" lon="11.510975"><ele>1001.4</ele><time>2026-04-18T13:43:57.142Z</time></trkpt><trkpt lat="45.8745454" lon="11.5109465"><ele>1001.8</ele><time>2026-04-18T13:43:58.141Z</time></trkpt><trkpt lat="45.8746491" lon="11.5109177"><ele>1002.1999999999999</ele><time>2026-04-18T13:43:59.141Z</time></trkpt><trkpt lat="45.8747505" lon="11.5108789"><ele>1002.5999999999999</ele><time>2026-04-18T13:44:00.141Z</time></trkpt><trkpt lat="45.8748547" lon="11.5108466"><ele>1003.0</ele><time>2026-04-18T13:44:01.142Z</time></trkpt><trkpt lat="45.8749629" lon="11.5108157"><ele>1002.9999999999999</ele><time>2026-04-18T13:44:02.14Z</time></trkpt><trkpt lat="45.8750563" lon="11.5107913"><ele>1003.0</ele><time>2026-04-18T13:44:03.142Z</time></trkpt><trkpt lat="45.8751233" lon="11.5107873"><ele>1003.0</ele><time>2026-04-18T13:44:04.142Z</time></trkpt><trkpt lat="45.8751999" lon="11.5107728"><ele>1003.0</ele><time>2026-04-18T13:44:05.14Z</time></trkpt><trkpt lat="45.8752639" lon="11.5107555"><ele>1002.9999999999999</ele><time>2026-04-18T13:44:06.142Z</time></trkpt><trkpt lat="45.8753783" lon="11.5107355"><ele>1003.0</ele><time>2026-04-18T13:44:08.142Z</time></trkpt><trkpt lat="45.8754521" lon="11.5107127"><ele>1002.75</ele><time>2026-04-18T13:44:14.142Z</time></trkpt><trkpt lat="45.8755532" lon="11.5107053"><ele>1002.5</ele><time>2026-04-18T13:44:16.14Z</time></trkpt><trkpt lat="45.8756768" lon="11.5107474"><ele>1002.25</ele><time>2026-04-18T13:44:18.141Z</time></trkpt><trkpt lat="45.8757916" lon="11.5108157"><ele>1002.0</ele><time>2026-04-18T13:44:20.14Z</time></trkpt><trkpt lat="45.8758986" lon="11.5109011"><ele>1002.5</ele><time>2026-04-18T13:44:22.142Z</time></trkpt><trkpt lat="45.8759932" lon="11.5110057"><ele>1003.0</ele><time>2026-04-18T13:44:24.14Z</time></trkpt><trkpt lat="45.8760453" lon="11.5110668"><ele>1003.5</ele><time>2026-04-18T13:44:25.141Z</time></trkpt><trkpt lat="45.8761465" lon="11.5111436"><ele>1004.0</ele><time>2026-04-18T13:44:27.142Z</time></trkpt><trkpt lat="45.8762053" lon="11.5111993"><ele>1004.5</ele><time>2026-04-18T13:44:28.14Z</time></trkpt><trkpt lat="45.8762498" lon="11.5112691"><ele>1005.0</ele><time>2026-04-18T13:44:29.141Z</time></trkpt><trkpt lat="45.8763139" lon="11.5113449"><ele>1005.2</ele><time>2026-04-18T13:44:30.141Z</time></trkpt><trkpt lat="45.8763915" lon="11.5114367"><ele>1005.4</ele><time>2026-04-18T13:44:31.141Z</time></trkpt><trkpt lat="45.8764729" lon="11.5115269"><ele>1005.5999999999999</ele><time>2026-04-18T13:44:32.141Z</time></trkpt><trkpt lat="45.8765697" lon="11.5116207"><ele>1005.8</ele><time>2026-04-18T13:44:33.141Z</time></trkpt><trkpt lat="45.8766695" lon="11.5117305"><ele>1006.0</ele><time>2026-04-18T13:44:34.142Z</time></trkpt><trkpt lat="45.8767735" lon="11.5118425"><ele>1006.25</ele><time>2026-04-18T13:44:35.141Z</time></trkpt><trkpt lat="45.8768775" lon="11.5119636"><ele>1006.5</ele><time>2026-04-18T13:44:36.141Z</time></trkpt><trkpt lat="45.8769869" lon="11.5120893"><ele>1006.75</ele><time>2026-04-18T13:44:37.14Z</time></trkpt><trkpt lat="45.8770954" lon="11.5122139"><ele>1007.0</ele><time>2026-04-18T13:44:38.14Z</time></trkpt><trkpt lat="45.877199" lon="11.5123328"><ele>1006.6</ele><time>2026-04-18T13:44:39.14Z</time></trkpt><trkpt lat="45.8772895" lon="11.5124435"><ele>1006.2</ele><time>2026-04-18T13:44:40.141Z</time></trkpt><trkpt lat="45.8773647" lon="11.5125438"><ele>1005.8</ele><time>2026-04-18T13:44:41.142Z</time></trkpt><trkpt lat="45.8774305" lon="11.5126444"><ele>1005.4</ele><time>2026-04-18T13:44:42.141Z</time></trkpt><trkpt lat="45.8774823" lon="11.512761"><ele>1005.0</ele><time>2026-04-18T13:44:43.142Z</time></trkpt><trkpt lat="45.87754" lon="11.5128806"><ele>1005.5</ele><time>2026-04-18T13:44:44.141Z</time></trkpt><trkpt lat="45.8776091" lon="11.5130106"><ele>1006.0</ele><time>2026-04-18T13:44:45.141Z</time></trkpt><trkpt lat="45.8776811" lon="11.513141"><ele>1006.5</ele><time>2026-04-18T13:44:46.141Z</time></trkpt><trkpt lat="45.8777534" lon="11.5132872"><ele>1007.0</ele><time>2026-04-18T13:44:47.142Z</time></trkpt><trkpt lat="45.8778309" lon="11.513456"><ele>1007.0</ele><time>2026-04-18T13:44:48.142Z</time></trkpt><trkpt lat="45.8779086" lon="11.5136293"><ele>1007.0</ele><time>2026-04-18T13:44:49.14Z</time></trkpt><trkpt lat="45.8779873" lon="11.5138212"><ele>1007.0</ele><time>2026-04-18T13:44:50.141Z</time></trkpt><trkpt lat="45.8780676" lon="11.514011"><ele>1007.3333333333334</ele><time>2026-04-18T13:44:51.141Z</time></trkpt><trkpt lat="45.8781479" lon="11.5142137"><ele>1007.6666666666667</ele><time>2026-04-18T13:44:52.14Z</time></trkpt><trkpt lat="45.8782276" lon="11.5144117"><ele>1008.0</ele><time>2026-04-18T13:44:53.142Z</time></trkpt><trkpt lat="45.878304" lon="11.5146004"><ele>1008.0</ele><time>2026-04-18T13:44:54.142Z</time></trkpt><trkpt lat="45.878378" lon="11.5147819"><ele>1008.0</ele><time>2026-04-18T13:44:55.142Z</time></trkpt><trkpt lat="45.8784481" lon="11.5149609"><ele>1008.0</ele><time>2026-04-18T13:44:56.142Z</time></trkpt><trkpt lat="45.8785199" lon="11.5151305"><ele>1008.0</ele><time>2026-04-18T13:44:57.142Z</time></trkpt><trkpt lat="45.8785888" lon="11.5152907"><ele>1009.5</ele><time>2026-04-18T13:44:58.141Z</time></trkpt><trkpt lat="45.8786369" lon="11.5154697"><ele>1011.0</ele><time>2026-04-18T13:44:59.141Z</time></trkpt><trkpt lat="45.8786894" lon="11.5156563"><ele>1012.5</ele><time>2026-04-18T13:45:00.141Z</time></trkpt><trkpt lat="45.8787393" lon="11.5158553"><ele>1014.0</ele><time>2026-04-18T13:45:01.14Z</time></trkpt><trkpt lat="45.8787867" lon="11.5160612"><ele>1013.0</ele><time>2026-04-18T13:45:02.142Z</time></trkpt><trkpt lat="45.8788372" lon="11.5162774"><ele>1012.0</ele><time>2026-04-18T13:45:03.142Z</time></trkpt><trkpt lat="45.8788989" lon="11.5165002"><ele>1011.0</ele><time>2026-04-18T13:45:04.14Z</time></trkpt><trkpt lat="45.8789586" lon="11.5167304"><ele>1012.0</ele><time>2026-04-18T13:45:05.14Z</time></trkpt><trkpt lat="45.8790858" lon="11.5172065"><ele>1013.0</ele><time>2026-04-18T13:45:07.141Z</time></trkpt><trkpt lat="45.8791567" lon="11.5174606"><ele>1013.0</ele><time>2026-04-18T13:45:08.14Z</time></trkpt><trkpt lat="45.8792129" lon="11.517701"><ele>1013.0</ele><time>2026-04-18T13:45:09.142Z</time></trkpt><trkpt lat="45.8792726" lon="11.5179418"><ele>1013.0</ele><time>2026-04-18T13:45:10.142Z</time></trkpt><trkpt lat="45.8793343" lon="11.5181876"><ele>1013.3333333333334</ele><time>2026-04-18T13:45:11.141Z</time></trkpt><trkpt lat="45.8793946" lon="11.5184326"><ele>1013.6666666666667</ele><time>2026-04-18T13:45:12.141Z</time></trkpt><trkpt lat="45.8794504" lon="11.5186764"><ele>1014.0</ele><time>2026-04-18T13:45:13.14Z</time></trkpt><trkpt lat="45.8795093" lon="11.5189207"><ele>1014.0</ele><time>2026-04-18T13:45:14.14Z</time></trkpt><trkpt lat="45.8795679" lon="11.5191551"><ele>1014.0</ele><time>2026-04-18T13:45:15.142Z</time></trkpt><trkpt lat="45.8796324" lon="11.5193879"><ele>1014.0</ele><time>2026-04-18T13:45:16.142Z</time></trkpt><trkpt lat="45.8796958" lon="11.519616"><ele>1014.6666666666667</ele><time>2026-04-18T13:45:17.141Z</time></trkpt><trkpt lat="45.8797596" lon="11.5198385"><ele>1015.3333333333334</ele><time>2026-04-18T13:45:18.141Z</time></trkpt><trkpt lat="45.8798297" lon="11.5200635"><ele>1016.0</ele><time>2026-04-18T13:45:19.142Z</time></trkpt><trkpt lat="45.8799017" lon="11.5202757"><ele>1017.3333333333334</ele><time>2026-04-18T13:45:20.142Z</time></trkpt><trkpt lat="45.8799736" lon="11.5204923"><ele>1018.6666666666667</ele><time>2026-04-18T13:45:21.141Z</time></trkpt><trkpt lat="45.8800502" lon="11.5207058"><ele>1020.0</ele><time>2026-04-18T13:45:22.141Z</time></trkpt><trkpt lat="45.8801256" lon="11.520919"><ele>1023.0</ele><time>2026-04-18T13:45:23.141Z</time></trkpt><trkpt lat="45.8801972" lon="11.5211375"><ele>1026.0</ele><time>2026-04-18T13:45:24.142Z</time></trkpt><trkpt lat="45.8802655" lon="11.5213533"><ele>1029.0</ele><time>2026-04-18T13:45:25.141Z</time></trkpt><trkpt lat="45.8803192" lon="11.5215834"><ele>1029.3333333333333</ele><time>2026-04-18T13:45:26.14Z</time></trkpt><trkpt lat="45.8803755" lon="11.5218096"><ele>1029.6666666666665</ele><time>2026-04-18T13:45:27.141Z</time></trkpt><trkpt lat="45.8804254" lon="11.5220448"><ele>1030.0</ele><time>2026-04-18T13:45:28.141Z</time></trkpt><trkpt lat="45.8804749" lon="11.5222815"><ele>1029.3333333333333</ele><time>2026-04-18T13:45:29.141Z</time></trkpt><trkpt lat="45.8805149" lon="11.5225219"><ele>1028.6666666666667</ele><time>2026-04-18T13:45:30.142Z</time></trkpt><trkpt lat="45.8805479" lon="11.5227652"><ele>1028.0</ele><time>2026-04-18T13:45:31.142Z</time></trkpt><trkpt lat="45.8805764" lon="11.5230142"><ele>1027.6666666666667</ele><time>2026-04-18T13:45:32.142Z</time></trkpt><trkpt lat="45.8805928" lon="11.5232628"><ele>1027.3333333333333</ele><time>2026-04-18T13:45:33.141Z</time></trkpt><trkpt lat="45.8805946" lon="11.5235171"><ele>1027.0</ele><time>2026-04-18T13:45:34.141Z</time></trkpt><trkpt lat="45.8805853" lon="11.5237656"><ele>1028.0</ele><time>2026-04-18T13:45:35.141Z</time></trkpt><trkpt lat="45.8805772" lon="11.5240174"><ele>1029.0</ele><time>2026-04-18T13:45:36.142Z</time></trkpt><trkpt lat="45.8805616" lon="11.5242752"><ele>1030.0</ele><time>2026-04-18T13:45:37.142Z</time></trkpt><trkpt lat="45.8805434" lon="11.5245371"><ele>1029.6666666666665</ele><time>2026-04-18T13:45:38.142Z</time></trkpt><trkpt lat="45.8805281" lon="11.5247973"><ele>1029.3333333333333</ele><time>2026-04-18T13:45:39.142Z</time></trkpt><trkpt lat="45.8805112" lon="11.5250558"><ele>1029.0</ele><time>2026-04-18T13:45:40.142Z</time></trkpt><trkpt lat="45.8804935" lon="11.525305"><ele>1029.3333333333333</ele><time>2026-04-18T13:45:41.142Z</time></trkpt><trkpt lat="45.8804789" lon="11.5255409"><ele>1029.6666666666665</ele><time>2026-04-18T13:45:42.141Z</time></trkpt><trkpt lat="45.8804634" lon="11.5257651"><ele>1030.0</ele><time>2026-04-18T13:45:43.14Z</time></trkpt><trkpt lat="45.8804511" lon="11.525978"><ele>1030.0</ele><time>2026-04-18T13:45:44.142Z</time></trkpt><trkpt lat="45.880445" lon="11.5261868"><ele>1030.0</ele><time>2026-04-18T13:45:45.142Z</time></trkpt><trkpt lat="45.8804461" lon="11.5263834"><ele>1030.0</ele><time>2026-04-18T13:45:46.141Z</time></trkpt><trkpt lat="45.8804449" lon="11.5265715"><ele>1030.0</ele><time>2026-04-18T13:45:47.14Z</time></trkpt><trkpt lat="45.8804568" lon="11.5267677"><ele>1031.25</ele><time>2026-04-18T13:45:48.141Z</time></trkpt><trkpt lat="45.8804744" lon="11.5269693"><ele>1032.5</ele><time>2026-04-18T13:45:49.141Z</time></trkpt><trkpt lat="45.8804976" lon="11.5271734"><ele>1033.75</ele><time>2026-04-18T13:45:50.142Z</time></trkpt><trkpt lat="45.880518" lon="11.5273827"><ele>1035.0</ele><time>2026-04-18T13:45:51.14Z</time></trkpt><trkpt lat="45.8805447" lon="11.5275924"><ele>1035.3333333333333</ele><time>2026-04-18T13:45:52.141Z</time></trkpt><trkpt lat="45.8805711" lon="11.5278059"><ele>1035.6666666666665</ele><time>2026-04-18T13:45:53.141Z</time></trkpt><trkpt lat="45.8805961" lon="11.528025"><ele>1036.0</ele><time>2026-04-18T13:45:54.14Z</time></trkpt><trkpt lat="45.880624" lon="11.5282504"><ele>1035.0</ele><time>2026-04-18T13:45:55.141Z</time></trkpt><trkpt lat="45.8806546" lon="11.5284741"><ele>1034.0</ele><time>2026-04-18T13:45:56.142Z</time></trkpt><trkpt lat="45.8806905" lon="11.5287108"><ele>1033.0</ele><time>2026-04-18T13:45:57.141Z</time></trkpt><trkpt lat="45.88074" lon="11.5289499"><ele>1032.3333333333333</ele><time>2026-04-18T13:45:58.141Z</time></trkpt><trkpt lat="45.8807989" lon="11.5291936"><ele>1031.6666666666667</ele><time>2026-04-18T13:45:59.141Z</time></trkpt><trkpt lat="45.8808576" lon="11.5294421"><ele>1031.0</ele><time>2026-04-18T13:46:00.142Z</time></trkpt><trkpt lat="45.8809184" lon="11.5297006"><ele>1033.0</ele><time>2026-04-18T13:46:01.141Z</time></trkpt><trkpt lat="45.880983" lon="11.5299637"><ele>1035.0</ele><time>2026-04-18T13:46:02.141Z</time></trkpt><trkpt lat="45.8810489" lon="11.5302309"><ele>1037.0</ele><time>2026-04-18T13:46:03.141Z</time></trkpt><trkpt lat="45.8811167" lon="11.5305019"><ele>1037.0</ele><time>2026-04-18T13:46:04.142Z</time></trkpt><trkpt lat="45.8811862" lon="11.5307715"><ele>1037.0</ele><time>2026-04-18T13:46:05.141Z</time></trkpt><trkpt lat="45.8812672" lon="11.5310345"><ele>1037.0</ele><time>2026-04-18T13:46:06.141Z</time></trkpt><trkpt lat="45.8813678" lon="11.5312899"><ele>1036.6666666666667</ele><time>2026-04-18T13:46:07.141Z</time></trkpt><trkpt lat="45.8814833" lon="11.5315369"><ele>1036.3333333333333</ele><time>2026-04-18T13:46:08.141Z</time></trkpt><trkpt lat="45.8816089" lon="11.531755"><ele>1036.0</ele><time>2026-04-18T13:46:09.14Z</time></trkpt><trkpt lat="45.8817334" lon="11.5319774"><ele>1041.0</ele><time>2026-04-18T13:46:10.141Z</time></trkpt><trkpt lat="45.8818727" lon="11.5321848"><ele>1046.0</ele><time>2026-04-18T13:46:11.142Z</time></trkpt><trkpt lat="45.8820119" lon="11.5324012"><ele>1051.0</ele><time>2026-04-18T13:46:12.142Z</time></trkpt><trkpt lat="45.8821556" lon="11.532601"><ele>1051.0</ele><time>2026-04-18T13:46:13.14Z</time></trkpt><trkpt lat="45.882303" lon="11.5327871"><ele>1051.0</ele><time>2026-04-18T13:46:14.141Z</time></trkpt><trkpt lat="45.8824556" lon="11.5329539"><ele>1051.0</ele><time>2026-04-18T13:46:15.141Z</time></trkpt><trkpt lat="45.8826149" lon="11.5331137"><ele>1051.3333333333333</ele><time>2026-04-18T13:46:16.141Z</time></trkpt><trkpt lat="45.8827783" lon="11.5332643"><ele>1051.6666666666667</ele><time>2026-04-18T13:46:17.141Z</time></trkpt><trkpt lat="45.8829338" lon="11.5334027"><ele>1052.0</ele><time>2026-04-18T13:46:18.141Z</time></trkpt><trkpt lat="45.883079" lon="11.5335332"><ele>1052.0</ele><time>2026-04-18T13:46:19.141Z</time></trkpt><trkpt lat="45.8832101" lon="11.533655"><ele>1052.0</ele><time>2026-04-18T13:46:20.141Z</time></trkpt><trkpt lat="45.8833372" lon="11.5337775"><ele>1052.0</ele><time>2026-04-18T13:46:21.142Z</time></trkpt><trkpt lat="45.8834609" lon="11.5339064"><ele>1053.6666666666667</ele><time>2026-04-18T13:46:22.142Z</time></trkpt><trkpt lat="45.883581" lon="11.5340468"><ele>1055.3333333333333</ele><time>2026-04-18T13:46:23.14Z</time></trkpt><trkpt lat="45.8836884" lon="11.5341952"><ele>1057.0</ele><time>2026-04-18T13:46:24.141Z</time></trkpt><trkpt lat="45.8837852" lon="11.5343529"><ele>1057.0</ele><time>2026-04-18T13:46:25.14Z</time></trkpt><trkpt lat="45.8838871" lon="11.5345058"><ele>1057.0</ele><time>2026-04-18T13:46:26.142Z</time></trkpt><trkpt lat="45.8839793" lon="11.5346753"><ele>1057.0</ele><time>2026-04-18T13:46:27.142Z</time></trkpt><trkpt lat="45.8840611" lon="11.5348541"><ele>1057.0</ele><time>2026-04-18T13:46:28.142Z</time></trkpt><trkpt lat="45.8841447" lon="11.5350488"><ele>1057.3333333333333</ele><time>2026-04-18T13:46:29.14Z</time></trkpt><trkpt lat="45.8842288" lon="11.5352419"><ele>1057.6666666666667</ele><time>2026-04-18T13:46:30.142Z</time></trkpt><trkpt lat="45.8843131" lon="11.5354389"><ele>1058.0</ele><time>2026-04-18T13:46:31.141Z</time></trkpt><trkpt lat="45.8843952" lon="11.535633"><ele>1059.25</ele><time>2026-04-18T13:46:32.14Z</time></trkpt><trkpt lat="45.8844778" lon="11.535814"><ele>1060.5</ele><time>2026-04-18T13:46:33.142Z</time></trkpt><trkpt lat="45.8845594" lon="11.5359863"><ele>1061.75</ele><time>2026-04-18T13:46:34.142Z</time></trkpt><trkpt lat="45.8846404" lon="11.5361586"><ele>1063.0</ele><time>2026-04-18T13:46:35.142Z</time></trkpt><trkpt lat="45.8847329" lon="11.5363193"><ele>1063.0</ele><time>2026-04-18T13:46:36.14Z</time></trkpt><trkpt lat="45.8848262" lon="11.5364876"><ele>1063.0</ele><time>2026-04-18T13:46:37.142Z</time></trkpt><trkpt lat="45.8849267" lon="11.536657"><ele>1063.0</ele><time>2026-04-18T13:46:38.141Z</time></trkpt><trkpt lat="45.8850323" lon="11.5368287"><ele>1065.0</ele><time>2026-04-18T13:46:39.141Z</time></trkpt><trkpt lat="45.8851374" lon="11.5370016"><ele>1067.0</ele><time>2026-04-18T13:46:40.142Z</time></trkpt><trkpt lat="45.8852448" lon="11.5371713"><ele>1069.0</ele><time>2026-04-18T13:46:41.14Z</time></trkpt><trkpt lat="45.8853528" lon="11.5373366"><ele>1069.0</ele><time>2026-04-18T13:46:42.142Z</time></trkpt><trkpt lat="45.8854577" lon="11.5375108"><ele>1069.0</ele><time>2026-04-18T13:46:43.141Z</time></trkpt><trkpt lat="45.8855568" lon="11.5376731"><ele>1069.0</ele><time>2026-04-18T13:46:44.141Z</time></trkpt><trkpt lat="45.8856539" lon="11.5378327"><ele>1069.5</ele><time>2026-04-18T13:46:45.141Z</time></trkpt><trkpt lat="45.8857465" lon="11.5379899"><ele>1070.0</ele><time>2026-04-18T13:46:46.141Z</time></trkpt><trkpt lat="45.8858382" lon="11.5381464"><ele>1070.5</ele><time>2026-04-18T13:46:47.141Z</time></trkpt><trkpt lat="45.8859259" lon="11.538303"><ele>1071.0</ele><time>2026-04-18T13:46:48.14Z</time></trkpt><trkpt lat="45.8860182" lon="11.5384559"><ele>1071.75</ele><time>2026-04-18T13:46:49.141Z</time></trkpt><trkpt lat="45.8861118" lon="11.5386082"><ele>1072.5</ele><time>2026-04-18T13:46:50.142Z</time></trkpt><trkpt lat="45.8862027" lon="11.5387498"><ele>1073.25</ele><time>2026-04-18T13:46:51.141Z</time></trkpt><trkpt lat="45.8862995" lon="11.5388797"><ele>1074.0</ele><time>2026-04-18T13:46:52.142Z</time></trkpt><trkpt lat="45.8863889" lon="11.538999"><ele>1074.0</ele><time>2026-04-18T13:46:53.141Z</time></trkpt><trkpt lat="45.8864745" lon="11.5391079"><ele>1074.0</ele><time>2026-04-18T13:46:54.14Z</time></trkpt><trkpt lat="45.8865636" lon="11.539213"><ele>1074.0</ele><time>2026-04-18T13:46:55.141Z</time></trkpt><trkpt lat="45.8866644" lon="11.5393302"><ele>1074.0</ele><time>2026-04-18T13:46:56.141Z</time></trkpt><trkpt lat="45.8867546" lon="11.5394359"><ele>1074.0</ele><time>2026-04-18T13:46:57.141Z</time></trkpt><trkpt lat="45.8868622" lon="11.5395466"><ele>1074.0</ele><time>2026-04-18T13:46:58.14Z</time></trkpt><trkpt lat="45.8869732" lon="11.5396649"><ele>1074.0</ele><time>2026-04-18T13:46:59.141Z</time></trkpt><trkpt lat="45.8870775" lon="11.5397814"><ele>1074.0</ele><time>2026-04-18T13:47:00.14Z</time></trkpt><trkpt lat="45.8872033" lon="11.5399226"><ele>1074.0</ele><time>2026-04-18T13:47:01.141Z</time></trkpt><trkpt lat="45.8873283" lon="11.5400712"><ele>1074.0</ele><time>2026-04-18T13:47:02.141Z</time></trkpt><trkpt lat="45.8874491" lon="11.5402041"><ele>1074.0</ele><time>2026-04-18T13:47:03.142Z</time></trkpt><trkpt lat="45.8875742" lon="11.5403367"><ele>1072.75</ele><time>2026-04-18T13:47:04.141Z</time></trkpt><trkpt lat="45.8876951" lon="11.5404592"><ele>1071.5</ele><time>2026-04-18T13:47:05.141Z</time></trkpt><trkpt lat="45.8878097" lon="11.5405716"><ele>1070.25</ele><time>2026-04-18T13:47:06.141Z</time></trkpt><trkpt lat="45.8879202" lon="11.5406728"><ele>1069.0</ele><time>2026-04-18T13:47:07.142Z</time></trkpt><trkpt lat="45.8880273" lon="11.5407528"><ele>1069.0</ele><time>2026-04-18T13:47:08.141Z</time></trkpt><trkpt lat="45.8881387" lon="11.540807"><ele>1069.0</ele><time>2026-04-18T13:47:09.142Z</time></trkpt><trkpt lat="45.8882472" lon="11.5408389"><ele>1069.0</ele><time>2026-04-18T13:47:10.141Z</time></trkpt><trkpt lat="45.8883561" lon="11.5408554"><ele>1069.0</ele><time>2026-04-18T13:47:11.14Z</time></trkpt><trkpt lat="45.8884715" lon="11.5408693"><ele>1070.0</ele><time>2026-04-18T13:47:12.142Z</time></trkpt><trkpt lat="45.8885938" lon="11.5408816"><ele>1071.0</ele><time>2026-04-18T13:47:13.142Z</time></trkpt><trkpt lat="45.888716" lon="11.5408954"><ele>1072.0</ele><time>2026-04-18T13:47:14.141Z</time></trkpt><trkpt lat="45.8888449" lon="11.5409096"><ele>1073.0</ele><time>2026-04-18T13:47:15.141Z</time></trkpt><trkpt lat="45.8889894" lon="11.5409353"><ele>1073.0</ele><time>2026-04-18T13:47:16.141Z</time></trkpt><trkpt lat="45.8891246" lon="11.5409519"><ele>1073.0</ele><time>2026-04-18T13:47:17.142Z</time></trkpt><trkpt lat="45.8892778" lon="11.5409953"><ele>1073.0</ele><time>2026-04-18T13:47:18.142Z</time></trkpt><trkpt lat="45.8894171" lon="11.5410215"><ele>1073.0</ele><time>2026-04-18T13:47:19.141Z</time></trkpt><trkpt lat="45.889566" lon="11.5410693"><ele>1072.75</ele><time>2026-04-18T13:47:20.142Z</time></trkpt><trkpt lat="45.8897198" lon="11.5411348"><ele>1072.5</ele><time>2026-04-18T13:47:21.142Z</time></trkpt><trkpt lat="45.8898541" lon="11.5411997"><ele>1072.25</ele><time>2026-04-18T13:47:22.141Z</time></trkpt><trkpt lat="45.8899811" lon="11.5412752"><ele>1072.0</ele><time>2026-04-18T13:47:23.142Z</time></trkpt><trkpt lat="45.8901009" lon="11.5413537"><ele>1072.0</ele><time>2026-04-18T13:47:24.141Z</time></trkpt><trkpt lat="45.8902112" lon="11.5414306"><ele>1072.0</ele><time>2026-04-18T13:47:25.141Z</time></trkpt><trkpt lat="45.890314" lon="11.5415033"><ele>1072.0</ele><time>2026-04-18T13:47:26.141Z</time></trkpt><trkpt lat="45.8904185" lon="11.5415947"><ele>1072.0</ele><time>2026-04-18T13:47:27.141Z</time></trkpt><trkpt lat="45.8905235" lon="11.5416784"><ele>1072.0</ele><time>2026-04-18T13:47:28.14Z</time></trkpt><trkpt lat="45.8906252" lon="11.5417578"><ele>1072.0</ele><time>2026-04-18T13:47:29.141Z</time></trkpt><trkpt lat="45.8907289" lon="11.5418518"><ele>1072.0</ele><time>2026-04-18T13:47:30.14Z</time></trkpt><trkpt lat="45.890834" lon="11.5419411"><ele>1072.0</ele><time>2026-04-18T13:47:31.142Z</time></trkpt><trkpt lat="45.8909404" lon="11.5420298"><ele>1072.75</ele><time>2026-04-18T13:47:32.142Z</time></trkpt><trkpt lat="45.8910465" lon="11.5421178"><ele>1073.5</ele><time>2026-04-18T13:47:33.142Z</time></trkpt><trkpt lat="45.8911492" lon="11.5422139"><ele>1074.25</ele><time>2026-04-18T13:47:34.14Z</time></trkpt><trkpt lat="45.8912496" lon="11.5422942"><ele>1075.0</ele><time>2026-04-18T13:47:35.14Z</time></trkpt><trkpt lat="45.8913398" lon="11.542365"><ele>1075.0000000000002</ele><time>2026-04-18T13:47:36.141Z</time></trkpt><trkpt lat="45.8914099" lon="11.5424234"><ele>1075.0</ele><time>2026-04-18T13:47:37.141Z</time></trkpt><trkpt lat="45.8914829" lon="11.5424849"><ele>1075.0</ele><time>2026-04-18T13:47:39.142Z</time></trkpt><trkpt lat="45.8915499" lon="11.5424863"><ele>1075.0</ele><time>2026-04-18T13:47:44.14Z</time></trkpt><trkpt lat="45.8915642" lon="11.5423953"><ele>1075.0</ele><time>2026-04-18T13:47:47.141Z</time></trkpt><trkpt lat="45.8915413" lon="11.5424931"><ele>1075.0000000000002</ele><time>2026-04-18T13:48:49.141Z</time></trkpt><trkpt lat="45.8915821" lon="11.5425671"><ele>1075.0</ele><time>2026-04-18T13:48:50.142Z</time></trkpt><trkpt lat="45.8916275" lon="11.5426359"><ele>1075.0</ele><time>2026-04-18T13:48:51.14Z</time></trkpt><trkpt lat="45.8916921" lon="11.5427156"><ele>1075.0</ele><time>2026-04-18T13:48:52.142Z</time></trkpt><trkpt lat="45.8917704" lon="11.5428101"><ele>1075.0</ele><time>2026-04-18T13:48:53.142Z</time></trkpt><trkpt lat="45.8918538" lon="11.5429134"><ele>1075.0</ele><time>2026-04-18T13:48:54.141Z</time></trkpt><trkpt lat="45.8919415" lon="11.5430327"><ele>1075.0</ele><time>2026-04-18T13:48:55.141Z</time></trkpt><trkpt lat="45.8920371" lon="11.5431746"><ele>1075.0</ele><time>2026-04-18T13:48:56.14Z</time></trkpt><trkpt lat="45.8921326" lon="11.5433297"><ele>1075.0</ele><time>2026-04-18T13:48:57.141Z</time></trkpt><trkpt lat="45.8922282" lon="11.5434998"><ele>1075.0</ele><time>2026-04-18T13:48:58.141Z</time></trkpt><trkpt lat="45.8923121" lon="11.5436778"><ele>1075.0</ele><time>2026-04-18T13:48:59.142Z</time></trkpt><trkpt lat="45.8923819" lon="11.5438401"><ele>1075.0</ele><time>2026-04-18T13:49:00.142Z</time></trkpt><trkpt lat="45.8924381" lon="11.5439925"><ele>1075.0</ele><time>2026-04-18T13:49:01.141Z</time></trkpt><trkpt lat="45.8924793" lon="11.5441366"><ele>1075.0</ele><time>2026-04-18T13:49:02.141Z</time></trkpt><trkpt lat="45.8925126" lon="11.5442817"><ele>1075.0</ele><time>2026-04-18T13:49:03.141Z</time></trkpt><trkpt lat="45.8925405" lon="11.5444282"><ele>1075.0</ele><time>2026-04-18T13:49:04.141Z</time></trkpt><trkpt lat="45.8925683" lon="11.5445537"><ele>1075.6666666666665</ele><time>2026-04-18T13:49:05.14Z</time></trkpt><trkpt lat="45.8926083" lon="11.5446545"><ele>1076.3333333333333</ele><time>2026-04-18T13:49:06.142Z</time></trkpt><trkpt lat="45.8926568" lon="11.5447183"><ele>1077.0</ele><time>2026-04-18T13:49:07.142Z</time></trkpt><trkpt lat="45.8927525" lon="11.5447358"><ele>1077.6666666666667</ele><time>2026-04-18T13:49:09.141Z</time></trkpt><trkpt lat="45.8928053" lon="11.5446744"><ele>1078.3333333333335</ele><time>2026-04-18T13:49:11.14Z</time></trkpt><trkpt lat="45.8928151" lon="11.5445542"><ele>1079.0</ele><time>2026-04-18T13:49:13.14Z</time></trkpt><trkpt lat="45.8927877" lon="11.5443958"><ele>1079.0</ele><time>2026-04-18T13:49:15.14Z</time></trkpt><trkpt lat="45.8927645" lon="11.5443026"><ele>1079.0</ele><time>2026-04-18T13:49:16.141Z</time></trkpt><trkpt lat="45.8927517" lon="11.5442119"><ele>1079.0</ele><time>2026-04-18T13:49:17.141Z</time></trkpt><trkpt lat="45.892775" lon="11.5440367"><ele>1079.0</ele><time>2026-04-18T13:49:19.141Z</time></trkpt><trkpt lat="45.8928069" lon="11.5439466"><ele>1079.0</ele><time>2026-04-18T13:49:20.142Z</time></trkpt><trkpt lat="45.8928397" lon="11.5438446"><ele>1079.0</ele><time>2026-04-18T13:49:21.142Z</time></trkpt><trkpt lat="45.8928733" lon="11.5437433"><ele>1078.2</ele><time>2026-04-18T13:49:22.141Z</time></trkpt><trkpt lat="45.8929075" lon="11.5436251"><ele>1077.4</ele><time>2026-04-18T13:49:23.14Z</time></trkpt><trkpt lat="45.8929452" lon="11.5434903"><ele>1076.6</ele><time>2026-04-18T13:49:24.142Z</time></trkpt><trkpt lat="45.8929854" lon="11.5433491"><ele>1075.8</ele><time>2026-04-18T13:49:25.141Z</time></trkpt><trkpt lat="45.8930256" lon="11.5431883"><ele>1075.0</ele><time>2026-04-18T13:49:26.142Z</time></trkpt><trkpt lat="45.8930642" lon="11.543017"><ele>1076.0</ele><time>2026-04-18T13:49:27.14Z</time></trkpt><trkpt lat="45.8931034" lon="11.5428385"><ele>1077.0</ele><time>2026-04-18T13:49:28.14Z</time></trkpt><trkpt lat="45.8931369" lon="11.5426637"><ele>1078.0</ele><time>2026-04-18T13:49:29.142Z</time></trkpt><trkpt lat="45.8931613" lon="11.542505"><ele>1079.0</ele><time>2026-04-18T13:49:30.142Z</time></trkpt><trkpt lat="45.8931786" lon="11.5423585"><ele>1079.0</ele><time>2026-04-18T13:49:31.142Z</time></trkpt><trkpt lat="45.8931918" lon="11.5422342"><ele>1079.0</ele><time>2026-04-18T13:49:32.142Z</time></trkpt><trkpt lat="45.8932265" lon="11.5421331"><ele>1079.0</ele><time>2026-04-18T13:49:33.141Z</time></trkpt><trkpt lat="45.8932728" lon="11.542041"><ele>1079.0</ele><time>2026-04-18T13:49:34.141Z</time></trkpt><trkpt lat="45.8933423" lon="11.541962"><ele>1079.0</ele><time>2026-04-18T13:49:35.14Z</time></trkpt><trkpt lat="45.8934106" lon="11.5418843"><ele>1079.0</ele><time>2026-04-18T13:49:36.141Z</time></trkpt><trkpt lat="45.8934599" lon="11.5418131"><ele>1079.7142857142858</ele><time>2026-04-18T13:49:37.141Z</time></trkpt><trkpt lat="45.8934819" lon="11.5417243"><ele>1080.4285714285713</ele><time>2026-04-18T13:49:38.142Z</time></trkpt><trkpt lat="45.8934749" lon="11.5416326"><ele>1081.142857142857</ele><time>2026-04-18T13:49:39.142Z</time></trkpt><trkpt lat="45.8934374" lon="11.5415469"><ele>1081.857142857143</ele><time>2026-04-18T13:49:40.141Z</time></trkpt><trkpt lat="45.8933822" lon="11.5414836"><ele>1082.5714285714287</ele><time>2026-04-18T13:49:41.142Z</time></trkpt><trkpt lat="45.8933062" lon="11.5414608"><ele>1083.2857142857142</ele><time>2026-04-18T13:49:42.141Z</time></trkpt><trkpt lat="45.893215" lon="11.541458"><ele>1084.0</ele><time>2026-04-18T13:49:43.141Z</time></trkpt><trkpt lat="45.8931123" lon="11.5414667"><ele>1084.0</ele><time>2026-04-18T13:49:44.141Z</time></trkpt><trkpt lat="45.8930125" lon="11.5414645"><ele>1084.0</ele><time>2026-04-18T13:49:45.141Z</time></trkpt><trkpt lat="45.8929189" lon="11.5414416"><ele>1084.0</ele><time>2026-04-18T13:49:46.141Z</time></trkpt><trkpt lat="45.892833" lon="11.5413814"><ele>1084.0</ele><time>2026-04-18T13:49:47.142Z</time></trkpt><trkpt lat="45.8927553" lon="11.5412929"><ele>1084.0</ele><time>2026-04-18T13:49:48.142Z</time></trkpt><trkpt lat="45.8926797" lon="11.5411757"><ele>1085.5</ele><time>2026-04-18T13:49:49.141Z</time></trkpt><trkpt lat="45.8925944" lon="11.5410496"><ele>1087.0</ele><time>2026-04-18T13:49:50.142Z</time></trkpt><trkpt lat="45.892501" lon="11.5409122"><ele>1088.5</ele><time>2026-04-18T13:49:51.142Z</time></trkpt><trkpt lat="45.8924043" lon="11.5407748"><ele>1090.0</ele><time>2026-04-18T13:49:52.14Z</time></trkpt><trkpt lat="45.8923018" lon="11.5406379"><ele>1091.0</ele><time>2026-04-18T13:49:53.14Z</time></trkpt><trkpt lat="45.8921903" lon="11.5405059"><ele>1092.0</ele><time>2026-04-18T13:49:54.141Z</time></trkpt><trkpt lat="45.8920666" lon="11.5403902"><ele>1093.0</ele><time>2026-04-18T13:49:55.141Z</time></trkpt><trkpt lat="45.8919317" lon="11.5402938"><ele>1094.0</ele><time>2026-04-18T13:49:56.14Z</time></trkpt><trkpt lat="45.8918003" lon="11.5402143"><ele>1096.0</ele><time>2026-04-18T13:49:57.141Z</time></trkpt><trkpt lat="45.8916815" lon="11.5401468"><ele>1098.0</ele><time>2026-04-18T13:49:58.142Z</time></trkpt><trkpt lat="45.8915736" lon="11.540084"><ele>1100.0</ele><time>2026-04-18T13:49:59.142Z</time></trkpt><trkpt lat="45.891477" lon="11.5400085"><ele>1102.0</ele><time>2026-04-18T13:50:00.14Z</time></trkpt><trkpt lat="45.8913897" lon="11.5398947"><ele>1102.0</ele><time>2026-04-18T13:50:01.142Z</time></trkpt><trkpt lat="45.8912988" lon="11.5397649"><ele>1102.0</ele><time>2026-04-18T13:50:02.141Z</time></trkpt><trkpt lat="45.8912113" lon="11.5396214"><ele>1102.0</ele><time>2026-04-18T13:50:03.142Z</time></trkpt><trkpt lat="45.8911151" lon="11.5394775"><ele>1102.0</ele><time>2026-04-18T13:50:04.141Z</time></trkpt><trkpt lat="45.8909972" lon="11.539366"><ele>1104.75</ele><time>2026-04-18T13:50:05.141Z</time></trkpt><trkpt lat="45.8908655" lon="11.5392704"><ele>1107.5</ele><time>2026-04-18T13:50:06.141Z</time></trkpt><trkpt lat="45.8907255" lon="11.5391862"><ele>1110.25</ele><time>2026-04-18T13:50:07.142Z</time></trkpt><trkpt lat="45.8905896" lon="11.5391025"><ele>1113.0</ele><time>2026-04-18T13:50:08.141Z</time></trkpt><trkpt lat="45.8904719" lon="11.5390199"><ele>1113.0</ele><time>2026-04-18T13:50:09.14Z</time></trkpt><trkpt lat="45.8903796" lon="11.5389514"><ele>1113.0</ele><time>2026-04-18T13:50:10.141Z</time></trkpt><trkpt lat="45.8903121" lon="11.5388914"><ele>1113.0</ele><time>2026-04-18T13:50:11.142Z</time></trkpt><trkpt lat="45.8902723" lon="11.5387795"><ele>1113.0</ele><time>2026-04-18T13:50:13.141Z</time></trkpt><trkpt lat="45.8903399" lon="11.5387192"><ele>1113.0</ele><time>2026-04-18T13:50:15.142Z</time></trkpt><trkpt lat="45.890476" lon="11.5387364"><ele>1113.0</ele><time>2026-04-18T13:50:17.141Z</time></trkpt><trkpt lat="45.8905573" lon="11.5387419"><ele>1113.0</ele><time>2026-04-18T13:50:18.141Z</time></trkpt><trkpt lat="45.8906494" lon="11.5387378"><ele>1113.0</ele><time>2026-04-18T13:50:19.141Z</time></trkpt><trkpt lat="45.8907556" lon="11.5387245"><ele>1113.0</ele><time>2026-04-18T13:50:20.141Z</time></trkpt><trkpt lat="45.8908734" lon="11.5387071"><ele>1113.0</ele><time>2026-04-18T13:50:21.141Z</time></trkpt><trkpt lat="45.8909902" lon="11.5386818"><ele>1116.4</ele><time>2026-04-18T13:50:22.141Z</time></trkpt><trkpt lat="45.891106" lon="11.5386365"><ele>1119.8</ele><time>2026-04-18T13:50:23.141Z</time></trkpt><trkpt lat="45.8912192" lon="11.5385773"><ele>1123.2</ele><time>2026-04-18T13:50:24.142Z</time></trkpt><trkpt lat="45.8913213" lon="11.5385132"><ele>1126.6</ele><time>2026-04-18T13:50:25.142Z</time></trkpt><trkpt lat="45.8914053" lon="11.5384453"><ele>1130.0</ele><time>2026-04-18T13:50:26.141Z</time></trkpt><trkpt lat="45.8914753" lon="11.5383555"><ele>1130.0</ele><time>2026-04-18T13:50:27.141Z</time></trkpt><trkpt lat="45.8915365" lon="11.5382385"><ele>1130.0</ele><time>2026-04-18T13:50:28.142Z</time></trkpt><trkpt lat="45.8916013" lon="11.5381015"><ele>1130.0</ele><time>2026-04-18T13:50:29.141Z</time></trkpt><trkpt lat="45.8916826" lon="11.5379578"><ele>1130.0</ele><time>2026-04-18T13:50:30.142Z</time></trkpt><trkpt lat="45.8917789" lon="11.5378312"><ele>1130.2</ele><time>2026-04-18T13:50:31.142Z</time></trkpt><trkpt lat="45.8918725" lon="11.5377374"><ele>1130.4</ele><time>2026-04-18T13:50:32.142Z</time></trkpt><trkpt lat="45.8919633" lon="11.5376774"><ele>1130.6</ele><time>2026-04-18T13:50:33.142Z</time></trkpt><trkpt lat="45.8920697" lon="11.5376444"><ele>1130.8</ele><time>2026-04-18T13:50:34.141Z</time></trkpt><trkpt lat="45.8921811" lon="11.5376239"><ele>1131.0</ele><time>2026-04-18T13:50:35.141Z</time></trkpt><trkpt lat="45.8923196" lon="11.5376263"><ele>1131.0</ele><time>2026-04-18T13:50:36.142Z</time></trkpt><trkpt lat="45.8924531" lon="11.5376031"><ele>1131.0</ele><time>2026-04-18T13:50:37.142Z</time></trkpt><trkpt lat="45.8925901" lon="11.5375664"><ele>1131.0</ele><time>2026-04-18T13:50:38.141Z</time></trkpt><trkpt lat="45.8927323" lon="11.5374993"><ele>1131.0</ele><time>2026-04-18T13:50:39.141Z</time></trkpt><trkpt lat="45.8928813" lon="11.5374283"><ele>1134.3333333333333</ele><time>2026-04-18T13:50:40.141Z</time></trkpt><trkpt lat="45.8930307" lon="11.5373592"><ele>1137.6666666666665</ele><time>2026-04-18T13:50:41.142Z</time></trkpt><trkpt lat="45.8931823" lon="11.5373123"><ele>1141.0</ele><time>2026-04-18T13:50:42.142Z</time></trkpt><trkpt lat="45.8933303" lon="11.5372886"><ele>1140.75</ele><time>2026-04-18T13:50:43.141Z</time></trkpt><trkpt lat="45.8934574" lon="11.537257"><ele>1140.5</ele><time>2026-04-18T13:50:44.141Z</time></trkpt><trkpt lat="45.8935885" lon="11.537186"><ele>1140.25</ele><time>2026-04-18T13:50:45.142Z</time></trkpt><trkpt lat="45.8936975" lon="11.5370848"><ele>1140.0</ele><time>2026-04-18T13:50:46.142Z</time></trkpt><trkpt lat="45.8937974" lon="11.5369811"><ele>1140.0</ele><time>2026-04-18T13:50:47.141Z</time></trkpt><trkpt lat="45.8938953" lon="11.5368785"><ele>1140.0</ele><time>2026-04-18T13:50:48.14Z</time></trkpt><trkpt lat="45.8939907" lon="11.5367765"><ele>1140.0</ele><time>2026-04-18T13:50:49.141Z</time></trkpt><trkpt lat="45.8940889" lon="11.5366814"><ele>1140.0</ele><time>2026-04-18T13:50:50.141Z</time></trkpt><trkpt lat="45.89419" lon="11.5365863"><ele>1140.0</ele><time>2026-04-18T13:50:51.142Z</time></trkpt><trkpt lat="45.894288" lon="11.5364909"><ele>1140.0</ele><time>2026-04-18T13:50:52.14Z</time></trkpt><trkpt lat="45.8943706" lon="11.536395"><ele>1140.0</ele><time>2026-04-18T13:50:53.142Z</time></trkpt><trkpt lat="45.8944437" lon="11.5362949"><ele>1140.0</ele><time>2026-04-18T13:50:54.14Z</time></trkpt><trkpt lat="45.8945051" lon="11.5362101"><ele>1140.0</ele><time>2026-04-18T13:50:55.142Z</time></trkpt><trkpt lat="45.8945582" lon="11.5361385"><ele>1140.0</ele><time>2026-04-18T13:50:56.142Z</time></trkpt><trkpt lat="45.8946105" lon="11.5360727"><ele>1140.0</ele><time>2026-04-18T13:50:57.141Z</time></trkpt><trkpt lat="45.8946612" lon="11.5360131"><ele>1140.0</ele><time>2026-04-18T13:50:58.141Z</time></trkpt><trkpt lat="45.8947147" lon="11.5359587"><ele>1140.0</ele><time>2026-04-18T13:50:59.141Z</time></trkpt><trkpt lat="45.8947678" lon="11.5359086"><ele>1140.0</ele><time>2026-04-18T13:51:00.14Z</time></trkpt><trkpt lat="45.8948374" lon="11.5358601"><ele>1140.0</ele><time>2026-04-18T13:51:01.142Z</time></trkpt><trkpt lat="45.8949219" lon="11.5358074"><ele>1140.0</ele><time>2026-04-18T13:51:02.142Z</time></trkpt><trkpt lat="45.8950154" lon="11.5357525"><ele>1141.0</ele><time>2026-04-18T13:51:03.141Z</time></trkpt><trkpt lat="45.8951132" lon="11.5357145"><ele>1142.0</ele><time>2026-04-18T13:51:04.142Z</time></trkpt><trkpt lat="45.8952371" lon="11.5356844"><ele>1143.0</ele><time>2026-04-18T13:51:05.141Z</time></trkpt><trkpt lat="45.8953454" lon="11.5356596"><ele>1144.0</ele><time>2026-04-18T13:51:06.141Z</time></trkpt><trkpt lat="45.8954392" lon="11.5355935"><ele>1145.0</ele><time>2026-04-18T13:51:07.141Z</time></trkpt><trkpt lat="45.8955448" lon="11.5355472"><ele>1145.0</ele><time>2026-04-18T13:51:08.141Z</time></trkpt><trkpt lat="45.8956376" lon="11.5355034"><ele>1145.0</ele><time>2026-04-18T13:51:09.141Z</time></trkpt><trkpt lat="45.8957113" lon="11.5354648"><ele>1145.0</ele><time>2026-04-18T13:51:10.141Z</time></trkpt><trkpt lat="45.8957825" lon="11.5354313"><ele>1145.0</ele><time>2026-04-18T13:51:11.14Z</time></trkpt><trkpt lat="45.8958515" lon="11.5353721"><ele>1145.0</ele><time>2026-04-18T13:51:12.141Z</time></trkpt><trkpt lat="45.8959275" lon="11.5353095"><ele>1145.0</ele><time>2026-04-18T13:51:13.141Z</time></trkpt><trkpt lat="45.8960104" lon="11.5352473"><ele>1143.4</ele><time>2026-04-18T13:51:14.142Z</time></trkpt><trkpt lat="45.8961054" lon="11.5351953"><ele>1141.8</ele><time>2026-04-18T13:51:15.14Z</time></trkpt><trkpt lat="45.8961802" lon="11.5351234"><ele>1140.2</ele><time>2026-04-18T13:51:16.141Z</time></trkpt><trkpt lat="45.8962603" lon="11.5350739"><ele>1138.6</ele><time>2026-04-18T13:51:17.142Z</time></trkpt><trkpt lat="45.8963309" lon="11.5349968"><ele>1137.0</ele><time>2026-04-18T13:51:18.14Z</time></trkpt><trkpt lat="45.8964017" lon="11.5348992"><ele>1137.0</ele><time>2026-04-18T13:51:19.141Z</time></trkpt><trkpt lat="45.8964746" lon="11.5347942"><ele>1137.0</ele><time>2026-04-18T13:51:20.142Z</time></trkpt><trkpt lat="45.8965508" lon="11.5347064"><ele>1137.0</ele><time>2026-04-18T13:51:21.141Z</time></trkpt><trkpt lat="45.8966362" lon="11.5346182"><ele>1137.0</ele><time>2026-04-18T13:51:22.14Z</time></trkpt><trkpt lat="45.8967137" lon="11.5345266"><ele>1137.0</ele><time>2026-04-18T13:51:23.142Z</time></trkpt><trkpt lat="45.8967741" lon="11.5344059"><ele>1138.0</ele><time>2026-04-18T13:51:24.142Z</time></trkpt><trkpt lat="45.8968466" lon="11.5342985"><ele>1139.0</ele><time>2026-04-18T13:51:25.142Z</time></trkpt><trkpt lat="45.8969211" lon="11.5342147"><ele>1140.0</ele><time>2026-04-18T13:51:26.141Z</time></trkpt><trkpt lat="45.896998" lon="11.5341381"><ele>1141.0</ele><time>2026-04-18T13:51:27.141Z</time></trkpt><trkpt lat="45.8971043" lon="11.534083"><ele>1142.0</ele><time>2026-04-18T13:51:28.142Z</time></trkpt><trkpt lat="45.8972053" lon="11.5340093"><ele>1142.0</ele><time>2026-04-18T13:51:29.141Z</time></trkpt><trkpt lat="45.8972973" lon="11.5339182"><ele>1142.0</ele><time>2026-04-18T13:51:30.141Z</time></trkpt><trkpt lat="45.8973838" lon="11.5338214"><ele>1142.0</ele><time>2026-04-18T13:51:31.141Z</time></trkpt><trkpt lat="45.897461" lon="11.5337124"><ele>1142.0</ele><time>2026-04-18T13:51:32.142Z</time></trkpt><trkpt lat="45.8975304" lon="11.5335974"><ele>1142.0</ele><time>2026-04-18T13:51:33.141Z</time></trkpt><trkpt lat="45.8975986" lon="11.5334934"><ele>1141.8</ele><time>2026-04-18T13:51:34.14Z</time></trkpt><trkpt lat="45.8976735" lon="11.533384"><ele>1141.6</ele><time>2026-04-18T13:51:35.141Z</time></trkpt><trkpt lat="45.8977453" lon="11.5332816"><ele>1141.3999999999999</ele><time>2026-04-18T13:51:36.142Z</time></trkpt><trkpt lat="45.8978188" lon="11.5331796"><ele>1141.2</ele><time>2026-04-18T13:51:37.142Z</time></trkpt><trkpt lat="45.8978934" lon="11.5330948"><ele>1141.0</ele><time>2026-04-18T13:51:38.141Z</time></trkpt><trkpt lat="45.8979769" lon="11.5330146"><ele>1141.0</ele><time>2026-04-18T13:51:39.142Z</time></trkpt><trkpt lat="45.8980623" lon="11.5329407"><ele>1141.0</ele><time>2026-04-18T13:51:40.141Z</time></trkpt><trkpt lat="45.8981524" lon="11.5328724"><ele>1141.0</ele><time>2026-04-18T13:51:41.141Z</time></trkpt><trkpt lat="45.8982285" lon="11.5328156"><ele>1141.0</ele><time>2026-04-18T13:51:42.141Z</time></trkpt><trkpt lat="45.898292" lon="11.5327577"><ele>1141.0</ele><time>2026-04-18T13:51:43.141Z</time></trkpt><trkpt lat="45.8983525" lon="11.5326993"><ele>1141.0</ele><time>2026-04-18T13:51:44.142Z</time></trkpt><trkpt lat="45.8984234" lon="11.5326164"><ele>1139.8333333333333</ele><time>2026-04-18T13:51:46.142Z</time></trkpt><trkpt lat="45.8984569" lon="11.53253"><ele>1138.6666666666665</ele><time>2026-04-18T13:51:49.142Z</time></trkpt><trkpt lat="45.898482" lon="11.5324205"><ele>1137.5</ele><time>2026-04-18T13:51:54.141Z</time></trkpt><trkpt lat="45.8985215" lon="11.5323448"><ele>1136.3333333333333</ele><time>2026-04-18T13:51:55.141Z</time></trkpt><trkpt lat="45.8985755" lon="11.5322564"><ele>1135.1666666666667</ele><time>2026-04-18T13:51:56.141Z</time></trkpt><trkpt lat="45.898637" lon="11.5321701"><ele>1134.0</ele><time>2026-04-18T13:51:57.14Z</time></trkpt><trkpt lat="45.8987125" lon="11.5320876"><ele>1134.25</ele><time>2026-04-18T13:51:58.141Z</time></trkpt><trkpt lat="45.8988033" lon="11.5320117"><ele>1134.5</ele><time>2026-04-18T13:51:59.141Z</time></trkpt><trkpt lat="45.8989025" lon="11.5319524"><ele>1134.75</ele><time>2026-04-18T13:52:00.141Z</time></trkpt><trkpt lat="45.8990122" lon="11.5318986"><ele>1135.0</ele><time>2026-04-18T13:52:01.141Z</time></trkpt><trkpt lat="45.8991415" lon="11.5318617"><ele>1137.0</ele><time>2026-04-18T13:52:02.141Z</time></trkpt><trkpt lat="45.8992664" lon="11.5318135"><ele>1139.0</ele><time>2026-04-18T13:52:03.141Z</time></trkpt><trkpt lat="45.899403" lon="11.5317443"><ele>1141.0</ele><time>2026-04-18T13:52:04.141Z</time></trkpt><trkpt lat="45.8995413" lon="11.531727"><ele>1143.0</ele><time>2026-04-18T13:52:05.141Z</time></trkpt><trkpt lat="45.8996753" lon="11.5316875"><ele>1143.0</ele><time>2026-04-18T13:52:06.141Z</time></trkpt><trkpt lat="45.8997986" lon="11.5316567"><ele>1143.0</ele><time>2026-04-18T13:52:07.141Z</time></trkpt><trkpt lat="45.899905" lon="11.5316157"><ele>1143.0</ele><time>2026-04-18T13:52:08.14Z</time></trkpt><trkpt lat="45.9000011" lon="11.5315814"><ele>1143.0</ele><time>2026-04-18T13:52:09.142Z</time></trkpt><trkpt lat="45.9000736" lon="11.5315615"><ele>1143.0</ele><time>2026-04-18T13:52:10.141Z</time></trkpt><trkpt lat="45.9001346" lon="11.5315318"><ele>1144.6</ele><time>2026-04-18T13:52:11.14Z</time></trkpt><trkpt lat="45.9001847" lon="11.5314746"><ele>1146.1999999999998</ele><time>2026-04-18T13:52:13.141Z</time></trkpt><trkpt lat="45.9001561" lon="11.5313477"><ele>1147.8</ele><time>2026-04-18T13:52:16.141Z</time></trkpt><trkpt lat="45.9001112" lon="11.5312204"><ele>1149.3999999999999</ele><time>2026-04-18T13:52:18.142Z</time></trkpt><trkpt lat="45.9000616" lon="11.5310683"><ele>1151.0</ele><time>2026-04-18T13:52:20.142Z</time></trkpt><trkpt lat="45.9000685" lon="11.5309387"><ele>1152.6666666666667</ele><time>2026-04-18T13:52:22.142Z</time></trkpt><trkpt lat="45.9001392" lon="11.5307997"><ele>1154.3333333333335</ele><time>2026-04-18T13:52:24.141Z</time></trkpt><trkpt lat="45.9001944" lon="11.5307022"><ele>1156.0</ele><time>2026-04-18T13:52:25.141Z</time></trkpt><trkpt lat="45.9002485" lon="11.5306166"><ele>1157.6666666666667</ele><time>2026-04-18T13:52:26.142Z</time></trkpt><trkpt lat="45.9002856" lon="11.5305379"><ele>1159.3333333333333</ele><time>2026-04-18T13:52:27.141Z</time></trkpt><trkpt lat="45.9003031" lon="11.5304427"><ele>1161.0</ele><time>2026-04-18T13:52:28.141Z</time></trkpt><trkpt lat="45.9003335" lon="11.5303587"><ele>1162.6666666666667</ele><time>2026-04-18T13:52:29.141Z</time></trkpt><trkpt lat="45.9003674" lon="11.5302721"><ele>1164.3333333333333</ele><time>2026-04-18T13:52:30.141Z</time></trkpt><trkpt lat="45.9003915" lon="11.5301796"><ele>1166.0</ele><time>2026-04-18T13:52:31.141Z</time></trkpt><trkpt lat="45.9004114" lon="11.5300899"><ele>1167.6666666666665</ele><time>2026-04-18T13:52:32.142Z</time></trkpt><trkpt lat="45.9004438" lon="11.5299905"><ele>1169.3333333333333</ele><time>2026-04-18T13:52:33.142Z</time></trkpt><trkpt lat="45.9004743" lon="11.5298559"><ele>1171.0</ele><time>2026-04-18T13:52:34.142Z</time></trkpt><trkpt lat="45.9005046" lon="11.5297283"><ele>1171.0</ele><time>2026-04-18T13:52:35.142Z</time></trkpt><trkpt lat="45.9005465" lon="11.5296155"><ele>1171.0</ele><time>2026-04-18T13:52:36.141Z</time></trkpt><trkpt lat="45.9006098" lon="11.5295215"><ele>1171.0</ele><time>2026-04-18T13:52:37.141Z</time></trkpt><trkpt lat="45.9006864" lon="11.5294291"><ele>1171.0</ele><time>2026-04-18T13:52:38.14Z</time></trkpt><trkpt lat="45.9007687" lon="11.5293359"><ele>1171.0</ele><time>2026-04-18T13:52:39.142Z</time></trkpt><trkpt lat="45.9007889" lon="11.5292486"><ele>1171.0</ele><time>2026-04-18T13:52:40.14Z</time></trkpt><trkpt lat="45.9008151" lon="11.5291579"><ele>1171.25</ele><time>2026-04-18T13:52:41.142Z</time></trkpt><trkpt lat="45.9008351" lon="11.5290007"><ele>1171.5</ele><time>2026-04-18T13:52:42.142Z</time></trkpt><trkpt lat="45.9008364" lon="11.5288149"><ele>1171.75</ele><time>2026-04-18T13:52:44.142Z</time></trkpt><trkpt lat="45.9007746" lon="11.5286034"><ele>1172.0</ele><time>2026-04-18T13:52:46.141Z</time></trkpt><trkpt lat="45.9007544" lon="11.5285158"><ele>1172.0</ele><time>2026-04-18T13:52:47.141Z</time></trkpt><trkpt lat="45.9007882" lon="11.5283747"><ele>1172.0</ele><time>2026-04-18T13:52:49.141Z</time></trkpt><trkpt lat="45.9008752" lon="11.5282335"><ele>1172.0</ele><time>2026-04-18T13:52:51.14Z</time></trkpt><trkpt lat="45.9009287" lon="11.5281753"><ele>1172.0</ele><time>2026-04-18T13:52:52.141Z</time></trkpt><trkpt lat="45.901031" lon="11.5280729"><ele>1172.0</ele><time>2026-04-18T13:52:54.141Z</time></trkpt><trkpt lat="45.9011046" lon="11.5280547"><ele>1173.5</ele><time>2026-04-18T13:52:55.141Z</time></trkpt><trkpt lat="45.9011941" lon="11.5280434"><ele>1175.0</ele><time>2026-04-18T13:52:56.141Z</time></trkpt><trkpt lat="45.9012766" lon="11.5279901"><ele>1176.5</ele><time>2026-04-18T13:52:57.141Z</time></trkpt><trkpt lat="45.9013426" lon="11.5279229"><ele>1178.0</ele><time>2026-04-18T13:52:58.142Z</time></trkpt><trkpt lat="45.9014161" lon="11.527872"><ele>1179.5</ele><time>2026-04-18T13:52:59.14Z</time></trkpt><trkpt lat="45.9014955" lon="11.5278059"><ele>1181.0</ele><time>2026-04-18T13:53:00.141Z</time></trkpt><trkpt lat="45.9015721" lon="11.5276569"><ele>1181.5</ele><time>2026-04-18T13:53:01.142Z</time></trkpt><trkpt lat="45.9016509" lon="11.5275706"><ele>1182.0</ele><time>2026-04-18T13:53:02.141Z</time></trkpt><trkpt lat="45.9017202" lon="11.5274736"><ele>1182.5</ele><time>2026-04-18T13:53:03.142Z</time></trkpt><trkpt lat="45.9017567" lon="11.5273878"><ele>1183.0</ele><time>2026-04-18T13:53:04.141Z</time></trkpt><trkpt lat="45.9017577" lon="11.527264"><ele>1183.5</ele><time>2026-04-18T13:53:06.141Z</time></trkpt><trkpt lat="45.9016923" lon="11.5271613"><ele>1184.0</ele><time>2026-04-18T13:53:08.141Z</time></trkpt><trkpt lat="45.9015819" lon="11.5271133"><ele>1184.0</ele><time>2026-04-18T13:53:10.141Z</time></trkpt><trkpt lat="45.9015023" lon="11.5271039"><ele>1184.0</ele><time>2026-04-18T13:53:11.141Z</time></trkpt><trkpt lat="45.9014018" lon="11.5270987"><ele>1184.0</ele><time>2026-04-18T13:53:12.141Z</time></trkpt><trkpt lat="45.9013107" lon="11.5270841"><ele>1184.0</ele><time>2026-04-18T13:53:13.14Z</time></trkpt><trkpt lat="45.90122" lon="11.5270636"><ele>1184.0</ele><time>2026-04-18T13:53:14.141Z</time></trkpt><trkpt lat="45.901136" lon="11.5270489"><ele>1184.0</ele><time>2026-04-18T13:53:15.142Z</time></trkpt><trkpt lat="45.9010566" lon="11.5270033"><ele>1186.1666666666667</ele><time>2026-04-18T13:53:16.142Z</time></trkpt><trkpt lat="45.9009752" lon="11.5269722"><ele>1188.3333333333335</ele><time>2026-04-18T13:53:17.141Z</time></trkpt><trkpt lat="45.9009102" lon="11.5269285"><ele>1190.5</ele><time>2026-04-18T13:53:18.141Z</time></trkpt><trkpt lat="45.9008415" lon="11.5268944"><ele>1192.6666666666667</ele><time>2026-04-18T13:53:19.14Z</time></trkpt><trkpt lat="45.9007784" lon="11.5268524"><ele>1194.8333333333333</ele><time>2026-04-18T13:53:20.14Z</time></trkpt><trkpt lat="45.9007204" lon="11.5267108"><ele>1197.0</ele><time>2026-04-18T13:53:22.141Z</time></trkpt><trkpt lat="45.9006679" lon="11.5266549"><ele>1197.0</ele><time>2026-04-18T13:53:23.14Z</time></trkpt><trkpt lat="45.9005801" lon="11.5266603"><ele>1197.0</ele><time>2026-04-18T13:53:25.141Z</time></trkpt><trkpt lat="45.9004912" lon="11.5265689"><ele>1197.0</ele><time>2026-04-18T13:53:27.141Z</time></trkpt><trkpt lat="45.9005221" lon="11.5264842"><ele>1197.0</ele><time>2026-04-18T13:53:30.142Z</time></trkpt><trkpt lat="45.90062" lon="11.5264428"><ele>1197.0</ele><time>2026-04-18T13:53:32.14Z</time></trkpt><trkpt lat="45.9006817" lon="11.5264192"><ele>1197.0</ele><time>2026-04-18T13:53:33.141Z</time></trkpt><trkpt lat="45.9007452" lon="11.5263985"><ele>1197.0</ele><time>2026-04-18T13:53:34.141Z</time></trkpt><trkpt lat="45.9008126" lon="11.5263785"><ele>1197.0</ele><time>2026-04-18T13:53:35.142Z</time></trkpt><trkpt lat="45.9008869" lon="11.5263631"><ele>1197.0</ele><time>2026-04-18T13:53:36.14Z</time></trkpt><trkpt lat="45.9009679" lon="11.5263469"><ele>1197.0</ele><time>2026-04-18T13:53:37.142Z</time></trkpt><trkpt lat="45.9010634" lon="11.5263401"><ele>1197.0</ele><time>2026-04-18T13:53:38.141Z</time></trkpt><trkpt lat="45.9011552" lon="11.5263261"><ele>1197.0</ele><time>2026-04-18T13:53:39.141Z</time></trkpt><trkpt lat="45.9012611" lon="11.5263096"><ele>1197.6</ele><time>2026-04-18T13:53:40.141Z</time></trkpt><trkpt lat="45.9013661" lon="11.5262811"><ele>1198.2</ele><time>2026-04-18T13:53:41.142Z</time></trkpt><trkpt lat="45.9014728" lon="11.5262459"><ele>1198.8</ele><time>2026-04-18T13:53:42.142Z</time></trkpt><trkpt lat="45.9015806" lon="11.526198"><ele>1199.4</ele><time>2026-04-18T13:53:43.142Z</time></trkpt><trkpt lat="45.9016836" lon="11.5261326"><ele>1200.0</ele><time>2026-04-18T13:53:44.142Z</time></trkpt><trkpt lat="45.9017577" lon="11.5260747"><ele>1202.2</ele><time>2026-04-18T13:53:45.141Z</time></trkpt><trkpt lat="45.9018479" lon="11.5260458"><ele>1204.4</ele><time>2026-04-18T13:53:46.142Z</time></trkpt><trkpt lat="45.9019357" lon="11.5260223"><ele>1206.6</ele><time>2026-04-18T13:53:47.141Z</time></trkpt><trkpt lat="45.90202" lon="11.5259819"><ele>1208.8</ele><time>2026-04-18T13:53:48.141Z</time></trkpt><trkpt lat="45.9021403" lon="11.5259681"><ele>1211.0</ele><time>2026-04-18T13:53:49.141Z</time></trkpt><trkpt lat="45.9022513" lon="11.5259501"><ele>1211.0</ele><time>2026-04-18T13:53:50.142Z</time></trkpt><trkpt lat="45.902358" lon="11.5259286"><ele>1211.0</ele><time>2026-04-18T13:53:51.141Z</time></trkpt><trkpt lat="45.9024775" lon="11.5259131"><ele>1211.0</ele><time>2026-04-18T13:53:52.141Z</time></trkpt><trkpt lat="45.9025724" lon="11.5258465"><ele>1211.0</ele><time>2026-04-18T13:53:53.142Z</time></trkpt><trkpt lat="45.9026887" lon="11.5258037"><ele>1212.0</ele><time>2026-04-18T13:53:54.141Z</time></trkpt><trkpt lat="45.9028077" lon="11.5257554"><ele>1213.0</ele><time>2026-04-18T13:53:55.141Z</time></trkpt><trkpt lat="45.9029287" lon="11.5257194"><ele>1214.0</ele><time>2026-04-18T13:53:56.141Z</time></trkpt><trkpt lat="45.9030487" lon="11.5256773"><ele>1215.0</ele><time>2026-04-18T13:53:57.141Z</time></trkpt><trkpt lat="45.9031659" lon="11.5256459"><ele>1215.0</ele><time>2026-04-18T13:53:58.142Z</time></trkpt><trkpt lat="45.9032881" lon="11.5256084"><ele>1215.0</ele><time>2026-04-18T13:53:59.142Z</time></trkpt><trkpt lat="45.9034069" lon="11.5255778"><ele>1215.0</ele><time>2026-04-18T13:54:00.142Z</time></trkpt><trkpt lat="45.903529" lon="11.5255481"><ele>1215.0</ele><time>2026-04-18T13:54:01.142Z</time></trkpt><trkpt lat="45.9036497" lon="11.5255134"><ele>1216.25</ele><time>2026-04-18T13:54:02.14Z</time></trkpt><trkpt lat="45.9037579" lon="11.525455"><ele>1217.5</ele><time>2026-04-18T13:54:03.141Z</time></trkpt><trkpt lat="45.903874" lon="11.5254198"><ele>1218.75</ele><time>2026-04-18T13:54:04.14Z</time></trkpt><trkpt lat="45.9039909" lon="11.5254019"><ele>1220.0</ele><time>2026-04-18T13:54:05.141Z</time></trkpt><trkpt lat="45.9041026" lon="11.525355"><ele>1220.2</ele><time>2026-04-18T13:54:06.141Z</time></trkpt><trkpt lat="45.90421" lon="11.525342"><ele>1220.4</ele><time>2026-04-18T13:54:07.14Z</time></trkpt><trkpt lat="45.9042988" lon="11.5252791"><ele>1220.6</ele><time>2026-04-18T13:54:08.142Z</time></trkpt><trkpt lat="45.9043882" lon="11.5252396"><ele>1220.8</ele><time>2026-04-18T13:54:09.14Z</time></trkpt><trkpt lat="45.9044925" lon="11.5252009"><ele>1221.0</ele><time>2026-04-18T13:54:10.141Z</time></trkpt><trkpt lat="45.9046348" lon="11.5252139"><ele>1223.3999999999999</ele><time>2026-04-18T13:54:11.142Z</time></trkpt><trkpt lat="45.9047399" lon="11.525192"><ele>1225.8</ele><time>2026-04-18T13:54:12.141Z</time></trkpt><trkpt lat="45.904838" lon="11.5251542"><ele>1228.1999999999998</ele><time>2026-04-18T13:54:13.141Z</time></trkpt><trkpt lat="45.9049298" lon="11.5251187"><ele>1230.6</ele><time>2026-04-18T13:54:14.141Z</time></trkpt><trkpt lat="45.9050228" lon="11.5250966"><ele>1233.0</ele><time>2026-04-18T13:54:15.141Z</time></trkpt><trkpt lat="45.9051114" lon="11.5250585"><ele>1234.6</ele><time>2026-04-18T13:54:16.142Z</time></trkpt><trkpt lat="45.9052004" lon="11.5250422"><ele>1236.1999999999998</ele><time>2026-04-18T13:54:17.142Z</time></trkpt><trkpt lat="45.9052841" lon="11.5250404"><ele>1237.8</ele><time>2026-04-18T13:54:18.141Z</time></trkpt><trkpt lat="45.9053731" lon="11.5250178"><ele>1239.3999999999999</ele><time>2026-04-18T13:54:19.142Z</time></trkpt><trkpt lat="45.9054625" lon="11.5250033"><ele>1241.0</ele><time>2026-04-18T13:54:20.142Z</time></trkpt><trkpt lat="45.9055881" lon="11.52497"><ele>1241.0</ele><time>2026-04-18T13:54:22.142Z</time></trkpt><trkpt lat="45.90566" lon="11.5249507"><ele>1241.0</ele><time>2026-04-18T13:54:23.141Z</time></trkpt><trkpt lat="45.9057329" lon="11.5249386"><ele>1241.0</ele><time>2026-04-18T13:54:24.141Z</time></trkpt><trkpt lat="45.9058046" lon="11.524899"><ele>1241.0</ele><time>2026-04-18T13:54:25.14Z</time></trkpt><trkpt lat="45.9058672" lon="11.5248594"><ele>1241.0</ele><time>2026-04-18T13:54:26.14Z</time></trkpt><trkpt lat="45.9059496" lon="11.5248344"><ele>1241.0</ele><time>2026-04-18T13:54:28.142Z</time></trkpt><trkpt lat="45.9060193" lon="11.524801"><ele>1241.0</ele><time>2026-04-18T13:54:30.142Z</time></trkpt><trkpt lat="45.9061009" lon="11.524762"><ele>1242.6666666666667</ele><time>2026-04-18T13:54:32.14Z</time></trkpt><trkpt lat="45.9061976" lon="11.5247373"><ele>1244.3333333333335</ele><time>2026-04-18T13:54:35.14Z</time></trkpt><trkpt lat="45.9062714" lon="11.524716"><ele>1246.0</ele><time>2026-04-18T13:54:37.141Z</time></trkpt><trkpt lat="45.9063423" lon="11.5247009"><ele>1247.6666666666667</ele><time>2026-04-18T13:54:39.14Z</time></trkpt><trkpt lat="45.9064144" lon="11.5246809"><ele>1249.3333333333333</ele><time>2026-04-18T13:54:41.141Z</time></trkpt><trkpt lat="45.9064894" lon="11.5246486"><ele>1251.0</ele><time>2026-04-18T13:54:43.141Z</time></trkpt><trkpt lat="45.906559" lon="11.5246306"><ele>1251.0</ele><time>2026-04-18T13:54:45.14Z</time></trkpt><trkpt lat="45.9066459" lon="11.5246091"><ele>1251.0</ele><time>2026-04-18T13:54:47.14Z</time></trkpt><trkpt lat="45.906762" lon="11.5245837"><ele>1251.0</ele><time>2026-04-18T13:54:49.14Z</time></trkpt><trkpt lat="45.9068343" lon="11.5245739"><ele>1251.0</ele><time>2026-04-18T13:54:50.139Z</time></trkpt><trkpt lat="45.906957" lon="11.5245459"><ele>1251.0</ele><time>2026-04-18T13:54:52.14Z</time></trkpt><trkpt lat="45.9070274" lon="11.5245233"><ele>1253.0</ele><time>2026-04-18T13:54:53.14Z</time></trkpt><trkpt lat="45.9070987" lon="11.524535"><ele>1255.0</ele><time>2026-04-18T13:54:54.14Z</time></trkpt><trkpt lat="45.9072239" lon="11.524499"><ele>1257.0</ele><time>2026-04-18T13:54:56.141Z</time></trkpt><trkpt lat="45.9073307" lon="11.524476"><ele>1259.0</ele><time>2026-04-18T13:54:58.14Z</time></trkpt><trkpt lat="45.9074431" lon="11.524482"><ele>1261.0</ele><time>2026-04-18T13:55:00.141Z</time></trkpt><trkpt lat="45.9075089" lon="11.5244829"><ele>1263.8</ele><time>2026-04-18T13:55:01.14Z</time></trkpt><trkpt lat="45.9075819" lon="11.5244811"><ele>1266.6</ele><time>2026-04-18T13:55:02.139Z</time></trkpt><trkpt lat="45.9076747" lon="11.5244919"><ele>1269.4</ele><time>2026-04-18T13:55:03.141Z</time></trkpt><trkpt lat="45.9077814" lon="11.5244907"><ele>1272.2</ele><time>2026-04-18T13:55:04.14Z</time></trkpt><trkpt lat="45.907878" lon="11.5244812"><ele>1275.0</ele><time>2026-04-18T13:55:05.14Z</time></trkpt><trkpt lat="45.9079752" lon="11.5244644"><ele>1275.0</ele><time>2026-04-18T13:55:06.14Z</time></trkpt><trkpt lat="45.9080889" lon="11.5244363"><ele>1275.0</ele><time>2026-04-18T13:55:07.141Z</time></trkpt><trkpt lat="45.9081964" lon="11.5244171"><ele>1275.0</ele><time>2026-04-18T13:55:08.14Z</time></trkpt><trkpt lat="45.9083048" lon="11.5244051"><ele>1275.0</ele><time>2026-04-18T13:55:09.14Z</time></trkpt><trkpt lat="45.9084183" lon="11.5244193"><ele>1275.0</ele><time>2026-04-18T13:55:10.14Z</time></trkpt><trkpt lat="45.9085242" lon="11.5244201"><ele>1277.1666666666667</ele><time>2026-04-18T13:55:11.14Z</time></trkpt><trkpt lat="45.9086303" lon="11.5244266"><ele>1279.3333333333333</ele><time>2026-04-18T13:55:12.141Z</time></trkpt><trkpt lat="45.9087273" lon="11.5244077"><ele>1281.5</ele><time>2026-04-18T13:55:13.141Z</time></trkpt><trkpt lat="45.908807" lon="11.5243973"><ele>1283.6666666666665</ele><time>2026-04-18T13:55:14.139Z</time></trkpt><trkpt lat="45.908886" lon="11.5243804"><ele>1285.8333333333333</ele><time>2026-04-18T13:55:15.141Z</time></trkpt><trkpt lat="45.9089501" lon="11.5243592"><ele>1288.0</ele><time>2026-04-18T13:55:16.139Z</time></trkpt><trkpt lat="45.9090137" lon="11.5243543"><ele>1288.0</ele><time>2026-04-18T13:55:17.141Z</time></trkpt><trkpt lat="45.9090843" lon="11.5243538"><ele>1288.0</ele><time>2026-04-18T13:55:18.14Z</time></trkpt><trkpt lat="45.9091633" lon="11.5243594"><ele>1288.0</ele><time>2026-04-18T13:55:19.14Z</time></trkpt><trkpt lat="45.9092479" lon="11.5243622"><ele>1288.0</ele><time>2026-04-18T13:55:20.141Z</time></trkpt><trkpt lat="45.9093282" lon="11.5243526"><ele>1288.0</ele><time>2026-04-18T13:55:21.14Z</time></trkpt><trkpt lat="45.9094002" lon="11.5243324"><ele>1288.0</ele><time>2026-04-18T13:55:22.14Z</time></trkpt><trkpt lat="45.9094681" lon="11.5243153"><ele>1289.2857142857142</ele><time>2026-04-18T13:55:23.14Z</time></trkpt><trkpt lat="45.9095347" lon="11.5242954"><ele>1290.5714285714284</ele><time>2026-04-18T13:55:24.14Z</time></trkpt><trkpt lat="45.9095999" lon="11.5242687"><ele>1291.857142857143</ele><time>2026-04-18T13:55:25.14Z</time></trkpt><trkpt lat="45.9096659" lon="11.524238"><ele>1293.142857142857</ele><time>2026-04-18T13:55:26.141Z</time></trkpt><trkpt lat="45.9097326" lon="11.5242122"><ele>1294.4285714285713</ele><time>2026-04-18T13:55:27.14Z</time></trkpt><trkpt lat="45.9097965" lon="11.5241948"><ele>1295.7142857142858</ele><time>2026-04-18T13:55:28.14Z</time></trkpt><trkpt lat="45.9098587" lon="11.5241774"><ele>1297.0</ele><time>2026-04-18T13:55:29.141Z</time></trkpt><trkpt lat="45.9099212" lon="11.5241605"><ele>1297.0</ele><time>2026-04-18T13:55:30.141Z</time></trkpt><trkpt lat="45.910041" lon="11.524144"><ele>1297.0</ele><time>2026-04-18T13:55:32.14Z</time></trkpt><trkpt lat="45.9101636" lon="11.5241472"><ele>1297.0</ele><time>2026-04-18T13:55:34.139Z</time></trkpt><trkpt lat="45.9102391" lon="11.5241484"><ele>1297.0</ele><time>2026-04-18T13:55:35.14Z</time></trkpt><trkpt lat="45.9103195" lon="11.5241519"><ele>1297.0</ele><time>2026-04-18T13:55:36.141Z</time></trkpt><trkpt lat="45.9104061" lon="11.5241639"><ele>1300.1999999999998</ele><time>2026-04-18T13:55:37.14Z</time></trkpt><trkpt lat="45.9104959" lon="11.5241756"><ele>1303.4</ele><time>2026-04-18T13:55:38.14Z</time></trkpt><trkpt lat="45.9105865" lon="11.5241868"><ele>1306.6</ele><time>2026-04-18T13:55:39.14Z</time></trkpt><trkpt lat="45.910687" lon="11.5241949"><ele>1309.8000000000002</ele><time>2026-04-18T13:55:40.14Z</time></trkpt><trkpt lat="45.9107863" lon="11.524219"><ele>1313.0</ele><time>2026-04-18T13:55:41.14Z</time></trkpt><trkpt lat="45.9108794" lon="11.5242378"><ele>1316.4</ele><time>2026-04-18T13:55:42.141Z</time></trkpt><trkpt lat="45.910971" lon="11.5242585"><ele>1319.8000000000002</ele><time>2026-04-18T13:55:43.14Z</time></trkpt><trkpt lat="45.9110642" lon="11.5242926"><ele>1323.2</ele><time>2026-04-18T13:55:44.14Z</time></trkpt><trkpt lat="45.9111549" lon="11.5243184"><ele>1326.6</ele><time>2026-04-18T13:55:45.141Z</time></trkpt><trkpt lat="45.9112567" lon="11.5243384"><ele>1330.0</ele><time>2026-04-18T13:55:46.139Z</time></trkpt><trkpt lat="45.911376" lon="11.5243701"><ele>1330.0</ele><time>2026-04-18T13:55:47.14Z</time></trkpt><trkpt lat="45.9115146" lon="11.5243421"><ele>1330.0</ele><time>2026-04-18T13:55:48.139Z</time></trkpt><trkpt lat="45.9116443" lon="11.5243431"><ele>1330.0</ele><time>2026-04-18T13:55:49.141Z</time></trkpt><trkpt lat="45.9117664" lon="11.5243357"><ele>1330.0</ele><time>2026-04-18T13:55:50.141Z</time></trkpt><trkpt lat="45.9118852" lon="11.5243321"><ele>1334.75</ele><time>2026-04-18T13:55:51.141Z</time></trkpt><trkpt lat="45.912002" lon="11.5243088"><ele>1339.5</ele><time>2026-04-18T13:55:52.139Z</time></trkpt><trkpt lat="45.9121261" lon="11.5242737"><ele>1344.25</ele><time>2026-04-18T13:55:53.14Z</time></trkpt><trkpt lat="45.9122367" lon="11.524238"><ele>1349.0</ele><time>2026-04-18T13:55:54.139Z</time></trkpt><trkpt lat="45.9123322" lon="11.5242145"><ele>1349.0</ele><time>2026-04-18T13:55:55.141Z</time></trkpt><trkpt lat="45.9124339" lon="11.524207"><ele>1349.0</ele><time>2026-04-18T13:55:56.141Z</time></trkpt><trkpt lat="45.9125405" lon="11.5242041"><ele>1349.0</ele><time>2026-04-18T13:55:57.141Z</time></trkpt><trkpt lat="45.9126313" lon="11.5241862"><ele>1349.0</ele><time>2026-04-18T13:55:58.14Z</time></trkpt><trkpt lat="45.9127178" lon="11.5241671"><ele>1349.0</ele><time>2026-04-18T13:55:59.141Z</time></trkpt><trkpt lat="45.9128023" lon="11.5241193"><ele>1351.1666666666667</ele><time>2026-04-18T13:56:00.14Z</time></trkpt><trkpt lat="45.9128872" lon="11.5240743"><ele>1353.3333333333335</ele><time>2026-04-18T13:56:01.141Z</time></trkpt><trkpt lat="45.9129744" lon="11.5240385"><ele>1355.5</ele><time>2026-04-18T13:56:02.141Z</time></trkpt><trkpt lat="45.9130507" lon="11.5240172"><ele>1357.6666666666667</ele><time>2026-04-18T13:56:03.14Z</time></trkpt><trkpt lat="45.9131362" lon="11.5240013"><ele>1359.8333333333333</ele><time>2026-04-18T13:56:04.14Z</time></trkpt><trkpt lat="45.9132325" lon="11.5239771"><ele>1362.0</ele><time>2026-04-18T13:56:05.14Z</time></trkpt><trkpt lat="45.9133312" lon="11.5239491"><ele>1364.1999999999998</ele><time>2026-04-18T13:56:06.141Z</time></trkpt><trkpt lat="45.9134262" lon="11.5239681"><ele>1366.4</ele><time>2026-04-18T13:56:08.14Z</time></trkpt><trkpt lat="45.9135027" lon="11.523993"><ele>1368.6</ele><time>2026-04-18T13:56:09.141Z</time></trkpt><trkpt lat="45.9135868" lon="11.5240213"><ele>1370.8000000000002</ele><time>2026-04-18T13:56:10.141Z</time></trkpt><trkpt lat="45.9136858" lon="11.5240395"><ele>1373.0</ele><time>2026-04-18T13:56:11.14Z</time></trkpt><trkpt lat="45.9137818" lon="11.5240413"><ele>1373.0</ele><time>2026-04-18T13:56:12.141Z</time></trkpt><trkpt lat="45.9138863" lon="11.524059"><ele>1373.0</ele><time>2026-04-18T13:56:13.141Z</time></trkpt><trkpt lat="45.9139787" lon="11.5240381"><ele>1373.0</ele><time>2026-04-18T13:56:14.141Z</time></trkpt><trkpt lat="45.914069" lon="11.5240296"><ele>1373.0</ele><time>2026-04-18T13:56:15.141Z</time></trkpt><trkpt lat="45.9141558" lon="11.5240076"><ele>1373.0</ele><time>2026-04-18T13:56:16.141Z</time></trkpt><trkpt lat="45.914256" lon="11.5240268"><ele>1375.4</ele><time>2026-04-18T13:56:17.14Z</time></trkpt><trkpt lat="45.9143564" lon="11.5240372"><ele>1377.8000000000002</ele><time>2026-04-18T13:56:18.141Z</time></trkpt><trkpt lat="45.9144504" lon="11.52404"><ele>1380.2</ele><time>2026-04-18T13:56:19.139Z</time></trkpt><trkpt lat="45.9145507" lon="11.5240152"><ele>1382.6</ele><time>2026-04-18T13:56:20.141Z</time></trkpt><trkpt lat="45.9146542" lon="11.5239879"><ele>1385.0</ele><time>2026-04-18T13:56:21.141Z</time></trkpt><trkpt lat="45.914756" lon="11.5239634"><ele>1385.0</ele><time>2026-04-18T13:56:22.14Z</time></trkpt><trkpt lat="45.9148611" lon="11.5239397"><ele>1385.0</ele><time>2026-04-18T13:56:23.14Z</time></trkpt><trkpt lat="45.9149553" lon="11.5239458"><ele>1385.0</ele><time>2026-04-18T13:56:24.14Z</time></trkpt><trkpt lat="45.915054" lon="11.5239409"><ele>1385.0</ele><time>2026-04-18T13:56:25.14Z</time></trkpt><trkpt lat="45.9151506" lon="11.5239804"><ele>1385.0</ele><time>2026-04-18T13:56:26.14Z</time></trkpt><trkpt lat="45.9152543" lon="11.5240293"><ele>1387.2</ele><time>2026-04-18T13:56:27.14Z</time></trkpt><trkpt lat="45.915367" lon="11.5240708"><ele>1389.4</ele><time>2026-04-18T13:56:28.14Z</time></trkpt><trkpt lat="45.9154755" lon="11.524103"><ele>1391.6</ele><time>2026-04-18T13:56:29.141Z</time></trkpt><trkpt lat="45.9155816" lon="11.5241356"><ele>1393.8</ele><time>2026-04-18T13:56:30.14Z</time></trkpt><trkpt lat="45.9156815" lon="11.524172"><ele>1396.0</ele><time>2026-04-18T13:56:31.14Z</time></trkpt><trkpt lat="45.9157941" lon="11.5241899"><ele>1396.0</ele><time>2026-04-18T13:56:32.14Z</time></trkpt><trkpt lat="45.915891" lon="11.5242138"><ele>1396.0</ele><time>2026-04-18T13:56:33.14Z</time></trkpt><trkpt lat="45.9159792" lon="11.5242376"><ele>1396.0</ele><time>2026-04-18T13:56:34.14Z</time></trkpt><trkpt lat="45.9160574" lon="11.5242915"><ele>1396.0</ele><time>2026-04-18T13:56:35.141Z</time></trkpt><trkpt lat="45.916135" lon="11.5243287"><ele>1396.0</ele><time>2026-04-18T13:56:36.139Z</time></trkpt><trkpt lat="45.9162242" lon="11.5243583"><ele>1396.0</ele><time>2026-04-18T13:56:37.14Z</time></trkpt><trkpt lat="45.9163155" lon="11.524411"><ele>1396.4</ele><time>2026-04-18T13:56:38.14Z</time></trkpt><trkpt lat="45.9163902" lon="11.5244715"><ele>1396.8</ele><time>2026-04-18T13:56:39.141Z</time></trkpt><trkpt lat="45.9164439" lon="11.5245254"><ele>1397.2</ele><time>2026-04-18T13:56:40.14Z</time></trkpt><trkpt lat="45.9165412" lon="11.5246205"><ele>1397.6000000000001</ele><time>2026-04-18T13:56:42.141Z</time></trkpt><trkpt lat="45.9166422" lon="11.5246794"><ele>1398.0</ele><time>2026-04-18T13:56:44.141Z</time></trkpt><trkpt lat="45.9167497" lon="11.524753"><ele>1402.6000000000001</ele><time>2026-04-18T13:56:46.14Z</time></trkpt><trkpt lat="45.9168355" lon="11.5248001"><ele>1407.2</ele><time>2026-04-18T13:56:47.14Z</time></trkpt><trkpt lat="45.9169203" lon="11.5248433"><ele>1411.8</ele><time>2026-04-18T13:56:48.14Z</time></trkpt><trkpt lat="45.9170051" lon="11.5248892"><ele>1416.4</ele><time>2026-04-18T13:56:49.141Z</time></trkpt><trkpt lat="45.9170944" lon="11.52494"><ele>1421.0</ele><time>2026-04-18T13:56:50.141Z</time></trkpt><trkpt lat="45.9171767" lon="11.5250126"><ele>1421.0</ele><time>2026-04-18T13:56:51.14Z</time></trkpt><trkpt lat="45.9172533" lon="11.5250711"><ele>1421.0</ele><time>2026-04-18T13:56:52.14Z</time></trkpt><trkpt lat="45.9173312" lon="11.52511"><ele>1421.0</ele><time>2026-04-18T13:56:53.14Z</time></trkpt><trkpt lat="45.9174117" lon="11.525147"><ele>1421.0</ele><time>2026-04-18T13:56:54.141Z</time></trkpt><trkpt lat="45.9175039" lon="11.525171"><ele>1421.0</ele><time>2026-04-18T13:56:55.141Z</time></trkpt><trkpt lat="45.9175939" lon="11.5252096"><ele>1421.0</ele><time>2026-04-18T13:56:56.141Z</time></trkpt><trkpt lat="45.9176938" lon="11.5252335"><ele>1420.0</ele><time>2026-04-18T13:56:57.14Z</time></trkpt><trkpt lat="45.9177846" lon="11.5252603"><ele>1419.0</ele><time>2026-04-18T13:56:58.141Z</time></trkpt><trkpt lat="45.9178776" lon="11.5252981"><ele>1418.0</ele><time>2026-04-18T13:56:59.14Z</time></trkpt><trkpt lat="45.9179702" lon="11.5253406"><ele>1417.0</ele><time>2026-04-18T13:57:00.14Z</time></trkpt><trkpt lat="45.9180655" lon="11.5253968"><ele>1416.0</ele><time>2026-04-18T13:57:01.141Z</time></trkpt><trkpt lat="45.9181686" lon="11.5254595"><ele>1416.0</ele><time>2026-04-18T13:57:02.14Z</time></trkpt><trkpt lat="45.9182637" lon="11.5255101"><ele>1416.0</ele><time>2026-04-18T13:57:03.14Z</time></trkpt><trkpt lat="45.9183653" lon="11.5255386"><ele>1416.0</ele><time>2026-04-18T13:57:04.14Z</time></trkpt><trkpt lat="45.9184633" lon="11.5255635"><ele>1416.0</ele><time>2026-04-18T13:57:05.141Z</time></trkpt><trkpt lat="45.9185657" lon="11.525576"><ele>1416.0</ele><time>2026-04-18T13:57:06.14Z</time></trkpt><trkpt lat="45.9186692" lon="11.5255957"><ele>1418.5</ele><time>2026-04-18T13:57:07.14Z</time></trkpt><trkpt lat="45.9187577" lon="11.5256278"><ele>1421.0</ele><time>2026-04-18T13:57:08.14Z</time></trkpt><trkpt lat="45.9188409" lon="11.5256721"><ele>1423.5</ele><time>2026-04-18T13:57:09.14Z</time></trkpt><trkpt lat="45.9189185" lon="11.5257316"><ele>1426.0</ele><time>2026-04-18T13:57:10.14Z</time></trkpt><trkpt lat="45.9189952" lon="11.5258036"><ele>1428.5</ele><time>2026-04-18T13:57:11.14Z</time></trkpt><trkpt lat="45.9190667" lon="11.5258699"><ele>1431.0</ele><time>2026-04-18T13:57:12.139Z</time></trkpt><trkpt lat="45.9191437" lon="11.525934"><ele>1431.0</ele><time>2026-04-18T13:57:13.14Z</time></trkpt><trkpt lat="45.919211" lon="11.5259989"><ele>1431.0</ele><time>2026-04-18T13:57:14.141Z</time></trkpt><trkpt lat="45.9192892" lon="11.526054"><ele>1431.0</ele><time>2026-04-18T13:57:15.141Z</time></trkpt><trkpt lat="45.9193716" lon="11.5261064"><ele>1431.0</ele><time>2026-04-18T13:57:16.14Z</time></trkpt><trkpt lat="45.9194552" lon="11.5261513"><ele>1431.0</ele><time>2026-04-18T13:57:17.14Z</time></trkpt><trkpt lat="45.9195428" lon="11.5261976"><ele>1431.0</ele><time>2026-04-18T13:57:18.139Z</time></trkpt><trkpt lat="45.9196343" lon="11.5262606"><ele>1429.5</ele><time>2026-04-18T13:57:19.14Z</time></trkpt><trkpt lat="45.9197419" lon="11.5262834"><ele>1428.0</ele><time>2026-04-18T13:57:20.14Z</time></trkpt><trkpt lat="45.9198282" lon="11.5262977"><ele>1426.5</ele><time>2026-04-18T13:57:21.14Z</time></trkpt><trkpt lat="45.9199111" lon="11.5263123"><ele>1425.0</ele><time>2026-04-18T13:57:22.14Z</time></trkpt><trkpt lat="45.9199861" lon="11.5263089"><ele>1423.5</ele><time>2026-04-18T13:57:23.14Z</time></trkpt><trkpt lat="45.9200584" lon="11.5262897"><ele>1422.0</ele><time>2026-04-18T13:57:24.14Z</time></trkpt><trkpt lat="45.92013" lon="11.5262386"><ele>1425.1999999999998</ele><time>2026-04-18T13:57:25.14Z</time></trkpt><trkpt lat="45.9202118" lon="11.5261849"><ele>1428.4</ele><time>2026-04-18T13:57:26.139Z</time></trkpt><trkpt lat="45.9202903" lon="11.5261143"><ele>1431.6</ele><time>2026-04-18T13:57:27.14Z</time></trkpt><trkpt lat="45.9203675" lon="11.5260285"><ele>1434.8000000000002</ele><time>2026-04-18T13:57:28.141Z</time></trkpt><trkpt lat="45.9204351" lon="11.5259445"><ele>1438.0</ele><time>2026-04-18T13:57:29.14Z</time></trkpt><trkpt lat="45.9204896" lon="11.525855"><ele>1437.9999999999998</ele><time>2026-04-18T13:57:30.14Z</time></trkpt><trkpt lat="45.9205407" lon="11.5257727"><ele>1438.0</ele><time>2026-04-18T13:57:31.141Z</time></trkpt><trkpt lat="45.9205865" lon="11.5256878"><ele>1438.0</ele><time>2026-04-18T13:57:32.14Z</time></trkpt><trkpt lat="45.9206327" lon="11.5256116"><ele>1438.0</ele><time>2026-04-18T13:57:33.141Z</time></trkpt><trkpt lat="45.9206779" lon="11.5255339"><ele>1438.0</ele><time>2026-04-18T13:57:34.141Z</time></trkpt><trkpt lat="45.9207297" lon="11.5254589"><ele>1437.9999999999998</ele><time>2026-04-18T13:57:35.139Z</time></trkpt><trkpt lat="45.9207859" lon="11.5254039"><ele>1438.0</ele><time>2026-04-18T13:57:36.14Z</time></trkpt><trkpt lat="45.920847" lon="11.5253581"><ele>1439.0</ele><time>2026-04-18T13:57:37.14Z</time></trkpt><trkpt lat="45.920911" lon="11.5253167"><ele>1440.0</ele><time>2026-04-18T13:57:38.141Z</time></trkpt><trkpt lat="45.9209838" lon="11.5252818"><ele>1441.0</ele><time>2026-04-18T13:57:39.14Z</time></trkpt><trkpt lat="45.9210541" lon="11.5252327"><ele>1442.0</ele><time>2026-04-18T13:57:40.14Z</time></trkpt><trkpt lat="45.9211263" lon="11.525177"><ele>1443.0</ele><time>2026-04-18T13:57:41.141Z</time></trkpt><trkpt lat="45.9212014" lon="11.5251225"><ele>1444.0</ele><time>2026-04-18T13:57:42.141Z</time></trkpt><trkpt lat="45.9212712" lon="11.5250696"><ele>1444.0</ele><time>2026-04-18T13:57:43.14Z</time></trkpt><trkpt lat="45.9213329" lon="11.525024"><ele>1444.0</ele><time>2026-04-18T13:57:44.14Z</time></trkpt><trkpt lat="45.9213903" lon="11.5249813"><ele>1444.0</ele><time>2026-04-18T13:57:45.139Z</time></trkpt><trkpt lat="45.9214661" lon="11.5248994"><ele>1444.0</ele><time>2026-04-18T13:57:47.139Z</time></trkpt><trkpt lat="45.9215121" lon="11.5248125"><ele>1444.0</ele><time>2026-04-18T13:57:49.14Z</time></trkpt><trkpt lat="45.9214755" lon="11.5249006"><ele>1444.0</ele><time>2026-04-18T13:58:12.14Z</time></trkpt><trkpt lat="45.921404" lon="11.524931"><ele>1444.0</ele><time>2026-04-18T13:58:14.14Z</time></trkpt><trkpt lat="45.9213032" lon="11.5250198"><ele>1444.0</ele><time>2026-04-18T13:58:16.14Z</time></trkpt><trkpt lat="45.9212138" lon="11.5250949"><ele>1444.0</ele><time>2026-04-18T13:58:18.141Z</time></trkpt><trkpt lat="45.9211141" lon="11.5251795"><ele>1444.0</ele><time>2026-04-18T13:58:20.141Z</time></trkpt><trkpt lat="45.9210594" lon="11.5252248"><ele>1444.0</ele><time>2026-04-18T13:58:21.14Z</time></trkpt><trkpt lat="45.9210033" lon="11.5252718"><ele>1444.0</ele><time>2026-04-18T13:58:22.14Z</time></trkpt><trkpt lat="45.9209469" lon="11.525316"><ele>1444.0</ele><time>2026-04-18T13:58:23.14Z</time></trkpt><trkpt lat="45.9208442" lon="11.525378"><ele>1444.0</ele><time>2026-04-18T13:58:25.14Z</time></trkpt><trkpt lat="45.9207604" lon="11.5254501"><ele>1444.0</ele><time>2026-04-18T13:58:27.14Z</time></trkpt><trkpt lat="45.9206755" lon="11.5255625"><ele>1444.0</ele><time>2026-04-18T13:58:29.14Z</time></trkpt><trkpt lat="45.920598" lon="11.5256972"><ele>1443.0</ele><time>2026-04-18T13:58:31.139Z</time></trkpt><trkpt lat="45.9205565" lon="11.5257664"><ele>1442.0</ele><time>2026-04-18T13:58:32.139Z</time></trkpt><trkpt lat="45.9205149" lon="11.5258443"><ele>1441.0</ele><time>2026-04-18T13:58:33.139Z</time></trkpt><trkpt lat="45.92047" lon="11.5259135"><ele>1440.0</ele><time>2026-04-18T13:58:34.141Z</time></trkpt><trkpt lat="45.9204225" lon="11.5259884"><ele>1439.0</ele><time>2026-04-18T13:58:35.141Z</time></trkpt><trkpt lat="45.9203193" lon="11.5261034"><ele>1438.0</ele><time>2026-04-18T13:58:37.14Z</time></trkpt><trkpt lat="45.9202579" lon="11.5261585"><ele>1438.0</ele><time>2026-04-18T13:58:38.141Z</time></trkpt><trkpt lat="45.9201948" lon="11.5262164"><ele>1438.0</ele><time>2026-04-18T13:58:39.141Z</time></trkpt><trkpt lat="45.9201306" lon="11.5262628"><ele>1438.0</ele><time>2026-04-18T13:58:40.14Z</time></trkpt><trkpt lat="45.920067" lon="11.5263009"><ele>1438.0</ele><time>2026-04-18T13:58:41.14Z</time></trkpt><trkpt lat="45.9199472" lon="11.5263167"><ele>1438.0</ele><time>2026-04-18T13:58:43.141Z</time></trkpt><trkpt lat="45.9198796" lon="11.5263061"><ele>1438.0</ele><time>2026-04-18T13:58:44.14Z</time></trkpt><trkpt lat="45.9198111" lon="11.5262921"><ele>1438.3333333333333</ele><time>2026-04-18T13:58:45.141Z</time></trkpt><trkpt lat="45.9197429" lon="11.5262715"><ele>1438.6666666666665</ele><time>2026-04-18T13:58:46.141Z</time></trkpt><trkpt lat="45.9196807" lon="11.5262466"><ele>1439.0</ele><time>2026-04-18T13:58:47.141Z</time></trkpt><trkpt lat="45.9196184" lon="11.5262225"><ele>1439.3333333333333</ele><time>2026-04-18T13:58:48.14Z</time></trkpt><trkpt lat="45.9195266" lon="11.5261767"><ele>1439.6666666666667</ele><time>2026-04-18T13:58:50.141Z</time></trkpt><trkpt lat="45.919422" lon="11.5261314"><ele>1440.0</ele><time>2026-04-18T13:58:52.14Z</time></trkpt><trkpt lat="45.9193571" lon="11.5260996"><ele>1440.0</ele><time>2026-04-18T13:58:53.14Z</time></trkpt><trkpt lat="45.9192927" lon="11.5260633"><ele>1440.0</ele><time>2026-04-18T13:58:54.14Z</time></trkpt><trkpt lat="45.9192315" lon="11.5260113"><ele>1440.0</ele><time>2026-04-18T13:58:55.14Z</time></trkpt><trkpt lat="45.9191634" lon="11.5259517"><ele>1440.0</ele><time>2026-04-18T13:58:56.14Z</time></trkpt><trkpt lat="45.9190923" lon="11.5258863"><ele>1440.0</ele><time>2026-04-18T13:58:57.14Z</time></trkpt><trkpt lat="45.9190158" lon="11.5258125"><ele>1440.0</ele><time>2026-04-18T13:58:58.139Z</time></trkpt><trkpt lat="45.9189374" lon="11.5257427"><ele>1438.5</ele><time>2026-04-18T13:58:59.14Z</time></trkpt><trkpt lat="45.9188647" lon="11.5256786"><ele>1437.0</ele><time>2026-04-18T13:59:00.141Z</time></trkpt><trkpt lat="45.9187892" lon="11.5256335"><ele>1435.5</ele><time>2026-04-18T13:59:01.14Z</time></trkpt><trkpt lat="45.9187041" lon="11.5256006"><ele>1434.0</ele><time>2026-04-18T13:59:02.141Z</time></trkpt><trkpt lat="45.9186114" lon="11.525575"><ele>1432.5</ele><time>2026-04-18T13:59:03.141Z</time></trkpt><trkpt lat="45.9185123" lon="11.5255639"><ele>1431.0</ele><time>2026-04-18T13:59:04.14Z</time></trkpt><trkpt lat="45.9184165" lon="11.5255476"><ele>1432.0</ele><time>2026-04-18T13:59:05.14Z</time></trkpt><trkpt lat="45.9183219" lon="11.5255204"><ele>1433.0</ele><time>2026-04-18T13:59:06.14Z</time></trkpt><trkpt lat="45.918236" lon="11.5254799"><ele>1434.0</ele><time>2026-04-18T13:59:07.139Z</time></trkpt><trkpt lat="45.9181446" lon="11.5254328"><ele>1435.0</ele><time>2026-04-18T13:59:08.141Z</time></trkpt><trkpt lat="45.9180555" lon="11.5253854"><ele>1436.0</ele><time>2026-04-18T13:59:09.14Z</time></trkpt><trkpt lat="45.9179572" lon="11.5253474"><ele>1436.0</ele><time>2026-04-18T13:59:10.14Z</time></trkpt><trkpt lat="45.9178531" lon="11.5253066"><ele>1436.0</ele><time>2026-04-18T13:59:11.14Z</time></trkpt><trkpt lat="45.9177469" lon="11.5252635"><ele>1436.0</ele><time>2026-04-18T13:59:12.14Z</time></trkpt><trkpt lat="45.9176475" lon="11.5252225"><ele>1436.0</ele><time>2026-04-18T13:59:13.139Z</time></trkpt><trkpt lat="45.917554" lon="11.5251887"><ele>1436.0</ele><time>2026-04-18T13:59:14.14Z</time></trkpt><trkpt lat="45.9174619" lon="11.5251538"><ele>1433.5</ele><time>2026-04-18T13:59:15.14Z</time></trkpt><trkpt lat="45.9173735" lon="11.5251228"><ele>1431.0</ele><time>2026-04-18T13:59:16.14Z</time></trkpt><trkpt lat="45.9172935" lon="11.5250828"><ele>1428.5</ele><time>2026-04-18T13:59:17.141Z</time></trkpt><trkpt lat="45.9172103" lon="11.5250406"><ele>1426.0</ele><time>2026-04-18T13:59:18.141Z</time></trkpt><trkpt lat="45.9171272" lon="11.5249873"><ele>1423.5</ele><time>2026-04-18T13:59:19.141Z</time></trkpt><trkpt lat="45.9170527" lon="11.5249357"><ele>1421.0</ele><time>2026-04-18T13:59:20.14Z</time></trkpt><trkpt lat="45.9169841" lon="11.524895"><ele>1421.0</ele><time>2026-04-18T13:59:21.141Z</time></trkpt><trkpt lat="45.9168914" lon="11.5248425"><ele>1421.0</ele><time>2026-04-18T13:59:23.14Z</time></trkpt><trkpt lat="45.9168136" lon="11.5248032"><ele>1421.0</ele><time>2026-04-18T13:59:25.141Z</time></trkpt><trkpt lat="45.9167183" lon="11.5247566"><ele>1421.0</ele><time>2026-04-18T13:59:27.14Z</time></trkpt><trkpt lat="45.9166486" lon="11.5247087"><ele>1421.0</ele><time>2026-04-18T13:59:29.14Z</time></trkpt><trkpt lat="45.9166087" lon="11.5246247"><ele>1421.0</ele><time>2026-04-18T13:59:36.141Z</time></trkpt><trkpt lat="45.9165052" lon="11.524575"><ele>1420.1999999999998</ele><time>2026-04-18T13:59:38.14Z</time></trkpt><trkpt lat="45.9164157" lon="11.5244807"><ele>1419.3999999999999</ele><time>2026-04-18T13:59:40.14Z</time></trkpt><trkpt lat="45.9163203" lon="11.5244067"><ele>1418.6</ele><time>2026-04-18T13:59:42.14Z</time></trkpt><trkpt lat="45.9162611" lon="11.5243361"><ele>1417.8</ele><time>2026-04-18T13:59:44.141Z</time></trkpt><trkpt lat="45.9163419" lon="11.5242925"><ele>1417.0</ele><time>2026-04-18T13:59:49.141Z</time></trkpt><trkpt lat="45.916417" lon="11.5243858"><ele>1417.0</ele><time>2026-04-18T13:59:51.141Z</time></trkpt><trkpt lat="45.9164928" lon="11.5244835"><ele>1417.0</ele><time>2026-04-18T13:59:53.14Z</time></trkpt><trkpt lat="45.9166052" lon="11.5245207"><ele>1417.0</ele><time>2026-04-18T13:59:55.14Z</time></trkpt><trkpt lat="45.9167069" lon="11.5244991"><ele>1417.0</ele><time>2026-04-18T13:59:57.14Z</time></trkpt><trkpt lat="45.9167761" lon="11.5244472"><ele>1417.0</ele><time>2026-04-18T13:59:59.139Z</time></trkpt><trkpt lat="45.916844" lon="11.5244516"><ele>1421.0</ele><time>2026-04-18T14:00:00.141Z</time></trkpt><trkpt lat="45.9169316" lon="11.524467"><ele>1425.0</ele><time>2026-04-18T14:00:01.14Z</time></trkpt><trkpt lat="45.9169965" lon="11.5244638"><ele>1429.0</ele><time>2026-04-18T14:00:02.14Z</time></trkpt><trkpt lat="45.9171077" lon="11.5244478"><ele>1433.0</ele><time>2026-04-18T14:00:04.139Z</time></trkpt><trkpt lat="45.9172201" lon="11.5244224"><ele>1437.0</ele><time>2026-04-18T14:00:06.14Z</time></trkpt><trkpt lat="45.9172834" lon="11.5244442"><ele>1441.0</ele><time>2026-04-18T14:00:07.141Z</time></trkpt><trkpt lat="45.9173903" lon="11.5245364"><ele>1440.0</ele><time>2026-04-18T14:00:09.141Z</time></trkpt><trkpt lat="45.9174517" lon="11.5245802"><ele>1439.0</ele><time>2026-04-18T14:00:10.141Z</time></trkpt><trkpt lat="45.9175607" lon="11.524665"><ele>1438.0</ele><time>2026-04-18T14:00:12.14Z</time></trkpt><trkpt lat="45.9176716" lon="11.5247307"><ele>1437.0</ele><time>2026-04-18T14:00:14.141Z</time></trkpt><trkpt lat="45.9177851" lon="11.5247782"><ele>1436.0</ele><time>2026-04-18T14:00:16.14Z</time></trkpt><trkpt lat="45.9178987" lon="11.5248152"><ele>1436.0</ele><time>2026-04-18T14:00:18.14Z</time></trkpt><trkpt lat="45.9180119" lon="11.5248459"><ele>1436.0</ele><time>2026-04-18T14:00:20.14Z</time></trkpt><trkpt lat="45.9181228" lon="11.5248688"><ele>1436.0</ele><time>2026-04-18T14:00:22.141Z</time></trkpt><trkpt lat="45.9181859" lon="11.5248715"><ele>1436.0</ele><time>2026-04-18T14:00:23.14Z</time></trkpt><trkpt lat="45.9182504" lon="11.5248656"><ele>1436.0</ele><time>2026-04-18T14:00:24.14Z</time></trkpt><trkpt lat="45.9183653" lon="11.5248476"><ele>1441.0</ele><time>2026-04-18T14:00:26.14Z</time></trkpt><trkpt lat="45.9184756" lon="11.5248355"><ele>1446.0</ele><time>2026-04-18T14:00:28.14Z</time></trkpt><trkpt lat="45.9185871" lon="11.524786"><ele>1451.0</ele><time>2026-04-18T14:00:30.141Z</time></trkpt><trkpt lat="45.9186966" lon="11.5247298"><ele>1456.0</ele><time>2026-04-18T14:00:32.141Z</time></trkpt><trkpt lat="45.9187992" lon="11.5246454"><ele>1456.0</ele><time>2026-04-18T14:00:34.141Z</time></trkpt><trkpt lat="45.918909" lon="11.5245813"><ele>1456.0</ele><time>2026-04-18T14:00:36.14Z</time></trkpt><trkpt lat="45.9189698" lon="11.5245529"><ele>1456.0</ele><time>2026-04-18T14:00:37.141Z</time></trkpt><trkpt lat="45.9190605" lon="11.5244831"><ele>1456.0</ele><time>2026-04-18T14:00:39.139Z</time></trkpt><trkpt lat="45.9191429" lon="11.524427"><ele>1456.0</ele><time>2026-04-18T14:00:41.14Z</time></trkpt><trkpt lat="45.9192051" lon="11.5243471"><ele>1458.6666666666665</ele><time>2026-04-18T14:00:43.14Z</time></trkpt><trkpt lat="45.9192018" lon="11.5242297"><ele>1461.3333333333333</ele><time>2026-04-18T14:00:46.14Z</time></trkpt><trkpt lat="45.9192065" lon="11.5241047"><ele>1464.0</ele><time>2026-04-18T14:00:48.14Z</time></trkpt><trkpt lat="45.9192119" lon="11.5239659"><ele>1466.6666666666667</ele><time>2026-04-18T14:00:50.14Z</time></trkpt><trkpt lat="45.9192124" lon="11.5238447"><ele>1469.3333333333335</ele><time>2026-04-18T14:00:52.14Z</time></trkpt><trkpt lat="45.9192797" lon="11.5237954"><ele>1472.0</ele><time>2026-04-18T14:00:56.14Z</time></trkpt><trkpt lat="45.9193249" lon="11.5236906"><ele>1475.0</ele><time>2026-04-18T14:00:59.141Z</time></trkpt><trkpt lat="45.9193249" lon="11.5235895"><ele>1478.0</ele><time>2026-04-18T14:01:01.14Z</time></trkpt><trkpt lat="45.9193618" lon="11.523457"><ele>1481.0</ele><time>2026-04-18T14:01:04.14Z</time></trkpt><trkpt lat="45.9193892" lon="11.5233283"><ele>1484.0</ele><time>2026-04-18T14:01:06.14Z</time></trkpt><trkpt lat="45.9193704" lon="11.523176"><ele>1487.0</ele><time>2026-04-18T14:01:08.14Z</time></trkpt><trkpt lat="45.9193843" lon="11.5230659"><ele>1490.0</ele><time>2026-04-18T14:01:10.139Z</time></trkpt><trkpt lat="45.9193928" lon="11.5229574"><ele>1492.2</ele><time>2026-04-18T14:01:12.141Z</time></trkpt><trkpt lat="45.9193837" lon="11.5228433"><ele>1494.4</ele><time>2026-04-18T14:01:17.141Z</time></trkpt><trkpt lat="45.9193465" lon="11.5227167"><ele>1496.6</ele><time>2026-04-18T14:01:21.139Z</time></trkpt><trkpt lat="45.9193057" lon="11.5225903"><ele>1498.8</ele><time>2026-04-18T14:01:23.139Z</time></trkpt><trkpt lat="45.9192553" lon="11.5224838"><ele>1501.0</ele><time>2026-04-18T14:01:25.14Z</time></trkpt><trkpt lat="45.919252" lon="11.5223459"><ele>1500.1999999999998</ele><time>2026-04-18T14:01:26.141Z</time></trkpt><trkpt lat="45.9191891" lon="11.522376"><ele>1499.3999999999999</ele><time>2026-04-18T14:01:28.14Z</time></trkpt><trkpt lat="45.9191998" lon="11.5221825"><ele>1498.6</ele><time>2026-04-18T14:01:29.141Z</time></trkpt><trkpt lat="45.9191873" lon="11.5220313"><ele>1497.8</ele><time>2026-04-18T14:01:30.14Z</time></trkpt><trkpt lat="45.9191718" lon="11.5219347"><ele>1497.0</ele><time>2026-04-18T14:01:31.141Z</time></trkpt><trkpt lat="45.919165" lon="11.521826"><ele>1497.0</ele><time>2026-04-18T14:01:32.14Z</time></trkpt><trkpt lat="45.9191476" lon="11.5216665"><ele>1497.0</ele><time>2026-04-18T14:01:34.14Z</time></trkpt><trkpt lat="45.9191496" lon="11.5215258"><ele>1497.0</ele><time>2026-04-18T14:01:36.14Z</time></trkpt><trkpt lat="45.9191605" lon="11.5214008"><ele>1497.0</ele><time>2026-04-18T14:01:38.141Z</time></trkpt><trkpt lat="45.9191399" lon="11.5212605"><ele>1497.0</ele><time>2026-04-18T14:01:40.14Z</time></trkpt><trkpt lat="45.9190925" lon="11.5211512"><ele>1499.3333333333333</ele><time>2026-04-18T14:01:42.141Z</time></trkpt><trkpt lat="45.9190534" lon="11.5210545"><ele>1501.6666666666667</ele><time>2026-04-18T14:01:44.139Z</time></trkpt><trkpt lat="45.9190348" lon="11.5209555"><ele>1504.0</ele><time>2026-04-18T14:01:46.14Z</time></trkpt><trkpt lat="45.919048" lon="11.5208636"><ele>1506.3333333333335</ele><time>2026-04-18T14:01:48.14Z</time></trkpt><trkpt lat="45.9190232" lon="11.5207641"><ele>1508.6666666666667</ele><time>2026-04-18T14:01:51.14Z</time></trkpt><trkpt lat="45.9189746" lon="11.5206294"><ele>1511.0</ele><time>2026-04-18T14:01:54.14Z</time></trkpt><trkpt lat="45.9189813" lon="11.5205122"><ele>1512.8333333333335</ele><time>2026-04-18T14:01:56.14Z</time></trkpt><trkpt lat="45.9190046" lon="11.520394"><ele>1514.6666666666667</ele><time>2026-04-18T14:01:58.14Z</time></trkpt><trkpt lat="45.9190368" lon="11.5202897"><ele>1516.5</ele><time>2026-04-18T14:02:00.141Z</time></trkpt><trkpt lat="45.9191046" lon="11.5202004"><ele>1518.3333333333333</ele><time>2026-04-18T14:02:02.139Z</time></trkpt><trkpt lat="45.9191718" lon="11.5200917"><ele>1520.1666666666665</ele><time>2026-04-18T14:02:04.141Z</time></trkpt><trkpt lat="45.9192088" lon="11.5200015"><ele>1522.0</ele><time>2026-04-18T14:02:06.108Z</time></trkpt><trkpt lat="45.9192549" lon="11.519817"><ele>1524.3333333333333</ele><time>2026-04-18T14:02:08.14Z</time></trkpt><trkpt lat="45.9192961" lon="11.519693"><ele>1526.6666666666665</ele><time>2026-04-18T14:02:09.14Z</time></trkpt><trkpt lat="45.9193239" lon="11.5195937"><ele>1529.0</ele><time>2026-04-18T14:02:10.139Z</time></trkpt><trkpt lat="45.9193512" lon="11.5194948"><ele>1531.3333333333333</ele><time>2026-04-18T14:02:11.141Z</time></trkpt><trkpt lat="45.9194036" lon="11.5194119"><ele>1533.6666666666667</ele><time>2026-04-18T14:02:12.14Z</time></trkpt><trkpt lat="45.9194585" lon="11.5193398"><ele>1536.0</ele><time>2026-04-18T14:02:13.139Z</time></trkpt><trkpt lat="45.9195391" lon="11.5192401"><ele>1537.0</ele><time>2026-04-18T14:02:15.141Z</time></trkpt><trkpt lat="45.9196155" lon="11.5191082"><ele>1538.0</ele><time>2026-04-18T14:02:17.14Z</time></trkpt><trkpt lat="45.9196438" lon="11.5190093"><ele>1539.0</ele><time>2026-04-18T14:02:18.14Z</time></trkpt><trkpt lat="45.9196507" lon="11.51891"><ele>1540.0</ele><time>2026-04-18T14:02:19.141Z</time></trkpt><trkpt lat="45.9196647" lon="11.5188094"><ele>1541.0</ele><time>2026-04-18T14:02:20.141Z</time></trkpt><trkpt lat="45.9196256" lon="11.5187378"><ele>1542.0</ele><time>2026-04-18T14:02:21.14Z</time></trkpt><trkpt lat="45.9196093" lon="11.5186176"><ele>1543.6666666666667</ele><time>2026-04-18T14:02:23.14Z</time></trkpt><trkpt lat="45.9196259" lon="11.5184972"><ele>1545.3333333333335</ele><time>2026-04-18T14:02:25.14Z</time></trkpt><trkpt lat="45.9196411" lon="11.518367"><ele>1547.0</ele><time>2026-04-18T14:02:28.141Z</time></trkpt><trkpt lat="45.9196491" lon="11.518273"><ele>1548.6666666666667</ele><time>2026-04-18T14:02:30.141Z</time></trkpt><trkpt lat="45.9196525" lon="11.5181809"><ele>1550.3333333333335</ele><time>2026-04-18T14:02:32.14Z</time></trkpt><trkpt lat="45.919678" lon="11.5180875"><ele>1552.0</ele><time>2026-04-18T14:02:34.14Z</time></trkpt><trkpt lat="45.9196803" lon="11.5179434"><ele>1554.5000000000002</ele><time>2026-04-18T14:02:37.14Z</time></trkpt><trkpt lat="45.9196486" lon="11.5178314"><ele>1557.0</ele><time>2026-04-18T14:02:39.139Z</time></trkpt><trkpt lat="45.9196137" lon="11.5177299"><ele>1559.5</ele><time>2026-04-18T14:02:41.141Z</time></trkpt><trkpt lat="45.9195791" lon="11.517621"><ele>1562.0</ele><time>2026-04-18T14:02:43.14Z</time></trkpt><trkpt lat="45.9195377" lon="11.5175337"><ele>1564.5000000000002</ele><time>2026-04-18T14:02:45.14Z</time></trkpt><trkpt lat="45.9195217" lon="11.5174452"><ele>1567.0</ele><time>2026-04-18T14:02:48.14Z</time></trkpt><trkpt lat="45.9194885" lon="11.5173555"><ele>1567.0000000000002</ele><time>2026-04-18T14:02:50.141Z</time></trkpt><trkpt lat="45.919458" lon="11.5172692"><ele>1567.0</ele><time>2026-04-18T14:02:52.14Z</time></trkpt><trkpt lat="45.9194218" lon="11.5171877"><ele>1567.0</ele><time>2026-04-18T14:02:53.139Z</time></trkpt><trkpt lat="45.9193704" lon="11.5170706"><ele>1567.0</ele><time>2026-04-18T14:02:54.141Z</time></trkpt><trkpt lat="45.9193048" lon="11.5169417"><ele>1567.0000000000002</ele><time>2026-04-18T14:02:55.141Z</time></trkpt><trkpt lat="45.9192468" lon="11.5168382"><ele>1567.0</ele><time>2026-04-18T14:02:56.141Z</time></trkpt><trkpt lat="45.9192217" lon="11.5167552"><ele>1566.8333333333335</ele><time>2026-04-18T14:02:57.14Z</time></trkpt><trkpt lat="45.9191899" lon="11.5166243"><ele>1566.6666666666667</ele><time>2026-04-18T14:02:59.14Z</time></trkpt><trkpt lat="45.9191924" lon="11.5164983"><ele>1566.5</ele><time>2026-04-18T14:03:01.14Z</time></trkpt><trkpt lat="45.9192136" lon="11.5164013"><ele>1566.3333333333335</ele><time>2026-04-18T14:03:03.14Z</time></trkpt><trkpt lat="45.919268" lon="11.5162723"><ele>1566.1666666666667</ele><time>2026-04-18T14:03:06.139Z</time></trkpt><trkpt lat="45.9192933" lon="11.516172"><ele>1566.0</ele><time>2026-04-18T14:03:07.14Z</time></trkpt><trkpt lat="45.9193074" lon="11.5160594"><ele>1567.6666666666667</ele><time>2026-04-18T14:03:08.14Z</time></trkpt><trkpt lat="45.9193258" lon="11.5159684"><ele>1569.3333333333335</ele><time>2026-04-18T14:03:10.14Z</time></trkpt><trkpt lat="45.919327" lon="11.5158566"><ele>1571.0</ele><time>2026-04-18T14:03:18.141Z</time></trkpt><trkpt lat="45.9193437" lon="11.5157624"><ele>1572.6666666666667</ele><time>2026-04-18T14:03:20.14Z</time></trkpt><trkpt lat="45.9193379" lon="11.515629"><ele>1574.3333333333335</ele><time>2026-04-18T14:03:22.14Z</time></trkpt><trkpt lat="45.9193338" lon="11.5154676"><ele>1576.0</ele><time>2026-04-18T14:03:24.14Z</time></trkpt><trkpt lat="45.9193286" lon="11.5153225"><ele>1576.0</ele><time>2026-04-18T14:03:26.14Z</time></trkpt><trkpt lat="45.9193182" lon="11.5152274"><ele>1576.0</ele><time>2026-04-18T14:03:28.14Z</time></trkpt><trkpt lat="45.9193143" lon="11.5151128"><ele>1576.0</ele><time>2026-04-18T14:03:40.14Z</time></trkpt><trkpt lat="45.9193675" lon="11.5151882"><ele>1576.0</ele><time>2026-04-18T14:04:40.141Z</time></trkpt><trkpt lat="45.9193234" lon="11.5152816"><ele>1576.0</ele><time>2026-04-18T14:04:44.141Z</time></trkpt><trkpt lat="45.9193209" lon="11.5153984"><ele>1576.0</ele><time>2026-04-18T14:04:47.141Z</time></trkpt><trkpt lat="45.919346" lon="11.5154834"><ele>1576.0</ele><time>2026-04-18T14:04:50.141Z</time></trkpt><trkpt lat="45.9194035" lon="11.5155305"><ele>1576.0</ele><time>2026-04-18T14:04:52.139Z</time></trkpt><trkpt lat="45.9194814" lon="11.5155573"><ele>1576.0</ele><time>2026-04-18T14:04:54.14Z</time></trkpt><trkpt lat="45.9195448" lon="11.5155198"><ele>1576.0</ele><time>2026-04-18T14:04:56.14Z</time></trkpt><trkpt lat="45.9195774" lon="11.5154326"><ele>1576.0</ele><time>2026-04-18T14:04:58.14Z</time></trkpt><trkpt lat="45.9195826" lon="11.515318"><ele>1576.0</ele><time>2026-04-18T14:05:01.141Z</time></trkpt><trkpt lat="45.9195964" lon="11.515218"><ele>1576.0</ele><time>2026-04-18T14:05:04.14Z</time></trkpt><trkpt lat="45.9196342" lon="11.5151356"><ele>1576.0</ele><time>2026-04-18T14:05:07.141Z</time></trkpt><trkpt lat="45.9196713" lon="11.5150564"><ele>1576.0000000000002</ele><time>2026-04-18T14:05:11.141Z</time></trkpt><trkpt lat="45.9197109" lon="11.5149838"><ele>1576.0</ele><time>2026-04-18T14:05:15.139Z</time></trkpt><trkpt lat="45.9197515" lon="11.5148834"><ele>1576.0</ele><time>2026-04-18T14:05:19.141Z</time></trkpt><trkpt lat="45.9196811" lon="11.514826"><ele>1576.0</ele><time>2026-04-18T14:05:23.14Z</time></trkpt><trkpt lat="45.9196383" lon="11.5147377"><ele>1576.0000000000002</ele><time>2026-04-18T14:05:27.14Z</time></trkpt><trkpt lat="45.9196008" lon="11.5146541"><ele>1576.0</ele><time>2026-04-18T14:05:29.141Z</time></trkpt><trkpt lat="45.9196079" lon="11.5145251"><ele>1576.6666666666667</ele><time>2026-04-18T14:05:32.14Z</time></trkpt><trkpt lat="45.9196703" lon="11.5144492"><ele>1577.3333333333335</ele><time>2026-04-18T14:05:34.14Z</time></trkpt><trkpt lat="45.9197374" lon="11.514371"><ele>1578.0</ele><time>2026-04-18T14:05:36.141Z</time></trkpt><trkpt lat="45.9197801" lon="11.514281"><ele>1578.6666666666665</ele><time>2026-04-18T14:05:48.14Z</time></trkpt><trkpt lat="45.9198576" lon="11.5142208"><ele>1579.3333333333333</ele><time>2026-04-18T14:05:50.141Z</time></trkpt><trkpt lat="45.9198569" lon="11.5141247"><ele>1580.0</ele><time>2026-04-18T14:05:53.141Z</time></trkpt><trkpt lat="45.91988" lon="11.5140293"><ele>1579.9999999999998</ele><time>2026-04-18T14:05:57.139Z</time></trkpt><trkpt lat="45.9199369" lon="11.5139706"><ele>1580.0</ele><time>2026-04-18T14:06:00.139Z</time></trkpt><trkpt lat="45.9199887" lon="11.5138634"><ele>1580.0</ele><time>2026-04-18T14:06:03.141Z</time></trkpt><trkpt lat="45.9200444" lon="11.5137694"><ele>1580.0</ele><time>2026-04-18T14:06:05.141Z</time></trkpt><trkpt lat="45.9201035" lon="11.5136805"><ele>1579.9999999999998</ele><time>2026-04-18T14:06:07.141Z</time></trkpt><trkpt lat="45.9201592" lon="11.5136171"><ele>1580.0</ele><time>2026-04-18T14:06:09.141Z</time></trkpt><trkpt lat="45.9201954" lon="11.5135348"><ele>1582.4285714285713</ele><time>2026-04-18T14:06:12.139Z</time></trkpt><trkpt lat="45.9201303" lon="11.5135618"><ele>1584.857142857143</ele><time>2026-04-18T14:06:23.141Z</time></trkpt><trkpt lat="45.9202051" lon="11.5135842"><ele>1587.2857142857142</ele><time>2026-04-18T14:06:46.14Z</time></trkpt><trkpt lat="45.9202637" lon="11.5135181"><ele>1589.7142857142858</ele><time>2026-04-18T14:06:56.14Z</time></trkpt><trkpt lat="45.920255" lon="11.5134205"><ele>1592.1428571428573</ele><time>2026-04-18T14:07:12.14Z</time></trkpt><trkpt lat="45.9202812" lon="11.5133005"><ele>1594.5714285714287</ele><time>2026-04-18T14:07:30.14Z</time></trkpt><trkpt lat="45.9203241" lon="11.5132308"><ele>1597.0</ele><time>2026-04-18T14:07:33.139Z</time></trkpt><trkpt lat="45.9203885" lon="11.5131878"><ele>1597.0</ele><time>2026-04-18T14:07:36.141Z</time></trkpt><trkpt lat="45.9204452" lon="11.5131056"><ele>1597.0</ele><time>2026-04-18T14:07:39.14Z</time></trkpt><trkpt lat="45.9205145" lon="11.5130627"><ele>1597.0</ele><time>2026-04-18T14:07:42.14Z</time></trkpt><trkpt lat="45.9205703" lon="11.5129735"><ele>1597.0</ele><time>2026-04-18T14:07:46.141Z</time></trkpt><trkpt lat="45.9206228" lon="11.5129105"><ele>1597.0</ele><time>2026-04-18T14:07:49.14Z</time></trkpt><trkpt lat="45.920653" lon="11.5128282"><ele>1597.0</ele><time>2026-04-18T14:07:51.141Z</time></trkpt><trkpt lat="45.920697" lon="11.5127461"><ele>1597.0</ele><time>2026-04-18T14:07:53.14Z</time></trkpt><trkpt lat="45.9207345" lon="11.512661"><ele>1597.6</ele><time>2026-04-18T14:07:55.141Z</time></trkpt><trkpt lat="45.9207985" lon="11.5125655"><ele>1598.1999999999998</ele><time>2026-04-18T14:07:57.14Z</time></trkpt><trkpt lat="45.9208609" lon="11.5124526"><ele>1598.8</ele><time>2026-04-18T14:07:59.139Z</time></trkpt><trkpt lat="45.920936" lon="11.5123444"><ele>1599.4</ele><time>2026-04-18T14:08:01.141Z</time></trkpt><trkpt lat="45.921016" lon="11.5122438"><ele>1600.0</ele><time>2026-04-18T14:08:03.139Z</time></trkpt><trkpt lat="45.9210703" lon="11.5121509"><ele>1600.857142857143</ele><time>2026-04-18T14:08:05.141Z</time></trkpt><trkpt lat="45.921135" lon="11.5120873"><ele>1601.7142857142858</ele><time>2026-04-18T14:08:07.139Z</time></trkpt><trkpt lat="45.9212102" lon="11.5120405"><ele>1602.5714285714284</ele><time>2026-04-18T14:08:09.14Z</time></trkpt><trkpt lat="45.9212722" lon="11.5119853"><ele>1603.4285714285716</ele><time>2026-04-18T14:08:11.141Z</time></trkpt><trkpt lat="45.9213142" lon="11.511917"><ele>1604.2857142857142</ele><time>2026-04-18T14:12:21.14Z</time></trkpt><trkpt lat="45.9212897" lon="11.5120047"><ele>1605.142857142857</ele><time>2026-04-18T14:12:26.14Z</time></trkpt><trkpt lat="45.9212417" lon="11.5120948"><ele>1606.0</ele><time>2026-04-18T14:12:30.139Z</time></trkpt><trkpt lat="45.9212032" lon="11.5121839"><ele>1606.0000000000002</ele><time>2026-04-18T14:12:34.139Z</time></trkpt><trkpt lat="45.9211401" lon="11.5122017"><ele>1606.0</ele><time>2026-04-18T14:13:07.139Z</time></trkpt><trkpt lat="45.9211985" lon="11.5121072"><ele>1606.0</ele><time>2026-04-18T14:13:10.139Z</time></trkpt><trkpt lat="45.921288" lon="11.5120019"><ele>1606.0</ele><time>2026-04-18T14:13:12.139Z</time></trkpt><trkpt lat="45.9213703" lon="11.5119145"><ele>1606.0000000000002</ele><time>2026-04-18T14:13:14.14Z</time></trkpt><trkpt lat="45.9213055" lon="11.511907"><ele>1606.0</ele><time>2026-04-18T14:13:42.139Z</time></trkpt><trkpt lat="45.9212717" lon="11.5119841"><ele>1606.0000000000002</ele><time>2026-04-18T14:13:44.139Z</time></trkpt><trkpt lat="45.9212293" lon="11.5120631"><ele>1606.0</ele><time>2026-04-18T14:13:46.14Z</time></trkpt><trkpt lat="45.9211998" lon="11.5121434"><ele>1606.0</ele><time>2026-04-18T14:13:49.14Z</time></trkpt><trkpt lat="45.9212184" lon="11.5120391"><ele>1606.0</ele><time>2026-04-18T14:13:54.138Z</time></trkpt><trkpt lat="45.9212818" lon="11.5119706"><ele>1606.0000000000002</ele><time>2026-04-18T14:13:55.139Z</time></trkpt><trkpt lat="45.9213825" lon="11.5118971"><ele>1606.0</ele><time>2026-04-18T14:13:57.139Z</time></trkpt><trkpt lat="45.921345" lon="11.5120029"><ele>1606.0000000000002</ele><time>2026-04-18T14:14:30.138Z</time></trkpt><trkpt lat="45.9212659" lon="11.5120812"><ele>1606.0</ele><time>2026-04-18T14:14:32.139Z</time></trkpt><trkpt lat="45.9212084" lon="11.5120435"><ele>1606.0</ele><time>2026-04-18T14:14:36.14Z</time></trkpt><trkpt lat="45.9212793" lon="11.5119566"><ele>1606.0</ele><time>2026-04-18T14:14:38.14Z</time></trkpt><trkpt lat="45.9213629" lon="11.5118686"><ele>1606.0000000000002</ele><time>2026-04-18T14:14:40.14Z</time></trkpt><trkpt lat="45.9214273" lon="11.5118587"><ele>1606.0</ele><time>2026-04-18T14:14:42.139Z</time></trkpt><trkpt lat="45.9214894" lon="11.5118286"><ele>1605.9999999999998</ele><time>2026-04-18T14:14:47.14Z</time></trkpt><trkpt lat="45.9214329" lon="11.5118737"><ele>1606.0</ele><time>2026-04-18T14:15:53.138Z</time></trkpt><trkpt lat="45.9213665" lon="11.5118842"><ele>1606.0</ele><time>2026-04-18T14:16:07.139Z</time></trkpt><trkpt lat="45.9214296" lon="11.511863"><ele>1606.0</ele><time>2026-04-18T14:16:56.14Z</time></trkpt><trkpt lat="45.9213672" lon="11.5118933"><ele>1606.0</ele><time>2026-04-18T14:17:06.138Z</time></trkpt><trkpt lat="45.9212931" lon="11.511959"><ele>1605.9999999999998</ele><time>2026-04-18T14:17:17.139Z</time></trkpt><trkpt lat="45.9212416" lon="11.5120137"><ele>1606.0</ele><time>2026-04-18T14:17:19.138Z</time></trkpt><trkpt lat="45.9211946" lon="11.5120773"><ele>1606.0000000000002</ele><time>2026-04-18T14:17:21.139Z</time></trkpt><trkpt lat="45.9211222" lon="11.5121294"><ele>1606.0</ele><time>2026-04-18T14:17:24.139Z</time></trkpt><trkpt lat="45.9210638" lon="11.5121634"><ele>1606.0</ele><time>2026-04-18T14:17:26.138Z</time></trkpt><trkpt lat="45.9211114" lon="11.5122647"><ele>1606.0</ele><time>2026-04-18T14:17:38.139Z</time></trkpt><trkpt lat="45.9211856" lon="11.5122985"><ele>1606.0000000000002</ele><time>2026-04-18T14:17:40.138Z</time></trkpt><trkpt lat="45.9212565" lon="11.5123647"><ele>1606.0</ele><time>2026-04-18T14:17:42.139Z</time></trkpt><trkpt lat="45.9212902" lon="11.5124818"><ele>1606.0000000000002</ele><time>2026-04-18T14:17:44.139Z</time></trkpt><trkpt lat="45.9213199" lon="11.5126072"><ele>1606.0</ele><time>2026-04-18T14:17:46.138Z</time></trkpt><trkpt lat="45.9213163" lon="11.5127149"><ele>1606.0</ele><time>2026-04-18T14:17:48.139Z</time></trkpt><trkpt lat="45.9212578" lon="11.5127784"><ele>1606.0</ele><time>2026-04-18T14:17:50.138Z</time></trkpt><trkpt lat="45.9212126" lon="11.5128879"><ele>1606.0000000000002</ele><time>2026-04-18T14:17:53.139Z</time></trkpt><trkpt lat="45.9212395" lon="11.5130002"><ele>1606.0</ele><time>2026-04-18T14:17:56.139Z</time></trkpt><trkpt lat="45.921287" lon="11.5130752"><ele>1606.6666666666667</ele><time>2026-04-18T14:17:58.138Z</time></trkpt><trkpt lat="45.9213146" lon="11.5131697"><ele>1607.3333333333335</ele><time>2026-04-18T14:18:00.139Z</time></trkpt><trkpt lat="45.9212716" lon="11.5133038"><ele>1608.0</ele><time>2026-04-18T14:18:03.138Z</time></trkpt><trkpt lat="45.9212241" lon="11.5133666"><ele>1608.6666666666665</ele><time>2026-04-18T14:18:05.139Z</time></trkpt><trkpt lat="45.9211785" lon="11.513468"><ele>1609.3333333333333</ele><time>2026-04-18T14:18:17.139Z</time></trkpt><trkpt lat="45.9211289" lon="11.5135647"><ele>1610.0</ele><time>2026-04-18T14:18:21.139Z</time></trkpt><trkpt lat="45.9211685" lon="11.5134709"><ele>1610.0</ele><time>2026-04-18T14:18:58.139Z</time></trkpt><trkpt lat="45.9211611" lon="11.5133558"><ele>1610.0</ele><time>2026-04-18T14:19:04.139Z</time></trkpt><trkpt lat="45.9211951" lon="11.5132796"><ele>1610.0</ele><time>2026-04-18T14:19:08.138Z</time></trkpt><trkpt lat="45.9212374" lon="11.5132061"><ele>1610.0</ele><time>2026-04-18T14:19:11.14Z</time></trkpt><trkpt lat="45.9212608" lon="11.5131067"><ele>1610.0</ele><time>2026-04-18T14:19:16.139Z</time></trkpt><trkpt lat="45.921226" lon="11.5129931"><ele>1610.0</ele><time>2026-04-18T14:19:19.14Z</time></trkpt><trkpt lat="45.9212" lon="11.5128869"><ele>1610.0</ele><time>2026-04-18T14:19:23.14Z</time></trkpt><trkpt lat="45.9211884" lon="11.5127929"><ele>1609.3333333333333</ele><time>2026-04-18T14:19:27.138Z</time></trkpt><trkpt lat="45.9212068" lon="11.5126911"><ele>1608.6666666666665</ele><time>2026-04-18T14:19:30.139Z</time></trkpt><trkpt lat="45.9212108" lon="11.512568"><ele>1608.0</ele><time>2026-04-18T14:19:33.139Z</time></trkpt><trkpt lat="45.921203" lon="11.5124744"><ele>1607.3333333333335</ele><time>2026-04-18T14:19:35.139Z</time></trkpt><trkpt lat="45.9211906" lon="11.512347"><ele>1606.6666666666667</ele><time>2026-04-18T14:19:38.138Z</time></trkpt><trkpt lat="45.9211522" lon="11.5122444"><ele>1606.0</ele><time>2026-04-18T14:19:41.14Z</time></trkpt><trkpt lat="45.9210703" lon="11.5122025"><ele>1606.0000000000002</ele><time>2026-04-18T14:19:44.139Z</time></trkpt><trkpt lat="45.9209937" lon="11.512263"><ele>1606.0</ele><time>2026-04-18T14:19:47.139Z</time></trkpt><trkpt lat="45.920939" lon="11.5123646"><ele>1606.0</ele><time>2026-04-18T14:19:50.14Z</time></trkpt><trkpt lat="45.920892" lon="11.5124372"><ele>1606.0</ele><time>2026-04-18T14:19:52.14Z</time></trkpt><trkpt lat="45.9208533" lon="11.5125265"><ele>1606.0000000000002</ele><time>2026-04-18T14:19:54.138Z</time></trkpt><trkpt lat="45.9208143" lon="11.5126239"><ele>1606.0</ele><time>2026-04-18T14:19:56.14Z</time></trkpt><trkpt lat="45.920766" lon="11.5127023"><ele>1605.142857142857</ele><time>2026-04-18T14:19:58.14Z</time></trkpt><trkpt lat="45.9207258" lon="11.5127785"><ele>1604.2857142857142</ele><time>2026-04-18T14:20:00.138Z</time></trkpt><trkpt lat="45.9206711" lon="11.5128772"><ele>1603.4285714285716</ele><time>2026-04-18T14:20:03.139Z</time></trkpt><trkpt lat="45.9206357" lon="11.5129858"><ele>1602.5714285714284</ele><time>2026-04-18T14:20:07.14Z</time></trkpt><trkpt lat="45.9205863" lon="11.5130665"><ele>1601.7142857142858</ele><time>2026-04-18T14:20:10.14Z</time></trkpt><trkpt lat="45.9205349" lon="11.5131235"><ele>1600.857142857143</ele><time>2026-04-18T14:20:14.139Z</time></trkpt><trkpt lat="45.9204704" lon="11.5131674"><ele>1600.0</ele><time>2026-04-18T14:20:17.14Z</time></trkpt><trkpt lat="45.9204132" lon="11.5132156"><ele>1599.5714285714287</ele><time>2026-04-18T14:20:20.139Z</time></trkpt><trkpt lat="45.920352" lon="11.5132775"><ele>1599.142857142857</ele><time>2026-04-18T14:20:30.139Z</time></trkpt><trkpt lat="45.9203025" lon="11.5133579"><ele>1598.7142857142858</ele><time>2026-04-18T14:20:37.138Z</time></trkpt><trkpt lat="45.9202655" lon="11.5134495"><ele>1598.2857142857142</ele><time>2026-04-18T14:20:41.139Z</time></trkpt><trkpt lat="45.9202384" lon="11.5135642"><ele>1597.857142857143</ele><time>2026-04-18T14:20:44.139Z</time></trkpt><trkpt lat="45.920176" lon="11.5135972"><ele>1597.4285714285716</ele><time>2026-04-18T14:21:01.138Z</time></trkpt><trkpt lat="45.9201485" lon="11.5136925"><ele>1597.0</ele><time>2026-04-18T14:21:04.138Z</time></trkpt><trkpt lat="45.9201252" lon="11.513784"><ele>1597.0</ele><time>2026-04-18T14:21:06.138Z</time></trkpt><trkpt lat="45.9200964" lon="11.5138864"><ele>1597.0</ele><time>2026-04-18T14:21:08.139Z</time></trkpt><trkpt lat="45.9200616" lon="11.5139914"><ele>1597.0</ele><time>2026-04-18T14:21:10.139Z</time></trkpt><trkpt lat="45.9200326" lon="11.5140836"><ele>1597.0</ele><time>2026-04-18T14:21:12.139Z</time></trkpt><trkpt lat="45.9199552" lon="11.5141117"><ele>1597.0</ele><time>2026-04-18T14:21:17.139Z</time></trkpt><trkpt lat="45.9198961" lon="11.5141537"><ele>1597.0</ele><time>2026-04-18T14:21:21.138Z</time></trkpt><trkpt lat="45.9198387" lon="11.5142061"><ele>1597.0</ele><time>2026-04-18T14:21:25.139Z</time></trkpt><trkpt lat="45.9197932" lon="11.514292"><ele>1594.5714285714287</ele><time>2026-04-18T14:21:30.139Z</time></trkpt><trkpt lat="45.9197387" lon="11.5144023"><ele>1592.1428571428573</ele><time>2026-04-18T14:21:33.138Z</time></trkpt><trkpt lat="45.9196906" lon="11.5144782"><ele>1589.7142857142858</ele><time>2026-04-18T14:21:35.138Z</time></trkpt><trkpt lat="45.9196314" lon="11.5145313"><ele>1587.2857142857142</ele><time>2026-04-18T14:21:37.139Z</time></trkpt><trkpt lat="45.9195733" lon="11.5146072"><ele>1584.857142857143</ele><time>2026-04-18T14:21:39.138Z</time></trkpt><trkpt lat="45.919532" lon="11.5146766"><ele>1582.4285714285713</ele><time>2026-04-18T14:21:41.138Z</time></trkpt><trkpt lat="45.9194903" lon="11.5147554"><ele>1580.0</ele><time>2026-04-18T14:21:45.139Z</time></trkpt><trkpt lat="45.9194231" lon="11.5148208"><ele>1579.4285714285713</ele><time>2026-04-18T14:21:48.138Z</time></trkpt><trkpt lat="45.9193743" lon="11.5148799"><ele>1578.857142857143</ele><time>2026-04-18T14:21:50.139Z</time></trkpt><trkpt lat="45.9193333" lon="11.5149491"><ele>1578.2857142857142</ele><time>2026-04-18T14:21:52.137Z</time></trkpt><trkpt lat="45.9193161" lon="11.5150435"><ele>1577.7142857142858</ele><time>2026-04-18T14:21:54.138Z</time></trkpt><trkpt lat="45.9193138" lon="11.515143"><ele>1577.1428571428573</ele><time>2026-04-18T14:21:56.138Z</time></trkpt><trkpt lat="45.9193139" lon="11.5152547"><ele>1576.5714285714287</ele><time>2026-04-18T14:21:58.138Z</time></trkpt><trkpt lat="45.9193285" lon="11.5153795"><ele>1576.0</ele><time>2026-04-18T14:22:00.138Z</time></trkpt><trkpt lat="45.919325" lon="11.5155297"><ele>1576.0000000000002</ele><time>2026-04-18T14:22:02.139Z</time></trkpt><trkpt lat="45.9193204" lon="11.5156856"><ele>1576.0</ele><time>2026-04-18T14:22:04.139Z</time></trkpt><trkpt lat="45.9193079" lon="11.5157999"><ele>1576.0</ele><time>2026-04-18T14:22:06.138Z</time></trkpt><trkpt lat="45.919287" lon="11.5159109"><ele>1576.0</ele><time>2026-04-18T14:22:08.139Z</time></trkpt><trkpt lat="45.9192666" lon="11.5160274"><ele>1576.0000000000002</ele><time>2026-04-18T14:22:10.137Z</time></trkpt><trkpt lat="45.919241" lon="11.5161121"><ele>1576.0</ele><time>2026-04-18T14:22:12.138Z</time></trkpt><trkpt lat="45.9192258" lon="11.5162156"><ele>1576.5000000000002</ele><time>2026-04-18T14:22:14.137Z</time></trkpt><trkpt lat="45.9192027" lon="11.5163421"><ele>1577.0</ele><time>2026-04-18T14:22:17.138Z</time></trkpt><trkpt lat="45.9191932" lon="11.5164579"><ele>1577.5</ele><time>2026-04-18T14:22:19.139Z</time></trkpt><trkpt lat="45.9191824" lon="11.5165753"><ele>1578.0</ele><time>2026-04-18T14:22:21.137Z</time></trkpt><trkpt lat="45.9191726" lon="11.5167015"><ele>1578.5000000000002</ele><time>2026-04-18T14:22:23.138Z</time></trkpt><trkpt lat="45.9192326" lon="11.5168103"><ele>1579.0</ele><time>2026-04-18T14:22:26.138Z</time></trkpt><trkpt lat="45.9192984" lon="11.5168939"><ele>1579.0000000000002</ele><time>2026-04-18T14:22:28.138Z</time></trkpt><trkpt lat="45.9193382" lon="11.5170161"><ele>1579.0</ele><time>2026-04-18T14:22:30.138Z</time></trkpt><trkpt lat="45.9193791" lon="11.5171243"><ele>1579.0</ele><time>2026-04-18T14:22:33.138Z</time></trkpt><trkpt lat="45.9194096" lon="11.5172039"><ele>1579.0</ele><time>2026-04-18T14:22:35.138Z</time></trkpt><trkpt lat="45.9194468" lon="11.5173237"><ele>1579.0000000000002</ele><time>2026-04-18T14:22:38.139Z</time></trkpt><trkpt lat="45.9195" lon="11.517416"><ele>1579.0</ele><time>2026-04-18T14:22:43.138Z</time></trkpt><trkpt lat="45.9195471" lon="11.5175202"><ele>1577.0000000000002</ele><time>2026-04-18T14:22:47.139Z</time></trkpt><trkpt lat="45.9196005" lon="11.5176183"><ele>1575.0</ele><time>2026-04-18T14:22:50.139Z</time></trkpt><trkpt lat="45.9196446" lon="11.5177042"><ele>1573.0</ele><time>2026-04-18T14:22:52.138Z</time></trkpt><trkpt lat="45.9196801" lon="11.5178325"><ele>1571.0</ele><time>2026-04-18T14:22:54.139Z</time></trkpt><trkpt lat="45.9196905" lon="11.5179746"><ele>1569.0000000000002</ele><time>2026-04-18T14:22:57.138Z</time></trkpt><trkpt lat="45.9196818" lon="11.5180944"><ele>1567.0</ele><time>2026-04-18T14:22:59.139Z</time></trkpt><trkpt lat="45.9196959" lon="11.5182503"><ele>1564.5000000000002</ele><time>2026-04-18T14:23:01.137Z</time></trkpt><trkpt lat="45.9197219" lon="11.5183336"><ele>1562.0</ele><time>2026-04-18T14:23:03.139Z</time></trkpt><trkpt lat="45.9196927" lon="11.518435"><ele>1559.5</ele><time>2026-04-18T14:23:05.138Z</time></trkpt><trkpt lat="45.9196668" lon="11.5185467"><ele>1557.0</ele><time>2026-04-18T14:23:07.139Z</time></trkpt><trkpt lat="45.9196734" lon="11.5186601"><ele>1554.5000000000002</ele><time>2026-04-18T14:23:09.139Z</time></trkpt><trkpt lat="45.9196643" lon="11.518778"><ele>1552.0</ele><time>2026-04-18T14:23:11.139Z</time></trkpt><trkpt lat="45.9196456" lon="11.5188983"><ele>1550.3333333333335</ele><time>2026-04-18T14:23:13.139Z</time></trkpt><trkpt lat="45.919605" lon="11.5190144"><ele>1548.6666666666667</ele><time>2026-04-18T14:23:15.139Z</time></trkpt><trkpt lat="45.9195651" lon="11.5191173"><ele>1547.0</ele><time>2026-04-18T14:23:17.138Z</time></trkpt><trkpt lat="45.919515" lon="11.5192265"><ele>1545.3333333333335</ele><time>2026-04-18T14:23:19.139Z</time></trkpt><trkpt lat="45.9194724" lon="11.5193156"><ele>1543.6666666666667</ele><time>2026-04-18T14:23:21.139Z</time></trkpt><trkpt lat="45.9194111" lon="11.519396"><ele>1542.0</ele><time>2026-04-18T14:23:23.137Z</time></trkpt><trkpt lat="45.9193636" lon="11.519511"><ele>1541.0</ele><time>2026-04-18T14:23:25.138Z</time></trkpt><trkpt lat="45.9193272" lon="11.5196384"><ele>1540.0</ele><time>2026-04-18T14:23:27.139Z</time></trkpt><trkpt lat="45.9193141" lon="11.5197318"><ele>1539.0</ele><time>2026-04-18T14:23:29.138Z</time></trkpt><trkpt lat="45.9193253" lon="11.5198473"><ele>1538.0</ele><time>2026-04-18T14:23:31.138Z</time></trkpt><trkpt lat="45.9192765" lon="11.5199368"><ele>1537.0</ele><time>2026-04-18T14:23:33.139Z</time></trkpt><trkpt lat="45.9192527" lon="11.5200232"><ele>1536.0</ele><time>2026-04-18T14:23:35.138Z</time></trkpt><trkpt lat="45.9191783" lon="11.5201095"><ele>1533.6666666666667</ele><time>2026-04-18T14:23:37.139Z</time></trkpt><trkpt lat="45.9191006" lon="11.5201867"><ele>1531.3333333333333</ele><time>2026-04-18T14:23:39.138Z</time></trkpt><trkpt lat="45.9190323" lon="11.5202595"><ele>1529.0</ele><time>2026-04-18T14:23:41.139Z</time></trkpt><trkpt lat="45.9189905" lon="11.5203349"><ele>1526.6666666666665</ele><time>2026-04-18T14:23:43.138Z</time></trkpt><trkpt lat="45.918972" lon="11.5204627"><ele>1524.3333333333333</ele><time>2026-04-18T14:23:46.138Z</time></trkpt><trkpt lat="45.9189753" lon="11.5205555"><ele>1522.0</ele><time>2026-04-18T14:23:48.138Z</time></trkpt><trkpt lat="45.9189689" lon="11.5206858"><ele>1520.1666666666665</ele><time>2026-04-18T14:23:51.138Z</time></trkpt><trkpt lat="45.9190105" lon="11.5207883"><ele>1518.3333333333333</ele><time>2026-04-18T14:23:55.138Z</time></trkpt><trkpt lat="45.9190503" lon="11.5208651"><ele>1516.5</ele><time>2026-04-18T14:23:58.138Z</time></trkpt><trkpt lat="45.9190801" lon="11.5209481"><ele>1514.6666666666667</ele><time>2026-04-18T14:24:00.138Z</time></trkpt><trkpt lat="45.9190726" lon="11.5210944"><ele>1512.8333333333335</ele><time>2026-04-18T14:24:03.138Z</time></trkpt><trkpt lat="45.9190996" lon="11.5212069"><ele>1511.0</ele><time>2026-04-18T14:24:06.139Z</time></trkpt><trkpt lat="45.9191643" lon="11.5212861"><ele>1511.0</ele><time>2026-04-18T14:24:09.138Z</time></trkpt><trkpt lat="45.9192067" lon="11.521391"><ele>1511.0</ele><time>2026-04-18T14:24:12.138Z</time></trkpt><trkpt lat="45.9192208" lon="11.5214899"><ele>1511.0</ele><time>2026-04-18T14:24:15.139Z</time></trkpt><trkpt lat="45.9192018" lon="11.521584"><ele>1511.0</ele><time>2026-04-18T14:24:17.138Z</time></trkpt><trkpt lat="45.9192005" lon="11.521694"><ele>1511.0</ele><time>2026-04-18T14:24:19.138Z</time></trkpt><trkpt lat="45.9192491" lon="11.5217604"><ele>1511.0</ele><time>2026-04-18T14:24:21.138Z</time></trkpt><trkpt lat="45.9192601" lon="11.5218778"><ele>1511.0</ele><time>2026-04-18T14:24:27.139Z</time></trkpt><trkpt lat="45.9192966" lon="11.5219752"><ele>1509.3333333333335</ele><time>2026-04-18T14:24:29.138Z</time></trkpt><trkpt lat="45.919336" lon="11.5221067"><ele>1507.6666666666667</ele><time>2026-04-18T14:24:32.139Z</time></trkpt><trkpt lat="45.9193657" lon="11.5221992"><ele>1506.0</ele><time>2026-04-18T14:24:34.138Z</time></trkpt><trkpt lat="45.9193886" lon="11.522309"><ele>1504.3333333333333</ele><time>2026-04-18T14:24:36.138Z</time></trkpt><trkpt lat="45.9193862" lon="11.5224323"><ele>1502.6666666666665</ele><time>2026-04-18T14:24:38.138Z</time></trkpt><trkpt lat="45.9193913" lon="11.5225402"><ele>1501.0</ele><time>2026-04-18T14:24:40.137Z</time></trkpt><trkpt lat="45.9193981" lon="11.522661"><ele>1501.0</ele><time>2026-04-18T14:24:42.139Z</time></trkpt><trkpt lat="45.9193882" lon="11.5228004"><ele>1501.0</ele><time>2026-04-18T14:24:44.139Z</time></trkpt><trkpt lat="45.9193519" lon="11.5229292"><ele>1501.0</ele><time>2026-04-18T14:24:46.138Z</time></trkpt><trkpt lat="45.9193446" lon="11.5230357"><ele>1501.0</ele><time>2026-04-18T14:24:48.137Z</time></trkpt><trkpt lat="45.9193481" lon="11.5231681"><ele>1501.0</ele><time>2026-04-18T14:24:51.138Z</time></trkpt><trkpt lat="45.9193415" lon="11.5232661"><ele>1501.0</ele><time>2026-04-18T14:24:53.137Z</time></trkpt><trkpt lat="45.9193691" lon="11.5233901"><ele>1498.8</ele><time>2026-04-18T14:24:55.138Z</time></trkpt><trkpt lat="45.9193957" lon="11.5234969"><ele>1496.6</ele><time>2026-04-18T14:24:57.139Z</time></trkpt><trkpt lat="45.9193917" lon="11.5236233"><ele>1494.4</ele><time>2026-04-18T14:24:59.138Z</time></trkpt><trkpt lat="45.9193193" lon="11.5238128"><ele>1492.2</ele><time>2026-04-18T14:25:01.137Z</time></trkpt><trkpt lat="45.9192858" lon="11.5238954"><ele>1490.0</ele><time>2026-04-18T14:25:02.138Z</time></trkpt><trkpt lat="45.9192333" lon="11.5239966"><ele>1487.0</ele><time>2026-04-18T14:25:06.138Z</time></trkpt><trkpt lat="45.919213" lon="11.5241128"><ele>1484.0</ele><time>2026-04-18T14:25:09.139Z</time></trkpt><trkpt lat="45.9191987" lon="11.524209"><ele>1481.0</ele><time>2026-04-18T14:25:11.138Z</time></trkpt><trkpt lat="45.9191958" lon="11.5243258"><ele>1478.0</ele><time>2026-04-18T14:25:13.139Z</time></trkpt><trkpt lat="45.9191766" lon="11.524428"><ele>1475.0</ele><time>2026-04-18T14:25:16.138Z</time></trkpt><trkpt lat="45.9191097" lon="11.524495"><ele>1472.0</ele><time>2026-04-18T14:25:19.138Z</time></trkpt><trkpt lat="45.9190452" lon="11.5245354"><ele>1469.3333333333335</ele><time>2026-04-18T14:25:21.138Z</time></trkpt><trkpt lat="45.9189733" lon="11.5245869"><ele>1466.6666666666667</ele><time>2026-04-18T14:25:23.138Z</time></trkpt><trkpt lat="45.9188943" lon="11.5246335"><ele>1464.0</ele><time>2026-04-18T14:25:25.138Z</time></trkpt><trkpt lat="45.9188154" lon="11.5246848"><ele>1461.3333333333333</ele><time>2026-04-18T14:25:27.139Z</time></trkpt><trkpt lat="45.9187293" lon="11.5247095"><ele>1458.6666666666665</ele><time>2026-04-18T14:25:29.138Z</time></trkpt><trkpt lat="45.9186418" lon="11.5247654"><ele>1456.0</ele><time>2026-04-18T14:25:31.138Z</time></trkpt><trkpt lat="45.9185265" lon="11.5248277"><ele>1456.0</ele><time>2026-04-18T14:25:33.137Z</time></trkpt><trkpt lat="45.918466" lon="11.524853"><ele>1456.0</ele><time>2026-04-18T14:25:34.137Z</time></trkpt><trkpt lat="45.9183541" lon="11.5248842"><ele>1456.0</ele><time>2026-04-18T14:25:36.138Z</time></trkpt><trkpt lat="45.9182487" lon="11.5248974"><ele>1456.0</ele><time>2026-04-18T14:25:38.138Z</time></trkpt><trkpt lat="45.9181513" lon="11.5248968"><ele>1456.0</ele><time>2026-04-18T14:25:40.139Z</time></trkpt><trkpt lat="45.9180585" lon="11.524884"><ele>1452.0</ele><time>2026-04-18T14:25:42.138Z</time></trkpt><trkpt lat="45.9179712" lon="11.524864"><ele>1448.0</ele><time>2026-04-18T14:25:44.138Z</time></trkpt><trkpt lat="45.9178778" lon="11.5248371"><ele>1444.0</ele><time>2026-04-18T14:25:46.139Z</time></trkpt><trkpt lat="45.91779" lon="11.5248077"><ele>1440.0</ele><time>2026-04-18T14:25:48.138Z</time></trkpt><trkpt lat="45.9177095" lon="11.5247661"><ele>1436.0</ele><time>2026-04-18T14:25:50.138Z</time></trkpt><trkpt lat="45.9176187" lon="11.5247193"><ele>1437.0</ele><time>2026-04-18T14:25:52.138Z</time></trkpt><trkpt lat="45.9175177" lon="11.5246644"><ele>1438.0</ele><time>2026-04-18T14:25:54.139Z</time></trkpt><trkpt lat="45.9174226" lon="11.5246046"><ele>1439.0</ele><time>2026-04-18T14:25:56.139Z</time></trkpt><trkpt lat="45.9173346" lon="11.5245516"><ele>1440.0</ele><time>2026-04-18T14:25:58.139Z</time></trkpt><trkpt lat="45.9172459" lon="11.5244972"><ele>1441.0</ele><time>2026-04-18T14:26:00.138Z</time></trkpt><trkpt lat="45.9171459" lon="11.5244772"><ele>1441.0</ele><time>2026-04-18T14:26:02.138Z</time></trkpt><trkpt lat="45.9170412" lon="11.5245104"><ele>1441.0</ele><time>2026-04-18T14:26:04.137Z</time></trkpt><trkpt lat="45.9169421" lon="11.5245477"><ele>1441.0</ele><time>2026-04-18T14:26:06.138Z</time></trkpt><trkpt lat="45.9168755" lon="11.52455"><ele>1441.0</ele><time>2026-04-18T14:26:07.138Z</time></trkpt><trkpt lat="45.9167699" lon="11.5245727"><ele>1441.0</ele><time>2026-04-18T14:26:09.139Z</time></trkpt><trkpt lat="45.9166749" lon="11.5245817"><ele>1436.1999999999998</ele><time>2026-04-18T14:26:12.137Z</time></trkpt><trkpt lat="45.9165914" lon="11.5245635"><ele>1431.3999999999999</ele><time>2026-04-18T14:26:14.138Z</time></trkpt><trkpt lat="45.9165135" lon="11.5245422"><ele>1426.6</ele><time>2026-04-18T14:26:16.139Z</time></trkpt><trkpt lat="45.9164484" lon="11.5244802"><ele>1421.8</ele><time>2026-04-18T14:26:18.139Z</time></trkpt><trkpt lat="45.9163692" lon="11.5243898"><ele>1417.0</ele><time>2026-04-18T14:26:20.139Z</time></trkpt><trkpt lat="45.9162712" lon="11.5243152"><ele>1417.0</ele><time>2026-04-18T14:26:22.138Z</time></trkpt><trkpt lat="45.9161562" lon="11.5242484"><ele>1417.0</ele><time>2026-04-18T14:26:24.138Z</time></trkpt><trkpt lat="45.916044" lon="11.5241757"><ele>1417.0</ele><time>2026-04-18T14:26:26.138Z</time></trkpt><trkpt lat="45.915988" lon="11.5241323"><ele>1417.0</ele><time>2026-04-18T14:26:27.138Z</time></trkpt><trkpt lat="45.9159285" lon="11.5240984"><ele>1417.0</ele><time>2026-04-18T14:26:28.139Z</time></trkpt><trkpt lat="45.9158154" lon="11.524068"><ele>1413.5</ele><time>2026-04-18T14:26:30.139Z</time></trkpt><trkpt lat="45.9157108" lon="11.5240633"><ele>1410.0</ele><time>2026-04-18T14:26:32.137Z</time></trkpt><trkpt lat="45.915635" lon="11.5240974"><ele>1406.5</ele><time>2026-04-18T14:26:34.137Z</time></trkpt><trkpt lat="45.9155487" lon="11.5241535"><ele>1403.0</ele><time>2026-04-18T14:26:37.138Z</time></trkpt><trkpt lat="45.9154702" lon="11.5241681"><ele>1399.5</ele><time>2026-04-18T14:26:39.138Z</time></trkpt><trkpt lat="45.9154065" lon="11.5241563"><ele>1396.0</ele><time>2026-04-18T14:26:40.138Z</time></trkpt><trkpt lat="45.9153365" lon="11.5241357"><ele>1395.9999999999998</ele><time>2026-04-18T14:26:41.138Z</time></trkpt><trkpt lat="45.9152653" lon="11.5241184"><ele>1396.0</ele><time>2026-04-18T14:26:42.138Z</time></trkpt><trkpt lat="45.9151914" lon="11.5240959"><ele>1396.0</ele><time>2026-04-18T14:26:43.138Z</time></trkpt><trkpt lat="45.9151172" lon="11.5240742"><ele>1396.0</ele><time>2026-04-18T14:26:44.139Z</time></trkpt><trkpt lat="45.9150468" lon="11.5240529"><ele>1396.0</ele><time>2026-04-18T14:26:45.138Z</time></trkpt><trkpt lat="45.9149793" lon="11.524036"><ele>1395.9999999999998</ele><time>2026-04-18T14:26:46.139Z</time></trkpt><trkpt lat="45.9149101" lon="11.524029"><ele>1396.0</ele><time>2026-04-18T14:26:47.139Z</time></trkpt><trkpt lat="45.9148426" lon="11.5240339"><ele>1394.4285714285713</ele><time>2026-04-18T14:26:48.137Z</time></trkpt><trkpt lat="45.9147759" lon="11.5240429"><ele>1392.857142857143</ele><time>2026-04-18T14:26:49.138Z</time></trkpt><trkpt lat="45.9147119" lon="11.5240485"><ele>1391.2857142857142</ele><time>2026-04-18T14:26:50.138Z</time></trkpt><trkpt lat="45.9146485" lon="11.5240525"><ele>1389.7142857142858</ele><time>2026-04-18T14:26:51.138Z</time></trkpt><trkpt lat="45.9145821" lon="11.5240528"><ele>1388.142857142857</ele><time>2026-04-18T14:26:52.138Z</time></trkpt><trkpt lat="45.9145081" lon="11.5240584"><ele>1386.5714285714284</ele><time>2026-04-18T14:26:53.139Z</time></trkpt><trkpt lat="45.9144222" lon="11.5240706"><ele>1385.0</ele><time>2026-04-18T14:26:54.139Z</time></trkpt><trkpt lat="45.9143379" lon="11.524079"><ele>1385.0</ele><time>2026-04-18T14:26:55.137Z</time></trkpt><trkpt lat="45.9142556" lon="11.5240918"><ele>1385.0</ele><time>2026-04-18T14:26:56.139Z</time></trkpt><trkpt lat="45.9141764" lon="11.524103"><ele>1385.0</ele><time>2026-04-18T14:26:57.139Z</time></trkpt><trkpt lat="45.9140977" lon="11.5241094"><ele>1385.0</ele><time>2026-04-18T14:26:58.137Z</time></trkpt><trkpt lat="45.9140179" lon="11.5241115"><ele>1385.0</ele><time>2026-04-18T14:26:59.138Z</time></trkpt><trkpt lat="45.9139379" lon="11.5241251"><ele>1385.0</ele><time>2026-04-18T14:27:00.138Z</time></trkpt><trkpt lat="45.9138696" lon="11.5241213"><ele>1383.0</ele><time>2026-04-18T14:27:01.138Z</time></trkpt><trkpt lat="45.9138036" lon="11.5241097"><ele>1381.0</ele><time>2026-04-18T14:27:02.137Z</time></trkpt><trkpt lat="45.9137329" lon="11.5241207"><ele>1379.0</ele><time>2026-04-18T14:27:03.138Z</time></trkpt><trkpt lat="45.9136105" lon="11.5241018"><ele>1377.0</ele><time>2026-04-18T14:27:05.138Z</time></trkpt><trkpt lat="45.9135422" lon="11.5241121"><ele>1375.0</ele><time>2026-04-18T14:27:06.138Z</time></trkpt><trkpt lat="45.9135252" lon="11.5240174"><ele>1373.0</ele><time>2026-04-18T14:27:07.138Z</time></trkpt><trkpt lat="45.9134658" lon="11.5239738"><ele>1373.0</ele><time>2026-04-18T14:27:08.139Z</time></trkpt><trkpt lat="45.9133886" lon="11.5238696"><ele>1373.0</ele><time>2026-04-18T14:27:10.139Z</time></trkpt><trkpt lat="45.9133534" lon="11.523783"><ele>1373.0</ele><time>2026-04-18T14:27:13.137Z</time></trkpt><trkpt lat="45.9134205" lon="11.5237737"><ele>1373.0</ele><time>2026-04-18T14:27:22.138Z</time></trkpt><trkpt lat="45.9134619" lon="11.5238529"><ele>1373.0</ele><time>2026-04-18T14:27:56.137Z</time></trkpt><trkpt lat="45.9132116" lon="11.523987"><ele>1370.8000000000002</ele><time>2026-04-18T14:28:03.138Z</time></trkpt><trkpt lat="45.913095" lon="11.5240562"><ele>1368.6</ele><time>2026-04-18T14:28:04.138Z</time></trkpt><trkpt lat="45.9130137" lon="11.52409"><ele>1366.4</ele><time>2026-04-18T14:28:05.138Z</time></trkpt><trkpt lat="45.9129428" lon="11.524114"><ele>1364.1999999999998</ele><time>2026-04-18T14:28:06.138Z</time></trkpt><trkpt lat="45.9128571" lon="11.5241361"><ele>1362.0</ele><time>2026-04-18T14:28:07.137Z</time></trkpt><trkpt lat="45.9127813" lon="11.5241791"><ele>1362.0</ele><time>2026-04-18T14:28:08.138Z</time></trkpt><trkpt lat="45.912703" lon="11.5242211"><ele>1362.0</ele><time>2026-04-18T14:28:09.137Z</time></trkpt><trkpt lat="45.9126168" lon="11.5242742"><ele>1362.0</ele><time>2026-04-18T14:28:10.139Z</time></trkpt><trkpt lat="45.9125459" lon="11.5243125"><ele>1362.0</ele><time>2026-04-18T14:28:11.138Z</time></trkpt><trkpt lat="45.9124708" lon="11.5243511"><ele>1362.0</ele><time>2026-04-18T14:28:12.137Z</time></trkpt><trkpt lat="45.9123836" lon="11.5243574"><ele>1362.0</ele><time>2026-04-18T14:28:13.139Z</time></trkpt><trkpt lat="45.9123341" lon="11.5242991"><ele>1359.8333333333333</ele><time>2026-04-18T14:28:14.138Z</time></trkpt><trkpt lat="45.9122504" lon="11.524318"><ele>1357.6666666666667</ele><time>2026-04-18T14:28:15.137Z</time></trkpt><trkpt lat="45.9121675" lon="11.5243301"><ele>1355.5</ele><time>2026-04-18T14:28:16.138Z</time></trkpt><trkpt lat="45.9120848" lon="11.5243441"><ele>1353.3333333333335</ele><time>2026-04-18T14:28:17.138Z</time></trkpt><trkpt lat="45.9119945" lon="11.5243522"><ele>1351.1666666666667</ele><time>2026-04-18T14:28:18.138Z</time></trkpt><trkpt lat="45.9119113" lon="11.5243287"><ele>1349.0</ele><time>2026-04-18T14:28:19.138Z</time></trkpt><trkpt lat="45.9118263" lon="11.524342"><ele>1345.8333333333335</ele><time>2026-04-18T14:28:20.137Z</time></trkpt><trkpt lat="45.9117332" lon="11.5243503"><ele>1342.6666666666667</ele><time>2026-04-18T14:28:21.137Z</time></trkpt><trkpt lat="45.9116499" lon="11.5243561"><ele>1339.5</ele><time>2026-04-18T14:28:22.138Z</time></trkpt><trkpt lat="45.9115611" lon="11.5243618"><ele>1336.3333333333333</ele><time>2026-04-18T14:28:23.138Z</time></trkpt><trkpt lat="45.9114741" lon="11.5243737"><ele>1333.1666666666665</ele><time>2026-04-18T14:28:24.138Z</time></trkpt><trkpt lat="45.9113963" lon="11.5243989"><ele>1330.0</ele><time>2026-04-18T14:28:25.137Z</time></trkpt><trkpt lat="45.9113028" lon="11.5244083"><ele>1330.0</ele><time>2026-04-18T14:28:26.138Z</time></trkpt><trkpt lat="45.9112129" lon="11.5243995"><ele>1330.0</ele><time>2026-04-18T14:28:27.138Z</time></trkpt><trkpt lat="45.9111102" lon="11.5243693"><ele>1330.0</ele><time>2026-04-18T14:28:28.138Z</time></trkpt><trkpt lat="45.9110118" lon="11.5243442"><ele>1330.0</ele><time>2026-04-18T14:28:29.139Z</time></trkpt><trkpt lat="45.910919" lon="11.5243277"><ele>1330.0</ele><time>2026-04-18T14:28:30.138Z</time></trkpt><trkpt lat="45.9108396" lon="11.5242868"><ele>1327.1666666666665</ele><time>2026-04-18T14:28:31.138Z</time></trkpt><trkpt lat="45.9107635" lon="11.5242636"><ele>1324.3333333333333</ele><time>2026-04-18T14:28:32.139Z</time></trkpt><trkpt lat="45.9106755" lon="11.5242659"><ele>1321.5</ele><time>2026-04-18T14:28:33.138Z</time></trkpt><trkpt lat="45.9105929" lon="11.5242176"><ele>1318.6666666666667</ele><time>2026-04-18T14:28:34.137Z</time></trkpt><trkpt lat="45.9104918" lon="11.5242056"><ele>1315.8333333333335</ele><time>2026-04-18T14:28:35.138Z</time></trkpt><trkpt lat="45.9104097" lon="11.5242194"><ele>1313.0</ele><time>2026-04-18T14:28:36.139Z</time></trkpt><trkpt lat="45.9103236" lon="11.5242245"><ele>1313.0</ele><time>2026-04-18T14:28:37.138Z</time></trkpt><trkpt lat="45.9102332" lon="11.5242295"><ele>1313.0</ele><time>2026-04-18T14:28:38.139Z</time></trkpt><trkpt lat="45.9101505" lon="11.5242392"><ele>1313.0</ele><time>2026-04-18T14:28:39.139Z</time></trkpt><trkpt lat="45.9100562" lon="11.5242346"><ele>1313.0</ele><time>2026-04-18T14:28:41.138Z</time></trkpt><trkpt lat="45.9099863" lon="11.5241979"><ele>1313.0</ele><time>2026-04-18T14:28:45.137Z</time></trkpt><trkpt lat="45.909892" lon="11.52421"><ele>1313.0</ele><time>2026-04-18T14:28:48.138Z</time></trkpt><trkpt lat="45.9097748" lon="11.524223"><ele>1310.7142857142858</ele><time>2026-04-18T14:30:47.138Z</time></trkpt><trkpt lat="45.9096659" lon="11.524271"><ele>1308.4285714285716</ele><time>2026-04-18T14:30:49.137Z</time></trkpt><trkpt lat="45.9096037" lon="11.5242933"><ele>1306.1428571428573</ele><time>2026-04-18T14:30:50.137Z</time></trkpt><trkpt lat="45.9095389" lon="11.5243044"><ele>1303.857142857143</ele><time>2026-04-18T14:30:51.138Z</time></trkpt><trkpt lat="45.9094698" lon="11.5243174"><ele>1301.5714285714284</ele><time>2026-04-18T14:30:52.138Z</time></trkpt><trkpt lat="45.9094019" lon="11.5243289"><ele>1299.2857142857144</ele><time>2026-04-18T14:30:53.137Z</time></trkpt><trkpt lat="45.9093343" lon="11.5243352"><ele>1297.0</ele><time>2026-04-18T14:30:54.137Z</time></trkpt><trkpt lat="45.9092696" lon="11.5243428"><ele>1295.5</ele><time>2026-04-18T14:30:55.136Z</time></trkpt><trkpt lat="45.9092004" lon="11.5243527"><ele>1294.0</ele><time>2026-04-18T14:30:56.137Z</time></trkpt><trkpt lat="45.9091323" lon="11.5243533"><ele>1292.5</ele><time>2026-04-18T14:30:57.138Z</time></trkpt><trkpt lat="45.9090609" lon="11.5243496"><ele>1291.0</ele><time>2026-04-18T14:30:58.138Z</time></trkpt><trkpt lat="45.9089934" lon="11.5243441"><ele>1289.5</ele><time>2026-04-18T14:30:59.138Z</time></trkpt><trkpt lat="45.9088689" lon="11.52435"><ele>1288.0</ele><time>2026-04-18T14:31:01.137Z</time></trkpt><trkpt lat="45.9087539" lon="11.5243946"><ele>1288.0</ele><time>2026-04-18T14:31:03.136Z</time></trkpt><trkpt lat="45.9086859" lon="11.5244158"><ele>1288.0</ele><time>2026-04-18T14:31:04.136Z</time></trkpt><trkpt lat="45.9085445" lon="11.5244368"><ele>1288.0</ele><time>2026-04-18T14:31:06.138Z</time></trkpt><trkpt lat="45.9084093" lon="11.5244405"><ele>1288.0</ele><time>2026-04-18T14:31:08.137Z</time></trkpt><trkpt lat="45.9083313" lon="11.5244571"><ele>1288.0</ele><time>2026-04-18T14:31:09.137Z</time></trkpt><trkpt lat="45.908242" lon="11.5244768"><ele>1285.8333333333333</ele><time>2026-04-18T14:31:10.138Z</time></trkpt><trkpt lat="45.9081495" lon="11.5244981"><ele>1283.6666666666665</ele><time>2026-04-18T14:31:11.137Z</time></trkpt><trkpt lat="45.9080641" lon="11.524527"><ele>1281.5</ele><time>2026-04-18T14:31:12.137Z</time></trkpt><trkpt lat="45.9079949" lon="11.5245414"><ele>1279.3333333333333</ele><time>2026-04-18T14:31:13.137Z</time></trkpt><trkpt lat="45.9079165" lon="11.5245606"><ele>1277.1666666666667</ele><time>2026-04-18T14:31:14.137Z</time></trkpt><trkpt lat="45.9078483" lon="11.5245903"><ele>1275.0</ele><time>2026-04-18T14:31:15.137Z</time></trkpt><trkpt lat="45.9077775" lon="11.5245864"><ele>1275.0</ele><time>2026-04-18T14:31:16.137Z</time></trkpt><trkpt lat="45.9076913" lon="11.5245886"><ele>1275.0</ele><time>2026-04-18T14:31:17.137Z</time></trkpt><trkpt lat="45.9076229" lon="11.524559"><ele>1275.0</ele><time>2026-04-18T14:31:18.137Z</time></trkpt><trkpt lat="45.9075383" lon="11.5245278"><ele>1275.0</ele><time>2026-04-18T14:31:19.137Z</time></trkpt><trkpt lat="45.9074603" lon="11.5245584"><ele>1275.0</ele><time>2026-04-18T14:31:20.137Z</time></trkpt><trkpt lat="45.9073873" lon="11.5245573"><ele>1275.0</ele><time>2026-04-18T14:31:21.137Z</time></trkpt><trkpt lat="45.9073206" lon="11.5245769"><ele>1272.857142857143</ele><time>2026-04-18T14:31:22.137Z</time></trkpt><trkpt lat="45.9072572" lon="11.5245683"><ele>1270.7142857142858</ele><time>2026-04-18T14:31:23.136Z</time></trkpt><trkpt lat="45.9071886" lon="11.5245848"><ele>1268.5714285714284</ele><time>2026-04-18T14:31:24.138Z</time></trkpt><trkpt lat="45.907118" lon="11.5245917"><ele>1266.4285714285716</ele><time>2026-04-18T14:31:25.137Z</time></trkpt><trkpt lat="45.9070403" lon="11.5246027"><ele>1264.2857142857142</ele><time>2026-04-18T14:31:26.137Z</time></trkpt><trkpt lat="45.9069744" lon="11.5246125"><ele>1262.142857142857</ele><time>2026-04-18T14:31:27.137Z</time></trkpt><trkpt lat="45.9068943" lon="11.5246335"><ele>1260.0</ele><time>2026-04-18T14:31:28.136Z</time></trkpt><trkpt lat="45.9068284" lon="11.5246482"><ele>1260.0</ele><time>2026-04-18T14:31:29.137Z</time></trkpt><trkpt lat="45.9067594" lon="11.5246545"><ele>1260.0</ele><time>2026-04-18T14:31:30.138Z</time></trkpt><trkpt lat="45.9066855" lon="11.5246659"><ele>1260.0</ele><time>2026-04-18T14:31:31.138Z</time></trkpt><trkpt lat="45.90662" lon="11.524681"><ele>1260.0</ele><time>2026-04-18T14:31:32.137Z</time></trkpt><trkpt lat="45.9065478" lon="11.5246935"><ele>1260.0</ele><time>2026-04-18T14:31:33.137Z</time></trkpt><trkpt lat="45.9064759" lon="11.524698"><ele>1260.0</ele><time>2026-04-18T14:31:34.136Z</time></trkpt><trkpt lat="45.9064017" lon="11.5247307"><ele>1260.0</ele><time>2026-04-18T14:31:35.137Z</time></trkpt><trkpt lat="45.9063314" lon="11.5247439"><ele>1258.5</ele><time>2026-04-18T14:31:36.137Z</time></trkpt><trkpt lat="45.9062652" lon="11.524782"><ele>1257.0</ele><time>2026-04-18T14:31:37.138Z</time></trkpt><trkpt lat="45.9061863" lon="11.5247974"><ele>1255.5</ele><time>2026-04-18T14:31:38.137Z</time></trkpt><trkpt lat="45.9061184" lon="11.5248022"><ele>1254.0</ele><time>2026-04-18T14:31:39.137Z</time></trkpt><trkpt lat="45.9060382" lon="11.5248395"><ele>1252.5</ele><time>2026-04-18T14:31:40.136Z</time></trkpt><trkpt lat="45.9059648" lon="11.5248673"><ele>1251.0</ele><time>2026-04-18T14:31:41.137Z</time></trkpt><trkpt lat="45.9058405" lon="11.5248898"><ele>1249.0</ele><time>2026-04-18T14:31:43.136Z</time></trkpt><trkpt lat="45.9057693" lon="11.5249353"><ele>1247.0</ele><time>2026-04-18T14:31:44.136Z</time></trkpt><trkpt lat="45.905706" lon="11.5249773"><ele>1245.0</ele><time>2026-04-18T14:31:45.138Z</time></trkpt><trkpt lat="45.9056347" lon="11.5250142"><ele>1243.0</ele><time>2026-04-18T14:31:46.136Z</time></trkpt><trkpt lat="45.9055085" lon="11.5250331"><ele>1241.0</ele><time>2026-04-18T14:31:48.138Z</time></trkpt><trkpt lat="45.9053957" lon="11.5250478"><ele>1241.0</ele><time>2026-04-18T14:31:50.138Z</time></trkpt><trkpt lat="45.9052956" lon="11.5250703"><ele>1241.0</ele><time>2026-04-18T14:31:52.138Z</time></trkpt><trkpt lat="45.9051986" lon="11.5250832"><ele>1241.0</ele><time>2026-04-18T14:31:54.137Z</time></trkpt><trkpt lat="45.905105" lon="11.5250917"><ele>1241.0</ele><time>2026-04-18T14:31:56.138Z</time></trkpt><trkpt lat="45.9050392" lon="11.5251241"><ele>1241.0</ele><time>2026-04-18T14:31:58.137Z</time></trkpt><trkpt lat="45.9049501" lon="11.525157"><ele>1239.6666666666667</ele><time>2026-04-18T14:32:00.136Z</time></trkpt><trkpt lat="45.9048412" lon="11.5251951"><ele>1238.3333333333335</ele><time>2026-04-18T14:32:02.136Z</time></trkpt><trkpt lat="45.9047563" lon="11.5251935"><ele>1237.0</ele><time>2026-04-18T14:32:03.136Z</time></trkpt><trkpt lat="45.9046807" lon="11.5252158"><ele>1235.6666666666667</ele><time>2026-04-18T14:32:04.137Z</time></trkpt><trkpt lat="45.9046006" lon="11.5252305"><ele>1234.3333333333333</ele><time>2026-04-18T14:32:05.138Z</time></trkpt><trkpt lat="45.9045237" lon="11.525244"><ele>1233.0</ele><time>2026-04-18T14:32:06.138Z</time></trkpt><trkpt lat="45.9044482" lon="11.525264"><ele>1233.0</ele><time>2026-04-18T14:32:07.137Z</time></trkpt><trkpt lat="45.9043701" lon="11.5252961"><ele>1233.0</ele><time>2026-04-18T14:32:08.137Z</time></trkpt><trkpt lat="45.904292" lon="11.5253229"><ele>1233.0</ele><time>2026-04-18T14:32:09.136Z</time></trkpt><trkpt lat="45.9042265" lon="11.5253467"><ele>1233.0</ele><time>2026-04-18T14:32:10.138Z</time></trkpt><trkpt lat="45.9041335" lon="11.5253712"><ele>1233.0</ele><time>2026-04-18T14:32:12.137Z</time></trkpt><trkpt lat="45.9040373" lon="11.525403"><ele>1233.0</ele><time>2026-04-18T14:32:14.137Z</time></trkpt><trkpt lat="45.9039528" lon="11.5254266"><ele>1231.142857142857</ele><time>2026-04-18T14:32:16.137Z</time></trkpt><trkpt lat="45.9038672" lon="11.5254536"><ele>1229.2857142857142</ele><time>2026-04-18T14:32:18.137Z</time></trkpt><trkpt lat="45.9038262" lon="11.525535"><ele>1227.4285714285716</ele><time>2026-04-18T14:32:20.113Z</time></trkpt><trkpt lat="45.9037398" lon="11.5255261"><ele>1225.5714285714284</ele><time>2026-04-18T14:32:21.136Z</time></trkpt><trkpt lat="45.9036734" lon="11.52554"><ele>1223.7142857142856</ele><time>2026-04-18T14:32:22.137Z</time></trkpt><trkpt lat="45.9036063" lon="11.5255584"><ele>1221.857142857143</ele><time>2026-04-18T14:32:23.138Z</time></trkpt><trkpt lat="45.9035405" lon="11.5255699"><ele>1220.0</ele><time>2026-04-18T14:32:24.138Z</time></trkpt><trkpt lat="45.9034695" lon="11.5255792"><ele>1219.1666666666667</ele><time>2026-04-18T14:32:25.138Z</time></trkpt><trkpt lat="45.9033959" lon="11.5256023"><ele>1218.3333333333335</ele><time>2026-04-18T14:32:26.137Z</time></trkpt><trkpt lat="45.9033223" lon="11.5256259"><ele>1217.5</ele><time>2026-04-18T14:32:27.138Z</time></trkpt><trkpt lat="45.9032511" lon="11.5256438"><ele>1216.6666666666667</ele><time>2026-04-18T14:32:28.137Z</time></trkpt><trkpt lat="45.9031755" lon="11.5256611"><ele>1215.8333333333333</ele><time>2026-04-18T14:32:29.136Z</time></trkpt><trkpt lat="45.9030969" lon="11.5256853"><ele>1215.0</ele><time>2026-04-18T14:32:30.137Z</time></trkpt><trkpt lat="45.9030156" lon="11.5257175"><ele>1215.0</ele><time>2026-04-18T14:32:31.137Z</time></trkpt><trkpt lat="45.9029333" lon="11.5257444"><ele>1215.0</ele><time>2026-04-18T14:32:32.138Z</time></trkpt><trkpt lat="45.9028542" lon="11.525766"><ele>1215.0</ele><time>2026-04-18T14:32:33.137Z</time></trkpt><trkpt lat="45.9027782" lon="11.5257908"><ele>1215.0</ele><time>2026-04-18T14:32:34.137Z</time></trkpt><trkpt lat="45.9027084" lon="11.525814"><ele>1215.0</ele><time>2026-04-18T14:32:35.136Z</time></trkpt><trkpt lat="45.9026307" lon="11.5258398"><ele>1215.0</ele><time>2026-04-18T14:32:36.138Z</time></trkpt><trkpt lat="45.9025494" lon="11.5258606"><ele>1214.4285714285716</ele><time>2026-04-18T14:32:37.137Z</time></trkpt><trkpt lat="45.902476" lon="11.5258771"><ele>1213.857142857143</ele><time>2026-04-18T14:32:38.138Z</time></trkpt><trkpt lat="45.9024046" lon="11.5258939"><ele>1213.2857142857142</ele><time>2026-04-18T14:32:39.137Z</time></trkpt><trkpt lat="45.9023333" lon="11.5259249"><ele>1212.7142857142858</ele><time>2026-04-18T14:32:40.137Z</time></trkpt><trkpt lat="45.9022595" lon="11.5259586"><ele>1212.142857142857</ele><time>2026-04-18T14:32:41.137Z</time></trkpt><trkpt lat="45.9021849" lon="11.5259916"><ele>1211.5714285714287</ele><time>2026-04-18T14:32:42.138Z</time></trkpt><trkpt lat="45.9021143" lon="11.5259972"><ele>1211.0</ele><time>2026-04-18T14:32:43.138Z</time></trkpt><trkpt lat="45.9020372" lon="11.5260179"><ele>1211.0</ele><time>2026-04-18T14:32:44.138Z</time></trkpt><trkpt lat="45.9019704" lon="11.5260271"><ele>1211.0</ele><time>2026-04-18T14:32:45.137Z</time></trkpt><trkpt lat="45.9019022" lon="11.5260274"><ele>1211.0</ele><time>2026-04-18T14:32:46.137Z</time></trkpt><trkpt lat="45.9018325" lon="11.5260558"><ele>1211.0</ele><time>2026-04-18T14:32:47.138Z</time></trkpt><trkpt lat="45.9017103" lon="11.5261139"><ele>1211.0</ele><time>2026-04-18T14:32:49.137Z</time></trkpt><trkpt lat="45.9016473" lon="11.526139"><ele>1211.0</ele><time>2026-04-18T14:32:50.136Z</time></trkpt><trkpt lat="45.9015838" lon="11.5261733"><ele>1209.6666666666667</ele><time>2026-04-18T14:32:51.137Z</time></trkpt><trkpt lat="45.9015218" lon="11.5262058"><ele>1208.3333333333335</ele><time>2026-04-18T14:32:52.138Z</time></trkpt><trkpt lat="45.9014528" lon="11.526209"><ele>1207.0</ele><time>2026-04-18T14:32:53.138Z</time></trkpt><trkpt lat="45.9013813" lon="11.5262242"><ele>1205.6666666666667</ele><time>2026-04-18T14:32:54.138Z</time></trkpt><trkpt lat="45.9013245" lon="11.5262656"><ele>1204.3333333333333</ele><time>2026-04-18T14:32:55.138Z</time></trkpt><trkpt lat="45.901253" lon="11.5262836"><ele>1203.0</ele><time>2026-04-18T14:32:56.137Z</time></trkpt><trkpt lat="45.9011323" lon="11.5263006"><ele>1202.4</ele><time>2026-04-18T14:32:58.136Z</time></trkpt><trkpt lat="45.9010705" lon="11.5263232"><ele>1201.8</ele><time>2026-04-18T14:32:59.137Z</time></trkpt><trkpt lat="45.9009395" lon="11.5263329"><ele>1201.2</ele><time>2026-04-18T14:33:01.138Z</time></trkpt><trkpt lat="45.9008069" lon="11.5263823"><ele>1200.6</ele><time>2026-04-18T14:33:03.138Z</time></trkpt><trkpt lat="45.9007424" lon="11.5264309"><ele>1200.0</ele><time>2026-04-18T14:33:04.137Z</time></trkpt><trkpt lat="45.900629" lon="11.5264948"><ele>1199.5</ele><time>2026-04-18T14:33:06.137Z</time></trkpt><trkpt lat="45.900562" lon="11.5265286"><ele>1199.0</ele><time>2026-04-18T14:33:07.136Z</time></trkpt><trkpt lat="45.9004979" lon="11.5264397"><ele>1198.5</ele><time>2026-04-18T14:33:09.136Z</time></trkpt><trkpt lat="45.9004185" lon="11.5263579"><ele>1198.0</ele><time>2026-04-18T14:33:11.137Z</time></trkpt><trkpt lat="45.9003777" lon="11.5262529"><ele>1197.5</ele><time>2026-04-18T14:33:12.138Z</time></trkpt><trkpt lat="45.9003334" lon="11.526172"><ele>1197.0</ele><time>2026-04-18T14:33:13.136Z</time></trkpt><trkpt lat="45.9002977" lon="11.5260886"><ele>1197.0</ele><time>2026-04-18T14:33:14.138Z</time></trkpt><trkpt lat="45.9002913" lon="11.5259177"><ele>1197.0</ele><time>2026-04-18T14:33:16.138Z</time></trkpt><trkpt lat="45.9003018" lon="11.5258278"><ele>1197.0</ele><time>2026-04-18T14:33:17.136Z</time></trkpt><trkpt lat="45.9003092" lon="11.5257346"><ele>1197.0</ele><time>2026-04-18T14:33:18.137Z</time></trkpt><trkpt lat="45.9003466" lon="11.5256477"><ele>1197.0</ele><time>2026-04-18T14:33:19.138Z</time></trkpt><trkpt lat="45.9003774" lon="11.5255563"><ele>1197.0</ele><time>2026-04-18T14:33:20.138Z</time></trkpt><trkpt lat="45.9004205" lon="11.5254827"><ele>1197.0</ele><time>2026-04-18T14:33:21.137Z</time></trkpt><trkpt lat="45.9004679" lon="11.525417"><ele>1197.0</ele><time>2026-04-18T14:33:22.136Z</time></trkpt><trkpt lat="45.9005557" lon="11.5252939"><ele>1197.0</ele><time>2026-04-18T14:33:24.137Z</time></trkpt><trkpt lat="45.9006003" lon="11.525224"><ele>1197.0</ele><time>2026-04-18T14:33:25.136Z</time></trkpt><trkpt lat="45.9006494" lon="11.5250665"><ele>1197.0</ele><time>2026-04-18T14:33:27.137Z</time></trkpt><trkpt lat="45.9006286" lon="11.5248852"><ele>1195.5</ele><time>2026-04-18T14:33:29.137Z</time></trkpt><trkpt lat="45.9006188" lon="11.5247815"><ele>1194.0</ele><time>2026-04-18T14:33:30.137Z</time></trkpt><trkpt lat="45.9006343" lon="11.5246582"><ele>1192.5</ele><time>2026-04-18T14:33:31.137Z</time></trkpt><trkpt lat="45.9006401" lon="11.5245616"><ele>1191.0</ele><time>2026-04-18T14:33:32.137Z</time></trkpt><trkpt lat="45.9006434" lon="11.524409"><ele>1189.5</ele><time>2026-04-18T14:33:34.138Z</time></trkpt><trkpt lat="45.9006938" lon="11.5242876"><ele>1188.0</ele><time>2026-04-18T14:33:36.137Z</time></trkpt><trkpt lat="45.9007747" lon="11.52425"><ele>1186.142857142857</ele><time>2026-04-18T14:33:38.138Z</time></trkpt><trkpt lat="45.9008377" lon="11.5242649"><ele>1184.2857142857144</ele><time>2026-04-18T14:33:39.138Z</time></trkpt><trkpt lat="45.9009052" lon="11.5242796"><ele>1182.4285714285716</ele><time>2026-04-18T14:33:40.137Z</time></trkpt><trkpt lat="45.9009765" lon="11.5242939"><ele>1180.5714285714287</ele><time>2026-04-18T14:33:41.137Z</time></trkpt><trkpt lat="45.9010378" lon="11.5243244"><ele>1178.7142857142858</ele><time>2026-04-18T14:33:42.137Z</time></trkpt><trkpt lat="45.9011083" lon="11.524358"><ele>1176.857142857143</ele><time>2026-04-18T14:33:43.137Z</time></trkpt><trkpt lat="45.9011671" lon="11.5244103"><ele>1175.0</ele><time>2026-04-18T14:33:44.138Z</time></trkpt><trkpt lat="45.9013001" lon="11.524475"><ele>1174.1666666666667</ele><time>2026-04-18T14:33:46.138Z</time></trkpt><trkpt lat="45.9013899" lon="11.5244629"><ele>1173.3333333333335</ele><time>2026-04-18T14:33:48.137Z</time></trkpt><trkpt lat="45.901455" lon="11.5244525"><ele>1172.5</ele><time>2026-04-18T14:33:49.137Z</time></trkpt><trkpt lat="45.9015235" lon="11.5244448"><ele>1171.6666666666667</ele><time>2026-04-18T14:33:50.138Z</time></trkpt><trkpt lat="45.9015883" lon="11.5244385"><ele>1170.8333333333333</ele><time>2026-04-18T14:33:51.138Z</time></trkpt><trkpt lat="45.9016822" lon="11.5244301"><ele>1170.0</ele><time>2026-04-18T14:33:53.137Z</time></trkpt><trkpt lat="45.9017368" lon="11.524362"><ele>1170.0</ele><time>2026-04-18T14:33:55.137Z</time></trkpt><trkpt lat="45.9017191" lon="11.5242456"><ele>1170.0</ele><time>2026-04-18T14:33:58.138Z</time></trkpt><trkpt lat="45.9016203" lon="11.5241876"><ele>1170.0</ele><time>2026-04-18T14:34:00.137Z</time></trkpt><trkpt lat="45.9015107" lon="11.524118"><ele>1170.0</ele><time>2026-04-18T14:34:02.137Z</time></trkpt><trkpt lat="45.9014485" lon="11.5240765"><ele>1170.0</ele><time>2026-04-18T14:34:03.138Z</time></trkpt><trkpt lat="45.9013255" lon="11.52401"><ele>1170.0</ele><time>2026-04-18T14:34:05.136Z</time></trkpt><trkpt lat="45.9012062" lon="11.5239091"><ele>1170.0</ele><time>2026-04-18T14:34:07.138Z</time></trkpt><trkpt lat="45.9011252" lon="11.5238655"><ele>1170.0</ele><time>2026-04-18T14:34:08.137Z</time></trkpt><trkpt lat="45.9010548" lon="11.5237908"><ele>1170.0</ele><time>2026-04-18T14:34:09.137Z</time></trkpt><trkpt lat="45.9009865" lon="11.5237405"><ele>1170.0</ele><time>2026-04-18T14:34:10.136Z</time></trkpt><trkpt lat="45.9009206" lon="11.5236842"><ele>1167.8333333333333</ele><time>2026-04-18T14:34:11.137Z</time></trkpt><trkpt lat="45.9008635" lon="11.5236036"><ele>1165.6666666666667</ele><time>2026-04-18T14:34:12.136Z</time></trkpt><trkpt lat="45.9008018" lon="11.5235589"><ele>1163.5</ele><time>2026-04-18T14:34:13.138Z</time></trkpt><trkpt lat="45.900751" lon="11.5234994"><ele>1161.3333333333335</ele><time>2026-04-18T14:34:14.136Z</time></trkpt><trkpt lat="45.9006465" lon="11.5234131"><ele>1159.1666666666667</ele><time>2026-04-18T14:34:16.137Z</time></trkpt><trkpt lat="45.9005601" lon="11.523325"><ele>1157.0</ele><time>2026-04-18T14:34:18.138Z</time></trkpt><trkpt lat="45.900482" lon="11.5232504"><ele>1157.0</ele><time>2026-04-18T14:34:20.138Z</time></trkpt><trkpt lat="45.9004288" lon="11.5231958"><ele>1157.0</ele><time>2026-04-18T14:34:22.138Z</time></trkpt><trkpt lat="45.9003664" lon="11.5231762"><ele>1157.0</ele><time>2026-04-18T14:34:24.137Z</time></trkpt><trkpt lat="45.9002998" lon="11.5231424"><ele>1157.0</ele><time>2026-04-18T14:34:28.137Z</time></trkpt><trkpt lat="45.9002346" lon="11.5231049"><ele>1157.0</ele><time>2026-04-18T14:34:33.137Z</time></trkpt><trkpt lat="45.9001565" lon="11.5231859"><ele>1157.0</ele><time>2026-04-18T14:36:23.137Z</time></trkpt><trkpt lat="45.9000959" lon="11.5232865"><ele>1157.0</ele><time>2026-04-18T14:36:25.136Z</time></trkpt><trkpt lat="45.9000356" lon="11.5233263"><ele>1157.0</ele><time>2026-04-18T14:36:26.137Z</time></trkpt><trkpt lat="45.8999452" lon="11.5234078"><ele>1157.0</ele><time>2026-04-18T14:36:27.138Z</time></trkpt><trkpt lat="45.899867" lon="11.5234821"><ele>1157.0</ele><time>2026-04-18T14:36:28.137Z</time></trkpt><trkpt lat="45.8997899" lon="11.5235557"><ele>1157.0</ele><time>2026-04-18T14:36:29.137Z</time></trkpt><trkpt lat="45.8997277" lon="11.5236318"><ele>1157.0</ele><time>2026-04-18T14:36:30.138Z</time></trkpt><trkpt lat="45.899653" lon="11.5236909"><ele>1159.3333333333335</ele><time>2026-04-18T14:36:31.138Z</time></trkpt><trkpt lat="45.8995937" lon="11.5237649"><ele>1161.6666666666667</ele><time>2026-04-18T14:36:32.138Z</time></trkpt><trkpt lat="45.8995389" lon="11.5238392"><ele>1164.0</ele><time>2026-04-18T14:36:33.138Z</time></trkpt><trkpt lat="45.8994806" lon="11.523909"><ele>1166.3333333333333</ele><time>2026-04-18T14:36:34.138Z</time></trkpt><trkpt lat="45.8994161" lon="11.5239781"><ele>1168.6666666666665</ele><time>2026-04-18T14:36:35.137Z</time></trkpt><trkpt lat="45.8993459" lon="11.5240564"><ele>1171.0</ele><time>2026-04-18T14:36:36.137Z</time></trkpt><trkpt lat="45.8992548" lon="11.5241158"><ele>1166.3999999999999</ele><time>2026-04-18T14:36:37.137Z</time></trkpt><trkpt lat="45.8991686" lon="11.5241678"><ele>1161.8</ele><time>2026-04-18T14:36:38.138Z</time></trkpt><trkpt lat="45.8990541" lon="11.5241828"><ele>1157.1999999999998</ele><time>2026-04-18T14:36:39.137Z</time></trkpt><trkpt lat="45.8989481" lon="11.5242156"><ele>1152.6</ele><time>2026-04-18T14:36:40.137Z</time></trkpt><trkpt lat="45.8988564" lon="11.5242341"><ele>1148.0</ele><time>2026-04-18T14:36:41.138Z</time></trkpt><trkpt lat="45.8987318" lon="11.5242008"><ele>1148.0</ele><time>2026-04-18T14:36:42.138Z</time></trkpt><trkpt lat="45.8986161" lon="11.5242047"><ele>1148.0</ele><time>2026-04-18T14:36:43.137Z</time></trkpt><trkpt lat="45.8985019" lon="11.5242157"><ele>1148.0</ele><time>2026-04-18T14:36:44.136Z</time></trkpt><trkpt lat="45.8983985" lon="11.5241949"><ele>1148.0</ele><time>2026-04-18T14:36:45.138Z</time></trkpt><trkpt lat="45.8982862" lon="11.5241798"><ele>1148.0</ele><time>2026-04-18T14:36:46.138Z</time></trkpt><trkpt lat="45.8982222" lon="11.5241062"><ele>1145.6666666666667</ele><time>2026-04-18T14:36:47.137Z</time></trkpt><trkpt lat="45.898128" lon="11.5240248"><ele>1143.3333333333335</ele><time>2026-04-18T14:36:48.137Z</time></trkpt><trkpt lat="45.8981041" lon="11.5239146"><ele>1141.0</ele><time>2026-04-18T14:36:49.137Z</time></trkpt><trkpt lat="45.8980416" lon="11.5238298"><ele>1138.6666666666667</ele><time>2026-04-18T14:36:50.137Z</time></trkpt><trkpt lat="45.8979807" lon="11.5237685"><ele>1136.3333333333333</ele><time>2026-04-18T14:36:51.138Z</time></trkpt><trkpt lat="45.8978988" lon="11.5236925"><ele>1134.0</ele><time>2026-04-18T14:36:52.138Z</time></trkpt><trkpt lat="45.8978289" lon="11.5236719"><ele>1132.0</ele><time>2026-04-18T14:36:53.137Z</time></trkpt><trkpt lat="45.8977619" lon="11.5236351"><ele>1130.0</ele><time>2026-04-18T14:36:54.137Z</time></trkpt><trkpt lat="45.8977069" lon="11.5235702"><ele>1128.0</ele><time>2026-04-18T14:36:55.138Z</time></trkpt><trkpt lat="45.8976825" lon="11.523483"><ele>1126.0</ele><time>2026-04-18T14:36:58.138Z</time></trkpt><trkpt lat="45.8977328" lon="11.5234178"><ele>1124.0</ele><time>2026-04-18T14:37:00.137Z</time></trkpt><trkpt lat="45.8978462" lon="11.523381"><ele>1122.0</ele><time>2026-04-18T14:37:02.138Z</time></trkpt><trkpt lat="45.8979269" lon="11.5232896"><ele>1122.0</ele><time>2026-04-18T14:37:04.137Z</time></trkpt><trkpt lat="45.8979425" lon="11.5231643"><ele>1122.0</ele><time>2026-04-18T14:37:06.137Z</time></trkpt><trkpt lat="45.8978807" lon="11.5230479"><ele>1122.0</ele><time>2026-04-18T14:37:08.138Z</time></trkpt><trkpt lat="45.897761" lon="11.5229781"><ele>1122.0</ele><time>2026-04-18T14:37:10.137Z</time></trkpt><trkpt lat="45.897677" lon="11.5229651"><ele>1122.0</ele><time>2026-04-18T14:37:11.138Z</time></trkpt><trkpt lat="45.8975829" lon="11.5229594"><ele>1120.2</ele><time>2026-04-18T14:37:12.136Z</time></trkpt><trkpt lat="45.8974787" lon="11.5229583"><ele>1118.4</ele><time>2026-04-18T14:37:13.136Z</time></trkpt><trkpt lat="45.8973681" lon="11.522971"><ele>1116.6</ele><time>2026-04-18T14:37:14.138Z</time></trkpt><trkpt lat="45.8972522" lon="11.5229901"><ele>1114.8</ele><time>2026-04-18T14:37:15.138Z</time></trkpt><trkpt lat="45.897142" lon="11.5230116"><ele>1113.0</ele><time>2026-04-18T14:37:16.137Z</time></trkpt><trkpt lat="45.8970309" lon="11.5230347"><ele>1113.0</ele><time>2026-04-18T14:37:17.138Z</time></trkpt><trkpt lat="45.896924" lon="11.5230454"><ele>1113.0</ele><time>2026-04-18T14:37:18.137Z</time></trkpt><trkpt lat="45.8968169" lon="11.5230567"><ele>1113.0</ele><time>2026-04-18T14:37:19.137Z</time></trkpt><trkpt lat="45.8967095" lon="11.5230587"><ele>1113.0</ele><time>2026-04-18T14:37:20.138Z</time></trkpt><trkpt lat="45.8965982" lon="11.5230605"><ele>1113.0</ele><time>2026-04-18T14:37:21.137Z</time></trkpt><trkpt lat="45.8964864" lon="11.5230567"><ele>1111.0</ele><time>2026-04-18T14:37:22.137Z</time></trkpt><trkpt lat="45.8963725" lon="11.5230439"><ele>1109.0</ele><time>2026-04-18T14:37:23.137Z</time></trkpt><trkpt lat="45.8962585" lon="11.5230245"><ele>1107.0</ele><time>2026-04-18T14:37:24.138Z</time></trkpt><trkpt lat="45.8961457" lon="11.5229992"><ele>1105.0</ele><time>2026-04-18T14:37:25.137Z</time></trkpt><trkpt lat="45.8960397" lon="11.5229678"><ele>1105.0</ele><time>2026-04-18T14:37:26.137Z</time></trkpt><trkpt lat="45.8959377" lon="11.5229293"><ele>1105.0</ele><time>2026-04-18T14:37:27.137Z</time></trkpt><trkpt lat="45.8958348" lon="11.5229055"><ele>1105.0</ele><time>2026-04-18T14:37:28.137Z</time></trkpt><trkpt lat="45.8957337" lon="11.5228871"><ele>1105.0</ele><time>2026-04-18T14:37:29.137Z</time></trkpt><trkpt lat="45.8956352" lon="11.522879"><ele>1105.0</ele><time>2026-04-18T14:37:30.137Z</time></trkpt><trkpt lat="45.8955323" lon="11.5228901"><ele>1102.5</ele><time>2026-04-18T14:37:31.138Z</time></trkpt><trkpt lat="45.895423" lon="11.5229081"><ele>1100.0</ele><time>2026-04-18T14:37:32.137Z</time></trkpt><trkpt lat="45.8953046" lon="11.5229271"><ele>1097.5</ele><time>2026-04-18T14:37:33.137Z</time></trkpt><trkpt lat="45.8951813" lon="11.5229501"><ele>1095.0</ele><time>2026-04-18T14:37:34.138Z</time></trkpt><trkpt lat="45.8950457" lon="11.5229709"><ele>1093.5</ele><time>2026-04-18T14:37:35.137Z</time></trkpt><trkpt lat="45.894914" lon="11.5229875"><ele>1092.0</ele><time>2026-04-18T14:37:36.137Z</time></trkpt><trkpt lat="45.8947894" lon="11.522997"><ele>1090.5</ele><time>2026-04-18T14:37:37.137Z</time></trkpt><trkpt lat="45.8946658" lon="11.5230059"><ele>1089.0</ele><time>2026-04-18T14:37:38.137Z</time></trkpt><trkpt lat="45.8945468" lon="11.5230115"><ele>1089.0</ele><time>2026-04-18T14:37:39.137Z</time></trkpt><trkpt lat="45.8944326" lon="11.5230157"><ele>1089.0</ele><time>2026-04-18T14:37:40.137Z</time></trkpt><trkpt lat="45.8943163" lon="11.5230297"><ele>1089.0</ele><time>2026-04-18T14:37:41.137Z</time></trkpt><trkpt lat="45.8942023" lon="11.5230508"><ele>1089.0</ele><time>2026-04-18T14:37:42.138Z</time></trkpt><trkpt lat="45.8940871" lon="11.523083"><ele>1086.8</ele><time>2026-04-18T14:37:43.138Z</time></trkpt><trkpt lat="45.8939731" lon="11.5231354"><ele>1084.6000000000001</ele><time>2026-04-18T14:37:44.136Z</time></trkpt><trkpt lat="45.8938632" lon="11.5231643"><ele>1082.4</ele><time>2026-04-18T14:37:45.138Z</time></trkpt><trkpt lat="45.8937582" lon="11.5231896"><ele>1080.2</ele><time>2026-04-18T14:37:46.138Z</time></trkpt><trkpt lat="45.8936561" lon="11.5232011"><ele>1078.0</ele><time>2026-04-18T14:37:47.137Z</time></trkpt><trkpt lat="45.8935582" lon="11.5232024"><ele>1078.0</ele><time>2026-04-18T14:37:48.137Z</time></trkpt><trkpt lat="45.8934696" lon="11.5232002"><ele>1078.0</ele><time>2026-04-18T14:37:49.138Z</time></trkpt><trkpt lat="45.8933865" lon="11.5231998"><ele>1078.0</ele><time>2026-04-18T14:37:50.137Z</time></trkpt><trkpt lat="45.8933035" lon="11.5232061"><ele>1078.0</ele><time>2026-04-18T14:37:51.137Z</time></trkpt><trkpt lat="45.8932221" lon="11.5232094"><ele>1078.0</ele><time>2026-04-18T14:37:52.137Z</time></trkpt><trkpt lat="45.893141" lon="11.5232144"><ele>1078.0</ele><time>2026-04-18T14:37:53.137Z</time></trkpt><trkpt lat="45.89306" lon="11.5232263"><ele>1076.0</ele><time>2026-04-18T14:37:54.136Z</time></trkpt><trkpt lat="45.8929797" lon="11.5232326"><ele>1074.0</ele><time>2026-04-18T14:37:55.138Z</time></trkpt><trkpt lat="45.8929004" lon="11.5232361"><ele>1072.0</ele><time>2026-04-18T14:37:56.136Z</time></trkpt><trkpt lat="45.8928171" lon="11.5232343"><ele>1070.0</ele><time>2026-04-18T14:37:57.138Z</time></trkpt><trkpt lat="45.8927274" lon="11.5232269"><ele>1068.0</ele><time>2026-04-18T14:37:58.136Z</time></trkpt><trkpt lat="45.8926258" lon="11.5232075"><ele>1066.0</ele><time>2026-04-18T14:37:59.136Z</time></trkpt><trkpt lat="45.8925202" lon="11.5231828"><ele>1064.75</ele><time>2026-04-18T14:38:00.137Z</time></trkpt><trkpt lat="45.8924075" lon="11.5231523"><ele>1063.5</ele><time>2026-04-18T14:38:01.136Z</time></trkpt><trkpt lat="45.8922877" lon="11.5231167"><ele>1062.25</ele><time>2026-04-18T14:38:02.138Z</time></trkpt><trkpt lat="45.8921668" lon="11.5230771"><ele>1061.0</ele><time>2026-04-18T14:38:03.137Z</time></trkpt><trkpt lat="45.8920411" lon="11.5230405"><ele>1061.0</ele><time>2026-04-18T14:38:04.138Z</time></trkpt><trkpt lat="45.8919129" lon="11.5230015"><ele>1061.0</ele><time>2026-04-18T14:38:05.137Z</time></trkpt><trkpt lat="45.8917784" lon="11.5229619"><ele>1061.0</ele><time>2026-04-18T14:38:06.138Z</time></trkpt><trkpt lat="45.8916424" lon="11.52293"><ele>1061.0</ele><time>2026-04-18T14:38:07.137Z</time></trkpt><trkpt lat="45.8915054" lon="11.5228938"><ele>1060.0</ele><time>2026-04-18T14:38:08.137Z</time></trkpt><trkpt lat="45.8913628" lon="11.5228654"><ele>1059.0</ele><time>2026-04-18T14:38:09.137Z</time></trkpt><trkpt lat="45.8912241" lon="11.5228391"><ele>1058.0</ele><time>2026-04-18T14:38:10.138Z</time></trkpt><trkpt lat="45.8910877" lon="11.5228137"><ele>1057.0</ele><time>2026-04-18T14:38:11.137Z</time></trkpt><trkpt lat="45.8909589" lon="11.5227892"><ele>1055.75</ele><time>2026-04-18T14:38:12.137Z</time></trkpt><trkpt lat="45.8908405" lon="11.5227569"><ele>1054.5</ele><time>2026-04-18T14:38:13.137Z</time></trkpt><trkpt lat="45.8907303" lon="11.5227165"><ele>1053.25</ele><time>2026-04-18T14:38:14.136Z</time></trkpt><trkpt lat="45.8906212" lon="11.5226648"><ele>1052.0</ele><time>2026-04-18T14:38:15.137Z</time></trkpt><trkpt lat="45.8905115" lon="11.5225942"><ele>1052.0</ele><time>2026-04-18T14:38:16.137Z</time></trkpt><trkpt lat="45.8904029" lon="11.5225152"><ele>1052.0</ele><time>2026-04-18T14:38:17.138Z</time></trkpt><trkpt lat="45.8902925" lon="11.5224255"><ele>1052.0</ele><time>2026-04-18T14:38:18.137Z</time></trkpt><trkpt lat="45.8901832" lon="11.5223195"><ele>1052.0</ele><time>2026-04-18T14:38:19.138Z</time></trkpt><trkpt lat="45.890076" lon="11.5222045"><ele>1051.5</ele><time>2026-04-18T14:38:20.137Z</time></trkpt><trkpt lat="45.8899762" lon="11.5220847"><ele>1051.0</ele><time>2026-04-18T14:38:21.136Z</time></trkpt><trkpt lat="45.8898873" lon="11.5219665"><ele>1050.5</ele><time>2026-04-18T14:38:22.138Z</time></trkpt><trkpt lat="45.8898089" lon="11.5218502"><ele>1050.0</ele><time>2026-04-18T14:38:23.137Z</time></trkpt><trkpt lat="45.889739" lon="11.5217357"><ele>1049.6</ele><time>2026-04-18T14:38:24.137Z</time></trkpt><trkpt lat="45.8896669" lon="11.5216283"><ele>1049.2</ele><time>2026-04-18T14:38:25.138Z</time></trkpt><trkpt lat="45.8895965" lon="11.5215265"><ele>1048.8</ele><time>2026-04-18T14:38:26.138Z</time></trkpt><trkpt lat="45.889529" lon="11.521431"><ele>1048.4</ele><time>2026-04-18T14:38:27.137Z</time></trkpt><trkpt lat="45.8894697" lon="11.5213416"><ele>1048.0</ele><time>2026-04-18T14:38:28.137Z</time></trkpt><trkpt lat="45.8894021" lon="11.5212358"><ele>1048.0</ele><time>2026-04-18T14:38:30.137Z</time></trkpt><trkpt lat="45.8893371" lon="11.5212027"><ele>1048.0</ele><time>2026-04-18T14:38:33.138Z</time></trkpt><trkpt lat="45.8892638" lon="11.5213081"><ele>1048.0</ele><time>2026-04-18T14:38:35.137Z</time></trkpt><trkpt lat="45.889242" lon="11.5213935"><ele>1048.0</ele><time>2026-04-18T14:38:36.136Z</time></trkpt><trkpt lat="45.8892121" lon="11.521491"><ele>1048.0</ele><time>2026-04-18T14:38:37.138Z</time></trkpt><trkpt lat="45.8891775" lon="11.5216081"><ele>1048.0</ele><time>2026-04-18T14:38:38.138Z</time></trkpt><trkpt lat="45.8891373" lon="11.5217369"><ele>1047.6</ele><time>2026-04-18T14:38:39.138Z</time></trkpt><trkpt lat="45.8890951" lon="11.5218711"><ele>1047.1999999999998</ele><time>2026-04-18T14:38:40.138Z</time></trkpt><trkpt lat="45.8890556" lon="11.5220102"><ele>1046.8</ele><time>2026-04-18T14:38:41.138Z</time></trkpt><trkpt lat="45.8890151" lon="11.5221433"><ele>1046.3999999999999</ele><time>2026-04-18T14:38:42.137Z</time></trkpt><trkpt lat="45.8889796" lon="11.5222697"><ele>1046.0</ele><time>2026-04-18T14:38:43.136Z</time></trkpt><trkpt lat="45.8889377" lon="11.5223891"><ele>1046.0</ele><time>2026-04-18T14:38:44.137Z</time></trkpt><trkpt lat="45.888883" lon="11.5224878"><ele>1046.0</ele><time>2026-04-18T14:38:45.137Z</time></trkpt><trkpt lat="45.8888082" lon="11.5225648"><ele>1046.0</ele><time>2026-04-18T14:38:46.137Z</time></trkpt><trkpt lat="45.8887156" lon="11.5226157"><ele>1046.0</ele><time>2026-04-18T14:38:47.137Z</time></trkpt><trkpt lat="45.8886045" lon="11.5226418"><ele>1046.0</ele><time>2026-04-18T14:38:48.137Z</time></trkpt><trkpt lat="45.8884846" lon="11.5226617"><ele>1045.0</ele><time>2026-04-18T14:38:49.137Z</time></trkpt><trkpt lat="45.8883506" lon="11.522692"><ele>1044.0</ele><time>2026-04-18T14:38:50.136Z</time></trkpt><trkpt lat="45.8882187" lon="11.5227192"><ele>1043.0</ele><time>2026-04-18T14:38:51.138Z</time></trkpt><trkpt lat="45.8880791" lon="11.5227502"><ele>1042.0</ele><time>2026-04-18T14:38:52.138Z</time></trkpt><trkpt lat="45.8879357" lon="11.5227802"><ele>1042.0</ele><time>2026-04-18T14:38:53.137Z</time></trkpt><trkpt lat="45.8877879" lon="11.5228092"><ele>1042.0</ele><time>2026-04-18T14:38:54.137Z</time></trkpt><trkpt lat="45.8876328" lon="11.5228401"><ele>1042.0</ele><time>2026-04-18T14:38:55.138Z</time></trkpt><trkpt lat="45.887474" lon="11.5228745"><ele>1041.6666666666665</ele><time>2026-04-18T14:38:56.137Z</time></trkpt><trkpt lat="45.8873123" lon="11.522908"><ele>1041.3333333333333</ele><time>2026-04-18T14:38:57.137Z</time></trkpt><trkpt lat="45.8871476" lon="11.5229467"><ele>1041.0</ele><time>2026-04-18T14:38:58.137Z</time></trkpt><trkpt lat="45.8869801" lon="11.5229895"><ele>1041.0</ele><time>2026-04-18T14:38:59.138Z</time></trkpt><trkpt lat="45.8868108" lon="11.5230251"><ele>1041.0</ele><time>2026-04-18T14:39:00.137Z</time></trkpt><trkpt lat="45.8866434" lon="11.523062"><ele>1041.0</ele><time>2026-04-18T14:39:01.137Z</time></trkpt><trkpt lat="45.886482" lon="11.5231006"><ele>1040.3333333333333</ele><time>2026-04-18T14:39:02.137Z</time></trkpt><trkpt lat="45.8863234" lon="11.5231392"><ele>1039.6666666666665</ele><time>2026-04-18T14:39:03.137Z</time></trkpt><trkpt lat="45.8861706" lon="11.52317"><ele>1039.0</ele><time>2026-04-18T14:39:04.136Z</time></trkpt><trkpt lat="45.8860234" lon="11.5232012"><ele>1038.0</ele><time>2026-04-18T14:39:05.138Z</time></trkpt><trkpt lat="45.8858883" lon="11.5232335"><ele>1037.0</ele><time>2026-04-18T14:39:06.138Z</time></trkpt><trkpt lat="45.8857573" lon="11.5232626"><ele>1036.0</ele><time>2026-04-18T14:39:07.137Z</time></trkpt><trkpt lat="45.885635" lon="11.5232895"><ele>1035.0</ele><time>2026-04-18T14:39:08.136Z</time></trkpt><trkpt lat="45.8855351" lon="11.5233142"><ele>1035.0</ele><time>2026-04-18T14:39:09.138Z</time></trkpt><trkpt lat="45.8854523" lon="11.5233325"><ele>1035.0</ele><time>2026-04-18T14:39:10.138Z</time></trkpt><trkpt lat="45.8853862" lon="11.5233355"><ele>1035.0</ele><time>2026-04-18T14:39:11.138Z</time></trkpt><trkpt lat="45.8853026" lon="11.52325"><ele>1035.0</ele><time>2026-04-18T14:39:13.138Z</time></trkpt><trkpt lat="45.8852643" lon="11.5230803"><ele>1035.0</ele><time>2026-04-18T14:39:15.138Z</time></trkpt><trkpt lat="45.8852471" lon="11.5229727"><ele>1034.8</ele><time>2026-04-18T14:39:16.136Z</time></trkpt><trkpt lat="45.8852222" lon="11.5228508"><ele>1034.6</ele><time>2026-04-18T14:39:17.137Z</time></trkpt><trkpt lat="45.8852001" lon="11.5227132"><ele>1034.4</ele><time>2026-04-18T14:39:18.138Z</time></trkpt><trkpt lat="45.8851749" lon="11.5225702"><ele>1034.2</ele><time>2026-04-18T14:39:19.137Z</time></trkpt><trkpt lat="45.8851483" lon="11.5224147"><ele>1034.0</ele><time>2026-04-18T14:39:20.137Z</time></trkpt><trkpt lat="45.885118" lon="11.5222496"><ele>1033.0</ele><time>2026-04-18T14:39:21.138Z</time></trkpt><trkpt lat="45.8850847" lon="11.522072"><ele>1032.0</ele><time>2026-04-18T14:39:22.136Z</time></trkpt><trkpt lat="45.885055" lon="11.5218819"><ele>1031.0</ele><time>2026-04-18T14:39:23.137Z</time></trkpt><trkpt lat="45.8850196" lon="11.5216849"><ele>1030.0</ele><time>2026-04-18T14:39:24.138Z</time></trkpt><trkpt lat="45.8849861" lon="11.5214873"><ele>1030.0</ele><time>2026-04-18T14:39:25.137Z</time></trkpt><trkpt lat="45.8849536" lon="11.5212964"><ele>1030.0</ele><time>2026-04-18T14:39:26.137Z</time></trkpt><trkpt lat="45.8849223" lon="11.5211259"><ele>1030.0</ele><time>2026-04-18T14:39:27.137Z</time></trkpt><trkpt lat="45.8848939" lon="11.5209636"><ele>1030.0</ele><time>2026-04-18T14:39:28.137Z</time></trkpt><trkpt lat="45.8848661" lon="11.5208114"><ele>1030.0</ele><time>2026-04-18T14:39:29.137Z</time></trkpt><trkpt lat="45.8848413" lon="11.5206646"><ele>1030.0</ele><time>2026-04-18T14:39:30.137Z</time></trkpt><trkpt lat="45.8848205" lon="11.5205166"><ele>1030.0</ele><time>2026-04-18T14:39:31.138Z</time></trkpt><trkpt lat="45.8848018" lon="11.5203698"><ele>1030.0</ele><time>2026-04-18T14:39:32.137Z</time></trkpt><trkpt lat="45.8847763" lon="11.5202337"><ele>1030.0</ele><time>2026-04-18T14:39:33.136Z</time></trkpt><trkpt lat="45.8847431" lon="11.5201074"><ele>1029.6</ele><time>2026-04-18T14:39:34.138Z</time></trkpt><trkpt lat="45.8846909" lon="11.520005"><ele>1029.2</ele><time>2026-04-18T14:39:35.136Z</time></trkpt><trkpt lat="45.8846308" lon="11.51991"><ele>1028.8</ele><time>2026-04-18T14:39:36.137Z</time></trkpt><trkpt lat="45.8845347" lon="11.5198411"><ele>1028.4</ele><time>2026-04-18T14:39:37.137Z</time></trkpt><trkpt lat="45.8844435" lon="11.5197622"><ele>1028.0</ele><time>2026-04-18T14:39:38.138Z</time></trkpt><trkpt lat="45.8843577" lon="11.5196812"><ele>1028.0</ele><time>2026-04-18T14:39:39.137Z</time></trkpt><trkpt lat="45.8842793" lon="11.5196044"><ele>1028.0</ele><time>2026-04-18T14:39:40.137Z</time></trkpt><trkpt lat="45.8842019" lon="11.5195446"><ele>1028.0</ele><time>2026-04-18T14:39:41.137Z</time></trkpt><trkpt lat="45.8841187" lon="11.5195014"><ele>1028.0</ele><time>2026-04-18T14:39:42.137Z</time></trkpt><trkpt lat="45.8840256" lon="11.5194814"><ele>1028.0</ele><time>2026-04-18T14:39:43.136Z</time></trkpt><trkpt lat="45.8839254" lon="11.519482"><ele>1028.0</ele><time>2026-04-18T14:39:44.137Z</time></trkpt><trkpt lat="45.8838193" lon="11.5194982"><ele>1028.0</ele><time>2026-04-18T14:39:45.138Z</time></trkpt><trkpt lat="45.8837087" lon="11.519527"><ele>1028.0</ele><time>2026-04-18T14:39:46.136Z</time></trkpt><trkpt lat="45.8835991" lon="11.5195697"><ele>1028.0</ele><time>2026-04-18T14:39:47.137Z</time></trkpt><trkpt lat="45.8834813" lon="11.5196241"><ele>1027.75</ele><time>2026-04-18T14:39:48.138Z</time></trkpt><trkpt lat="45.8833551" lon="11.519666"><ele>1027.5</ele><time>2026-04-18T14:39:49.138Z</time></trkpt><trkpt lat="45.883231" lon="11.5196926"><ele>1027.25</ele><time>2026-04-18T14:39:50.137Z</time></trkpt><trkpt lat="45.8831138" lon="11.5197034"><ele>1027.0</ele><time>2026-04-18T14:39:51.137Z</time></trkpt><trkpt lat="45.8830007" lon="11.5197023"><ele>1027.0</ele><time>2026-04-18T14:39:52.136Z</time></trkpt><trkpt lat="45.8828847" lon="11.519683"><ele>1027.0</ele><time>2026-04-18T14:39:53.136Z</time></trkpt><trkpt lat="45.8827665" lon="11.5196504"><ele>1027.0</ele><time>2026-04-18T14:39:54.137Z</time></trkpt><trkpt lat="45.8826442" lon="11.5196089"><ele>1027.0</ele><time>2026-04-18T14:39:55.137Z</time></trkpt><trkpt lat="45.8825175" lon="11.5195601"><ele>1025.5</ele><time>2026-04-18T14:39:56.138Z</time></trkpt><trkpt lat="45.8823882" lon="11.5195046"><ele>1024.0</ele><time>2026-04-18T14:39:57.137Z</time></trkpt><trkpt lat="45.8822569" lon="11.5194396"><ele>1022.5</ele><time>2026-04-18T14:39:58.136Z</time></trkpt><trkpt lat="45.8821229" lon="11.519367"><ele>1021.0</ele><time>2026-04-18T14:39:59.137Z</time></trkpt><trkpt lat="45.8819883" lon="11.5192941"><ele>1021.0</ele><time>2026-04-18T14:40:00.138Z</time></trkpt><trkpt lat="45.8818488" lon="11.519222"><ele>1021.0</ele><time>2026-04-18T14:40:01.136Z</time></trkpt><trkpt lat="45.8817104" lon="11.5191654"><ele>1021.0</ele><time>2026-04-18T14:40:02.137Z</time></trkpt><trkpt lat="45.8815639" lon="11.519122"><ele>1021.0</ele><time>2026-04-18T14:40:03.138Z</time></trkpt><trkpt lat="45.8814145" lon="11.5190936"><ele>1020.0</ele><time>2026-04-18T14:40:04.136Z</time></trkpt><trkpt lat="45.8812585" lon="11.5190709"><ele>1019.0</ele><time>2026-04-18T14:40:05.137Z</time></trkpt><trkpt lat="45.8810986" lon="11.5190542"><ele>1018.0</ele><time>2026-04-18T14:40:06.137Z</time></trkpt><trkpt lat="45.8809319" lon="11.5190304"><ele>1017.6666666666666</ele><time>2026-04-18T14:40:07.136Z</time></trkpt><trkpt lat="45.8807613" lon="11.5190033"><ele>1017.3333333333333</ele><time>2026-04-18T14:40:08.138Z</time></trkpt><trkpt lat="45.8805948" lon="11.5189805"><ele>1017.0</ele><time>2026-04-18T14:40:09.137Z</time></trkpt><trkpt lat="45.8804387" lon="11.518956"><ele>1017.0</ele><time>2026-04-18T14:40:10.136Z</time></trkpt><trkpt lat="45.8802883" lon="11.5189369"><ele>1017.0</ele><time>2026-04-18T14:40:11.136Z</time></trkpt><trkpt lat="45.8801552" lon="11.5189162"><ele>1017.0</ele><time>2026-04-18T14:40:12.137Z</time></trkpt><trkpt lat="45.8800437" lon="11.5188962"><ele>1017.0</ele><time>2026-04-18T14:40:13.137Z</time></trkpt><trkpt lat="45.8799449" lon="11.5188796"><ele>1017.0</ele><time>2026-04-18T14:40:14.136Z</time></trkpt><trkpt lat="45.8798582" lon="11.5188671"><ele>1017.0</ele><time>2026-04-18T14:40:15.137Z</time></trkpt><trkpt lat="45.8797732" lon="11.5188568"><ele>1017.0</ele><time>2026-04-18T14:40:16.138Z</time></trkpt><trkpt lat="45.8797002" lon="11.5188448"><ele>1017.0</ele><time>2026-04-18T14:40:17.137Z</time></trkpt><trkpt lat="45.8795967" lon="11.5188332"><ele>1017.0</ele><time>2026-04-18T14:40:19.137Z</time></trkpt><trkpt lat="45.8795291" lon="11.5188006"><ele>1017.0</ele><time>2026-04-18T14:40:21.137Z</time></trkpt><trkpt lat="45.8794743" lon="11.5186551"><ele>1017.0</ele><time>2026-04-18T14:40:23.138Z</time></trkpt><trkpt lat="45.8794463" lon="11.5185385"><ele>1017.0</ele><time>2026-04-18T14:40:24.136Z</time></trkpt><trkpt lat="45.8794123" lon="11.5184171"><ele>1017.0</ele><time>2026-04-18T14:40:25.137Z</time></trkpt><trkpt lat="45.8793752" lon="11.5182679"><ele>1017.0</ele><time>2026-04-18T14:40:26.138Z</time></trkpt><trkpt lat="45.8793388" lon="11.5181163"><ele>1017.0</ele><time>2026-04-18T14:40:27.138Z</time></trkpt><trkpt lat="45.8792968" lon="11.5179522"><ele>1016.0</ele><time>2026-04-18T14:40:28.136Z</time></trkpt><trkpt lat="45.8792523" lon="11.5177761"><ele>1015.0</ele><time>2026-04-18T14:40:29.137Z</time></trkpt><trkpt lat="45.879205" lon="11.517595"><ele>1014.0</ele><time>2026-04-18T14:40:30.138Z</time></trkpt><trkpt lat="45.8791578" lon="11.5174089"><ele>1013.0</ele><time>2026-04-18T14:40:31.137Z</time></trkpt><trkpt lat="45.8791036" lon="11.5172124"><ele>1012.5</ele><time>2026-04-18T14:40:32.137Z</time></trkpt><trkpt lat="45.87905" lon="11.517013"><ele>1012.0</ele><time>2026-04-18T14:40:33.137Z</time></trkpt><trkpt lat="45.8789974" lon="11.516808"><ele>1011.5</ele><time>2026-04-18T14:40:34.137Z</time></trkpt><trkpt lat="45.878947" lon="11.5166131"><ele>1011.0</ele><time>2026-04-18T14:40:35.138Z</time></trkpt><trkpt lat="45.8789015" lon="11.5164303"><ele>1011.0</ele><time>2026-04-18T14:40:36.137Z</time></trkpt><trkpt lat="45.8788553" lon="11.5162602"><ele>1011.0</ele><time>2026-04-18T14:40:37.136Z</time></trkpt><trkpt lat="45.8788111" lon="11.5160963"><ele>1011.0</ele><time>2026-04-18T14:40:38.138Z</time></trkpt><trkpt lat="45.8787748" lon="11.5159392"><ele>1011.0</ele><time>2026-04-18T14:40:39.137Z</time></trkpt><trkpt lat="45.878733" lon="11.515797"><ele>1011.5999999999999</ele><time>2026-04-18T14:40:40.138Z</time></trkpt><trkpt lat="45.8786955" lon="11.5156578"><ele>1012.1999999999999</ele><time>2026-04-18T14:40:41.137Z</time></trkpt><trkpt lat="45.8786578" lon="11.515517"><ele>1012.8000000000001</ele><time>2026-04-18T14:40:42.136Z</time></trkpt><trkpt lat="45.8786152" lon="11.5153722"><ele>1013.4000000000001</ele><time>2026-04-18T14:40:43.137Z</time></trkpt><trkpt lat="45.8785669" lon="11.5152319"><ele>1014.0</ele><time>2026-04-18T14:40:44.137Z</time></trkpt><trkpt lat="45.8785132" lon="11.5150841"><ele>1014.25</ele><time>2026-04-18T14:40:45.136Z</time></trkpt><trkpt lat="45.8784551" lon="11.5149392"><ele>1014.5</ele><time>2026-04-18T14:40:46.137Z</time></trkpt><trkpt lat="45.8783953" lon="11.5147906"><ele>1014.75</ele><time>2026-04-18T14:40:47.137Z</time></trkpt><trkpt lat="45.8783337" lon="11.5146455"><ele>1015.0</ele><time>2026-04-18T14:40:48.136Z</time></trkpt><trkpt lat="45.8782756" lon="11.5145148"><ele>1014.0</ele><time>2026-04-18T14:40:49.137Z</time></trkpt><trkpt lat="45.8782227" lon="11.5143823"><ele>1013.0</ele><time>2026-04-18T14:40:50.137Z</time></trkpt><trkpt lat="45.8781722" lon="11.514263"><ele>1012.0</ele><time>2026-04-18T14:40:51.137Z</time></trkpt><trkpt lat="45.8781253" lon="11.5141506"><ele>1011.0</ele><time>2026-04-18T14:40:52.138Z</time></trkpt><trkpt lat="45.8780817" lon="11.5140404"><ele>1010.0</ele><time>2026-04-18T14:40:53.138Z</time></trkpt><trkpt lat="45.8780368" lon="11.5139404"><ele>1010.0000000000001</ele><time>2026-04-18T14:40:54.138Z</time></trkpt><trkpt lat="45.8779952" lon="11.5138403"><ele>1010.0</ele><time>2026-04-18T14:40:55.137Z</time></trkpt><trkpt lat="45.8779487" lon="11.5137349"><ele>1010.0</ele><time>2026-04-18T14:40:56.138Z</time></trkpt><trkpt lat="45.8779044" lon="11.5136245"><ele>1010.0</ele><time>2026-04-18T14:40:57.137Z</time></trkpt><trkpt lat="45.8778609" lon="11.5135132"><ele>1010.0000000000001</ele><time>2026-04-18T14:40:58.137Z</time></trkpt><trkpt lat="45.8778152" lon="11.5134048"><ele>1010.0</ele><time>2026-04-18T14:40:59.138Z</time></trkpt><trkpt lat="45.877777" lon="11.5133112"><ele>1009.4</ele><time>2026-04-18T14:41:00.136Z</time></trkpt><trkpt lat="45.8777463" lon="11.5132301"><ele>1008.8</ele><time>2026-04-18T14:41:01.138Z</time></trkpt><trkpt lat="45.8776864" lon="11.5131011"><ele>1008.2</ele><time>2026-04-18T14:41:03.136Z</time></trkpt><trkpt lat="45.8776344" lon="11.5129795"><ele>1007.6</ele><time>2026-04-18T14:41:05.138Z</time></trkpt><trkpt lat="45.8775693" lon="11.5128331"><ele>1007.0</ele><time>2026-04-18T14:41:07.137Z</time></trkpt><trkpt lat="45.8775299" lon="11.5127524"><ele>1006.7142857142857</ele><time>2026-04-18T14:41:08.138Z</time></trkpt><trkpt lat="45.8774913" lon="11.5126677"><ele>1006.4285714285716</ele><time>2026-04-18T14:41:09.136Z</time></trkpt><trkpt lat="45.8774598" lon="11.5125861"><ele>1006.1428571428572</ele><time>2026-04-18T14:41:10.136Z</time></trkpt><trkpt lat="45.8774299" lon="11.5124999"><ele>1005.8571428571429</ele><time>2026-04-18T14:41:11.138Z</time></trkpt><trkpt lat="45.8773971" lon="11.5124132"><ele>1005.5714285714287</ele><time>2026-04-18T14:41:12.138Z</time></trkpt><trkpt lat="45.8773595" lon="11.5123224"><ele>1005.2857142857144</ele><time>2026-04-18T14:41:13.137Z</time></trkpt><trkpt lat="45.8773172" lon="11.5122318"><ele>1005.0000000000001</ele><time>2026-04-18T14:41:14.137Z</time></trkpt><trkpt lat="45.8772746" lon="11.5121395"><ele>1005.2857142857144</ele><time>2026-04-18T14:41:15.138Z</time></trkpt><trkpt lat="45.8772367" lon="11.5120458"><ele>1005.5714285714287</ele><time>2026-04-18T14:41:16.137Z</time></trkpt><trkpt lat="45.8772003" lon="11.5119533"><ele>1005.8571428571429</ele><time>2026-04-18T14:41:17.138Z</time></trkpt><trkpt lat="45.8771628" lon="11.5118647"><ele>1006.1428571428572</ele><time>2026-04-18T14:41:18.137Z</time></trkpt><trkpt lat="45.8771262" lon="11.5117757"><ele>1006.4285714285716</ele><time>2026-04-18T14:41:19.137Z</time></trkpt><trkpt lat="45.8770911" lon="11.5116847"><ele>1006.7142857142857</ele><time>2026-04-18T14:41:20.137Z</time></trkpt><trkpt lat="45.8770584" lon="11.5115964"><ele>1007.0</ele><time>2026-04-18T14:41:21.138Z</time></trkpt><trkpt lat="45.8770209" lon="11.5115126"><ele>1007.0</ele><time>2026-04-18T14:41:22.136Z</time></trkpt><trkpt lat="45.8769859" lon="11.5114303"><ele>1007.0</ele><time>2026-04-18T14:41:23.138Z</time></trkpt><trkpt lat="45.8769534" lon="11.5113444"><ele>1007.0</ele><time>2026-04-18T14:41:24.136Z</time></trkpt><trkpt lat="45.8769215" lon="11.5112606"><ele>1007.0</ele><time>2026-04-18T14:41:25.137Z</time></trkpt><trkpt lat="45.8768837" lon="11.5111832"><ele>1007.0</ele><time>2026-04-18T14:41:26.138Z</time></trkpt><trkpt lat="45.8768491" lon="11.5111002"><ele>1007.0</ele><time>2026-04-18T14:41:27.137Z</time></trkpt><trkpt lat="45.8768123" lon="11.5110152"><ele>1007.0</ele><time>2026-04-18T14:41:28.137Z</time></trkpt><trkpt lat="45.8767781" lon="11.5109245"><ele>1006.7142857142857</ele><time>2026-04-18T14:41:29.137Z</time></trkpt><trkpt lat="45.8767431" lon="11.5108403"><ele>1006.4285714285716</ele><time>2026-04-18T14:41:30.138Z</time></trkpt><trkpt lat="45.8767072" lon="11.5107507"><ele>1006.1428571428572</ele><time>2026-04-18T14:41:31.137Z</time></trkpt><trkpt lat="45.8766705" lon="11.5106676"><ele>1005.8571428571429</ele><time>2026-04-18T14:41:32.137Z</time></trkpt><trkpt lat="45.8766359" lon="11.5105859"><ele>1005.5714285714287</ele><time>2026-04-18T14:41:33.138Z</time></trkpt><trkpt lat="45.8765808" lon="11.5104814"><ele>1005.2857142857144</ele><time>2026-04-18T14:41:35.137Z</time></trkpt><trkpt lat="45.8765044" lon="11.5104598"><ele>1005.0000000000001</ele><time>2026-04-18T14:41:38.138Z</time></trkpt><trkpt lat="45.8764245" lon="11.5104631"><ele>1005.0</ele><time>2026-04-18T14:41:40.137Z</time></trkpt><trkpt lat="45.8763213" lon="11.5104875"><ele>1005.0</ele><time>2026-04-18T14:41:42.138Z</time></trkpt><trkpt lat="45.8762157" lon="11.5105261"><ele>1005.0</ele><time>2026-04-18T14:41:44.137Z</time></trkpt><trkpt lat="45.8761212" lon="11.5105525"><ele>1005.0</ele><time>2026-04-18T14:41:46.138Z</time></trkpt><trkpt lat="45.8760363" lon="11.5105749"><ele>1005.0</ele><time>2026-04-18T14:41:48.138Z</time></trkpt><trkpt lat="45.8759545" lon="11.5105944"><ele>1004.4</ele><time>2026-04-18T14:41:50.137Z</time></trkpt><trkpt lat="45.8758841" lon="11.5106223"><ele>1003.8</ele><time>2026-04-18T14:41:52.138Z</time></trkpt><trkpt lat="45.8758023" lon="11.5106586"><ele>1003.2</ele><time>2026-04-18T14:41:54.137Z</time></trkpt><trkpt lat="45.8757044" lon="11.5106612"><ele>1002.6</ele><time>2026-04-18T14:41:56.137Z</time></trkpt><trkpt lat="45.8756092" lon="11.5106201"><ele>1002.0</ele><time>2026-04-18T14:41:58.136Z</time></trkpt><trkpt lat="45.8755135" lon="11.5106016"><ele>1002.0</ele><time>2026-04-18T14:42:00.137Z</time></trkpt><trkpt lat="45.8754278" lon="11.5106672"><ele>1002.0</ele><time>2026-04-18T14:42:02.137Z</time></trkpt><trkpt lat="45.8753336" lon="11.510739"><ele>1002.0</ele><time>2026-04-18T14:42:04.138Z</time></trkpt><trkpt lat="45.8752225" lon="11.5107838"><ele>1002.0</ele><time>2026-04-18T14:42:06.137Z</time></trkpt><trkpt lat="45.8751104" lon="11.5108106"><ele>1002.0</ele><time>2026-04-18T14:42:08.137Z</time></trkpt><trkpt lat="45.8750096" lon="11.5108474"><ele>1002.1666666666666</ele><time>2026-04-18T14:42:10.137Z</time></trkpt><trkpt lat="45.8749091" lon="11.510871"><ele>1002.3333333333333</ele><time>2026-04-18T14:42:12.138Z</time></trkpt><trkpt lat="45.874813" lon="11.5108834"><ele>1002.5</ele><time>2026-04-18T14:42:14.137Z</time></trkpt><trkpt lat="45.8747423" lon="11.5109012"><ele>1002.6666666666666</ele><time>2026-04-18T14:42:16.137Z</time></trkpt><trkpt lat="45.8746707" lon="11.5109243"><ele>1002.8333333333333</ele><time>2026-04-18T14:42:18.137Z</time></trkpt><trkpt lat="45.8745756" lon="11.5109525"><ele>1003.0</ele><time>2026-04-18T14:42:20.137Z</time></trkpt><trkpt lat="45.8744632" lon="11.5109716"><ele>1002.9999999999999</ele><time>2026-04-18T14:42:22.138Z</time></trkpt><trkpt lat="45.8743437" lon="11.5110041"><ele>1003.0</ele><time>2026-04-18T14:42:24.137Z</time></trkpt><trkpt lat="45.8742793" lon="11.5110233"><ele>1003.0</ele><time>2026-04-18T14:42:25.138Z</time></trkpt><trkpt lat="45.8742114" lon="11.5110377"><ele>1003.0</ele><time>2026-04-18T14:42:26.137Z</time></trkpt><trkpt lat="45.8741363" lon="11.5110545"><ele>1002.9999999999999</ele><time>2026-04-18T14:42:27.136Z</time></trkpt><trkpt lat="45.874065" lon="11.5110763"><ele>1003.0</ele><time>2026-04-18T14:42:28.138Z</time></trkpt><trkpt lat="45.8739862" lon="11.5110957"><ele>1002.6666666666666</ele><time>2026-04-18T14:42:29.137Z</time></trkpt><trkpt lat="45.8739062" lon="11.5111169"><ele>1002.3333333333333</ele><time>2026-04-18T14:42:30.137Z</time></trkpt><trkpt lat="45.8738254" lon="11.5111366"><ele>1002.0</ele><time>2026-04-18T14:42:31.136Z</time></trkpt><trkpt lat="45.8737434" lon="11.5111639"><ele>1001.6666666666667</ele><time>2026-04-18T14:42:32.137Z</time></trkpt><trkpt lat="45.8736588" lon="11.5111819"><ele>1001.3333333333334</ele><time>2026-04-18T14:42:33.137Z</time></trkpt><trkpt lat="45.8735731" lon="11.5112048"><ele>1001.0</ele><time>2026-04-18T14:42:34.138Z</time></trkpt><trkpt lat="45.8734861" lon="11.5112259"><ele>1000.5999999999999</ele><time>2026-04-18T14:42:35.136Z</time></trkpt><trkpt lat="45.8733942" lon="11.5112471"><ele>1000.1999999999999</ele><time>2026-04-18T14:42:36.137Z</time></trkpt><trkpt lat="45.8733031" lon="11.5112677"><ele>999.8000000000001</ele><time>2026-04-18T14:42:37.137Z</time></trkpt><trkpt lat="45.8732088" lon="11.5112892"><ele>999.4000000000001</ele><time>2026-04-18T14:42:38.137Z</time></trkpt><trkpt lat="45.8731143" lon="11.5113166"><ele>999.0</ele><time>2026-04-18T14:42:39.138Z</time></trkpt><trkpt lat="45.8730184" lon="11.5113415"><ele>999.0</ele><time>2026-04-18T14:42:40.137Z</time></trkpt><trkpt lat="45.8729286" lon="11.5113654"><ele>999.0</ele><time>2026-04-18T14:42:41.137Z</time></trkpt><trkpt lat="45.8728443" lon="11.5113845"><ele>999.0</ele><time>2026-04-18T14:42:42.137Z</time></trkpt><trkpt lat="45.8727652" lon="11.5114095"><ele>999.0</ele><time>2026-04-18T14:42:43.137Z</time></trkpt><trkpt lat="45.8726939" lon="11.5114273"><ele>999.0</ele><time>2026-04-18T14:42:44.137Z</time></trkpt><trkpt lat="45.872626" lon="11.5114418"><ele>999.0</ele><time>2026-04-18T14:42:45.138Z</time></trkpt><trkpt lat="45.8725603" lon="11.5114593"><ele>998.6666666666666</ele><time>2026-04-18T14:42:46.137Z</time></trkpt><trkpt lat="45.8724909" lon="11.511475"><ele>998.3333333333333</ele><time>2026-04-18T14:42:47.137Z</time></trkpt><trkpt lat="45.872418" lon="11.5114974"><ele>998.0</ele><time>2026-04-18T14:42:48.138Z</time></trkpt><trkpt lat="45.8723459" lon="11.5115088"><ele>997.6666666666666</ele><time>2026-04-18T14:42:49.137Z</time></trkpt><trkpt lat="45.8722789" lon="11.5115207"><ele>997.3333333333333</ele><time>2026-04-18T14:42:50.137Z</time></trkpt><trkpt lat="45.8722154" lon="11.5115382"><ele>997.0</ele><time>2026-04-18T14:42:51.138Z</time></trkpt><trkpt lat="45.8721071" lon="11.5115661"><ele>996.9999999999999</ele><time>2026-04-18T14:42:53.137Z</time></trkpt><trkpt lat="45.8720081" lon="11.5115661"><ele>997.0</ele><time>2026-04-18T14:42:55.138Z</time></trkpt><trkpt lat="45.8719527" lon="11.5114792"><ele>997.0</ele><time>2026-04-18T14:42:57.137Z</time></trkpt><trkpt lat="45.8719553" lon="11.5113133"><ele>997.0</ele><time>2026-04-18T14:42:59.136Z</time></trkpt><trkpt lat="45.871966" lon="11.5112197"><ele>996.9999999999999</ele><time>2026-04-18T14:43:00.137Z</time></trkpt><trkpt lat="45.8719829" lon="11.5111201"><ele>997.0</ele><time>2026-04-18T14:43:01.136Z</time></trkpt><trkpt lat="45.8719979" lon="11.5110168"><ele>996.9999999999999</ele><time>2026-04-18T14:43:02.138Z</time></trkpt><trkpt lat="45.8720137" lon="11.5109185"><ele>997.0</ele><time>2026-04-18T14:43:03.137Z</time></trkpt><trkpt lat="45.8720296" lon="11.510826"><ele>997.0</ele><time>2026-04-18T14:43:04.137Z</time></trkpt><trkpt lat="45.8720416" lon="11.5107283"><ele>997.0</ele><time>2026-04-18T14:43:05.136Z</time></trkpt><trkpt lat="45.8720533" lon="11.5106329"><ele>996.9999999999999</ele><time>2026-04-18T14:43:06.137Z</time></trkpt><trkpt lat="45.8720814" lon="11.5104624"><ele>997.0</ele><time>2026-04-18T14:43:08.137Z</time></trkpt><trkpt lat="45.8721059" lon="11.5103152"><ele>996.8333333333333</ele><time>2026-04-18T14:43:10.137Z</time></trkpt><trkpt lat="45.8721338" lon="11.5101545"><ele>996.6666666666666</ele><time>2026-04-18T14:43:12.138Z</time></trkpt><trkpt lat="45.8721463" lon="11.5100543"><ele>996.5</ele><time>2026-04-18T14:43:13.137Z</time></trkpt><trkpt lat="45.8721639" lon="11.5099409"><ele>996.3333333333333</ele><time>2026-04-18T14:43:14.136Z</time></trkpt><trkpt lat="45.8721825" lon="11.5098225"><ele>996.1666666666666</ele><time>2026-04-18T14:43:15.137Z</time></trkpt><trkpt lat="45.8722036" lon="11.5096945"><ele>996.0</ele><time>2026-04-18T14:43:16.138Z</time></trkpt><trkpt lat="45.8722235" lon="11.5095596"><ele>996.0</ele><time>2026-04-18T14:43:17.137Z</time></trkpt><trkpt lat="45.8722426" lon="11.5094161"><ele>995.9999999999999</ele><time>2026-04-18T14:43:18.138Z</time></trkpt><trkpt lat="45.8722624" lon="11.5092761"><ele>995.9999999999999</ele><time>2026-04-18T14:43:19.138Z</time></trkpt><trkpt lat="45.8722825" lon="11.5091368"><ele>996.0</ele><time>2026-04-18T14:43:20.137Z</time></trkpt><trkpt lat="45.8723052" lon="11.5089939"><ele>996.0</ele><time>2026-04-18T14:43:21.136Z</time></trkpt><trkpt lat="45.8723252" lon="11.5088492"><ele>996.8</ele><time>2026-04-18T14:43:22.138Z</time></trkpt><trkpt lat="45.8723436" lon="11.5087119"><ele>997.5999999999999</ele><time>2026-04-18T14:43:23.137Z</time></trkpt><trkpt lat="45.872361" lon="11.508572"><ele>998.4</ele><time>2026-04-18T14:43:24.137Z</time></trkpt><trkpt lat="45.8723813" lon="11.5084309"><ele>999.2</ele><time>2026-04-18T14:43:25.137Z</time></trkpt><trkpt lat="45.8724038" lon="11.5082849"><ele>1000.0</ele><time>2026-04-18T14:43:26.137Z</time></trkpt><trkpt lat="45.8724227" lon="11.5081321"><ele>1000.0</ele><time>2026-04-18T14:43:27.137Z</time></trkpt><trkpt lat="45.8724446" lon="11.5079829"><ele>1000.0</ele><time>2026-04-18T14:43:28.137Z</time></trkpt><trkpt lat="45.8724658" lon="11.5078378"><ele>1000.0</ele><time>2026-04-18T14:43:29.137Z</time></trkpt><trkpt lat="45.8724872" lon="11.5076997"><ele>1000.0</ele><time>2026-04-18T14:43:30.137Z</time></trkpt><trkpt lat="45.8725048" lon="11.5075693"><ele>1000.0</ele><time>2026-04-18T14:43:31.138Z</time></trkpt><trkpt lat="45.8725268" lon="11.5074473"><ele>999.9999999999999</ele><time>2026-04-18T14:43:32.136Z</time></trkpt><trkpt lat="45.8725539" lon="11.5073243"><ele>1000.0</ele><time>2026-04-18T14:43:33.138Z</time></trkpt><trkpt lat="45.8725898" lon="11.5072111"><ele>1000.0</ele><time>2026-04-18T14:43:34.137Z</time></trkpt><trkpt lat="45.872637" lon="11.5071078"><ele>1000.0</ele><time>2026-04-18T14:43:35.137Z</time></trkpt><trkpt lat="45.8726951" lon="11.5070092"><ele>999.9999999999999</ele><time>2026-04-18T14:43:36.136Z</time></trkpt><trkpt lat="45.8727597" lon="11.5069175"><ele>1000.0</ele><time>2026-04-18T14:43:37.137Z</time></trkpt><trkpt lat="45.8728269" lon="11.5068303"><ele>1000.6</ele><time>2026-04-18T14:43:38.137Z</time></trkpt><trkpt lat="45.8728961" lon="11.5067467"><ele>1001.2</ele><time>2026-04-18T14:43:39.136Z</time></trkpt><trkpt lat="45.8729641" lon="11.5066648"><ele>1001.8</ele><time>2026-04-18T14:43:40.137Z</time></trkpt><trkpt lat="45.873036" lon="11.5065819"><ele>1002.4</ele><time>2026-04-18T14:43:41.137Z</time></trkpt><trkpt lat="45.8731076" lon="11.5064974"><ele>1003.0</ele><time>2026-04-18T14:43:42.138Z</time></trkpt><trkpt lat="45.87317" lon="11.5064082"><ele>1002.9999999999999</ele><time>2026-04-18T14:43:43.137Z</time></trkpt><trkpt lat="45.8732232" lon="11.506318"><ele>1003.0</ele><time>2026-04-18T14:43:44.138Z</time></trkpt><trkpt lat="45.873265" lon="11.5062195"><ele>1003.0</ele><time>2026-04-18T14:43:45.138Z</time></trkpt><trkpt lat="45.873294" lon="11.5061286"><ele>1003.0</ele><time>2026-04-18T14:43:46.138Z</time></trkpt><trkpt lat="45.8733392" lon="11.5059924"><ele>1002.9999999999999</ele><time>2026-04-18T14:43:48.138Z</time></trkpt><trkpt lat="45.8733656" lon="11.5059068"><ele>1003.0</ele><time>2026-04-18T14:43:50.138Z</time></trkpt><trkpt lat="45.8734002" lon="11.5058004"><ele>1004.3333333333333</ele><time>2026-04-18T14:43:54.137Z</time></trkpt><trkpt lat="45.8734483" lon="11.5057298"><ele>1005.6666666666666</ele><time>2026-04-18T14:43:56.136Z</time></trkpt><trkpt lat="45.8735039" lon="11.5056481"><ele>1007.0</ele><time>2026-04-18T14:43:58.137Z</time></trkpt><trkpt lat="45.8735298" lon="11.5055041"><ele>1008.3333333333333</ele><time>2026-04-18T14:44:00.137Z</time></trkpt><trkpt lat="45.8734992" lon="11.5053389"><ele>1009.6666666666666</ele><time>2026-04-18T14:44:02.136Z</time></trkpt><trkpt lat="45.8734774" lon="11.5052371"><ele>1011.0</ele><time>2026-04-18T14:44:03.138Z</time></trkpt><trkpt lat="45.8734554" lon="11.5051247"><ele>1010.9999999999999</ele><time>2026-04-18T14:44:04.138Z</time></trkpt><trkpt lat="45.8734338" lon="11.5050233"><ele>1011.0</ele><time>2026-04-18T14:44:05.137Z</time></trkpt><trkpt lat="45.8734117" lon="11.5049327"><ele>1010.9999999999999</ele><time>2026-04-18T14:44:06.138Z</time></trkpt><trkpt lat="45.8733881" lon="11.5048392"><ele>1010.9999999999999</ele><time>2026-04-18T14:44:07.137Z</time></trkpt><trkpt lat="45.873362" lon="11.5047438"><ele>1011.0</ele><time>2026-04-18T14:44:08.136Z</time></trkpt><trkpt lat="45.8733355" lon="11.5046427"><ele>1010.9999999999999</ele><time>2026-04-18T14:44:09.137Z</time></trkpt><trkpt lat="45.8733023" lon="11.5045368"><ele>1010.9999999999999</ele><time>2026-04-18T14:44:10.136Z</time></trkpt><trkpt lat="45.8732714" lon="11.5044314"><ele>1011.0</ele><time>2026-04-18T14:44:11.137Z</time></trkpt><trkpt lat="45.8732367" lon="11.50432"><ele>1010.9999999999999</ele><time>2026-04-18T14:44:12.138Z</time></trkpt><trkpt lat="45.8732011" lon="11.5042008"><ele>1010.9999999999999</ele><time>2026-04-18T14:44:13.136Z</time></trkpt><trkpt lat="45.8731621" lon="11.5040762"><ele>1011.0</ele><time>2026-04-18T14:44:14.136Z</time></trkpt><trkpt lat="45.873124" lon="11.5039458"><ele>1011.0</ele><time>2026-04-18T14:44:15.137Z</time></trkpt><trkpt lat="45.8730847" lon="11.5038154"><ele>1011.1999999999999</ele><time>2026-04-18T14:44:16.137Z</time></trkpt><trkpt lat="45.8730492" lon="11.5036923"><ele>1011.3999999999999</ele><time>2026-04-18T14:44:17.138Z</time></trkpt><trkpt lat="45.8730111" lon="11.5035656"><ele>1011.6</ele><time>2026-04-18T14:44:18.137Z</time></trkpt><trkpt lat="45.8729676" lon="11.5034356"><ele>1011.8</ele><time>2026-04-18T14:44:19.137Z</time></trkpt><trkpt lat="45.8729193" lon="11.5033037"><ele>1012.0</ele><time>2026-04-18T14:44:20.137Z</time></trkpt><trkpt lat="45.8728688" lon="11.5031688"><ele>1012.0</ele><time>2026-04-18T14:44:21.137Z</time></trkpt><trkpt lat="45.8728145" lon="11.5030302"><ele>1012.0</ele><time>2026-04-18T14:44:22.138Z</time></trkpt><trkpt lat="45.8727638" lon="11.5028962"><ele>1012.0</ele><time>2026-04-18T14:44:23.137Z</time></trkpt><trkpt lat="45.8727126" lon="11.5027621"><ele>1012.0</ele><time>2026-04-18T14:44:24.137Z</time></trkpt><trkpt lat="45.8726631" lon="11.5026304"><ele>1012.0</ele><time>2026-04-18T14:44:25.138Z</time></trkpt><trkpt lat="45.8726123" lon="11.5024981"><ele>1010.8</ele><time>2026-04-18T14:44:26.136Z</time></trkpt><trkpt lat="45.8725616" lon="11.502365"><ele>1009.6</ele><time>2026-04-18T14:44:27.137Z</time></trkpt><trkpt lat="45.8725117" lon="11.5022361"><ele>1008.3999999999999</ele><time>2026-04-18T14:44:28.137Z</time></trkpt><trkpt lat="45.872461" lon="11.5020997"><ele>1007.1999999999999</ele><time>2026-04-18T14:44:29.138Z</time></trkpt><trkpt lat="45.8724056" lon="11.501957"><ele>1006.0</ele><time>2026-04-18T14:44:30.136Z</time></trkpt><trkpt lat="45.8723456" lon="11.5018187"><ele>1005.75</ele><time>2026-04-18T14:44:31.136Z</time></trkpt><trkpt lat="45.8722791" lon="11.5016738"><ele>1005.5</ele><time>2026-04-18T14:44:32.136Z</time></trkpt><trkpt lat="45.8722035" lon="11.5015323"><ele>1005.25</ele><time>2026-04-18T14:44:33.137Z</time></trkpt><trkpt lat="45.8721238" lon="11.5013908"><ele>1005.0</ele><time>2026-04-18T14:44:34.137Z</time></trkpt><trkpt lat="45.8720422" lon="11.5012553"><ele>1005.5</ele><time>2026-04-18T14:44:35.138Z</time></trkpt><trkpt lat="45.8719633" lon="11.5011182"><ele>1006.0</ele><time>2026-04-18T14:44:36.137Z</time></trkpt><trkpt lat="45.8718819" lon="11.5009927"><ele>1006.5</ele><time>2026-04-18T14:44:37.137Z</time></trkpt><trkpt lat="45.871799" lon="11.5008647"><ele>1007.0</ele><time>2026-04-18T14:44:38.138Z</time></trkpt><trkpt lat="45.8717197" lon="11.5007393"><ele>1004.5</ele><time>2026-04-18T14:44:39.137Z</time></trkpt><trkpt lat="45.8716387" lon="11.500611"><ele>1002.0</ele><time>2026-04-18T14:44:40.137Z</time></trkpt><trkpt lat="45.8715563" lon="11.5004901"><ele>999.5</ele><time>2026-04-18T14:44:41.138Z</time></trkpt><trkpt lat="45.8714756" lon="11.5003642"><ele>997.0</ele><time>2026-04-18T14:44:42.137Z</time></trkpt><trkpt lat="45.8713978" lon="11.5002376"><ele>996.75</ele><time>2026-04-18T14:44:43.137Z</time></trkpt><trkpt lat="45.8713132" lon="11.500112"><ele>996.5</ele><time>2026-04-18T14:44:44.137Z</time></trkpt><trkpt lat="45.8712293" lon="11.4999881"><ele>996.25</ele><time>2026-04-18T14:44:45.138Z</time></trkpt><trkpt lat="45.8711464" lon="11.4998594"><ele>996.0</ele><time>2026-04-18T14:44:46.137Z</time></trkpt><trkpt lat="45.8710602" lon="11.4997311"><ele>996.0</ele><time>2026-04-18T14:44:47.136Z</time></trkpt><trkpt lat="45.8709749" lon="11.4995965"><ele>996.0</ele><time>2026-04-18T14:44:48.137Z</time></trkpt><trkpt lat="45.8708869" lon="11.4994661"><ele>996.0</ele><time>2026-04-18T14:44:49.137Z</time></trkpt><trkpt lat="45.8708041" lon="11.4993355"><ele>996.0</ele><time>2026-04-18T14:44:50.137Z</time></trkpt><trkpt lat="45.8707207" lon="11.4992077"><ele>995.0</ele><time>2026-04-18T14:44:51.137Z</time></trkpt><trkpt lat="45.8706323" lon="11.4990754"><ele>994.0</ele><time>2026-04-18T14:44:52.137Z</time></trkpt><trkpt lat="45.870548" lon="11.4989496"><ele>993.0</ele><time>2026-04-18T14:44:53.136Z</time></trkpt><trkpt lat="45.8704656" lon="11.4988216"><ele>992.0</ele><time>2026-04-18T14:44:54.136Z</time></trkpt><trkpt lat="45.8703811" lon="11.4986938"><ele>992.0</ele><time>2026-04-18T14:44:55.138Z</time></trkpt><trkpt lat="45.8702993" lon="11.4985568"><ele>992.0</ele><time>2026-04-18T14:44:56.138Z</time></trkpt><trkpt lat="45.8702193" lon="11.4984336"><ele>992.0</ele><time>2026-04-18T14:44:57.136Z</time></trkpt><trkpt lat="45.8701425" lon="11.4983114"><ele>992.0</ele><time>2026-04-18T14:44:58.138Z</time></trkpt><trkpt lat="45.8700649" lon="11.4981939"><ele>990.8</ele><time>2026-04-18T14:44:59.137Z</time></trkpt><trkpt lat="45.8699867" lon="11.4980795"><ele>989.6</ele><time>2026-04-18T14:45:00.137Z</time></trkpt><trkpt lat="45.8699096" lon="11.4979597"><ele>988.3999999999999</ele><time>2026-04-18T14:45:01.137Z</time></trkpt><trkpt lat="45.8698344" lon="11.4978481"><ele>987.1999999999999</ele><time>2026-04-18T14:45:02.138Z</time></trkpt><trkpt lat="45.8697589" lon="11.4977292"><ele>986.0</ele><time>2026-04-18T14:45:03.137Z</time></trkpt><trkpt lat="45.8696886" lon="11.4976124"><ele>985.5999999999999</ele><time>2026-04-18T14:45:04.137Z</time></trkpt><trkpt lat="45.8696162" lon="11.4975079"><ele>985.1999999999999</ele><time>2026-04-18T14:45:05.137Z</time></trkpt><trkpt lat="45.869551" lon="11.4974037"><ele>984.8000000000001</ele><time>2026-04-18T14:45:06.137Z</time></trkpt><trkpt lat="45.8694852" lon="11.4972964"><ele>984.4000000000001</ele><time>2026-04-18T14:45:07.138Z</time></trkpt><trkpt lat="45.8694186" lon="11.4971874"><ele>984.0</ele><time>2026-04-18T14:45:08.137Z</time></trkpt><trkpt lat="45.869351" lon="11.497079"><ele>984.0</ele><time>2026-04-18T14:45:09.136Z</time></trkpt><trkpt lat="45.8692833" lon="11.4969724"><ele>984.0000000000001</ele><time>2026-04-18T14:45:10.137Z</time></trkpt><trkpt lat="45.8692164" lon="11.4968673"><ele>984.0000000000001</ele><time>2026-04-18T14:45:11.138Z</time></trkpt><trkpt lat="45.8691555" lon="11.4967598"><ele>984.0</ele><time>2026-04-18T14:45:12.137Z</time></trkpt><trkpt lat="45.8690879" lon="11.4966447"><ele>984.0</ele><time>2026-04-18T14:45:13.136Z</time></trkpt><trkpt lat="45.8690199" lon="11.4965196"><ele>983.5</ele><time>2026-04-18T14:45:14.137Z</time></trkpt><trkpt lat="45.8689523" lon="11.4963865"><ele>983.0</ele><time>2026-04-18T14:45:15.137Z</time></trkpt><trkpt lat="45.8688866" lon="11.4962425"><ele>982.5</ele><time>2026-04-18T14:45:16.136Z</time></trkpt><trkpt lat="45.8688243" lon="11.4960944"><ele>982.0</ele><time>2026-04-18T14:45:17.137Z</time></trkpt><trkpt lat="45.8687637" lon="11.4959484"><ele>982.8</ele><time>2026-04-18T14:45:18.137Z</time></trkpt><trkpt lat="45.868711" lon="11.4957949"><ele>983.6</ele><time>2026-04-18T14:45:19.137Z</time></trkpt><trkpt lat="45.8686637" lon="11.4956497"><ele>984.3999999999999</ele><time>2026-04-18T14:45:20.136Z</time></trkpt><trkpt lat="45.8686174" lon="11.4955152"><ele>985.1999999999999</ele><time>2026-04-18T14:45:21.136Z</time></trkpt><trkpt lat="45.8685714" lon="11.4953806"><ele>986.0</ele><time>2026-04-18T14:45:22.136Z</time></trkpt><trkpt lat="45.8685257" lon="11.4952483"><ele>986.1999999999999</ele><time>2026-04-18T14:45:23.138Z</time></trkpt><trkpt lat="45.8684782" lon="11.4951121"><ele>986.3999999999999</ele><time>2026-04-18T14:45:24.138Z</time></trkpt><trkpt lat="45.8684304" lon="11.4949679"><ele>986.6</ele><time>2026-04-18T14:45:25.138Z</time></trkpt><trkpt lat="45.8683814" lon="11.4948182"><ele>986.8</ele><time>2026-04-18T14:45:26.136Z</time></trkpt><trkpt lat="45.8683319" lon="11.49467"><ele>987.0</ele><time>2026-04-18T14:45:27.138Z</time></trkpt><trkpt lat="45.8682868" lon="11.4945135"><ele>989.5</ele><time>2026-04-18T14:45:28.137Z</time></trkpt><trkpt lat="45.8682425" lon="11.4943496"><ele>992.0</ele><time>2026-04-18T14:45:29.138Z</time></trkpt><trkpt lat="45.8682035" lon="11.4941808"><ele>994.5</ele><time>2026-04-18T14:45:30.138Z</time></trkpt><trkpt lat="45.8681712" lon="11.4940063"><ele>997.0</ele><time>2026-04-18T14:45:31.137Z</time></trkpt><trkpt lat="45.8681467" lon="11.4938234"><ele>998.25</ele><time>2026-04-18T14:45:32.137Z</time></trkpt><trkpt lat="45.8681346" lon="11.4936375"><ele>999.5</ele><time>2026-04-18T14:45:33.138Z</time></trkpt><trkpt lat="45.8681384" lon="11.4934537"><ele>1000.75</ele><time>2026-04-18T14:45:34.137Z</time></trkpt><trkpt lat="45.8681527" lon="11.4932641"><ele>1002.0</ele><time>2026-04-18T14:45:35.137Z</time></trkpt><trkpt lat="45.868176" lon="11.4930771"><ele>1003.5</ele><time>2026-04-18T14:45:36.138Z</time></trkpt><trkpt lat="45.8682099" lon="11.4928884"><ele>1005.0</ele><time>2026-04-18T14:45:37.136Z</time></trkpt><trkpt lat="45.86825" lon="11.4926954"><ele>1006.5</ele><time>2026-04-18T14:45:38.138Z</time></trkpt><trkpt lat="45.8683036" lon="11.4925099"><ele>1008.0</ele><time>2026-04-18T14:45:39.137Z</time></trkpt><trkpt lat="45.8683743" lon="11.4923314"><ele>1007.25</ele><time>2026-04-18T14:45:40.138Z</time></trkpt><trkpt lat="45.8684578" lon="11.4921598"><ele>1006.5</ele><time>2026-04-18T14:45:41.137Z</time></trkpt><trkpt lat="45.8685445" lon="11.4919876"><ele>1005.75</ele><time>2026-04-18T14:45:42.138Z</time></trkpt><trkpt lat="45.8686332" lon="11.4918167"><ele>1005.0</ele><time>2026-04-18T14:45:43.137Z</time></trkpt><trkpt lat="45.8687176" lon="11.4916442"><ele>1005.0</ele><time>2026-04-18T14:45:44.137Z</time></trkpt><trkpt lat="45.8688025" lon="11.4914751"><ele>1005.0</ele><time>2026-04-18T14:45:45.137Z</time></trkpt><trkpt lat="45.8688818" lon="11.4913045"><ele>1005.0</ele><time>2026-04-18T14:45:46.137Z</time></trkpt><trkpt lat="45.8689621" lon="11.491141"><ele>1005.0</ele><time>2026-04-18T14:45:47.138Z</time></trkpt><trkpt lat="45.8690395" lon="11.4909826"><ele>1006.5</ele><time>2026-04-18T14:45:48.138Z</time></trkpt><trkpt lat="45.8691164" lon="11.4908258"><ele>1008.0</ele><time>2026-04-18T14:45:49.136Z</time></trkpt><trkpt lat="45.8691927" lon="11.4906744"><ele>1009.5</ele><time>2026-04-18T14:45:50.137Z</time></trkpt><trkpt lat="45.8692652" lon="11.490524"><ele>1011.0</ele><time>2026-04-18T14:45:51.138Z</time></trkpt><trkpt lat="45.8693427" lon="11.4903761"><ele>1011.4</ele><time>2026-04-18T14:45:52.138Z</time></trkpt><trkpt lat="45.8694163" lon="11.4902344"><ele>1011.8</ele><time>2026-04-18T14:45:53.138Z</time></trkpt><trkpt lat="45.8694807" lon="11.4900992"><ele>1012.1999999999999</ele><time>2026-04-18T14:45:54.136Z</time></trkpt><trkpt lat="45.8695427" lon="11.4899712"><ele>1012.5999999999999</ele><time>2026-04-18T14:45:55.137Z</time></trkpt><trkpt lat="45.8695977" lon="11.4898502"><ele>1013.0</ele><time>2026-04-18T14:45:56.137Z</time></trkpt><trkpt lat="45.8696554" lon="11.4897367"><ele>1013.0</ele><time>2026-04-18T14:45:57.137Z</time></trkpt><trkpt lat="45.8696963" lon="11.4896122"><ele>1013.0</ele><time>2026-04-18T14:45:58.136Z</time></trkpt><trkpt lat="45.8697088" lon="11.4894745"><ele>1013.0</ele><time>2026-04-18T14:45:59.138Z</time></trkpt><trkpt lat="45.8696957" lon="11.4893346"><ele>1013.0</ele><time>2026-04-18T14:46:00.136Z</time></trkpt><trkpt lat="45.8696617" lon="11.4891956"><ele>1013.0</ele><time>2026-04-18T14:46:01.136Z</time></trkpt><trkpt lat="45.8696063" lon="11.4890544"><ele>1015.25</ele><time>2026-04-18T14:46:02.137Z</time></trkpt><trkpt lat="45.8695391" lon="11.4889103"><ele>1017.5</ele><time>2026-04-18T14:46:03.138Z</time></trkpt><trkpt lat="45.869466" lon="11.4887533"><ele>1019.75</ele><time>2026-04-18T14:46:04.138Z</time></trkpt><trkpt lat="45.8693889" lon="11.4885854"><ele>1022.0</ele><time>2026-04-18T14:46:05.137Z</time></trkpt><trkpt lat="45.8693097" lon="11.4884154"><ele>1022.0</ele><time>2026-04-18T14:46:06.136Z</time></trkpt><trkpt lat="45.8692282" lon="11.488249"><ele>1022.0</ele><time>2026-04-18T14:46:07.136Z</time></trkpt><trkpt lat="45.8691495" lon="11.4880818"><ele>1022.0</ele><time>2026-04-18T14:46:08.137Z</time></trkpt><trkpt lat="45.8690782" lon="11.4879209"><ele>1022.0</ele><time>2026-04-18T14:46:09.138Z</time></trkpt><trkpt lat="45.8690035" lon="11.487769"><ele>1022.25</ele><time>2026-04-18T14:46:10.137Z</time></trkpt><trkpt lat="45.8689289" lon="11.4876219"><ele>1022.5</ele><time>2026-04-18T14:46:11.137Z</time></trkpt><trkpt lat="45.8688602" lon="11.4874763"><ele>1022.75</ele><time>2026-04-18T14:46:12.138Z</time></trkpt><trkpt lat="45.8687945" lon="11.4873392"><ele>1023.0</ele><time>2026-04-18T14:46:13.138Z</time></trkpt><trkpt lat="45.8687309" lon="11.4872007"><ele>1022.75</ele><time>2026-04-18T14:46:14.137Z</time></trkpt><trkpt lat="45.8686646" lon="11.4870653"><ele>1022.5</ele><time>2026-04-18T14:46:15.136Z</time></trkpt><trkpt lat="45.8686038" lon="11.4869276"><ele>1022.25</ele><time>2026-04-18T14:46:16.138Z</time></trkpt><trkpt lat="45.8685404" lon="11.4867894"><ele>1022.0</ele><time>2026-04-18T14:46:17.138Z</time></trkpt><trkpt lat="45.8684782" lon="11.4866567"><ele>1021.4000000000001</ele><time>2026-04-18T14:46:18.138Z</time></trkpt><trkpt lat="45.8684202" lon="11.4865275"><ele>1020.8000000000001</ele><time>2026-04-18T14:46:19.137Z</time></trkpt><trkpt lat="45.8683638" lon="11.4864094"><ele>1020.2</ele><time>2026-04-18T14:46:20.137Z</time></trkpt><trkpt lat="45.8683153" lon="11.4862926"><ele>1019.6</ele><time>2026-04-18T14:46:21.137Z</time></trkpt><trkpt lat="45.8682745" lon="11.486173"><ele>1019.0</ele><time>2026-04-18T14:46:22.138Z</time></trkpt><trkpt lat="45.8682522" lon="11.4860494"><ele>1019.0</ele><time>2026-04-18T14:46:23.137Z</time></trkpt><trkpt lat="45.8682459" lon="11.4859289"><ele>1019.0000000000001</ele><time>2026-04-18T14:46:24.138Z</time></trkpt><trkpt lat="45.8682607" lon="11.4858097"><ele>1019.0000000000001</ele><time>2026-04-18T14:46:25.136Z</time></trkpt><trkpt lat="45.8682978" lon="11.4856967"><ele>1019.0</ele><time>2026-04-18T14:46:26.138Z</time></trkpt><trkpt lat="45.8683593" lon="11.4855864"><ele>1019.0</ele><time>2026-04-18T14:46:27.137Z</time></trkpt><trkpt lat="45.8684355" lon="11.48548"><ele>1018.25</ele><time>2026-04-18T14:46:28.137Z</time></trkpt><trkpt lat="45.8685189" lon="11.4853659"><ele>1017.5</ele><time>2026-04-18T14:46:29.138Z</time></trkpt><trkpt lat="45.8686116" lon="11.4852428"><ele>1016.75</ele><time>2026-04-18T14:46:30.137Z</time></trkpt><trkpt lat="45.8687099" lon="11.4851161"><ele>1016.0</ele><time>2026-04-18T14:46:31.137Z</time></trkpt><trkpt lat="45.8688093" lon="11.4849825"><ele>1016.0</ele><time>2026-04-18T14:46:32.137Z</time></trkpt><trkpt lat="45.868909" lon="11.4848398"><ele>1016.0</ele><time>2026-04-18T14:46:33.137Z</time></trkpt><trkpt lat="45.8689997" lon="11.4847043"><ele>1016.0</ele><time>2026-04-18T14:46:34.138Z</time></trkpt><trkpt lat="45.8690683" lon="11.4845839"><ele>1016.0</ele><time>2026-04-18T14:46:35.137Z</time></trkpt><trkpt lat="45.8691242" lon="11.4844647"><ele>1015.5999999999999</ele><time>2026-04-18T14:46:36.138Z</time></trkpt><trkpt lat="45.8691582" lon="11.4843309"><ele>1015.1999999999999</ele><time>2026-04-18T14:46:37.137Z</time></trkpt><trkpt lat="45.8691837" lon="11.4841965"><ele>1014.8000000000001</ele><time>2026-04-18T14:46:38.137Z</time></trkpt><trkpt lat="45.8691955" lon="11.4840629"><ele>1014.4000000000001</ele><time>2026-04-18T14:46:39.138Z</time></trkpt><trkpt lat="45.8692011" lon="11.483923"><ele>1014.0</ele><time>2026-04-18T14:46:40.138Z</time></trkpt><trkpt lat="45.8692058" lon="11.4837859"><ele>1013.4000000000001</ele><time>2026-04-18T14:46:41.137Z</time></trkpt><trkpt lat="45.8692051" lon="11.4836505"><ele>1012.8000000000001</ele><time>2026-04-18T14:46:42.137Z</time></trkpt><trkpt lat="45.8691977" lon="11.4835111"><ele>1012.1999999999999</ele><time>2026-04-18T14:46:43.137Z</time></trkpt><trkpt lat="45.8691805" lon="11.4833729"><ele>1011.5999999999999</ele><time>2026-04-18T14:46:44.137Z</time></trkpt><trkpt lat="45.8691502" lon="11.483237"><ele>1011.0</ele><time>2026-04-18T14:46:45.138Z</time></trkpt><trkpt lat="45.8691154" lon="11.4831083"><ele>1011.0</ele><time>2026-04-18T14:46:46.137Z</time></trkpt><trkpt lat="45.8690693" lon="11.4829909"><ele>1010.9999999999999</ele><time>2026-04-18T14:46:47.137Z</time></trkpt><trkpt lat="45.8690137" lon="11.4828704"><ele>1010.9999999999999</ele><time>2026-04-18T14:46:48.138Z</time></trkpt><trkpt lat="45.8689579" lon="11.4827486"><ele>1011.0</ele><time>2026-04-18T14:46:49.137Z</time></trkpt><trkpt lat="45.8688926" lon="11.4826275"><ele>1011.0</ele><time>2026-04-18T14:46:50.138Z</time></trkpt><trkpt lat="45.8688315" lon="11.482497"><ele>1011.5999999999999</ele><time>2026-04-18T14:46:51.138Z</time></trkpt><trkpt lat="45.86878" lon="11.4823624"><ele>1012.1999999999999</ele><time>2026-04-18T14:46:52.138Z</time></trkpt><trkpt lat="45.8687432" lon="11.4822293"><ele>1012.8000000000001</ele><time>2026-04-18T14:46:53.137Z</time></trkpt><trkpt lat="45.8687207" lon="11.4820943"><ele>1013.4000000000001</ele><time>2026-04-18T14:46:54.136Z</time></trkpt><trkpt lat="45.868718" lon="11.4819586"><ele>1014.0</ele><time>2026-04-18T14:46:55.137Z</time></trkpt><trkpt lat="45.8687384" lon="11.4818222"><ele>1014.0</ele><time>2026-04-18T14:46:56.137Z</time></trkpt><trkpt lat="45.868776" lon="11.4816876"><ele>1014.0000000000001</ele><time>2026-04-18T14:46:57.137Z</time></trkpt><trkpt lat="45.8688273" lon="11.4815679"><ele>1014.0000000000001</ele><time>2026-04-18T14:46:58.136Z</time></trkpt><trkpt lat="45.8688901" lon="11.4814543"><ele>1014.0</ele><time>2026-04-18T14:46:59.137Z</time></trkpt><trkpt lat="45.8689577" lon="11.4813458"><ele>1014.0</ele><time>2026-04-18T14:47:00.137Z</time></trkpt><trkpt lat="45.8690252" lon="11.4812396"><ele>1013.2</ele><time>2026-04-18T14:47:01.138Z</time></trkpt><trkpt lat="45.8690915" lon="11.4811249"><ele>1012.4000000000001</ele><time>2026-04-18T14:47:02.138Z</time></trkpt><trkpt lat="45.869162" lon="11.4810024"><ele>1011.6</ele><time>2026-04-18T14:47:03.138Z</time></trkpt><trkpt lat="45.8692326" lon="11.480879"><ele>1010.8</ele><time>2026-04-18T14:47:04.138Z</time></trkpt><trkpt lat="45.869305" lon="11.4807499"><ele>1010.0</ele><time>2026-04-18T14:47:05.137Z</time></trkpt><trkpt lat="45.8693755" lon="11.4806207"><ele>1010.0</ele><time>2026-04-18T14:47:06.137Z</time></trkpt><trkpt lat="45.8694433" lon="11.4804984"><ele>1010.0</ele><time>2026-04-18T14:47:07.137Z</time></trkpt><trkpt lat="45.8695062" lon="11.48038"><ele>1010.0</ele><time>2026-04-18T14:47:08.138Z</time></trkpt><trkpt lat="45.8695595" lon="11.4802683"><ele>1010.0</ele><time>2026-04-18T14:47:09.138Z</time></trkpt><trkpt lat="45.8696024" lon="11.4801644"><ele>1010.0</ele><time>2026-04-18T14:47:10.138Z</time></trkpt><trkpt lat="45.8696418" lon="11.4800656"><ele>1009.3333333333334</ele><time>2026-04-18T14:47:11.137Z</time></trkpt><trkpt lat="45.8696779" lon="11.479978"><ele>1008.6666666666667</ele><time>2026-04-18T14:47:12.137Z</time></trkpt><trkpt lat="45.8697166" lon="11.4798904"><ele>1008.0</ele><time>2026-04-18T14:47:13.138Z</time></trkpt><trkpt lat="45.8697403" lon="11.4798037"><ele>1007.3333333333333</ele><time>2026-04-18T14:47:14.138Z</time></trkpt><trkpt lat="45.8696963" lon="11.4796417"><ele>1006.6666666666666</ele><time>2026-04-18T14:47:16.137Z</time></trkpt><trkpt lat="45.8696457" lon="11.4795656"><ele>1006.0</ele><time>2026-04-18T14:47:17.137Z</time></trkpt><trkpt lat="45.8695835" lon="11.4794751"><ele>1006.0</ele><time>2026-04-18T14:47:18.137Z</time></trkpt><trkpt lat="45.8695104" lon="11.4793763"><ele>1006.0</ele><time>2026-04-18T14:47:19.137Z</time></trkpt><trkpt lat="45.86943" lon="11.479276"><ele>1006.0</ele><time>2026-04-18T14:47:20.137Z</time></trkpt><trkpt lat="45.8693385" lon="11.4791661"><ele>1006.0</ele><time>2026-04-18T14:47:21.137Z</time></trkpt><trkpt lat="45.8692373" lon="11.4790624"><ele>1005.0</ele><time>2026-04-18T14:47:22.137Z</time></trkpt><trkpt lat="45.8691317" lon="11.478951"><ele>1004.0</ele><time>2026-04-18T14:47:23.137Z</time></trkpt><trkpt lat="45.8690267" lon="11.4788383"><ele>1003.0</ele><time>2026-04-18T14:47:24.136Z</time></trkpt><trkpt lat="45.8689231" lon="11.4787258"><ele>1002.0</ele><time>2026-04-18T14:47:25.137Z</time></trkpt><trkpt lat="45.8688184" lon="11.4786175"><ele>1001.5</ele><time>2026-04-18T14:47:26.138Z</time></trkpt><trkpt lat="45.868713" lon="11.4785055"><ele>1001.0</ele><time>2026-04-18T14:47:27.138Z</time></trkpt><trkpt lat="45.8686061" lon="11.4783957"><ele>1000.5</ele><time>2026-04-18T14:47:28.137Z</time></trkpt><trkpt lat="45.8685018" lon="11.4782815"><ele>1000.0</ele><time>2026-04-18T14:47:29.138Z</time></trkpt><trkpt lat="45.8683939" lon="11.4781679"><ele>1000.0</ele><time>2026-04-18T14:47:30.137Z</time></trkpt><trkpt lat="45.8682906" lon="11.4780575"><ele>1000.0</ele><time>2026-04-18T14:47:31.138Z</time></trkpt><trkpt lat="45.8681877" lon="11.4779497"><ele>1000.0</ele><time>2026-04-18T14:47:32.138Z</time></trkpt><trkpt lat="45.8680842" lon="11.4778407"><ele>1000.0</ele><time>2026-04-18T14:47:33.137Z</time></trkpt><trkpt lat="45.8679821" lon="11.4777391"><ele>1000.0</ele><time>2026-04-18T14:47:34.137Z</time></trkpt><trkpt lat="45.8678877" lon="11.4776418"><ele>1000.0</ele><time>2026-04-18T14:47:35.137Z</time></trkpt><trkpt lat="45.8677947" lon="11.4775449"><ele>1000.0</ele><time>2026-04-18T14:47:36.137Z</time></trkpt><trkpt lat="45.8677058" lon="11.4774484"><ele>1000.0</ele><time>2026-04-18T14:47:37.136Z</time></trkpt><trkpt lat="45.8676201" lon="11.4773576"><ele>1000.0</ele><time>2026-04-18T14:47:38.138Z</time></trkpt><trkpt lat="45.8675477" lon="11.4772817"><ele>999.8333333333333</ele><time>2026-04-18T14:47:39.138Z</time></trkpt><trkpt lat="45.8674902" lon="11.4772211"><ele>999.6666666666666</ele><time>2026-04-18T14:47:40.137Z</time></trkpt><trkpt lat="45.8674197" lon="11.4771572"><ele>999.5</ele><time>2026-04-18T14:47:42.137Z</time></trkpt><trkpt lat="45.8673573" lon="11.4770935"><ele>999.3333333333333</ele><time>2026-04-18T14:47:46.137Z</time></trkpt><trkpt lat="45.867298" lon="11.4770281"><ele>999.1666666666666</ele><time>2026-04-18T14:47:48.138Z</time></trkpt><trkpt lat="45.8672331" lon="11.4769552"><ele>999.0</ele><time>2026-04-18T14:47:50.137Z</time></trkpt><trkpt lat="45.8671547" lon="11.476877"><ele>998.4000000000001</ele><time>2026-04-18T14:47:52.138Z</time></trkpt><trkpt lat="45.8670643" lon="11.4767864"><ele>997.8000000000001</ele><time>2026-04-18T14:47:54.137Z</time></trkpt><trkpt lat="45.8670054" lon="11.4767251"><ele>997.1999999999999</ele><time>2026-04-18T14:47:55.136Z</time></trkpt><trkpt lat="45.8669394" lon="11.4766595"><ele>996.5999999999999</ele><time>2026-04-18T14:47:56.137Z</time></trkpt><trkpt lat="45.8668649" lon="11.4765737"><ele>996.0</ele><time>2026-04-18T14:47:57.137Z</time></trkpt><trkpt lat="45.8667861" lon="11.4764893"><ele>996.4</ele><time>2026-04-18T14:47:58.137Z</time></trkpt><trkpt lat="45.8667017" lon="11.476399"><ele>996.8</ele><time>2026-04-18T14:47:59.138Z</time></trkpt><trkpt lat="45.8666157" lon="11.4763062"><ele>997.1999999999999</ele><time>2026-04-18T14:48:00.137Z</time></trkpt><trkpt lat="45.8665281" lon="11.4762118"><ele>997.5999999999999</ele><time>2026-04-18T14:48:01.137Z</time></trkpt><trkpt lat="45.8664394" lon="11.4761218"><ele>998.0</ele><time>2026-04-18T14:48:02.138Z</time></trkpt><trkpt lat="45.8663515" lon="11.4760397"><ele>998.0</ele><time>2026-04-18T14:48:03.138Z</time></trkpt><trkpt lat="45.8662662" lon="11.475951"><ele>998.0</ele><time>2026-04-18T14:48:04.137Z</time></trkpt><trkpt lat="45.8661824" lon="11.4758627"><ele>998.0</ele><time>2026-04-18T14:48:05.138Z</time></trkpt><trkpt lat="45.866099" lon="11.4757765"><ele>998.0</ele><time>2026-04-18T14:48:06.138Z</time></trkpt><trkpt lat="45.8660188" lon="11.4756887"><ele>998.0</ele><time>2026-04-18T14:48:07.138Z</time></trkpt><trkpt lat="45.86594" lon="11.4756065"><ele>997.8333333333334</ele><time>2026-04-18T14:48:08.137Z</time></trkpt><trkpt lat="45.8658696" lon="11.4755329"><ele>997.6666666666667</ele><time>2026-04-18T14:48:09.137Z</time></trkpt><trkpt lat="45.8658066" lon="11.4754656"><ele>997.5</ele><time>2026-04-18T14:48:10.138Z</time></trkpt><trkpt lat="45.8657451" lon="11.4754052"><ele>997.3333333333333</ele><time>2026-04-18T14:48:11.138Z</time></trkpt><trkpt lat="45.8656823" lon="11.4753443"><ele>997.1666666666666</ele><time>2026-04-18T14:48:12.137Z</time></trkpt><trkpt lat="45.8656234" lon="11.4752782"><ele>997.0</ele><time>2026-04-18T14:48:13.136Z</time></trkpt><trkpt lat="45.8655634" lon="11.4752138"><ele>996.6666666666666</ele><time>2026-04-18T14:48:14.138Z</time></trkpt><trkpt lat="45.8655019" lon="11.4751468"><ele>996.3333333333333</ele><time>2026-04-18T14:48:15.138Z</time></trkpt><trkpt lat="45.8654373" lon="11.4750816"><ele>996.0</ele><time>2026-04-18T14:48:16.138Z</time></trkpt><trkpt lat="45.8653778" lon="11.4750209"><ele>995.6666666666667</ele><time>2026-04-18T14:48:17.137Z</time></trkpt><trkpt lat="45.8653179" lon="11.4749579"><ele>995.3333333333334</ele><time>2026-04-18T14:48:18.137Z</time></trkpt><trkpt lat="45.865255" lon="11.4748929"><ele>995.0</ele><time>2026-04-18T14:48:19.138Z</time></trkpt><trkpt lat="45.8651895" lon="11.4748201"><ele>995.0000000000001</ele><time>2026-04-18T14:48:20.138Z</time></trkpt><trkpt lat="45.8651187" lon="11.4747424"><ele>995.0</ele><time>2026-04-18T14:48:21.137Z</time></trkpt><trkpt lat="45.8650435" lon="11.4746607"><ele>995.0</ele><time>2026-04-18T14:48:22.138Z</time></trkpt><trkpt lat="45.8649715" lon="11.4745807"><ele>995.0</ele><time>2026-04-18T14:48:23.136Z</time></trkpt><trkpt lat="45.8649064" lon="11.4745184"><ele>995.0000000000001</ele><time>2026-04-18T14:48:24.137Z</time></trkpt><trkpt lat="45.8648296" lon="11.4744437"><ele>995.0</ele><time>2026-04-18T14:48:26.138Z</time></trkpt><trkpt lat="45.8647723" lon="11.4743876"><ele>995.2</ele><time>2026-04-18T14:48:28.137Z</time></trkpt><trkpt lat="45.8646633" lon="11.4742765"><ele>995.4</ele><time>2026-04-18T14:48:30.138Z</time></trkpt><trkpt lat="45.8645953" lon="11.4741898"><ele>995.5999999999999</ele><time>2026-04-18T14:48:31.137Z</time></trkpt><trkpt lat="45.8645281" lon="11.4740978"><ele>995.8</ele><time>2026-04-18T14:48:32.137Z</time></trkpt><trkpt lat="45.8644527" lon="11.4740033"><ele>996.0</ele><time>2026-04-18T14:48:33.137Z</time></trkpt><trkpt lat="45.8643759" lon="11.4739043"><ele>996.0</ele><time>2026-04-18T14:48:34.137Z</time></trkpt><trkpt lat="45.8642923" lon="11.4738022"><ele>995.9999999999999</ele><time>2026-04-18T14:48:35.138Z</time></trkpt><trkpt lat="45.8642107" lon="11.4736879"><ele>995.9999999999999</ele><time>2026-04-18T14:48:36.136Z</time></trkpt><trkpt lat="45.8641317" lon="11.4735674"><ele>996.0</ele><time>2026-04-18T14:48:37.138Z</time></trkpt><trkpt lat="45.8640668" lon="11.4734415"><ele>996.0</ele><time>2026-04-18T14:48:38.137Z</time></trkpt><trkpt lat="45.8640171" lon="11.4732938"><ele>995.75</ele><time>2026-04-18T14:48:39.138Z</time></trkpt><trkpt lat="45.8639557" lon="11.4731561"><ele>995.5</ele><time>2026-04-18T14:48:40.137Z</time></trkpt><trkpt lat="45.8638736" lon="11.473037"><ele>995.25</ele><time>2026-04-18T14:48:41.136Z</time></trkpt><trkpt lat="45.86378" lon="11.4729356"><ele>995.0</ele><time>2026-04-18T14:48:42.138Z</time></trkpt><trkpt lat="45.8636763" lon="11.472851"><ele>994.25</ele><time>2026-04-18T14:48:43.138Z</time></trkpt><trkpt lat="45.863563" lon="11.4727726"><ele>993.5</ele><time>2026-04-18T14:48:44.137Z</time></trkpt><trkpt lat="45.8634475" lon="11.4726976"><ele>992.75</ele><time>2026-04-18T14:48:45.137Z</time></trkpt><trkpt lat="45.8633359" lon="11.4726316"><ele>992.0</ele><time>2026-04-18T14:48:46.137Z</time></trkpt><trkpt lat="45.8632341" lon="11.472565"><ele>991.8</ele><time>2026-04-18T14:48:47.138Z</time></trkpt><trkpt lat="45.8631308" lon="11.4725034"><ele>991.6</ele><time>2026-04-18T14:48:48.137Z</time></trkpt><trkpt lat="45.8630405" lon="11.4724472"><ele>991.3999999999999</ele><time>2026-04-18T14:48:49.138Z</time></trkpt><trkpt lat="45.862961" lon="11.472398"><ele>991.1999999999999</ele><time>2026-04-18T14:48:50.137Z</time></trkpt><trkpt lat="45.8628884" lon="11.4723453"><ele>991.0</ele><time>2026-04-18T14:48:51.137Z</time></trkpt><trkpt lat="45.8628186" lon="11.4722801"><ele>990.9999999999999</ele><time>2026-04-18T14:48:52.138Z</time></trkpt><trkpt lat="45.8627556" lon="11.4722025"><ele>991.0</ele><time>2026-04-18T14:48:53.137Z</time></trkpt><trkpt lat="45.8627094" lon="11.4721109"><ele>991.0</ele><time>2026-04-18T14:48:54.137Z</time></trkpt><trkpt lat="45.8626802" lon="11.4719957"><ele>991.0</ele><time>2026-04-18T14:48:55.138Z</time></trkpt><trkpt lat="45.862671" lon="11.4718559"><ele>990.9999999999999</ele><time>2026-04-18T14:48:56.136Z</time></trkpt><trkpt lat="45.8626751" lon="11.47171"><ele>991.0</ele><time>2026-04-18T14:48:57.136Z</time></trkpt><trkpt lat="45.8626915" lon="11.4715533"><ele>989.0</ele><time>2026-04-18T14:48:58.137Z</time></trkpt><trkpt lat="45.8627138" lon="11.4713937"><ele>987.0</ele><time>2026-04-18T14:48:59.138Z</time></trkpt><trkpt lat="45.8627395" lon="11.4712315"><ele>985.0</ele><time>2026-04-18T14:49:00.137Z</time></trkpt><trkpt lat="45.8627607" lon="11.471071"><ele>983.0</ele><time>2026-04-18T14:49:01.136Z</time></trkpt><trkpt lat="45.8627793" lon="11.4709158"><ele>981.0</ele><time>2026-04-18T14:49:02.137Z</time></trkpt><trkpt lat="45.8627963" lon="11.4707594"><ele>979.0</ele><time>2026-04-18T14:49:03.136Z</time></trkpt><trkpt lat="45.8628206" lon="11.4706003"><ele>977.0</ele><time>2026-04-18T14:49:04.137Z</time></trkpt><trkpt lat="45.8628451" lon="11.4704349"><ele>975.0</ele><time>2026-04-18T14:49:05.138Z</time></trkpt><trkpt lat="45.862871" lon="11.4702641"><ele>975.0</ele><time>2026-04-18T14:49:06.137Z</time></trkpt><trkpt lat="45.8628932" lon="11.4700973"><ele>975.0</ele><time>2026-04-18T14:49:07.138Z</time></trkpt><trkpt lat="45.862919" lon="11.4699205"><ele>975.0</ele><time>2026-04-18T14:49:08.137Z</time></trkpt><trkpt lat="45.8629431" lon="11.4697375"><ele>975.0</ele><time>2026-04-18T14:49:09.137Z</time></trkpt><trkpt lat="45.8629656" lon="11.469548"><ele>975.5</ele><time>2026-04-18T14:49:10.137Z</time></trkpt><trkpt lat="45.8629868" lon="11.469361"><ele>976.0</ele><time>2026-04-18T14:49:11.138Z</time></trkpt><trkpt lat="45.8630127" lon="11.4691746"><ele>976.5</ele><time>2026-04-18T14:49:12.137Z</time></trkpt><trkpt lat="45.8630415" lon="11.4689928"><ele>977.0</ele><time>2026-04-18T14:49:13.137Z</time></trkpt><trkpt lat="45.8630659" lon="11.4688141"><ele>976.5</ele><time>2026-04-18T14:49:14.137Z</time></trkpt><trkpt lat="45.8630905" lon="11.4686316"><ele>976.0</ele><time>2026-04-18T14:49:15.137Z</time></trkpt><trkpt lat="45.8631115" lon="11.4684514"><ele>975.5</ele><time>2026-04-18T14:49:16.138Z</time></trkpt><trkpt lat="45.8631303" lon="11.4682738"><ele>975.0</ele><time>2026-04-18T14:49:17.136Z</time></trkpt><trkpt lat="45.8631406" lon="11.4680975"><ele>974.5</ele><time>2026-04-18T14:49:18.136Z</time></trkpt><trkpt lat="45.863145" lon="11.4679286"><ele>974.0</ele><time>2026-04-18T14:49:19.137Z</time></trkpt><trkpt lat="45.8631421" lon="11.4677639"><ele>973.5</ele><time>2026-04-18T14:49:20.137Z</time></trkpt><trkpt lat="45.8631336" lon="11.4675918"><ele>973.0</ele><time>2026-04-18T14:49:21.137Z</time></trkpt><trkpt lat="45.8631151" lon="11.4674167"><ele>973.0</ele><time>2026-04-18T14:49:22.137Z</time></trkpt><trkpt lat="45.8630895" lon="11.4672431"><ele>973.0</ele><time>2026-04-18T14:49:23.137Z</time></trkpt><trkpt lat="45.8630627" lon="11.4670664"><ele>973.0</ele><time>2026-04-18T14:49:24.138Z</time></trkpt><trkpt lat="45.8630106" lon="11.466893"><ele>973.0</ele><time>2026-04-18T14:49:25.137Z</time></trkpt><trkpt lat="45.862966" lon="11.4667193"><ele>973.25</ele><time>2026-04-18T14:49:26.138Z</time></trkpt><trkpt lat="45.8629228" lon="11.4665579"><ele>973.5</ele><time>2026-04-18T14:49:27.137Z</time></trkpt><trkpt lat="45.8628834" lon="11.466397"><ele>973.75</ele><time>2026-04-18T14:49:28.137Z</time></trkpt><trkpt lat="45.8628462" lon="11.4662507"><ele>974.0</ele><time>2026-04-18T14:49:29.137Z</time></trkpt><trkpt lat="45.8628047" lon="11.4661153"><ele>973.6</ele><time>2026-04-18T14:49:30.137Z</time></trkpt><trkpt lat="45.8627536" lon="11.4659854"><ele>973.2</ele><time>2026-04-18T14:49:31.138Z</time></trkpt><trkpt lat="45.8626887" lon="11.4658693"><ele>972.8000000000001</ele><time>2026-04-18T14:49:32.137Z</time></trkpt><trkpt lat="45.8626103" lon="11.4657658"><ele>972.4000000000001</ele><time>2026-04-18T14:49:33.137Z</time></trkpt><trkpt lat="45.8625232" lon="11.4656685"><ele>972.0</ele><time>2026-04-18T14:49:34.137Z</time></trkpt><trkpt lat="45.8624248" lon="11.4655696"><ele>972.25</ele><time>2026-04-18T14:49:35.137Z</time></trkpt><trkpt lat="45.8623242" lon="11.4654664"><ele>972.5</ele><time>2026-04-18T14:49:36.138Z</time></trkpt><trkpt lat="45.8622268" lon="11.4653596"><ele>972.75</ele><time>2026-04-18T14:49:37.138Z</time></trkpt><trkpt lat="45.8621375" lon="11.4652502"><ele>973.0</ele><time>2026-04-18T14:49:38.138Z</time></trkpt><trkpt lat="45.8620545" lon="11.4651398"><ele>973.0</ele><time>2026-04-18T14:49:39.137Z</time></trkpt><trkpt lat="45.861978" lon="11.4650188"><ele>973.0</ele><time>2026-04-18T14:49:40.138Z</time></trkpt><trkpt lat="45.8619137" lon="11.4648833"><ele>973.0</ele><time>2026-04-18T14:49:41.137Z</time></trkpt><trkpt lat="45.8618724" lon="11.4647409"><ele>973.0</ele><time>2026-04-18T14:49:42.137Z</time></trkpt><trkpt lat="45.8618421" lon="11.464593"><ele>973.0</ele><time>2026-04-18T14:49:43.138Z</time></trkpt><trkpt lat="45.8618071" lon="11.4644458"><ele>971.4</ele><time>2026-04-18T14:49:44.137Z</time></trkpt><trkpt lat="45.8617633" lon="11.4642944"><ele>969.8</ele><time>2026-04-18T14:49:45.137Z</time></trkpt><trkpt lat="45.8617046" lon="11.4641593"><ele>968.2</ele><time>2026-04-18T14:49:46.136Z</time></trkpt><trkpt lat="45.8616343" lon="11.4640388"><ele>966.6</ele><time>2026-04-18T14:49:47.138Z</time></trkpt><trkpt lat="45.8615572" lon="11.4639306"><ele>965.0</ele><time>2026-04-18T14:49:48.137Z</time></trkpt><trkpt lat="45.8614747" lon="11.4638319"><ele>965.4</ele><time>2026-04-18T14:49:49.137Z</time></trkpt><trkpt lat="45.8613866" lon="11.4637411"><ele>965.8</ele><time>2026-04-18T14:49:50.136Z</time></trkpt><trkpt lat="45.8612978" lon="11.463657"><ele>966.2</ele><time>2026-04-18T14:49:51.137Z</time></trkpt><trkpt lat="45.8612065" lon="11.4635838"><ele>966.6</ele><time>2026-04-18T14:49:52.137Z</time></trkpt><trkpt lat="45.8611114" lon="11.4635147"><ele>967.0</ele><time>2026-04-18T14:49:53.137Z</time></trkpt><trkpt lat="45.8610129" lon="11.4634538"><ele>966.0</ele><time>2026-04-18T14:49:54.138Z</time></trkpt><trkpt lat="45.8609158" lon="11.4633997"><ele>965.0</ele><time>2026-04-18T14:49:55.136Z</time></trkpt><trkpt lat="45.8608164" lon="11.4633589"><ele>964.0</ele><time>2026-04-18T14:49:56.137Z</time></trkpt><trkpt lat="45.8607143" lon="11.4633286"><ele>963.0</ele><time>2026-04-18T14:49:57.138Z</time></trkpt><trkpt lat="45.8606183" lon="11.4632874"><ele>962.0</ele><time>2026-04-18T14:49:58.137Z</time></trkpt><trkpt lat="45.8605239" lon="11.4632386"><ele>962.0</ele><time>2026-04-18T14:49:59.137Z</time></trkpt><trkpt lat="45.8604425" lon="11.4631661"><ele>962.0</ele><time>2026-04-18T14:50:00.137Z</time></trkpt><trkpt lat="45.8603806" lon="11.4630651"><ele>962.0</ele><time>2026-04-18T14:50:01.137Z</time></trkpt><trkpt lat="45.8603395" lon="11.4629486"><ele>962.0</ele><time>2026-04-18T14:50:02.138Z</time></trkpt><trkpt lat="45.8603223" lon="11.4628204"><ele>962.0</ele><time>2026-04-18T14:50:03.137Z</time></trkpt><trkpt lat="45.8603274" lon="11.4626814"><ele>962.75</ele><time>2026-04-18T14:50:04.137Z</time></trkpt><trkpt lat="45.8603495" lon="11.4625379"><ele>963.5</ele><time>2026-04-18T14:50:05.136Z</time></trkpt><trkpt lat="45.8603849" lon="11.4623909"><ele>964.25</ele><time>2026-04-18T14:50:06.137Z</time></trkpt><trkpt lat="45.8604335" lon="11.462236"><ele>965.0</ele><time>2026-04-18T14:50:07.137Z</time></trkpt><trkpt lat="45.860492" lon="11.46207"><ele>963.0</ele><time>2026-04-18T14:50:08.137Z</time></trkpt><trkpt lat="45.8605542" lon="11.4618946"><ele>961.0</ele><time>2026-04-18T14:50:09.137Z</time></trkpt><trkpt lat="45.8606166" lon="11.4617124"><ele>959.0</ele><time>2026-04-18T14:50:10.137Z</time></trkpt><trkpt lat="45.8606798" lon="11.4615228"><ele>957.0</ele><time>2026-04-18T14:50:11.137Z</time></trkpt><trkpt lat="45.8607478" lon="11.4613332"><ele>956.0</ele><time>2026-04-18T14:50:12.138Z</time></trkpt><trkpt lat="45.8608112" lon="11.4611523"><ele>955.0</ele><time>2026-04-18T14:50:13.136Z</time></trkpt><trkpt lat="45.860863" lon="11.460975"><ele>954.0</ele><time>2026-04-18T14:50:14.137Z</time></trkpt><trkpt lat="45.8609017" lon="11.4607989"><ele>953.0</ele><time>2026-04-18T14:50:15.137Z</time></trkpt><trkpt lat="45.860941" lon="11.4606226"><ele>953.75</ele><time>2026-04-18T14:50:16.136Z</time></trkpt><trkpt lat="45.8609037" lon="11.4604317"><ele>954.5</ele><time>2026-04-18T14:50:17.137Z</time></trkpt><trkpt lat="45.860873" lon="11.4602489"><ele>955.25</ele><time>2026-04-18T14:50:18.137Z</time></trkpt><trkpt lat="45.8608328" lon="11.4600618"><ele>956.0</ele><time>2026-04-18T14:50:19.138Z</time></trkpt><trkpt lat="45.860796" lon="11.4598847"><ele>956.0</ele><time>2026-04-18T14:50:20.137Z</time></trkpt><trkpt lat="45.8607583" lon="11.4597158"><ele>956.0</ele><time>2026-04-18T14:50:21.137Z</time></trkpt><trkpt lat="45.8607221" lon="11.4595411"><ele>956.0</ele><time>2026-04-18T14:50:22.137Z</time></trkpt><trkpt lat="45.860685" lon="11.4593641"><ele>956.0</ele><time>2026-04-18T14:50:23.136Z</time></trkpt><trkpt lat="45.8606473" lon="11.4591774"><ele>956.25</ele><time>2026-04-18T14:50:24.137Z</time></trkpt><trkpt lat="45.8606073" lon="11.4589924"><ele>956.5</ele><time>2026-04-18T14:50:25.137Z</time></trkpt><trkpt lat="45.8605636" lon="11.4588027"><ele>956.75</ele><time>2026-04-18T14:50:26.137Z</time></trkpt><trkpt lat="45.8605126" lon="11.4586211"><ele>957.0</ele><time>2026-04-18T14:50:27.137Z</time></trkpt><trkpt lat="45.8604546" lon="11.4584507"><ele>956.0</ele><time>2026-04-18T14:50:28.138Z</time></trkpt><trkpt lat="45.8603902" lon="11.4582972"><ele>955.0</ele><time>2026-04-18T14:50:29.137Z</time></trkpt><trkpt lat="45.860317" lon="11.4581568"><ele>954.0</ele><time>2026-04-18T14:50:30.138Z</time></trkpt><trkpt lat="45.8602451" lon="11.4580264"><ele>953.0</ele><time>2026-04-18T14:50:31.137Z</time></trkpt><trkpt lat="45.8601727" lon="11.4578958"><ele>950.5</ele><time>2026-04-18T14:50:32.138Z</time></trkpt><trkpt lat="45.8600984" lon="11.4577603"><ele>948.0</ele><time>2026-04-18T14:50:33.138Z</time></trkpt><trkpt lat="45.8600234" lon="11.4576195"><ele>945.5</ele><time>2026-04-18T14:50:34.137Z</time></trkpt><trkpt lat="45.8599435" lon="11.4574756"><ele>943.0</ele><time>2026-04-18T14:50:35.138Z</time></trkpt><trkpt lat="45.8598561" lon="11.4573367"><ele>943.0</ele><time>2026-04-18T14:50:36.137Z</time></trkpt><trkpt lat="45.8597571" lon="11.4572274"><ele>943.0</ele><time>2026-04-18T14:50:37.138Z</time></trkpt><trkpt lat="45.859656" lon="11.457125"><ele>943.0</ele><time>2026-04-18T14:50:38.138Z</time></trkpt><trkpt lat="45.8595516" lon="11.457079"><ele>943.0</ele><time>2026-04-18T14:50:39.137Z</time></trkpt><trkpt lat="45.8594296" lon="11.4570663"><ele>943.0</ele><time>2026-04-18T14:50:40.136Z</time></trkpt><trkpt lat="45.8592874" lon="11.4571156"><ele>943.0</ele><time>2026-04-18T14:50:41.137Z</time></trkpt><trkpt lat="45.8591593" lon="11.4571534"><ele>943.0</ele><time>2026-04-18T14:50:42.137Z</time></trkpt><trkpt lat="45.8590316" lon="11.4571661"><ele>943.0</ele><time>2026-04-18T14:50:43.137Z</time></trkpt><trkpt lat="45.8589009" lon="11.4571744"><ele>941.5</ele><time>2026-04-18T14:50:44.136Z</time></trkpt><trkpt lat="45.8587648" lon="11.4571841"><ele>940.0</ele><time>2026-04-18T14:50:45.137Z</time></trkpt><trkpt lat="45.8586327" lon="11.4571883"><ele>938.5</ele><time>2026-04-18T14:50:46.137Z</time></trkpt><trkpt lat="45.8584984" lon="11.4571797"><ele>937.0</ele><time>2026-04-18T14:50:47.138Z</time></trkpt><trkpt lat="45.8583619" lon="11.4571671"><ele>937.0</ele><time>2026-04-18T14:50:48.137Z</time></trkpt><trkpt lat="45.8582271" lon="11.4571561"><ele>937.0</ele><time>2026-04-18T14:50:49.137Z</time></trkpt><trkpt lat="45.8580939" lon="11.4571526"><ele>937.0</ele><time>2026-04-18T14:50:50.137Z</time></trkpt><trkpt lat="45.8579594" lon="11.4571585"><ele>937.0</ele><time>2026-04-18T14:50:51.137Z</time></trkpt><trkpt lat="45.8578278" lon="11.4571701"><ele>937.0</ele><time>2026-04-18T14:50:52.138Z</time></trkpt><trkpt lat="45.8577034" lon="11.4571882"><ele>937.0</ele><time>2026-04-18T14:50:53.137Z</time></trkpt><trkpt lat="45.8575813" lon="11.4572089"><ele>937.0</ele><time>2026-04-18T14:50:54.137Z</time></trkpt><trkpt lat="45.8574659" lon="11.4572314"><ele>937.0</ele><time>2026-04-18T14:50:55.137Z</time></trkpt><trkpt lat="45.8573521" lon="11.4572536"><ele>935.5</ele><time>2026-04-18T14:50:56.138Z</time></trkpt><trkpt lat="45.8572353" lon="11.4572742"><ele>934.0</ele><time>2026-04-18T14:50:57.138Z</time></trkpt><trkpt lat="45.8571203" lon="11.4572944"><ele>932.5</ele><time>2026-04-18T14:50:58.137Z</time></trkpt><trkpt lat="45.8570025" lon="11.457317"><ele>931.0</ele><time>2026-04-18T14:50:59.137Z</time></trkpt><trkpt lat="45.8568912" lon="11.4573413"><ele>929.5999999999999</ele><time>2026-04-18T14:51:00.138Z</time></trkpt><trkpt lat="45.8567762" lon="11.4573538"><ele>928.1999999999999</ele><time>2026-04-18T14:51:01.137Z</time></trkpt><trkpt lat="45.8566661" lon="11.4573516"><ele>926.8000000000001</ele><time>2026-04-18T14:51:02.137Z</time></trkpt><trkpt lat="45.8565671" lon="11.4573233"><ele>925.4000000000001</ele><time>2026-04-18T14:51:03.137Z</time></trkpt><trkpt lat="45.8564794" lon="11.4572719"><ele>924.0</ele><time>2026-04-18T14:51:04.138Z</time></trkpt><trkpt lat="45.8564261" lon="11.4571553"><ele>925.4000000000001</ele><time>2026-04-18T14:51:05.136Z</time></trkpt><trkpt lat="45.856379" lon="11.4570102"><ele>926.8000000000001</ele><time>2026-04-18T14:51:06.137Z</time></trkpt><trkpt lat="45.8563397" lon="11.4568589"><ele>928.1999999999999</ele><time>2026-04-18T14:51:07.136Z</time></trkpt><trkpt lat="45.8562951" lon="11.4567122"><ele>929.5999999999999</ele><time>2026-04-18T14:51:08.137Z</time></trkpt><trkpt lat="45.8562435" lon="11.4565894"><ele>931.0</ele><time>2026-04-18T14:51:09.138Z</time></trkpt><trkpt lat="45.856175" lon="11.4564906"><ele>931.0</ele><time>2026-04-18T14:51:10.138Z</time></trkpt><trkpt lat="45.8560918" lon="11.4564335"><ele>930.9999999999999</ele><time>2026-04-18T14:51:11.138Z</time></trkpt><trkpt lat="45.8559918" lon="11.456419"><ele>930.9999999999999</ele><time>2026-04-18T14:51:12.136Z</time></trkpt><trkpt lat="45.8558849" lon="11.4564294"><ele>931.0</ele><time>2026-04-18T14:51:13.137Z</time></trkpt><trkpt lat="45.8557694" lon="11.4564493"><ele>931.0</ele><time>2026-04-18T14:51:14.138Z</time></trkpt><trkpt lat="45.8556526" lon="11.4564653"><ele>927.5</ele><time>2026-04-18T14:51:15.138Z</time></trkpt><trkpt lat="45.8555293" lon="11.4564798"><ele>924.0</ele><time>2026-04-18T14:51:16.138Z</time></trkpt><trkpt lat="45.8554009" lon="11.4564992"><ele>920.5</ele><time>2026-04-18T14:51:17.136Z</time></trkpt><trkpt lat="45.8552727" lon="11.4565313"><ele>917.0</ele><time>2026-04-18T14:51:18.137Z</time></trkpt><trkpt lat="45.8551388" lon="11.456574"><ele>916.75</ele><time>2026-04-18T14:51:19.138Z</time></trkpt><trkpt lat="45.8550128" lon="11.4566236"><ele>916.5</ele><time>2026-04-18T14:51:20.138Z</time></trkpt><trkpt lat="45.8548901" lon="11.4566721"><ele>916.25</ele><time>2026-04-18T14:51:21.136Z</time></trkpt><trkpt lat="45.8547748" lon="11.4567168"><ele>916.0</ele><time>2026-04-18T14:51:22.136Z</time></trkpt><trkpt lat="45.8546618" lon="11.4567598"><ele>916.0</ele><time>2026-04-18T14:51:23.137Z</time></trkpt><trkpt lat="45.8545505" lon="11.4567875"><ele>916.0</ele><time>2026-04-18T14:51:24.138Z</time></trkpt><trkpt lat="45.8544402" lon="11.4567954"><ele>916.0</ele><time>2026-04-18T14:51:25.137Z</time></trkpt><trkpt lat="45.8543247" lon="11.4567759"><ele>916.0</ele><time>2026-04-18T14:51:26.138Z</time></trkpt><trkpt lat="45.8542083" lon="11.4567353"><ele>914.0</ele><time>2026-04-18T14:51:27.136Z</time></trkpt><trkpt lat="45.8540891" lon="11.456685"><ele>912.0</ele><time>2026-04-18T14:51:28.137Z</time></trkpt><trkpt lat="45.8539666" lon="11.4566237"><ele>910.0</ele><time>2026-04-18T14:51:29.137Z</time></trkpt><trkpt lat="45.8538482" lon="11.4565382"><ele>908.0</ele><time>2026-04-18T14:51:30.137Z</time></trkpt><trkpt lat="45.8537305" lon="11.4564351"><ele>908.0</ele><time>2026-04-18T14:51:31.138Z</time></trkpt><trkpt lat="45.8536126" lon="11.456329"><ele>908.0</ele><time>2026-04-18T14:51:32.136Z</time></trkpt><trkpt lat="45.8534989" lon="11.4562317"><ele>908.0</ele><time>2026-04-18T14:51:33.136Z</time></trkpt><trkpt lat="45.8533878" lon="11.4561525"><ele>908.0</ele><time>2026-04-18T14:51:34.138Z</time></trkpt><trkpt lat="45.8532768" lon="11.4561017"><ele>910.0</ele><time>2026-04-18T14:51:35.137Z</time></trkpt><trkpt lat="45.8531658" lon="11.4560866"><ele>912.0</ele><time>2026-04-18T14:51:36.137Z</time></trkpt><trkpt lat="45.853049" lon="11.4560981"><ele>914.0</ele><time>2026-04-18T14:51:37.137Z</time></trkpt><trkpt lat="45.8529274" lon="11.4561341"><ele>916.0</ele><time>2026-04-18T14:51:38.138Z</time></trkpt><trkpt lat="45.8528016" lon="11.4561811"><ele>916.0</ele><time>2026-04-18T14:51:39.137Z</time></trkpt><trkpt lat="45.8526742" lon="11.4562311"><ele>916.0</ele><time>2026-04-18T14:51:40.137Z</time></trkpt><trkpt lat="45.8525397" lon="11.4562823"><ele>916.0</ele><time>2026-04-18T14:51:41.137Z</time></trkpt><trkpt lat="45.8524036" lon="11.4563453"><ele>916.0</ele><time>2026-04-18T14:51:42.137Z</time></trkpt><trkpt lat="45.8522656" lon="11.4564117"><ele>911.5</ele><time>2026-04-18T14:51:43.136Z</time></trkpt><trkpt lat="45.8521285" lon="11.4564793"><ele>907.0</ele><time>2026-04-18T14:51:44.136Z</time></trkpt><trkpt lat="45.8519976" lon="11.4565385"><ele>902.5</ele><time>2026-04-18T14:51:45.137Z</time></trkpt><trkpt lat="45.8518741" lon="11.4565918"><ele>898.0</ele><time>2026-04-18T14:51:46.137Z</time></trkpt><trkpt lat="45.8517563" lon="11.4566473"><ele>898.0</ele><time>2026-04-18T14:51:47.137Z</time></trkpt><trkpt lat="45.8516472" lon="11.4566954"><ele>898.0</ele><time>2026-04-18T14:51:48.137Z</time></trkpt><trkpt lat="45.851546" lon="11.4567404"><ele>898.0</ele><time>2026-04-18T14:51:49.137Z</time></trkpt><trkpt lat="45.8514487" lon="11.4567771"><ele>898.0</ele><time>2026-04-18T14:51:50.137Z</time></trkpt><trkpt lat="45.851353" lon="11.456799"><ele>898.0</ele><time>2026-04-18T14:51:51.137Z</time></trkpt><trkpt lat="45.8512559" lon="11.4567905"><ele>898.0</ele><time>2026-04-18T14:51:52.136Z</time></trkpt><trkpt lat="45.8511587" lon="11.4567439"><ele>898.0</ele><time>2026-04-18T14:51:53.136Z</time></trkpt><trkpt lat="45.8510768" lon="11.4566556"><ele>898.0</ele><time>2026-04-18T14:51:54.137Z</time></trkpt><trkpt lat="45.8510137" lon="11.4565283"><ele>898.0</ele><time>2026-04-18T14:51:55.138Z</time></trkpt><trkpt lat="45.8509662" lon="11.4563718"><ele>898.0</ele><time>2026-04-18T14:51:56.136Z</time></trkpt><trkpt lat="45.8509244" lon="11.4562"><ele>901.0</ele><time>2026-04-18T14:51:57.137Z</time></trkpt><trkpt lat="45.8508888" lon="11.4560193"><ele>904.0</ele><time>2026-04-18T14:51:58.137Z</time></trkpt><trkpt lat="45.8508434" lon="11.4558391"><ele>907.0</ele><time>2026-04-18T14:51:59.137Z</time></trkpt><trkpt lat="45.8507805" lon="11.4556712"><ele>910.0</ele><time>2026-04-18T14:52:00.137Z</time></trkpt><trkpt lat="45.8507008" lon="11.4555178"><ele>908.75</ele><time>2026-04-18T14:52:01.138Z</time></trkpt><trkpt lat="45.8506191" lon="11.4553602"><ele>907.5</ele><time>2026-04-18T14:52:02.137Z</time></trkpt><trkpt lat="45.8505398" lon="11.4551933"><ele>906.25</ele><time>2026-04-18T14:52:03.137Z</time></trkpt><trkpt lat="45.8504713" lon="11.4550167"><ele>905.0</ele><time>2026-04-18T14:52:04.138Z</time></trkpt><trkpt lat="45.8504112" lon="11.4548442"><ele>905.0</ele><time>2026-04-18T14:52:05.137Z</time></trkpt><trkpt lat="45.8503481" lon="11.4546929"><ele>905.0</ele><time>2026-04-18T14:52:06.137Z</time></trkpt><trkpt lat="45.8502729" lon="11.4545563"><ele>905.0</ele><time>2026-04-18T14:52:07.138Z</time></trkpt><trkpt lat="45.8501905" lon="11.4544297"><ele>905.0</ele><time>2026-04-18T14:52:08.138Z</time></trkpt><trkpt lat="45.8501086" lon="11.454306"><ele>908.0</ele><time>2026-04-18T14:52:09.136Z</time></trkpt><trkpt lat="45.8500339" lon="11.4541696"><ele>911.0</ele><time>2026-04-18T14:52:10.137Z</time></trkpt><trkpt lat="45.8499651" lon="11.4540275"><ele>914.0</ele><time>2026-04-18T14:52:11.137Z</time></trkpt><trkpt lat="45.8498987" lon="11.4538779"><ele>917.0</ele><time>2026-04-18T14:52:12.137Z</time></trkpt><trkpt lat="45.849831" lon="11.4537276"><ele>917.0</ele><time>2026-04-18T14:52:13.137Z</time></trkpt><trkpt lat="45.8497613" lon="11.4535802"><ele>917.0</ele><time>2026-04-18T14:52:14.138Z</time></trkpt><trkpt lat="45.8496805" lon="11.453453"><ele>917.0</ele><time>2026-04-18T14:52:15.137Z</time></trkpt><trkpt lat="45.8495955" lon="11.4533546"><ele>917.0</ele><time>2026-04-18T14:52:16.136Z</time></trkpt><trkpt lat="45.8494985" lon="11.4532902"><ele>917.0</ele><time>2026-04-18T14:52:17.137Z</time></trkpt><trkpt lat="45.8493929" lon="11.4532647"><ele>917.0</ele><time>2026-04-18T14:52:18.137Z</time></trkpt><trkpt lat="45.8492854" lon="11.453264"><ele>917.0</ele><time>2026-04-18T14:52:19.137Z</time></trkpt><trkpt lat="45.8491726" lon="11.45328"><ele>917.0</ele><time>2026-04-18T14:52:20.138Z</time></trkpt><trkpt lat="45.8490599" lon="11.4533063"><ele>917.0</ele><time>2026-04-18T14:52:21.137Z</time></trkpt><trkpt lat="45.8489466" lon="11.4533456"><ele>918.1666666666667</ele><time>2026-04-18T14:52:22.137Z</time></trkpt><trkpt lat="45.8488389" lon="11.4533854"><ele>919.3333333333334</ele><time>2026-04-18T14:52:23.137Z</time></trkpt><trkpt lat="45.8487454" lon="11.4534125"><ele>920.5</ele><time>2026-04-18T14:52:24.136Z</time></trkpt><trkpt lat="45.8486654" lon="11.4534137"><ele>921.6666666666667</ele><time>2026-04-18T14:52:25.137Z</time></trkpt><trkpt lat="45.8486024" lon="11.4533697"><ele>922.8333333333334</ele><time>2026-04-18T14:52:26.138Z</time></trkpt><trkpt lat="45.8485591" lon="11.4532952"><ele>924.0</ele><time>2026-04-18T14:52:27.136Z</time></trkpt><trkpt lat="45.8485496" lon="11.4531937"><ele>924.0</ele><time>2026-04-18T14:52:28.137Z</time></trkpt><trkpt lat="45.8485674" lon="11.453088"><ele>924.0</ele><time>2026-04-18T14:52:29.137Z</time></trkpt><trkpt lat="45.8486088" lon="11.4529861"><ele>924.0</ele><time>2026-04-18T14:52:30.138Z</time></trkpt><trkpt lat="45.8486608" lon="11.4528856"><ele>924.0</ele><time>2026-04-18T14:52:31.136Z</time></trkpt><trkpt lat="45.8487008" lon="11.4527805"><ele>924.0</ele><time>2026-04-18T14:52:32.138Z</time></trkpt><trkpt lat="45.848726" lon="11.4526673"><ele>924.0</ele><time>2026-04-18T14:52:33.138Z</time></trkpt><trkpt lat="45.8487375" lon="11.4525423"><ele>923.4000000000001</ele><time>2026-04-18T14:52:34.137Z</time></trkpt><trkpt lat="45.8487484" lon="11.4524093"><ele>922.8000000000001</ele><time>2026-04-18T14:52:35.137Z</time></trkpt><trkpt lat="45.8487534" lon="11.4522667"><ele>922.1999999999999</ele><time>2026-04-18T14:52:36.137Z</time></trkpt><trkpt lat="45.8487501" lon="11.4521204"><ele>921.5999999999999</ele><time>2026-04-18T14:52:37.138Z</time></trkpt><trkpt lat="45.8487316" lon="11.4519693"><ele>921.0</ele><time>2026-04-18T14:52:38.137Z</time></trkpt><trkpt lat="45.8486808" lon="11.4518278"><ele>921.0</ele><time>2026-04-18T14:52:39.137Z</time></trkpt><trkpt lat="45.848602" lon="11.4516977"><ele>921.0</ele><time>2026-04-18T14:52:40.137Z</time></trkpt><trkpt lat="45.8485098" lon="11.4515821"><ele>921.0</ele><time>2026-04-18T14:52:41.137Z</time></trkpt><trkpt lat="45.8484149" lon="11.4514712"><ele>921.0</ele><time>2026-04-18T14:52:42.137Z</time></trkpt><trkpt lat="45.848323" lon="11.4513595"><ele>922.0</ele><time>2026-04-18T14:52:43.138Z</time></trkpt><trkpt lat="45.8482325" lon="11.4512451"><ele>923.0</ele><time>2026-04-18T14:52:44.137Z</time></trkpt><trkpt lat="45.8481437" lon="11.4511445"><ele>924.0</ele><time>2026-04-18T14:52:45.137Z</time></trkpt><trkpt lat="45.8480581" lon="11.4510487"><ele>925.0</ele><time>2026-04-18T14:52:46.138Z</time></trkpt><trkpt lat="45.8479732" lon="11.4509524"><ele>925.0</ele><time>2026-04-18T14:52:47.137Z</time></trkpt><trkpt lat="45.8478882" lon="11.4508546"><ele>925.0</ele><time>2026-04-18T14:52:48.138Z</time></trkpt><trkpt lat="45.8478065" lon="11.4507509"><ele>925.0</ele><time>2026-04-18T14:52:49.137Z</time></trkpt><trkpt lat="45.8477227" lon="11.4506496"><ele>925.0</ele><time>2026-04-18T14:52:50.138Z</time></trkpt><trkpt lat="45.8476358" lon="11.4505483"><ele>925.0</ele><time>2026-04-18T14:52:51.137Z</time></trkpt><trkpt lat="45.8475435" lon="11.4504548"><ele>927.0</ele><time>2026-04-18T14:52:52.138Z</time></trkpt><trkpt lat="45.8474455" lon="11.450371"><ele>929.0</ele><time>2026-04-18T14:52:53.137Z</time></trkpt><trkpt lat="45.8473393" lon="11.4502954"><ele>931.0</ele><time>2026-04-18T14:52:54.137Z</time></trkpt><trkpt lat="45.8472286" lon="11.4502258"><ele>933.0</ele><time>2026-04-18T14:52:55.138Z</time></trkpt><trkpt lat="45.8471128" lon="11.4501563"><ele>933.0</ele><time>2026-04-18T14:52:56.137Z</time></trkpt><trkpt lat="45.8469926" lon="11.4500902"><ele>933.0</ele><time>2026-04-18T14:52:57.137Z</time></trkpt><trkpt lat="45.8468664" lon="11.4500204"><ele>933.0</ele><time>2026-04-18T14:52:58.137Z</time></trkpt><trkpt lat="45.8467371" lon="11.4499463"><ele>933.0</ele><time>2026-04-18T14:52:59.137Z</time></trkpt><trkpt lat="45.8466036" lon="11.4498655"><ele>935.0</ele><time>2026-04-18T14:53:00.136Z</time></trkpt><trkpt lat="45.8464682" lon="11.4497799"><ele>937.0</ele><time>2026-04-18T14:53:01.138Z</time></trkpt><trkpt lat="45.8463356" lon="11.449677"><ele>939.0</ele><time>2026-04-18T14:53:02.138Z</time></trkpt><trkpt lat="45.8462246" lon="11.4495643"><ele>941.0</ele><time>2026-04-18T14:53:03.137Z</time></trkpt><trkpt lat="45.8461336" lon="11.449445"><ele>941.0</ele><time>2026-04-18T14:53:04.137Z</time></trkpt><trkpt lat="45.8460613" lon="11.4493261"><ele>940.9999999999999</ele><time>2026-04-18T14:53:05.138Z</time></trkpt><trkpt lat="45.8460083" lon="11.4492045"><ele>940.9999999999999</ele><time>2026-04-18T14:53:06.136Z</time></trkpt><trkpt lat="45.8459776" lon="11.4490739"><ele>941.0</ele><time>2026-04-18T14:53:07.137Z</time></trkpt><trkpt lat="45.8459843" lon="11.4489455"><ele>941.0</ele><time>2026-04-18T14:53:08.137Z</time></trkpt><trkpt lat="45.8460229" lon="11.4488184"><ele>943.0</ele><time>2026-04-18T14:53:09.136Z</time></trkpt><trkpt lat="45.8460872" lon="11.4487088"><ele>944.9999999999999</ele><time>2026-04-18T14:53:10.136Z</time></trkpt><trkpt lat="45.8461736" lon="11.4486144"><ele>946.9999999999999</ele><time>2026-04-18T14:53:11.137Z</time></trkpt><trkpt lat="45.846269" lon="11.4485266"><ele>949.0</ele><time>2026-04-18T14:53:12.137Z</time></trkpt><trkpt lat="45.8463637" lon="11.4484317"><ele>951.0</ele><time>2026-04-18T14:53:13.138Z</time></trkpt><trkpt lat="45.8464541" lon="11.448322"><ele>951.0</ele><time>2026-04-18T14:53:14.136Z</time></trkpt><trkpt lat="45.846537" lon="11.4481991"><ele>951.0</ele><time>2026-04-18T14:53:15.138Z</time></trkpt><trkpt lat="45.8466148" lon="11.4480598"><ele>951.0</ele><time>2026-04-18T14:53:16.137Z</time></trkpt><trkpt lat="45.8466904" lon="11.4479181"><ele>951.0</ele><time>2026-04-18T14:53:17.137Z</time></trkpt><trkpt lat="45.8467629" lon="11.4477764"><ele>952.0</ele><time>2026-04-18T14:53:18.136Z</time></trkpt><trkpt lat="45.8468318" lon="11.4476369"><ele>953.0</ele><time>2026-04-18T14:53:19.138Z</time></trkpt><trkpt lat="45.8469002" lon="11.4474992"><ele>954.0</ele><time>2026-04-18T14:53:20.138Z</time></trkpt><trkpt lat="45.8469663" lon="11.4473665"><ele>955.0</ele><time>2026-04-18T14:53:21.137Z</time></trkpt><trkpt lat="45.8470248" lon="11.4472509"><ele>955.0</ele><time>2026-04-18T14:53:22.137Z</time></trkpt><trkpt lat="45.8470791" lon="11.4471328"><ele>955.0</ele><time>2026-04-18T14:53:23.137Z</time></trkpt><trkpt lat="45.8471381" lon="11.4470242"><ele>955.0</ele><time>2026-04-18T14:53:24.137Z</time></trkpt><trkpt lat="45.8472081" lon="11.4469198"><ele>955.0</ele><time>2026-04-18T14:53:25.137Z</time></trkpt><trkpt lat="45.8472894" lon="11.4468419"><ele>955.0</ele><time>2026-04-18T14:53:26.137Z</time></trkpt><trkpt lat="45.8473693" lon="11.4468004"><ele>956.3333333333333</ele><time>2026-04-18T14:53:27.138Z</time></trkpt><trkpt lat="45.8474534" lon="11.4467991"><ele>957.6666666666666</ele><time>2026-04-18T14:53:28.137Z</time></trkpt><trkpt lat="45.8475302" lon="11.446837"><ele>959.0</ele><time>2026-04-18T14:53:29.137Z</time></trkpt><trkpt lat="45.847602" lon="11.4469021"><ele>960.3333333333333</ele><time>2026-04-18T14:53:30.137Z</time></trkpt><trkpt lat="45.8476771" lon="11.4469761"><ele>961.6666666666666</ele><time>2026-04-18T14:53:31.137Z</time></trkpt><trkpt lat="45.8477574" lon="11.4470522"><ele>963.0</ele><time>2026-04-18T14:53:32.138Z</time></trkpt><trkpt lat="45.8478389" lon="11.4471368"><ele>963.0</ele><time>2026-04-18T14:53:33.138Z</time></trkpt><trkpt lat="45.8479252" lon="11.4472112"><ele>963.0</ele><time>2026-04-18T14:53:34.137Z</time></trkpt><trkpt lat="45.8480199" lon="11.4472769"><ele>963.0</ele><time>2026-04-18T14:53:35.137Z</time></trkpt><trkpt lat="45.8481154" lon="11.4473389"><ele>963.0</ele><time>2026-04-18T14:53:36.137Z</time></trkpt><trkpt lat="45.8482094" lon="11.4473929"><ele>963.0</ele><time>2026-04-18T14:53:37.137Z</time></trkpt><trkpt lat="45.8482954" lon="11.4474355"><ele>963.0000000000001</ele><time>2026-04-18T14:53:38.138Z</time></trkpt><trkpt lat="45.8483766" lon="11.4474657"><ele>963.0</ele><time>2026-04-18T14:53:39.137Z</time></trkpt><trkpt lat="45.8484465" lon="11.4474878"><ele>963.0000000000001</ele><time>2026-04-18T14:53:40.136Z</time></trkpt><trkpt lat="45.8485183" lon="11.4475044"><ele>963.0000000000001</ele><time>2026-04-18T14:53:41.137Z</time></trkpt><trkpt lat="45.8485912" lon="11.4474991"><ele>963.0</ele><time>2026-04-18T14:53:42.137Z</time></trkpt><trkpt lat="45.8486548" lon="11.4474548"><ele>963.0000000000001</ele><time>2026-04-18T14:53:43.137Z</time></trkpt><trkpt lat="45.8487023" lon="11.447374"><ele>963.0000000000001</ele><time>2026-04-18T14:53:44.137Z</time></trkpt><trkpt lat="45.8487132" lon="11.4472709"><ele>964.4</ele><time>2026-04-18T14:53:45.137Z</time></trkpt><trkpt lat="45.8486843" lon="11.4471751"><ele>965.8</ele><time>2026-04-18T14:53:46.136Z</time></trkpt><trkpt lat="45.8486184" lon="11.4471019"><ele>967.2</ele><time>2026-04-18T14:53:47.137Z</time></trkpt><trkpt lat="45.8485289" lon="11.4470524"><ele>968.6</ele><time>2026-04-18T14:53:48.138Z</time></trkpt><trkpt lat="45.8484261" lon="11.4470055"><ele>970.0</ele><time>2026-04-18T14:53:49.137Z</time></trkpt><trkpt lat="45.8483165" lon="11.4469517"><ele>971.75</ele><time>2026-04-18T14:53:50.138Z</time></trkpt><trkpt lat="45.848211" lon="11.4468909"><ele>973.5</ele><time>2026-04-18T14:53:51.138Z</time></trkpt><trkpt lat="45.8480983" lon="11.44682"><ele>975.25</ele><time>2026-04-18T14:53:52.138Z</time></trkpt><trkpt lat="45.8479868" lon="11.446721"><ele>977.0</ele><time>2026-04-18T14:53:53.137Z</time></trkpt><trkpt lat="45.8478879" lon="11.446602"><ele>977.0</ele><time>2026-04-18T14:53:54.138Z</time></trkpt><trkpt lat="45.8478026" lon="11.4464552"><ele>977.0</ele><time>2026-04-18T14:53:55.138Z</time></trkpt><trkpt lat="45.8477305" lon="11.4462808"><ele>977.0</ele><time>2026-04-18T14:53:56.136Z</time></trkpt><trkpt lat="45.8476475" lon="11.4460883"><ele>977.0</ele><time>2026-04-18T14:53:57.137Z</time></trkpt><trkpt lat="45.8475349" lon="11.4458959"><ele>978.0</ele><time>2026-04-18T14:53:58.137Z</time></trkpt><trkpt lat="45.8473958" lon="11.445729"><ele>979.0</ele><time>2026-04-18T14:53:59.138Z</time></trkpt><trkpt lat="45.8472316" lon="11.4456096"><ele>980.0</ele><time>2026-04-18T14:54:00.138Z</time></trkpt><trkpt lat="45.8470572" lon="11.4455236"><ele>980.0</ele><time>2026-04-18T14:54:01.138Z</time></trkpt><trkpt lat="45.8468963" lon="11.4454684"><ele>980.0</ele><time>2026-04-18T14:54:02.137Z</time></trkpt><trkpt lat="45.8467518" lon="11.4454133"><ele>980.0</ele><time>2026-04-18T14:54:03.137Z</time></trkpt><trkpt lat="45.8466382" lon="11.4453616"><ele>980.0</ele><time>2026-04-18T14:54:04.137Z</time></trkpt><trkpt lat="45.8465447" lon="11.4453107"><ele>981.4</ele><time>2026-04-18T14:54:05.138Z</time></trkpt><trkpt lat="45.8464757" lon="11.4452501"><ele>982.8</ele><time>2026-04-18T14:54:06.138Z</time></trkpt><trkpt lat="45.846419" lon="11.4451723"><ele>984.2</ele><time>2026-04-18T14:54:07.138Z</time></trkpt><trkpt lat="45.8463698" lon="11.4450598"><ele>985.6</ele><time>2026-04-18T14:54:08.138Z</time></trkpt><trkpt lat="45.8463427" lon="11.4449039"><ele>987.0</ele><time>2026-04-18T14:54:09.136Z</time></trkpt><trkpt lat="45.8463032" lon="11.4447287"><ele>988.25</ele><time>2026-04-18T14:54:10.138Z</time></trkpt><trkpt lat="45.8462385" lon="11.4445666"><ele>989.5</ele><time>2026-04-18T14:54:11.137Z</time></trkpt><trkpt lat="45.8461439" lon="11.4444308"><ele>990.75</ele><time>2026-04-18T14:54:12.137Z</time></trkpt><trkpt lat="45.8460289" lon="11.4443148"><ele>992.0</ele><time>2026-04-18T14:54:13.137Z</time></trkpt><trkpt lat="45.8458903" lon="11.4442318"><ele>992.25</ele><time>2026-04-18T14:54:14.137Z</time></trkpt><trkpt lat="45.8457621" lon="11.4441563"><ele>992.5</ele><time>2026-04-18T14:54:15.136Z</time></trkpt><trkpt lat="45.8456737" lon="11.4440554"><ele>992.75</ele><time>2026-04-18T14:54:16.138Z</time></trkpt><trkpt lat="45.8456107" lon="11.4439352"><ele>993.0</ele><time>2026-04-18T14:54:17.137Z</time></trkpt><trkpt lat="45.8455682" lon="11.4437715"><ele>993.5</ele><time>2026-04-18T14:54:18.137Z</time></trkpt><trkpt lat="45.8455413" lon="11.4435767"><ele>994.0</ele><time>2026-04-18T14:54:19.137Z</time></trkpt><trkpt lat="45.845498" lon="11.4433905"><ele>994.5</ele><time>2026-04-18T14:54:20.137Z</time></trkpt><trkpt lat="45.8454303" lon="11.4432311"><ele>995.0</ele><time>2026-04-18T14:54:21.137Z</time></trkpt><trkpt lat="45.8453393" lon="11.4431073"><ele>995.0</ele><time>2026-04-18T14:54:22.136Z</time></trkpt><trkpt lat="45.8452328" lon="11.4430334"><ele>995.0</ele><time>2026-04-18T14:54:23.138Z</time></trkpt><trkpt lat="45.8451176" lon="11.4430108"><ele>995.0</ele><time>2026-04-18T14:54:24.137Z</time></trkpt><trkpt lat="45.8449969" lon="11.4430361"><ele>995.0</ele><time>2026-04-18T14:54:25.137Z</time></trkpt><trkpt lat="45.8448739" lon="11.4431214"><ele>996.0</ele><time>2026-04-18T14:54:26.138Z</time></trkpt><trkpt lat="45.8447524" lon="11.4432379"><ele>997.0</ele><time>2026-04-18T14:54:27.138Z</time></trkpt><trkpt lat="45.8446253" lon="11.4433596"><ele>998.0</ele><time>2026-04-18T14:54:28.136Z</time></trkpt><trkpt lat="45.8445141" lon="11.4434523"><ele>999.0</ele><time>2026-04-18T14:54:29.136Z</time></trkpt><trkpt lat="45.8443981" lon="11.4435048"><ele>999.6</ele><time>2026-04-18T14:54:30.138Z</time></trkpt><trkpt lat="45.8442866" lon="11.4435228"><ele>1000.2</ele><time>2026-04-18T14:54:31.138Z</time></trkpt><trkpt lat="45.8441867" lon="11.4434947"><ele>1000.8000000000001</ele><time>2026-04-18T14:54:32.137Z</time></trkpt><trkpt lat="45.8440964" lon="11.4434364"><ele>1001.4000000000001</ele><time>2026-04-18T14:54:33.138Z</time></trkpt><trkpt lat="45.8440253" lon="11.4433396"><ele>1002.0</ele><time>2026-04-18T14:54:34.138Z</time></trkpt><trkpt lat="45.84398" lon="11.4432148"><ele>1002.0</ele><time>2026-04-18T14:54:35.137Z</time></trkpt><trkpt lat="45.8439569" lon="11.4430591"><ele>1002.0</ele><time>2026-04-18T14:54:36.138Z</time></trkpt><trkpt lat="45.8439393" lon="11.4428776"><ele>1002.0</ele><time>2026-04-18T14:54:37.138Z</time></trkpt><trkpt lat="45.8439215" lon="11.4426841"><ele>1002.0</ele><time>2026-04-18T14:54:38.137Z</time></trkpt><trkpt lat="45.8439058" lon="11.4424839"><ele>1004.6666666666667</ele><time>2026-04-18T14:54:39.137Z</time></trkpt><trkpt lat="45.8438913" lon="11.4422699"><ele>1007.3333333333334</ele><time>2026-04-18T14:54:40.138Z</time></trkpt><trkpt lat="45.8438758" lon="11.4420524"><ele>1010.0</ele><time>2026-04-18T14:54:41.137Z</time></trkpt><trkpt lat="45.8438556" lon="11.4418284"><ele>1010.75</ele><time>2026-04-18T14:54:42.138Z</time></trkpt><trkpt lat="45.8438389" lon="11.4415947"><ele>1011.5</ele><time>2026-04-18T14:54:43.137Z</time></trkpt><trkpt lat="45.8438297" lon="11.4413753"><ele>1012.25</ele><time>2026-04-18T14:54:44.136Z</time></trkpt><trkpt lat="45.8438215" lon="11.4411983"><ele>1013.0</ele><time>2026-04-18T14:54:45.138Z</time></trkpt><trkpt lat="45.8437854" lon="11.4410575"><ele>1013.8</ele><time>2026-04-18T14:54:46.137Z</time></trkpt><trkpt lat="45.8437273" lon="11.4409509"><ele>1014.5999999999999</ele><time>2026-04-18T14:54:47.137Z</time></trkpt><trkpt lat="45.843645" lon="11.44089"><ele>1015.4000000000001</ele><time>2026-04-18T14:54:48.136Z</time></trkpt><trkpt lat="45.8435485" lon="11.4408932"><ele>1016.2</ele><time>2026-04-18T14:54:49.138Z</time></trkpt><trkpt lat="45.8434412" lon="11.4409395"><ele>1017.0</ele><time>2026-04-18T14:54:50.138Z</time></trkpt><trkpt lat="45.8433237" lon="11.4410034"><ele>1019.0</ele><time>2026-04-18T14:54:51.138Z</time></trkpt><trkpt lat="45.8431924" lon="11.4410675"><ele>1021.0</ele><time>2026-04-18T14:54:52.136Z</time></trkpt><trkpt lat="45.843052" lon="11.44114"><ele>1023.0</ele><time>2026-04-18T14:54:53.137Z</time></trkpt><trkpt lat="45.8429227" lon="11.4412051"><ele>1025.0</ele><time>2026-04-18T14:54:54.138Z</time></trkpt><trkpt lat="45.842814" lon="11.4412322"><ele>1025.0</ele><time>2026-04-18T14:54:55.138Z</time></trkpt><trkpt lat="45.8427203" lon="11.4412124"><ele>1025.0</ele><time>2026-04-18T14:54:56.137Z</time></trkpt><trkpt lat="45.8426509" lon="11.4411435"><ele>1025.0</ele><time>2026-04-18T14:54:57.136Z</time></trkpt><trkpt lat="45.8426096" lon="11.4410284"><ele>1025.0</ele><time>2026-04-18T14:54:58.138Z</time></trkpt><trkpt lat="45.8425998" lon="11.4408839"><ele>1025.0</ele><time>2026-04-18T14:54:59.137Z</time></trkpt><trkpt lat="45.8426168" lon="11.4407291"><ele>1025.0</ele><time>2026-04-18T14:55:00.138Z</time></trkpt><trkpt lat="45.8426467" lon="11.4405624"><ele>1025.0</ele><time>2026-04-18T14:55:01.137Z</time></trkpt><trkpt lat="45.8426879" lon="11.4403793"><ele>1025.0</ele><time>2026-04-18T14:55:02.138Z</time></trkpt><trkpt lat="45.8427325" lon="11.4401873"><ele>1025.0</ele><time>2026-04-18T14:55:03.136Z</time></trkpt><trkpt lat="45.8427708" lon="11.4399862"><ele>1027.0</ele><time>2026-04-18T14:55:04.137Z</time></trkpt><trkpt lat="45.8428036" lon="11.4397974"><ele>1029.0</ele><time>2026-04-18T14:55:05.138Z</time></trkpt><trkpt lat="45.8428346" lon="11.4396285"><ele>1031.0</ele><time>2026-04-18T14:55:06.136Z</time></trkpt><trkpt lat="45.8428643" lon="11.4394761"><ele>1033.0</ele><time>2026-04-18T14:55:07.138Z</time></trkpt><trkpt lat="45.842897" lon="11.4393348"><ele>1033.8</ele><time>2026-04-18T14:55:08.138Z</time></trkpt><trkpt lat="45.8429242" lon="11.4391912"><ele>1034.6</ele><time>2026-04-18T14:55:09.137Z</time></trkpt><trkpt lat="45.8429531" lon="11.4390509"><ele>1035.4</ele><time>2026-04-18T14:55:10.137Z</time></trkpt><trkpt lat="45.8429822" lon="11.4389102"><ele>1036.2</ele><time>2026-04-18T14:55:11.138Z</time></trkpt><trkpt lat="45.8430118" lon="11.4387664"><ele>1037.0</ele><time>2026-04-18T14:55:12.137Z</time></trkpt><trkpt lat="45.8430423" lon="11.4386174"><ele>1037.8</ele><time>2026-04-18T14:55:13.136Z</time></trkpt><trkpt lat="45.8430721" lon="11.4384676"><ele>1038.6</ele><time>2026-04-18T14:55:14.137Z</time></trkpt><trkpt lat="45.8431012" lon="11.4383175"><ele>1039.3999999999999</ele><time>2026-04-18T14:55:15.138Z</time></trkpt><trkpt lat="45.8431295" lon="11.4381637"><ele>1040.2</ele><time>2026-04-18T14:55:16.138Z</time></trkpt><trkpt lat="45.8431609" lon="11.4380037"><ele>1041.0</ele><time>2026-04-18T14:55:17.138Z</time></trkpt><trkpt lat="45.8431914" lon="11.4378459"><ele>1042.75</ele><time>2026-04-18T14:55:18.137Z</time></trkpt><trkpt lat="45.8432271" lon="11.437688"><ele>1044.5</ele><time>2026-04-18T14:55:19.137Z</time></trkpt><trkpt lat="45.8432622" lon="11.4375245"><ele>1046.25</ele><time>2026-04-18T14:55:20.136Z</time></trkpt><trkpt lat="45.8432982" lon="11.437363"><ele>1048.0</ele><time>2026-04-18T14:55:21.138Z</time></trkpt><trkpt lat="45.8433333" lon="11.4372011"><ele>1048.8</ele><time>2026-04-18T14:55:22.137Z</time></trkpt><trkpt lat="45.8433617" lon="11.4370463"><ele>1049.6</ele><time>2026-04-18T14:55:23.137Z</time></trkpt><trkpt lat="45.8433895" lon="11.4369053"><ele>1050.4</ele><time>2026-04-18T14:55:24.137Z</time></trkpt><trkpt lat="45.843417" lon="11.4367711"><ele>1051.2</ele><time>2026-04-18T14:55:25.138Z</time></trkpt><trkpt lat="45.8434428" lon="11.4366345"><ele>1052.0</ele><time>2026-04-18T14:55:26.137Z</time></trkpt><trkpt lat="45.8434571" lon="11.4364987"><ele>1052.0</ele><time>2026-04-18T14:55:27.136Z</time></trkpt><trkpt lat="45.843454" lon="11.4363743"><ele>1052.0</ele><time>2026-04-18T14:55:28.137Z</time></trkpt><trkpt lat="45.8434293" lon="11.4362629"><ele>1052.0</ele><time>2026-04-18T14:55:29.137Z</time></trkpt><trkpt lat="45.8433871" lon="11.4361533"><ele>1052.0</ele><time>2026-04-18T14:55:30.137Z</time></trkpt><trkpt lat="45.8433285" lon="11.4360472"><ele>1052.0</ele><time>2026-04-18T14:55:31.138Z</time></trkpt><trkpt lat="45.8432568" lon="11.4359448"><ele>1051.5</ele><time>2026-04-18T14:55:32.136Z</time></trkpt><trkpt lat="45.8431736" lon="11.4358434"><ele>1051.0</ele><time>2026-04-18T14:55:33.138Z</time></trkpt><trkpt lat="45.8430817" lon="11.4357442"><ele>1050.5</ele><time>2026-04-18T14:55:34.136Z</time></trkpt><trkpt lat="45.8429845" lon="11.4356465"><ele>1050.0</ele><time>2026-04-18T14:55:35.137Z</time></trkpt><trkpt lat="45.842891" lon="11.4355515"><ele>1050.25</ele><time>2026-04-18T14:55:36.136Z</time></trkpt><trkpt lat="45.8427964" lon="11.4354529"><ele>1050.5</ele><time>2026-04-18T14:55:37.138Z</time></trkpt><trkpt lat="45.8427038" lon="11.4353587"><ele>1050.75</ele><time>2026-04-18T14:55:38.137Z</time></trkpt><trkpt lat="45.8426105" lon="11.4352646"><ele>1051.0</ele><time>2026-04-18T14:55:39.138Z</time></trkpt><trkpt lat="45.84252" lon="11.4351702"><ele>1051.0</ele><time>2026-04-18T14:55:40.137Z</time></trkpt><trkpt lat="45.8424301" lon="11.4350818"><ele>1051.0</ele><time>2026-04-18T14:55:41.137Z</time></trkpt><trkpt lat="45.8423519" lon="11.4350059"><ele>1051.0</ele><time>2026-04-18T14:55:42.138Z</time></trkpt><trkpt lat="45.8422772" lon="11.4349312"><ele>1051.0</ele><time>2026-04-18T14:55:43.137Z</time></trkpt><trkpt lat="45.842208" lon="11.4348603"><ele>1051.0</ele><time>2026-04-18T14:55:44.136Z</time></trkpt><trkpt lat="45.8421374" lon="11.4347883"><ele>1051.0</ele><time>2026-04-18T14:55:45.137Z</time></trkpt><trkpt lat="45.8420644" lon="11.4347156"><ele>1051.0</ele><time>2026-04-18T14:55:46.137Z</time></trkpt><trkpt lat="45.8419881" lon="11.4346406"><ele>1051.0</ele><time>2026-04-18T14:55:47.136Z</time></trkpt><trkpt lat="45.8419085" lon="11.4345561"><ele>1051.0</ele><time>2026-04-18T14:55:48.137Z</time></trkpt><trkpt lat="45.8418257" lon="11.4344656"><ele>1051.0</ele><time>2026-04-18T14:55:49.138Z</time></trkpt><trkpt lat="45.841736" lon="11.434371"><ele>1051.0</ele><time>2026-04-18T14:55:50.136Z</time></trkpt><trkpt lat="45.8416443" lon="11.4342736"><ele>1051.0</ele><time>2026-04-18T14:55:51.138Z</time></trkpt><trkpt lat="45.8415465" lon="11.4341735"><ele>1051.0</ele><time>2026-04-18T14:55:52.138Z</time></trkpt><trkpt lat="45.8414422" lon="11.4340699"><ele>1051.0</ele><time>2026-04-18T14:55:53.137Z</time></trkpt><trkpt lat="45.8413348" lon="11.4339633"><ele>1051.0</ele><time>2026-04-18T14:55:54.137Z</time></trkpt><trkpt lat="45.8412277" lon="11.4338533"><ele>1051.0</ele><time>2026-04-18T14:55:55.137Z</time></trkpt><trkpt lat="45.8411156" lon="11.4337477"><ele>1051.0</ele><time>2026-04-18T14:55:56.137Z</time></trkpt><trkpt lat="45.8409963" lon="11.4336467"><ele>1051.0</ele><time>2026-04-18T14:55:57.138Z</time></trkpt><trkpt lat="45.8408695" lon="11.4335583"><ele>1050.25</ele><time>2026-04-18T14:55:58.137Z</time></trkpt><trkpt lat="45.8407382" lon="11.43349"><ele>1049.5</ele><time>2026-04-18T14:55:59.138Z</time></trkpt><trkpt lat="45.840604" lon="11.43343"><ele>1048.75</ele><time>2026-04-18T14:56:00.136Z</time></trkpt><trkpt lat="45.840475" lon="11.4333543"><ele>1048.0</ele><time>2026-04-18T14:56:01.137Z</time></trkpt><trkpt lat="45.8403511" lon="11.4332664"><ele>1048.0</ele><time>2026-04-18T14:56:02.137Z</time></trkpt><trkpt lat="45.8402282" lon="11.4331723"><ele>1048.0</ele><time>2026-04-18T14:56:03.137Z</time></trkpt><trkpt lat="45.8401061" lon="11.4330731"><ele>1048.0</ele><time>2026-04-18T14:56:04.138Z</time></trkpt><trkpt lat="45.8399854" lon="11.4329735"><ele>1048.0</ele><time>2026-04-18T14:56:05.137Z</time></trkpt><trkpt lat="45.8398617" lon="11.4328735"><ele>1048.5</ele><time>2026-04-18T14:56:06.137Z</time></trkpt><trkpt lat="45.8397365" lon="11.4327714"><ele>1049.0</ele><time>2026-04-18T14:56:07.137Z</time></trkpt><trkpt lat="45.8396115" lon="11.432665"><ele>1049.5</ele><time>2026-04-18T14:56:08.137Z</time></trkpt><trkpt lat="45.8394844" lon="11.4325694"><ele>1050.0</ele><time>2026-04-18T14:56:09.137Z</time></trkpt><trkpt lat="45.8393504" lon="11.4324846"><ele>1050.25</ele><time>2026-04-18T14:56:10.137Z</time></trkpt><trkpt lat="45.8392106" lon="11.4324158"><ele>1050.5</ele><time>2026-04-18T14:56:11.136Z</time></trkpt><trkpt lat="45.8390739" lon="11.4323619"><ele>1050.75</ele><time>2026-04-18T14:56:12.138Z</time></trkpt><trkpt lat="45.8389372" lon="11.4323179"><ele>1051.0</ele><time>2026-04-18T14:56:13.138Z</time></trkpt><trkpt lat="45.8387955" lon="11.4322821"><ele>1051.0</ele><time>2026-04-18T14:56:14.136Z</time></trkpt><trkpt lat="45.8386536" lon="11.4322477"><ele>1051.0</ele><time>2026-04-18T14:56:15.137Z</time></trkpt><trkpt lat="45.8385076" lon="11.4322159"><ele>1051.0</ele><time>2026-04-18T14:56:16.137Z</time></trkpt><trkpt lat="45.838362" lon="11.432186"><ele>1051.0</ele><time>2026-04-18T14:56:17.138Z</time></trkpt><trkpt lat="45.8382131" lon="11.4321544"><ele>1050.5</ele><time>2026-04-18T14:56:18.138Z</time></trkpt><trkpt lat="45.8380699" lon="11.4321268"><ele>1050.0</ele><time>2026-04-18T14:56:19.137Z</time></trkpt><trkpt lat="45.8379345" lon="11.4321127"><ele>1049.5</ele><time>2026-04-18T14:56:20.136Z</time></trkpt><trkpt lat="45.837798" lon="11.4321132"><ele>1049.0</ele><time>2026-04-18T14:56:21.136Z</time></trkpt><trkpt lat="45.8376623" lon="11.432132"><ele>1049.5</ele><time>2026-04-18T14:56:22.137Z</time></trkpt><trkpt lat="45.8375287" lon="11.4321649"><ele>1050.0</ele><time>2026-04-18T14:56:23.137Z</time></trkpt><trkpt lat="45.8373979" lon="11.4322097"><ele>1050.5</ele><time>2026-04-18T14:56:24.138Z</time></trkpt><trkpt lat="45.8372671" lon="11.4322667"><ele>1051.0</ele><time>2026-04-18T14:56:25.137Z</time></trkpt><trkpt lat="45.8371356" lon="11.4323308"><ele>1051.0</ele><time>2026-04-18T14:56:26.136Z</time></trkpt><trkpt lat="45.837011" lon="11.4323986"><ele>1051.0</ele><time>2026-04-18T14:56:27.137Z</time></trkpt><trkpt lat="45.836885" lon="11.4324672"><ele>1051.0</ele><time>2026-04-18T14:56:28.137Z</time></trkpt><trkpt lat="45.83676" lon="11.4325333"><ele>1051.0</ele><time>2026-04-18T14:56:29.137Z</time></trkpt><trkpt lat="45.8366311" lon="11.4325929"><ele>1049.5</ele><time>2026-04-18T14:56:30.137Z</time></trkpt><trkpt lat="45.8364988" lon="11.4326533"><ele>1048.0</ele><time>2026-04-18T14:56:31.137Z</time></trkpt><trkpt lat="45.8363642" lon="11.4327148"><ele>1046.5</ele><time>2026-04-18T14:56:32.137Z</time></trkpt><trkpt lat="45.8362287" lon="11.4327761"><ele>1045.0</ele><time>2026-04-18T14:56:33.137Z</time></trkpt><trkpt lat="45.8360887" lon="11.4328324"><ele>1045.0</ele><time>2026-04-18T14:56:34.137Z</time></trkpt><trkpt lat="45.8359464" lon="11.4328816"><ele>1045.0</ele><time>2026-04-18T14:56:35.138Z</time></trkpt><trkpt lat="45.835798" lon="11.4329208"><ele>1045.0</ele><time>2026-04-18T14:56:36.137Z</time></trkpt><trkpt lat="45.8356508" lon="11.4329418"><ele>1045.0</ele><time>2026-04-18T14:56:37.136Z</time></trkpt><trkpt lat="45.8355026" lon="11.432949"><ele>1045.0</ele><time>2026-04-18T14:56:38.137Z</time></trkpt><trkpt lat="45.8353561" lon="11.4329513"><ele>1045.0</ele><time>2026-04-18T14:56:39.138Z</time></trkpt><trkpt lat="45.8352131" lon="11.4329519"><ele>1045.0</ele><time>2026-04-18T14:56:40.137Z</time></trkpt><trkpt lat="45.8350754" lon="11.4329543"><ele>1045.0</ele><time>2026-04-18T14:56:41.138Z</time></trkpt><trkpt lat="45.8349341" lon="11.4329584"><ele>1044.5</ele><time>2026-04-18T14:56:42.137Z</time></trkpt><trkpt lat="45.8347928" lon="11.4329757"><ele>1044.0</ele><time>2026-04-18T14:56:43.138Z</time></trkpt><trkpt lat="45.8346523" lon="11.4330122"><ele>1043.5</ele><time>2026-04-18T14:56:44.137Z</time></trkpt><trkpt lat="45.8345132" lon="11.4330675"><ele>1043.0</ele><time>2026-04-18T14:56:45.137Z</time></trkpt><trkpt lat="45.8343804" lon="11.4331311"><ele>1041.75</ele><time>2026-04-18T14:56:46.137Z</time></trkpt><trkpt lat="45.8342412" lon="11.4332045"><ele>1040.5</ele><time>2026-04-18T14:56:47.138Z</time></trkpt><trkpt lat="45.8341078" lon="11.4333007"><ele>1039.25</ele><time>2026-04-18T14:56:48.138Z</time></trkpt><trkpt lat="45.8339816" lon="11.4334164"><ele>1038.0</ele><time>2026-04-18T14:56:49.137Z</time></trkpt><trkpt lat="45.8338556" lon="11.4335495"><ele>1038.0</ele><time>2026-04-18T14:56:50.137Z</time></trkpt><trkpt lat="45.8337314" lon="11.4336963"><ele>1038.0</ele><time>2026-04-18T14:56:51.136Z</time></trkpt><trkpt lat="45.833605" lon="11.433849"><ele>1038.0</ele><time>2026-04-18T14:56:52.137Z</time></trkpt><trkpt lat="45.8334797" lon="11.4340003"><ele>1036.6666666666667</ele><time>2026-04-18T14:56:53.137Z</time></trkpt><trkpt lat="45.833355" lon="11.4341439"><ele>1035.3333333333335</ele><time>2026-04-18T14:56:54.136Z</time></trkpt><trkpt lat="45.8332309" lon="11.4342888"><ele>1034.0</ele><time>2026-04-18T14:56:55.137Z</time></trkpt><trkpt lat="45.8331052" lon="11.4344229"><ele>1034.0</ele><time>2026-04-18T14:56:56.138Z</time></trkpt><trkpt lat="45.8329759" lon="11.4345485"><ele>1034.0</ele><time>2026-04-18T14:56:57.138Z</time></trkpt><trkpt lat="45.8328402" lon="11.43467"><ele>1034.0</ele><time>2026-04-18T14:56:58.137Z</time></trkpt><trkpt lat="45.8326983" lon="11.4347876"><ele>1035.0</ele><time>2026-04-18T14:56:59.136Z</time></trkpt><trkpt lat="45.8325514" lon="11.4349042"><ele>1036.0</ele><time>2026-04-18T14:57:00.138Z</time></trkpt><trkpt lat="45.8323986" lon="11.4350063"><ele>1037.0</ele><time>2026-04-18T14:57:01.138Z</time></trkpt><trkpt lat="45.8322374" lon="11.4351035"><ele>1037.0</ele><time>2026-04-18T14:57:02.137Z</time></trkpt><trkpt lat="45.8320644" lon="11.4351896"><ele>1037.0</ele><time>2026-04-18T14:57:03.138Z</time></trkpt><trkpt lat="45.831893" lon="11.4352541"><ele>1037.0</ele><time>2026-04-18T14:57:04.137Z</time></trkpt><trkpt lat="45.8317166" lon="11.4353262"><ele>1036.6666666666667</ele><time>2026-04-18T14:57:05.138Z</time></trkpt><trkpt lat="45.8315387" lon="11.435406"><ele>1036.3333333333333</ele><time>2026-04-18T14:57:06.138Z</time></trkpt><trkpt lat="45.8313572" lon="11.4354785"><ele>1036.0</ele><time>2026-04-18T14:57:07.137Z</time></trkpt><trkpt lat="45.8311692" lon="11.4355477"><ele>1037.0</ele><time>2026-04-18T14:57:08.137Z</time></trkpt><trkpt lat="45.8309832" lon="11.4356041"><ele>1038.0</ele><time>2026-04-18T14:57:09.137Z</time></trkpt><trkpt lat="45.8307964" lon="11.4356506"><ele>1039.0</ele><time>2026-04-18T14:57:10.137Z</time></trkpt><trkpt lat="45.8306081" lon="11.435693"><ele>1036.3333333333333</ele><time>2026-04-18T14:57:11.137Z</time></trkpt><trkpt lat="45.8304226" lon="11.4357221"><ele>1033.6666666666667</ele><time>2026-04-18T14:57:12.138Z</time></trkpt><trkpt lat="45.8302354" lon="11.4357616"><ele>1031.0</ele><time>2026-04-18T14:57:13.137Z</time></trkpt><trkpt lat="45.8300475" lon="11.4358033"><ele>1029.6666666666667</ele><time>2026-04-18T14:57:14.136Z</time></trkpt><trkpt lat="45.8298625" lon="11.4358437"><ele>1028.3333333333333</ele><time>2026-04-18T14:57:15.137Z</time></trkpt><trkpt lat="45.8296742" lon="11.4358935"><ele>1027.0</ele><time>2026-04-18T14:57:16.137Z</time></trkpt><trkpt lat="45.8294839" lon="11.435942"><ele>1026.6666666666665</ele><time>2026-04-18T14:57:17.137Z</time></trkpt><trkpt lat="45.8292936" lon="11.4359849"><ele>1026.3333333333333</ele><time>2026-04-18T14:57:18.137Z</time></trkpt><trkpt lat="45.8291148" lon="11.4360391"><ele>1026.0</ele><time>2026-04-18T14:57:19.137Z</time></trkpt><trkpt lat="45.8289419" lon="11.4360966"><ele>1026.0</ele><time>2026-04-18T14:57:20.138Z</time></trkpt><trkpt lat="45.8287767" lon="11.4361509"><ele>1026.0</ele><time>2026-04-18T14:57:21.137Z</time></trkpt><trkpt lat="45.8286161" lon="11.4362072"><ele>1026.0</ele><time>2026-04-18T14:57:22.137Z</time></trkpt><trkpt lat="45.8284506" lon="11.4362698"><ele>1023.0</ele><time>2026-04-18T14:57:23.138Z</time></trkpt><trkpt lat="45.8282831" lon="11.4363318"><ele>1020.0</ele><time>2026-04-18T14:57:24.138Z</time></trkpt><trkpt lat="45.8281169" lon="11.4363885"><ele>1017.0</ele><time>2026-04-18T14:57:25.136Z</time></trkpt><trkpt lat="45.8279479" lon="11.4364399"><ele>1017.0</ele><time>2026-04-18T14:57:26.138Z</time></trkpt><trkpt lat="45.8277793" lon="11.4364892"><ele>1017.0</ele><time>2026-04-18T14:57:27.138Z</time></trkpt><trkpt lat="45.8276093" lon="11.4365315"><ele>1017.0</ele><time>2026-04-18T14:57:28.137Z</time></trkpt><trkpt lat="45.8274365" lon="11.4365677"><ele>1017.6666666666667</ele><time>2026-04-18T14:57:29.136Z</time></trkpt><trkpt lat="45.8272635" lon="11.4365977"><ele>1018.3333333333334</ele><time>2026-04-18T14:57:30.138Z</time></trkpt><trkpt lat="45.8270914" lon="11.4366177"><ele>1019.0</ele><time>2026-04-18T14:57:31.136Z</time></trkpt><trkpt lat="45.8269194" lon="11.4366453"><ele>1018.3333333333334</ele><time>2026-04-18T14:57:32.138Z</time></trkpt><trkpt lat="45.826747" lon="11.4366693"><ele>1017.6666666666667</ele><time>2026-04-18T14:57:33.136Z</time></trkpt><trkpt lat="45.8265746" lon="11.4366971"><ele>1017.0</ele><time>2026-04-18T14:57:34.137Z</time></trkpt><trkpt lat="45.8264052" lon="11.4367239"><ele>1017.0</ele><time>2026-04-18T14:57:35.138Z</time></trkpt><trkpt lat="45.826229" lon="11.4367524"><ele>1017.0</ele><time>2026-04-18T14:57:36.137Z</time></trkpt><trkpt lat="45.8260569" lon="11.4367786"><ele>1017.0</ele><time>2026-04-18T14:57:37.138Z</time></trkpt><trkpt lat="45.825883" lon="11.4368012"><ele>1017.3333333333333</ele><time>2026-04-18T14:57:38.138Z</time></trkpt><trkpt lat="45.825709" lon="11.4368151"><ele>1017.6666666666666</ele><time>2026-04-18T14:57:39.138Z</time></trkpt><trkpt lat="45.8255329" lon="11.4368687"><ele>1018.0</ele><time>2026-04-18T14:57:40.137Z</time></trkpt><trkpt lat="45.8253609" lon="11.436932"><ele>1018.0</ele><time>2026-04-18T14:57:41.136Z</time></trkpt><trkpt lat="45.8251949" lon="11.4370258"><ele>1018.0</ele><time>2026-04-18T14:57:42.137Z</time></trkpt><trkpt lat="45.8250355" lon="11.437144"><ele>1018.0</ele><time>2026-04-18T14:57:43.138Z</time></trkpt><trkpt lat="45.8248804" lon="11.4372689"><ele>1016.3333333333333</ele><time>2026-04-18T14:57:44.138Z</time></trkpt><trkpt lat="45.8247278" lon="11.4373932"><ele>1014.6666666666667</ele><time>2026-04-18T14:57:45.138Z</time></trkpt><trkpt lat="45.8245757" lon="11.4375181"><ele>1013.0</ele><time>2026-04-18T14:57:46.137Z</time></trkpt><trkpt lat="45.8244258" lon="11.4376363"><ele>1015.0</ele><time>2026-04-18T14:57:47.137Z</time></trkpt><trkpt lat="45.8242739" lon="11.4377424"><ele>1017.0</ele><time>2026-04-18T14:57:48.138Z</time></trkpt><trkpt lat="45.8241234" lon="11.4378444"><ele>1019.0</ele><time>2026-04-18T14:57:49.138Z</time></trkpt><trkpt lat="45.8239757" lon="11.4379304"><ele>1016.0</ele><time>2026-04-18T14:57:50.137Z</time></trkpt><trkpt lat="45.82383" lon="11.4380135"><ele>1013.0</ele><time>2026-04-18T14:57:51.136Z</time></trkpt><trkpt lat="45.8236809" lon="11.4380926"><ele>1010.0</ele><time>2026-04-18T14:57:52.137Z</time></trkpt><trkpt lat="45.8235339" lon="11.4381729"><ele>1008.3333333333334</ele><time>2026-04-18T14:57:53.136Z</time></trkpt><trkpt lat="45.82339" lon="11.4382475"><ele>1006.6666666666667</ele><time>2026-04-18T14:57:54.136Z</time></trkpt><trkpt lat="45.8232402" lon="11.4383225"><ele>1005.0</ele><time>2026-04-18T14:57:55.136Z</time></trkpt><trkpt lat="45.8230878" lon="11.4384026"><ele>1005.0</ele><time>2026-04-18T14:57:56.138Z</time></trkpt><trkpt lat="45.8229318" lon="11.4384839"><ele>1005.0</ele><time>2026-04-18T14:57:57.138Z</time></trkpt><trkpt lat="45.8227736" lon="11.438561"><ele>1005.0</ele><time>2026-04-18T14:57:58.137Z</time></trkpt><trkpt lat="45.8226141" lon="11.4386305"><ele>1004.6666666666667</ele><time>2026-04-18T14:57:59.137Z</time></trkpt><trkpt lat="45.822456" lon="11.4386758"><ele>1004.3333333333334</ele><time>2026-04-18T14:58:00.138Z</time></trkpt><trkpt lat="45.8222968" lon="11.4386941"><ele>1004.0</ele><time>2026-04-18T14:58:01.137Z</time></trkpt><trkpt lat="45.8221344" lon="11.4386857"><ele>1004.0</ele><time>2026-04-18T14:58:02.137Z</time></trkpt><trkpt lat="45.8219712" lon="11.4386584"><ele>1004.0</ele><time>2026-04-18T14:58:03.137Z</time></trkpt><trkpt lat="45.8218052" lon="11.438605"><ele>1004.0</ele><time>2026-04-18T14:58:04.137Z</time></trkpt><trkpt lat="45.821637" lon="11.4385345"><ele>1002.0</ele><time>2026-04-18T14:58:05.137Z</time></trkpt><trkpt lat="45.8214763" lon="11.4384373"><ele>1000.0</ele><time>2026-04-18T14:58:06.137Z</time></trkpt><trkpt lat="45.8213083" lon="11.4383263"><ele>998.0</ele><time>2026-04-18T14:58:07.137Z</time></trkpt><trkpt lat="45.8211416" lon="11.4382074"><ele>998.6666666666667</ele><time>2026-04-18T14:58:08.137Z</time></trkpt><trkpt lat="45.8209802" lon="11.4380758"><ele>999.3333333333333</ele><time>2026-04-18T14:58:09.136Z</time></trkpt><trkpt lat="45.8208214" lon="11.4379309"><ele>1000.0</ele><time>2026-04-18T14:58:10.137Z</time></trkpt><trkpt lat="45.8206645" lon="11.4377805"><ele>1000.6666666666666</ele><time>2026-04-18T14:58:11.137Z</time></trkpt><trkpt lat="45.8205054" lon="11.4376256"><ele>1001.3333333333333</ele><time>2026-04-18T14:58:12.136Z</time></trkpt><trkpt lat="45.8203495" lon="11.4374668"><ele>1002.0</ele><time>2026-04-18T14:58:13.138Z</time></trkpt><trkpt lat="45.8201895" lon="11.4373078"><ele>1001.0</ele><time>2026-04-18T14:58:14.137Z</time></trkpt><trkpt lat="45.8200333" lon="11.4371471"><ele>1000.0</ele><time>2026-04-18T14:58:15.136Z</time></trkpt><trkpt lat="45.8198757" lon="11.4369835"><ele>999.0</ele><time>2026-04-18T14:58:16.137Z</time></trkpt><trkpt lat="45.8197158" lon="11.4368191"><ele>999.0</ele><time>2026-04-18T14:58:17.138Z</time></trkpt><trkpt lat="45.8195564" lon="11.4366563"><ele>999.0</ele><time>2026-04-18T14:58:18.137Z</time></trkpt><trkpt lat="45.8193929" lon="11.4365031"><ele>999.0</ele><time>2026-04-18T14:58:19.138Z</time></trkpt><trkpt lat="45.8192238" lon="11.4363589"><ele>996.6666666666667</ele><time>2026-04-18T14:58:20.137Z</time></trkpt><trkpt lat="45.8190517" lon="11.4362264"><ele>994.3333333333334</ele><time>2026-04-18T14:58:21.138Z</time></trkpt><trkpt lat="45.8188743" lon="11.4361074"><ele>992.0</ele><time>2026-04-18T14:58:22.138Z</time></trkpt><trkpt lat="45.8186942" lon="11.4359974"><ele>992.0</ele><time>2026-04-18T14:58:23.136Z</time></trkpt><trkpt lat="45.818513" lon="11.4358859"><ele>992.0</ele><time>2026-04-18T14:58:24.138Z</time></trkpt><trkpt lat="45.8183333" lon="11.4357804"><ele>992.0</ele><time>2026-04-18T14:58:25.136Z</time></trkpt><trkpt lat="45.8181516" lon="11.4356722"><ele>989.0</ele><time>2026-04-18T14:58:26.138Z</time></trkpt><trkpt lat="45.8179744" lon="11.4355636"><ele>986.0</ele><time>2026-04-18T14:58:27.138Z</time></trkpt><trkpt lat="45.8177989" lon="11.4354443"><ele>983.0</ele><time>2026-04-18T14:58:28.136Z</time></trkpt><trkpt lat="45.81763" lon="11.4353177"><ele>983.0</ele><time>2026-04-18T14:58:29.137Z</time></trkpt><trkpt lat="45.8174687" lon="11.4351684"><ele>983.0</ele><time>2026-04-18T14:58:30.136Z</time></trkpt><trkpt lat="45.8173215" lon="11.4349927"><ele>983.0</ele><time>2026-04-18T14:58:31.138Z</time></trkpt><trkpt lat="45.8171861" lon="11.4348034"><ele>989.0</ele><time>2026-04-18T14:58:32.138Z</time></trkpt><trkpt lat="45.8170601" lon="11.4346016"><ele>995.0</ele><time>2026-04-18T14:58:33.138Z</time></trkpt><trkpt lat="45.8169426" lon="11.4343903"><ele>1001.0</ele><time>2026-04-18T14:58:34.138Z</time></trkpt><trkpt lat="45.816825" lon="11.4341732"><ele>996.0</ele><time>2026-04-18T14:58:35.137Z</time></trkpt><trkpt lat="45.8167099" lon="11.4339565"><ele>991.0</ele><time>2026-04-18T14:58:36.137Z</time></trkpt><trkpt lat="45.8165936" lon="11.4337423"><ele>986.0</ele><time>2026-04-18T14:58:37.137Z</time></trkpt><trkpt lat="45.8164706" lon="11.4335195"><ele>986.0</ele><time>2026-04-18T14:58:38.138Z</time></trkpt><trkpt lat="45.8163538" lon="11.4332916"><ele>986.0</ele><time>2026-04-18T14:58:39.137Z</time></trkpt><trkpt lat="45.8162335" lon="11.4330612"><ele>986.0</ele><time>2026-04-18T14:58:40.137Z</time></trkpt><trkpt lat="45.8161268" lon="11.4328306"><ele>982.0</ele><time>2026-04-18T14:58:41.138Z</time></trkpt><trkpt lat="45.8160348" lon="11.432601"><ele>978.0</ele><time>2026-04-18T14:58:42.136Z</time></trkpt><trkpt lat="45.8159561" lon="11.4323609"><ele>974.0</ele><time>2026-04-18T14:58:43.137Z</time></trkpt><trkpt lat="45.8158809" lon="11.4321148"><ele>974.0</ele><time>2026-04-18T14:58:44.137Z</time></trkpt><trkpt lat="45.8158112" lon="11.4318672"><ele>974.0</ele><time>2026-04-18T14:58:45.138Z</time></trkpt><trkpt lat="45.8157391" lon="11.4316178"><ele>974.0</ele><time>2026-04-18T14:58:46.138Z</time></trkpt><trkpt lat="45.8156646" lon="11.4313675"><ele>973.6666666666667</ele><time>2026-04-18T14:58:47.137Z</time></trkpt><trkpt lat="45.8155931" lon="11.4311196"><ele>973.3333333333333</ele><time>2026-04-18T14:58:48.136Z</time></trkpt><trkpt lat="45.8155218" lon="11.430861"><ele>973.0</ele><time>2026-04-18T14:58:49.138Z</time></trkpt><trkpt lat="45.8154493" lon="11.4306096"><ele>976.0</ele><time>2026-04-18T14:58:50.137Z</time></trkpt><trkpt lat="45.8153804" lon="11.4303525"><ele>979.0</ele><time>2026-04-18T14:58:51.137Z</time></trkpt><trkpt lat="45.815309" lon="11.4301119"><ele>982.0</ele><time>2026-04-18T14:58:52.137Z</time></trkpt><trkpt lat="45.8152242" lon="11.4298923"><ele>974.0</ele><time>2026-04-18T14:58:53.138Z</time></trkpt><trkpt lat="45.81513" lon="11.4296855"><ele>966.0</ele><time>2026-04-18T14:58:54.138Z</time></trkpt><trkpt lat="45.8150199" lon="11.4294985"><ele>958.0</ele><time>2026-04-18T14:58:55.136Z</time></trkpt><trkpt lat="45.8148892" lon="11.4293326"><ele>956.6666666666666</ele><time>2026-04-18T14:58:56.136Z</time></trkpt><trkpt lat="45.8147421" lon="11.4291845"><ele>955.3333333333333</ele><time>2026-04-18T14:58:57.138Z</time></trkpt><trkpt lat="45.8145848" lon="11.42905"><ele>954.0</ele><time>2026-04-18T14:58:58.137Z</time></trkpt><trkpt lat="45.8144211" lon="11.4289246"><ele>951.6666666666667</ele><time>2026-04-18T14:58:59.137Z</time></trkpt><trkpt lat="45.814254" lon="11.4287901"><ele>949.3333333333334</ele><time>2026-04-18T14:59:00.138Z</time></trkpt><trkpt lat="45.814084" lon="11.4286546"><ele>947.0</ele><time>2026-04-18T14:59:01.138Z</time></trkpt><trkpt lat="45.8139114" lon="11.4285217"><ele>947.0</ele><time>2026-04-18T14:59:02.137Z</time></trkpt><trkpt lat="45.81375" lon="11.428392"><ele>947.0</ele><time>2026-04-18T14:59:03.137Z</time></trkpt><trkpt lat="45.8135963" lon="11.4282696"><ele>947.0</ele><time>2026-04-18T14:59:04.138Z</time></trkpt><trkpt lat="45.8134427" lon="11.428154"><ele>946.0</ele><time>2026-04-18T14:59:05.138Z</time></trkpt><trkpt lat="45.8132873" lon="11.4280349"><ele>945.0</ele><time>2026-04-18T14:59:06.137Z</time></trkpt><trkpt lat="45.8131283" lon="11.4279134"><ele>944.0</ele><time>2026-04-18T14:59:07.136Z</time></trkpt><trkpt lat="45.8129653" lon="11.4277938"><ele>944.0</ele><time>2026-04-18T14:59:08.136Z</time></trkpt><trkpt lat="45.8127993" lon="11.4276688"><ele>944.0</ele><time>2026-04-18T14:59:09.138Z</time></trkpt><trkpt lat="45.8126309" lon="11.4275388"><ele>944.0</ele><time>2026-04-18T14:59:10.137Z</time></trkpt><trkpt lat="45.8124597" lon="11.4274063"><ele>941.3333333333334</ele><time>2026-04-18T14:59:11.137Z</time></trkpt><trkpt lat="45.8122843" lon="11.4272743"><ele>938.6666666666667</ele><time>2026-04-18T14:59:12.137Z</time></trkpt><trkpt lat="45.8121052" lon="11.4271423"><ele>936.0</ele><time>2026-04-18T14:59:13.136Z</time></trkpt><trkpt lat="45.8119309" lon="11.4270034"><ele>933.0</ele><time>2026-04-18T14:59:14.138Z</time></trkpt><trkpt lat="45.8117613" lon="11.4268664"><ele>930.0</ele><time>2026-04-18T14:59:15.136Z</time></trkpt><trkpt lat="45.8115954" lon="11.4267371"><ele>927.0</ele><time>2026-04-18T14:59:16.137Z</time></trkpt><trkpt lat="45.8114389" lon="11.4266138"><ele>927.0</ele><time>2026-04-18T14:59:17.137Z</time></trkpt><trkpt lat="45.811285" lon="11.4265067"><ele>927.0</ele><time>2026-04-18T14:59:18.138Z</time></trkpt><trkpt lat="45.8111289" lon="11.426413"><ele>927.0</ele><time>2026-04-18T14:59:19.137Z</time></trkpt><trkpt lat="45.8109513" lon="11.4263654"><ele>927.6666666666667</ele><time>2026-04-18T14:59:20.137Z</time></trkpt><trkpt lat="45.8107713" lon="11.4263126"><ele>928.3333333333334</ele><time>2026-04-18T14:59:21.138Z</time></trkpt><trkpt lat="45.8105865" lon="11.4262606"><ele>929.0</ele><time>2026-04-18T14:59:22.137Z</time></trkpt><trkpt lat="45.8104057" lon="11.4262198"><ele>923.3333333333334</ele><time>2026-04-18T14:59:23.137Z</time></trkpt><trkpt lat="45.8102221" lon="11.4261669"><ele>917.6666666666667</ele><time>2026-04-18T14:59:24.138Z</time></trkpt><trkpt lat="45.8101083" lon="11.4260976"><ele>912.0</ele><time>2026-04-18T14:59:25.137Z</time></trkpt><trkpt lat="45.8099691" lon="11.4260225"><ele>911.0</ele><time>2026-04-18T14:59:26.137Z</time></trkpt><trkpt lat="45.8098365" lon="11.4259427"><ele>910.0</ele><time>2026-04-18T14:59:27.137Z</time></trkpt><trkpt lat="45.8097295" lon="11.4257946"><ele>909.0</ele><time>2026-04-18T14:59:28.137Z</time></trkpt><trkpt lat="45.8096242" lon="11.4256546"><ele>908.0</ele><time>2026-04-18T14:59:29.137Z</time></trkpt><trkpt lat="45.8095141" lon="11.4255129"><ele>907.25</ele><time>2026-04-18T14:59:30.138Z</time></trkpt><trkpt lat="45.8094219" lon="11.4253698"><ele>906.5</ele><time>2026-04-18T14:59:31.138Z</time></trkpt><trkpt lat="45.8093279" lon="11.4252416"><ele>905.75</ele><time>2026-04-18T14:59:32.138Z</time></trkpt><trkpt lat="45.8092421" lon="11.4251487"><ele>905.0</ele><time>2026-04-18T14:59:33.138Z</time></trkpt><trkpt lat="45.8091648" lon="11.4250864"><ele>905.0</ele><time>2026-04-18T14:59:34.138Z</time></trkpt><trkpt lat="45.8091086" lon="11.4250438"><ele>905.0</ele><time>2026-04-18T14:59:35.138Z</time></trkpt><trkpt lat="45.8090548" lon="11.4249746"><ele>905.0</ele><time>2026-04-18T14:59:38.138Z</time></trkpt><trkpt lat="45.8091286" lon="11.4250342"><ele>905.0</ele><time>2026-04-18T14:59:48.136Z</time></trkpt><trkpt lat="45.8092887" lon="11.4252065"><ele>905.0</ele><time>2026-04-18T14:59:50.138Z</time></trkpt><trkpt lat="45.8093679" lon="11.4253051"><ele>905.75</ele><time>2026-04-18T14:59:51.138Z</time></trkpt><trkpt lat="45.8094516" lon="11.4254428"><ele>906.5</ele><time>2026-04-18T14:59:52.137Z</time></trkpt><trkpt lat="45.8095484" lon="11.4255767"><ele>907.25</ele><time>2026-04-18T14:59:53.137Z</time></trkpt><trkpt lat="45.8096497" lon="11.4257119"><ele>908.0</ele><time>2026-04-18T14:59:54.138Z</time></trkpt><trkpt lat="45.8097588" lon="11.4258979"><ele>908.0</ele><time>2026-04-18T14:59:55.137Z</time></trkpt><trkpt lat="45.8098924" lon="11.4260564"><ele>908.0</ele><time>2026-04-18T14:59:56.137Z</time></trkpt><trkpt lat="45.8100442" lon="11.426176"><ele>908.0</ele><time>2026-04-18T14:59:57.138Z</time></trkpt><trkpt lat="45.8102285" lon="11.4262186"><ele>909.3333333333334</ele><time>2026-04-18T14:59:58.137Z</time></trkpt><trkpt lat="45.8104186" lon="11.4261731"><ele>910.6666666666667</ele><time>2026-04-18T14:59:59.136Z</time></trkpt><trkpt lat="45.8106083" lon="11.4262132"><ele>912.0</ele><time>2026-04-18T15:00:00.137Z</time></trkpt><trkpt lat="45.8108068" lon="11.4262798"><ele>917.0</ele><time>2026-04-18T15:00:01.137Z</time></trkpt><trkpt lat="45.8109835" lon="11.4263451"><ele>922.0</ele><time>2026-04-18T15:00:02.137Z</time></trkpt><trkpt lat="45.8111548" lon="11.4264511"><ele>927.0</ele><time>2026-04-18T15:00:03.136Z</time></trkpt><trkpt lat="45.8113153" lon="11.4265645"><ele>927.0</ele><time>2026-04-18T15:00:04.138Z</time></trkpt><trkpt lat="45.8114743" lon="11.4266714"><ele>927.0</ele><time>2026-04-18T15:00:05.137Z</time></trkpt><trkpt lat="45.8116333" lon="11.4267836"><ele>927.0</ele><time>2026-04-18T15:00:06.137Z</time></trkpt><trkpt lat="45.8117785" lon="11.4268953"><ele>929.0</ele><time>2026-04-18T15:00:07.137Z</time></trkpt><trkpt lat="45.8119203" lon="11.4270009"><ele>931.0</ele><time>2026-04-18T15:00:08.137Z</time></trkpt><trkpt lat="45.8120389" lon="11.4271033"><ele>933.0</ele><time>2026-04-18T15:00:09.137Z</time></trkpt><trkpt lat="45.8121416" lon="11.4271856"><ele>935.0</ele><time>2026-04-18T15:00:10.137Z</time></trkpt><trkpt lat="45.8122187" lon="11.4272434"><ele>935.0000000000001</ele><time>2026-04-18T15:00:11.138Z</time></trkpt><trkpt lat="45.8123142" lon="11.4272637"><ele>935.0</ele><time>2026-04-18T15:00:13.137Z</time></trkpt><trkpt lat="45.8123102" lon="11.4271734"><ele>935.0</ele><time>2026-04-18T15:00:23.137Z</time></trkpt><trkpt lat="45.8122294" lon="11.4271538"><ele>935.0</ele><time>2026-04-18T15:00:25.137Z</time></trkpt><trkpt lat="45.8121605" lon="11.4271092"><ele>935.0000000000001</ele><time>2026-04-18T15:00:27.137Z</time></trkpt><trkpt lat="45.812102" lon="11.4270346"><ele>935.0</ele><time>2026-04-18T15:00:29.138Z</time></trkpt><trkpt lat="45.8120344" lon="11.4269629"><ele>935.0</ele><time>2026-04-18T15:00:31.137Z</time></trkpt><trkpt lat="45.8119761" lon="11.426889"><ele>935.0</ele><time>2026-04-18T15:00:33.138Z</time></trkpt><trkpt lat="45.8118845" lon="11.4268171"><ele>935.0</ele><time>2026-04-18T15:00:35.138Z</time></trkpt><trkpt lat="45.8118248" lon="11.4267713"><ele>935.0</ele><time>2026-04-18T15:00:38.138Z</time></trkpt><trkpt lat="45.811687" lon="11.426674"><ele>935.0</ele><time>2026-04-18T15:01:10.137Z</time></trkpt><trkpt lat="45.8116029" lon="11.4266041"><ele>933.6666666666667</ele><time>2026-04-18T15:01:12.137Z</time></trkpt><trkpt lat="45.8115341" lon="11.4265457"><ele>932.3333333333334</ele><time>2026-04-18T15:01:14.136Z</time></trkpt><trkpt lat="45.8114673" lon="11.4264957"><ele>931.0</ele><time>2026-04-18T15:01:16.137Z</time></trkpt><trkpt lat="45.8114049" lon="11.4264456"><ele>929.6666666666667</ele><time>2026-04-18T15:01:18.136Z</time></trkpt><trkpt lat="45.8113366" lon="11.4263914"><ele>928.3333333333334</ele><time>2026-04-18T15:01:20.136Z</time></trkpt><trkpt lat="45.8112613" lon="11.4264068"><ele>927.0</ele><time>2026-04-18T15:01:23.099Z</time></trkpt><trkpt lat="45.8112244" lon="11.4262969"><ele>926.5</ele><time>2026-04-18T15:01:25.137Z</time></trkpt><trkpt lat="45.8111862" lon="11.4261906"><ele>926.0</ele><time>2026-04-18T15:01:28.137Z</time></trkpt><trkpt lat="45.8110926" lon="11.4261637"><ele>925.5</ele><time>2026-04-18T15:01:30.136Z</time></trkpt><trkpt lat="45.8110197" lon="11.4261246"><ele>925.0</ele><time>2026-04-18T15:01:32.138Z</time></trkpt><trkpt lat="45.8109215" lon="11.4260945"><ele>924.5</ele><time>2026-04-18T15:01:34.137Z</time></trkpt><trkpt lat="45.8108431" lon="11.426082"><ele>924.0</ele><time>2026-04-18T15:01:35.138Z</time></trkpt><trkpt lat="45.8107211" lon="11.4260603"><ele>922.0</ele><time>2026-04-18T15:01:37.137Z</time></trkpt><trkpt lat="45.8106229" lon="11.426048"><ele>920.0</ele><time>2026-04-18T15:01:39.137Z</time></trkpt><trkpt lat="45.8105439" lon="11.4260245"><ele>918.0</ele><time>2026-04-18T15:01:41.137Z</time></trkpt><trkpt lat="45.8104883" lon="11.4259775"><ele>916.0</ele><time>2026-04-18T15:01:43.137Z</time></trkpt><trkpt lat="45.8104101" lon="11.425913"><ele>914.0</ele><time>2026-04-18T15:01:47.101Z</time></trkpt><trkpt lat="45.8103067" lon="11.4258654"><ele>912.0</ele><time>2026-04-18T15:01:48.138Z</time></trkpt><trkpt lat="45.8102288" lon="11.42582"><ele>912.0</ele><time>2026-04-18T15:01:49.138Z</time></trkpt><trkpt lat="45.8101583" lon="11.4257841"><ele>912.0</ele><time>2026-04-18T15:01:50.137Z</time></trkpt><trkpt lat="45.8100585" lon="11.4256921"><ele>912.0</ele><time>2026-04-18T15:01:52.138Z</time></trkpt><trkpt lat="45.8099788" lon="11.4256065"><ele>912.0</ele><time>2026-04-18T15:01:54.138Z</time></trkpt><trkpt lat="45.8099227" lon="11.4255284"><ele>912.0</ele><time>2026-04-18T15:01:56.136Z</time></trkpt><trkpt lat="45.8098737" lon="11.4254439"><ele>912.0</ele><time>2026-04-18T15:01:58.138Z</time></trkpt><trkpt lat="45.8098381" lon="11.4253434"><ele>909.8333333333334</ele><time>2026-04-18T15:02:00.136Z</time></trkpt><trkpt lat="45.8098105" lon="11.4252448"><ele>907.6666666666667</ele><time>2026-04-18T15:02:03.137Z</time></trkpt><trkpt lat="45.8097585" lon="11.4251179"><ele>905.5</ele><time>2026-04-18T15:02:06.113Z</time></trkpt><trkpt lat="45.8097208" lon="11.4250111"><ele>903.3333333333334</ele><time>2026-04-18T15:02:07.138Z</time></trkpt><trkpt lat="45.8096851" lon="11.4249318"><ele>901.1666666666667</ele><time>2026-04-18T15:02:08.138Z</time></trkpt><trkpt lat="45.8096206" lon="11.4247956"><ele>899.0</ele><time>2026-04-18T15:02:10.136Z</time></trkpt><trkpt lat="45.8095669" lon="11.4246901"><ele>898.5000000000001</ele><time>2026-04-18T15:02:12.138Z</time></trkpt><trkpt lat="45.8095188" lon="11.4245879"><ele>898.0</ele><time>2026-04-18T15:02:14.136Z</time></trkpt><trkpt lat="45.809463" lon="11.4244957"><ele>897.5</ele><time>2026-04-18T15:02:16.138Z</time></trkpt><trkpt lat="45.8093895" lon="11.4244064"><ele>897.0</ele><time>2026-04-18T15:02:18.137Z</time></trkpt><trkpt lat="45.8093137" lon="11.4243251"><ele>896.5000000000001</ele><time>2026-04-18T15:02:20.137Z</time></trkpt><trkpt lat="45.8092385" lon="11.4242691"><ele>896.0</ele><time>2026-04-18T15:02:22.137Z</time></trkpt><trkpt lat="45.809162" lon="11.4242202"><ele>896.0000000000001</ele><time>2026-04-18T15:02:24.137Z</time></trkpt><trkpt lat="45.8090749" lon="11.4241744"><ele>896.0</ele><time>2026-04-18T15:02:26.138Z</time></trkpt><trkpt lat="45.8089911" lon="11.4241315"><ele>896.0</ele><time>2026-04-18T15:02:28.136Z</time></trkpt><trkpt lat="45.8089178" lon="11.424098"><ele>896.0</ele><time>2026-04-18T15:02:30.138Z</time></trkpt><trkpt lat="45.8088344" lon="11.4240625"><ele>896.0000000000001</ele><time>2026-04-18T15:02:32.138Z</time></trkpt><trkpt lat="45.808742" lon="11.4240141"><ele>896.0</ele><time>2026-04-18T15:02:34.138Z</time></trkpt><trkpt lat="45.8086539" lon="11.4239769"><ele>896.0000000000001</ele><time>2026-04-18T15:02:36.138Z</time></trkpt><trkpt lat="45.808588" lon="11.4239358"><ele>896.0</ele><time>2026-04-18T15:02:38.086Z</time></trkpt><trkpt lat="45.8084836" lon="11.4239055"><ele>896.0</ele><time>2026-04-18T15:02:41.137Z</time></trkpt><trkpt lat="45.8084261" lon="11.4238673"><ele>896.0</ele><time>2026-04-18T15:02:42.136Z</time></trkpt><trkpt lat="45.8083428" lon="11.4238523"><ele>896.0000000000001</ele><time>2026-04-18T15:02:44.996Z</time></trkpt><trkpt lat="45.8082596" lon="11.4237756"><ele>896.0</ele><time>2026-04-18T15:02:46.939Z</time></trkpt><trkpt lat="45.8081805" lon="11.4237173"><ele>892.8</ele><time>2026-04-18T15:02:49.048Z</time></trkpt><trkpt lat="45.8081212" lon="11.4236478"><ele>889.5999999999999</ele><time>2026-04-18T15:02:50.138Z</time></trkpt><trkpt lat="45.8080512" lon="11.423541"><ele>886.4</ele><time>2026-04-18T15:02:52.137Z</time></trkpt><trkpt lat="45.8079841" lon="11.4234435"><ele>883.2</ele><time>2026-04-18T15:02:54.137Z</time></trkpt><trkpt lat="45.8079232" lon="11.423353"><ele>880.0</ele><time>2026-04-18T15:02:56.138Z</time></trkpt><trkpt lat="45.8078672" lon="11.4232342"><ele>879.9999999999999</ele><time>2026-04-18T15:02:58.138Z</time></trkpt><trkpt lat="45.8078157" lon="11.4231572"><ele>880.0</ele><time>2026-04-18T15:03:00.137Z</time></trkpt><trkpt lat="45.807752" lon="11.423077"><ele>880.0</ele><time>2026-04-18T15:03:02.136Z</time></trkpt><trkpt lat="45.8076737" lon="11.423004"><ele>880.0</ele><time>2026-04-18T15:03:04.137Z</time></trkpt><trkpt lat="45.807595" lon="11.4229434"><ele>879.9999999999999</ele><time>2026-04-18T15:03:06.137Z</time></trkpt><trkpt lat="45.8075285" lon="11.4228814"><ele>880.0</ele><time>2026-04-18T15:03:09.138Z</time></trkpt><trkpt lat="45.8074528" lon="11.4228531"><ele>879.9999999999999</ele><time>2026-04-18T15:03:33.137Z</time></trkpt><trkpt lat="45.8074905" lon="11.4227743"><ele>880.0</ele><time>2026-04-18T15:04:13.137Z</time></trkpt><trkpt lat="45.8075824" lon="11.422821"><ele>880.0</ele><time>2026-04-18T15:04:16.138Z</time></trkpt><trkpt lat="45.8076599" lon="11.4229217"><ele>880.0</ele><time>2026-04-18T15:04:18.137Z</time></trkpt><trkpt lat="45.8077084" lon="11.4229851"><ele>879.9999999999999</ele><time>2026-04-18T15:04:19.138Z</time></trkpt><trkpt lat="45.8077606" lon="11.4230377"><ele>880.0</ele><time>2026-04-18T15:04:20.138Z</time></trkpt><trkpt lat="45.8078107" lon="11.4231153"><ele>880.0</ele><time>2026-04-18T15:04:21.136Z</time></trkpt><trkpt lat="45.8078891" lon="11.4232398"><ele>880.0</ele><time>2026-04-18T15:04:23.137Z</time></trkpt><trkpt lat="45.807964" lon="11.4233808"><ele>880.0</ele><time>2026-04-18T15:04:25.136Z</time></trkpt><trkpt lat="45.8080085" lon="11.4234518"><ele>880.0</ele><time>2026-04-18T15:04:26.137Z</time></trkpt><trkpt lat="45.808055" lon="11.4235144"><ele>880.0</ele><time>2026-04-18T15:04:27.138Z</time></trkpt><trkpt lat="45.8081569" lon="11.4236504"><ele>880.0</ele><time>2026-04-18T15:04:29.137Z</time></trkpt><trkpt lat="45.8082508" lon="11.4237255"><ele>880.0</ele><time>2026-04-18T15:04:31.137Z</time></trkpt><trkpt lat="45.8083709" lon="11.4237859"><ele>880.0</ele><time>2026-04-18T15:04:33.137Z</time></trkpt><trkpt lat="45.8084929" lon="11.4238526"><ele>880.0</ele><time>2026-04-18T15:04:35.137Z</time></trkpt><trkpt lat="45.8085584" lon="11.4238835"><ele>880.0</ele><time>2026-04-18T15:04:36.137Z</time></trkpt><trkpt lat="45.8086729" lon="11.423941"><ele>882.6666666666666</ele><time>2026-04-18T15:04:38.137Z</time></trkpt><trkpt lat="45.8087372" lon="11.4239685"><ele>885.3333333333333</ele><time>2026-04-18T15:04:39.138Z</time></trkpt><trkpt lat="45.8088033" lon="11.4239967"><ele>888.0</ele><time>2026-04-18T15:04:40.136Z</time></trkpt><trkpt lat="45.808876" lon="11.424024"><ele>890.6666666666667</ele><time>2026-04-18T15:04:41.138Z</time></trkpt><trkpt lat="45.8089417" lon="11.4240621"><ele>893.3333333333334</ele><time>2026-04-18T15:04:42.138Z</time></trkpt><trkpt lat="45.8090531" lon="11.4241298"><ele>896.0</ele><time>2026-04-18T15:04:44.137Z</time></trkpt><trkpt lat="45.809169" lon="11.4241891"><ele>896.0</ele><time>2026-04-18T15:04:46.137Z</time></trkpt><trkpt lat="45.809234" lon="11.4242227"><ele>896.0</ele><time>2026-04-18T15:04:47.138Z</time></trkpt><trkpt lat="45.8093021" lon="11.4242434"><ele>896.0</ele><time>2026-04-18T15:04:48.138Z</time></trkpt><trkpt lat="45.8093491" lon="11.4243037"><ele>896.0</ele><time>2026-04-18T15:04:49.138Z</time></trkpt><trkpt lat="45.8094057" lon="11.424374"><ele>896.0</ele><time>2026-04-18T15:04:50.137Z</time></trkpt><trkpt lat="45.8094613" lon="11.4244313"><ele>896.0</ele><time>2026-04-18T15:04:51.137Z</time></trkpt><trkpt lat="45.8095187" lon="11.4245104"><ele>896.0</ele><time>2026-04-18T15:04:52.137Z</time></trkpt><trkpt lat="45.8096008" lon="11.4246391"><ele>896.5999999999999</ele><time>2026-04-18T15:04:54.136Z</time></trkpt><trkpt lat="45.8096423" lon="11.4247699"><ele>897.1999999999999</ele><time>2026-04-18T15:04:56.137Z</time></trkpt><trkpt lat="45.8096912" lon="11.4248726"><ele>897.8000000000001</ele><time>2026-04-18T15:04:58.136Z</time></trkpt><trkpt lat="45.8097444" lon="11.4249704"><ele>898.4000000000001</ele><time>2026-04-18T15:05:00.139Z</time></trkpt><trkpt lat="45.8097994" lon="11.4251252"><ele>899.0</ele><time>2026-04-18T15:05:02.139Z</time></trkpt><trkpt lat="45.8098597" lon="11.4252713"><ele>899.0</ele><time>2026-04-18T15:05:04.138Z</time></trkpt><trkpt lat="45.8099156" lon="11.4254081"><ele>899.0000000000001</ele><time>2026-04-18T15:05:06.139Z</time></trkpt><trkpt lat="45.8100018" lon="11.4255543"><ele>899.0000000000001</ele><time>2026-04-18T15:05:08.139Z</time></trkpt><trkpt lat="45.810046" lon="11.4256454"><ele>899.0</ele><time>2026-04-18T15:05:09.138Z</time></trkpt><trkpt lat="45.810152" lon="11.4257362"><ele>899.0</ele><time>2026-04-18T15:05:11.137Z</time></trkpt><trkpt lat="45.8102471" lon="11.4258651"><ele>901.1666666666667</ele><time>2026-04-18T15:05:13.139Z</time></trkpt><trkpt lat="45.8103333" lon="11.4259075"><ele>903.3333333333334</ele><time>2026-04-18T15:05:14.137Z</time></trkpt><trkpt lat="45.810398" lon="11.4259446"><ele>905.5</ele><time>2026-04-18T15:05:15.139Z</time></trkpt><trkpt lat="45.8104745" lon="11.4259426"><ele>907.6666666666667</ele><time>2026-04-18T15:05:16.139Z</time></trkpt><trkpt lat="45.8105531" lon="11.4259638"><ele>909.8333333333334</ele><time>2026-04-18T15:05:17.137Z</time></trkpt><trkpt lat="45.8106298" lon="11.4259589"><ele>912.0</ele><time>2026-04-18T15:05:18.138Z</time></trkpt><trkpt lat="45.8106963" lon="11.4259721"><ele>912.0</ele><time>2026-04-18T15:05:19.139Z</time></trkpt><trkpt lat="45.8108314" lon="11.4259866"><ele>912.0</ele><time>2026-04-18T15:05:21.137Z</time></trkpt><trkpt lat="45.8108926" lon="11.4260138"><ele>912.0</ele><time>2026-04-18T15:05:22.138Z</time></trkpt><trkpt lat="45.8109541" lon="11.4260403"><ele>912.0</ele><time>2026-04-18T15:05:23.139Z</time></trkpt><trkpt lat="45.8110268" lon="11.4260793"><ele>912.0</ele><time>2026-04-18T15:05:24.139Z</time></trkpt><trkpt lat="45.8111376" lon="11.4261345"><ele>914.4000000000001</ele><time>2026-04-18T15:05:26.138Z</time></trkpt><trkpt lat="45.8111879" lon="11.4261982"><ele>916.8000000000001</ele><time>2026-04-18T15:05:27.139Z</time></trkpt><trkpt lat="45.8112822" lon="11.4262873"><ele>919.2</ele><time>2026-04-18T15:05:29.138Z</time></trkpt><trkpt lat="45.8113859" lon="11.4263805"><ele>921.6</ele><time>2026-04-18T15:05:31.139Z</time></trkpt><trkpt lat="45.8114602" lon="11.4264286"><ele>924.0</ele><time>2026-04-18T15:05:32.138Z</time></trkpt><trkpt lat="45.8115848" lon="11.4264872"><ele>924.6</ele><time>2026-04-18T15:05:34.138Z</time></trkpt><trkpt lat="45.8116463" lon="11.4265498"><ele>925.2</ele><time>2026-04-18T15:05:35.139Z</time></trkpt><trkpt lat="45.8117525" lon="11.4266483"><ele>925.8000000000001</ele><time>2026-04-18T15:05:37.138Z</time></trkpt><trkpt lat="45.811828" lon="11.4267281"><ele>926.4000000000001</ele><time>2026-04-18T15:05:38.138Z</time></trkpt><trkpt lat="45.8119359" lon="11.4268146"><ele>927.0</ele><time>2026-04-18T15:05:40.138Z</time></trkpt><trkpt lat="45.8119919" lon="11.4268633"><ele>928.6</ele><time>2026-04-18T15:05:41.138Z</time></trkpt><trkpt lat="45.8120668" lon="11.4269871"><ele>930.2</ele><time>2026-04-18T15:05:43.138Z</time></trkpt><trkpt lat="45.8121507" lon="11.4270907"><ele>931.8</ele><time>2026-04-18T15:05:45.138Z</time></trkpt><trkpt lat="45.8122418" lon="11.4271577"><ele>933.4</ele><time>2026-04-18T15:05:47.139Z</time></trkpt><trkpt lat="45.8123052" lon="11.427205"><ele>935.0</ele><time>2026-04-18T15:05:50.137Z</time></trkpt><trkpt lat="45.8122105" lon="11.4272045"><ele>935.0</ele><time>2026-04-18T15:05:54.139Z</time></trkpt><trkpt lat="45.8121098" lon="11.427144"><ele>935.0</ele><time>2026-04-18T15:05:56.138Z</time></trkpt><trkpt lat="45.8119949" lon="11.4270525"><ele>935.0</ele><time>2026-04-18T15:05:58.139Z</time></trkpt><trkpt lat="45.8119188" lon="11.4269961"><ele>935.0</ele><time>2026-04-18T15:05:59.138Z</time></trkpt><trkpt lat="45.8118385" lon="11.4269338"><ele>935.0</ele><time>2026-04-18T15:06:00.139Z</time></trkpt><trkpt lat="45.8117473" lon="11.4268656"><ele>933.0</ele><time>2026-04-18T15:06:01.139Z</time></trkpt><trkpt lat="45.811648" lon="11.4267935"><ele>931.0</ele><time>2026-04-18T15:06:02.139Z</time></trkpt><trkpt lat="45.811537" lon="11.426718"><ele>929.0</ele><time>2026-04-18T15:06:03.139Z</time></trkpt><trkpt lat="45.8114238" lon="11.4266312"><ele>927.0</ele><time>2026-04-18T15:06:04.138Z</time></trkpt><trkpt lat="45.8113033" lon="11.4265439"><ele>927.0</ele><time>2026-04-18T15:06:05.138Z</time></trkpt><trkpt lat="45.8111708" lon="11.4264662"><ele>927.0</ele><time>2026-04-18T15:06:06.139Z</time></trkpt><trkpt lat="45.8110232" lon="11.426402"><ele>927.0</ele><time>2026-04-18T15:06:07.138Z</time></trkpt><trkpt lat="45.8108609" lon="11.4263562"><ele>927.6666666666667</ele><time>2026-04-18T15:06:08.138Z</time></trkpt><trkpt lat="45.8106872" lon="11.4263116"><ele>928.3333333333334</ele><time>2026-04-18T15:06:09.139Z</time></trkpt><trkpt lat="45.8105071" lon="11.4262664"><ele>929.0</ele><time>2026-04-18T15:06:10.138Z</time></trkpt><trkpt lat="45.8103262" lon="11.4262088"><ele>922.0</ele><time>2026-04-18T15:06:11.138Z</time></trkpt><trkpt lat="45.8101564" lon="11.4261443"><ele>915.0</ele><time>2026-04-18T15:06:12.139Z</time></trkpt><trkpt lat="45.8099891" lon="11.4260718"><ele>908.0</ele><time>2026-04-18T15:06:13.138Z</time></trkpt><trkpt lat="45.8098331" lon="11.425976"><ele>908.0</ele><time>2026-04-18T15:06:14.139Z</time></trkpt><trkpt lat="45.8097086" lon="11.4257964"><ele>908.0</ele><time>2026-04-18T15:06:15.139Z</time></trkpt><trkpt lat="45.8095919" lon="11.4256232"><ele>908.0</ele><time>2026-04-18T15:06:16.138Z</time></trkpt><trkpt lat="45.8094835" lon="11.4254554"><ele>907.0</ele><time>2026-04-18T15:06:17.137Z</time></trkpt><trkpt lat="45.8093681" lon="11.4253121"><ele>906.0</ele><time>2026-04-18T15:06:18.137Z</time></trkpt><trkpt lat="45.8092272" lon="11.4251899"><ele>905.0</ele><time>2026-04-18T15:06:19.138Z</time></trkpt><trkpt lat="45.8090946" lon="11.4250615"><ele>905.0</ele><time>2026-04-18T15:06:20.139Z</time></trkpt><trkpt lat="45.8089577" lon="11.4249755"><ele>905.0</ele><time>2026-04-18T15:06:21.137Z</time></trkpt><trkpt lat="45.8087806" lon="11.4248808"><ele>905.0</ele><time>2026-04-18T15:06:22.137Z</time></trkpt><trkpt lat="45.808599" lon="11.4248945"><ele>906.3333333333334</ele><time>2026-04-18T15:06:23.139Z</time></trkpt><trkpt lat="45.8084254" lon="11.4248626"><ele>907.6666666666667</ele><time>2026-04-18T15:06:24.137Z</time></trkpt><trkpt lat="45.8082613" lon="11.4248114"><ele>909.0</ele><time>2026-04-18T15:06:25.138Z</time></trkpt><trkpt lat="45.8081076" lon="11.424729"><ele>909.0</ele><time>2026-04-18T15:06:26.139Z</time></trkpt><trkpt lat="45.8079553" lon="11.4246734"><ele>909.0</ele><time>2026-04-18T15:06:27.138Z</time></trkpt><trkpt lat="45.8078589" lon="11.4244987"><ele>909.0</ele><time>2026-04-18T15:06:28.138Z</time></trkpt><trkpt lat="45.8077473" lon="11.4243677"><ele>905.25</ele><time>2026-04-18T15:06:29.139Z</time></trkpt><trkpt lat="45.8076243" lon="11.4242442"><ele>901.5</ele><time>2026-04-18T15:06:30.137Z</time></trkpt><trkpt lat="45.8074819" lon="11.4241511"><ele>897.75</ele><time>2026-04-18T15:06:31.139Z</time></trkpt><trkpt lat="45.8073523" lon="11.4240683"><ele>894.0</ele><time>2026-04-18T15:06:32.137Z</time></trkpt><trkpt lat="45.8072175" lon="11.4240161"><ele>894.0</ele><time>2026-04-18T15:06:33.138Z</time></trkpt><trkpt lat="45.8070483" lon="11.4239932"><ele>894.0</ele><time>2026-04-18T15:06:34.138Z</time></trkpt><trkpt lat="45.8068708" lon="11.4240006"><ele>894.0</ele><time>2026-04-18T15:06:35.139Z</time></trkpt><trkpt lat="45.8067106" lon="11.4239594"><ele>896.3333333333333</ele><time>2026-04-18T15:06:36.139Z</time></trkpt><trkpt lat="45.8065455" lon="11.4238688"><ele>898.6666666666666</ele><time>2026-04-18T15:06:37.139Z</time></trkpt><trkpt lat="45.8063919" lon="11.4237728"><ele>901.0</ele><time>2026-04-18T15:06:38.138Z</time></trkpt><trkpt lat="45.8062461" lon="11.4236254"><ele>896.0</ele><time>2026-04-18T15:06:39.137Z</time></trkpt><trkpt lat="45.8061029" lon="11.423461"><ele>891.0</ele><time>2026-04-18T15:06:40.139Z</time></trkpt><trkpt lat="45.8059661" lon="11.4233144"><ele>886.0</ele><time>2026-04-18T15:06:41.138Z</time></trkpt><trkpt lat="45.8058381" lon="11.4231933"><ele>886.0</ele><time>2026-04-18T15:06:42.138Z</time></trkpt><trkpt lat="45.8057036" lon="11.4230806"><ele>886.0</ele><time>2026-04-18T15:06:43.139Z</time></trkpt><trkpt lat="45.8055653" lon="11.4230008"><ele>886.0</ele><time>2026-04-18T15:06:44.138Z</time></trkpt><trkpt lat="45.805378" lon="11.4230078"><ele>886.0</ele><time>2026-04-18T15:06:45.138Z</time></trkpt><trkpt lat="45.8052019" lon="11.4229853"><ele>886.0</ele><time>2026-04-18T15:06:46.138Z</time></trkpt><trkpt lat="45.8050228" lon="11.4229751"><ele>886.0</ele><time>2026-04-18T15:06:47.139Z</time></trkpt><trkpt lat="45.8048374" lon="11.422964"><ele>878.0</ele><time>2026-04-18T15:06:48.139Z</time></trkpt><trkpt lat="45.8046438" lon="11.4229398"><ele>870.0</ele><time>2026-04-18T15:06:49.138Z</time></trkpt><trkpt lat="45.8044485" lon="11.4229157"><ele>862.0</ele><time>2026-04-18T15:06:50.137Z</time></trkpt><trkpt lat="45.8042522" lon="11.4228923"><ele>860.6666666666666</ele><time>2026-04-18T15:06:51.137Z</time></trkpt><trkpt lat="45.8040493" lon="11.4228669"><ele>859.3333333333333</ele><time>2026-04-18T15:06:52.137Z</time></trkpt><trkpt lat="45.8038462" lon="11.4228345"><ele>858.0</ele><time>2026-04-18T15:06:53.139Z</time></trkpt><trkpt lat="45.8036418" lon="11.4227811"><ele>859.0</ele><time>2026-04-18T15:06:54.138Z</time></trkpt><trkpt lat="45.8034402" lon="11.4227145"><ele>860.0</ele><time>2026-04-18T15:06:55.139Z</time></trkpt><trkpt lat="45.8032378" lon="11.4226471"><ele>861.0</ele><time>2026-04-18T15:06:56.139Z</time></trkpt><trkpt lat="45.8030332" lon="11.422583"><ele>861.0</ele><time>2026-04-18T15:06:57.138Z</time></trkpt><trkpt lat="45.8028327" lon="11.4225121"><ele>861.0</ele><time>2026-04-18T15:06:58.139Z</time></trkpt><trkpt lat="45.8026379" lon="11.4224556"><ele>861.0</ele><time>2026-04-18T15:06:59.139Z</time></trkpt><trkpt lat="45.8024617" lon="11.4223965"><ele>862.6666666666667</ele><time>2026-04-18T15:07:00.137Z</time></trkpt><trkpt lat="45.8022929" lon="11.4223633"><ele>864.3333333333334</ele><time>2026-04-18T15:07:01.139Z</time></trkpt><trkpt lat="45.8021244" lon="11.4223595"><ele>866.0</ele><time>2026-04-18T15:07:02.139Z</time></trkpt><trkpt lat="45.8019567" lon="11.4223898"><ele>863.25</ele><time>2026-04-18T15:07:03.138Z</time></trkpt><trkpt lat="45.8017965" lon="11.4224307"><ele>860.5</ele><time>2026-04-18T15:07:04.139Z</time></trkpt><trkpt lat="45.8016542" lon="11.4225025"><ele>857.75</ele><time>2026-04-18T15:07:05.139Z</time></trkpt><trkpt lat="45.8015338" lon="11.4225869"><ele>855.0</ele><time>2026-04-18T15:07:06.138Z</time></trkpt><trkpt lat="45.8014305" lon="11.4227011"><ele>855.0</ele><time>2026-04-18T15:07:07.138Z</time></trkpt><trkpt lat="45.8013575" lon="11.4228469"><ele>855.0</ele><time>2026-04-18T15:07:08.138Z</time></trkpt><trkpt lat="45.8013187" lon="11.4230073"><ele>855.0</ele><time>2026-04-18T15:07:09.139Z</time></trkpt><trkpt lat="45.8012884" lon="11.4231736"><ele>855.0</ele><time>2026-04-18T15:07:10.138Z</time></trkpt><trkpt lat="45.8013421" lon="11.4233839"><ele>858.25</ele><time>2026-04-18T15:07:11.137Z</time></trkpt><trkpt lat="45.8013901" lon="11.4235853"><ele>861.5</ele><time>2026-04-18T15:07:12.137Z</time></trkpt><trkpt lat="45.801416" lon="11.4237827"><ele>864.75</ele><time>2026-04-18T15:07:13.138Z</time></trkpt><trkpt lat="45.8014215" lon="11.4239773"><ele>868.0</ele><time>2026-04-18T15:07:14.139Z</time></trkpt><trkpt lat="45.8013965" lon="11.424165"><ele>868.75</ele><time>2026-04-18T15:07:15.137Z</time></trkpt><trkpt lat="45.801338" lon="11.4243432"><ele>869.5</ele><time>2026-04-18T15:07:16.139Z</time></trkpt><trkpt lat="45.8012496" lon="11.4244909"><ele>870.25</ele><time>2026-04-18T15:07:17.139Z</time></trkpt><trkpt lat="45.8011391" lon="11.4246237"><ele>871.0</ele><time>2026-04-18T15:07:18.138Z</time></trkpt><trkpt lat="45.8010333" lon="11.424764"><ele>862.25</ele><time>2026-04-18T15:07:19.138Z</time></trkpt><trkpt lat="45.8009561" lon="11.424914"><ele>853.5</ele><time>2026-04-18T15:07:20.139Z</time></trkpt><trkpt lat="45.800897" lon="11.4250871"><ele>844.75</ele><time>2026-04-18T15:07:21.138Z</time></trkpt><trkpt lat="45.8008432" lon="11.4252488"><ele>836.0</ele><time>2026-04-18T15:07:22.137Z</time></trkpt><trkpt lat="45.8008186" lon="11.4254736"><ele>840.75</ele><time>2026-04-18T15:07:23.137Z</time></trkpt><trkpt lat="45.8007535" lon="11.4256401"><ele>845.5</ele><time>2026-04-18T15:07:24.138Z</time></trkpt><trkpt lat="45.8006705" lon="11.4257849"><ele>850.25</ele><time>2026-04-18T15:07:25.139Z</time></trkpt><trkpt lat="45.8005704" lon="11.4258961"><ele>855.0</ele><time>2026-04-18T15:07:26.138Z</time></trkpt><trkpt lat="45.8004582" lon="11.4259815"><ele>855.0</ele><time>2026-04-18T15:07:27.137Z</time></trkpt><trkpt lat="45.8003342" lon="11.4260389"><ele>855.0</ele><time>2026-04-18T15:07:28.138Z</time></trkpt><trkpt lat="45.8002114" lon="11.4261101"><ele>855.0</ele><time>2026-04-18T15:07:29.137Z</time></trkpt><trkpt lat="45.8001478" lon="11.4263096"><ele>855.0</ele><time>2026-04-18T15:07:30.138Z</time></trkpt><trkpt lat="45.8000804" lon="11.4264789"><ele>853.75</ele><time>2026-04-18T15:07:31.138Z</time></trkpt><trkpt lat="45.8000481" lon="11.4266923"><ele>852.5</ele><time>2026-04-18T15:07:32.138Z</time></trkpt><trkpt lat="45.7999917" lon="11.4268732"><ele>851.25</ele><time>2026-04-18T15:07:33.139Z</time></trkpt><trkpt lat="45.7999068" lon="11.4270264"><ele>850.0</ele><time>2026-04-18T15:07:34.138Z</time></trkpt><trkpt lat="45.7998014" lon="11.4271559"><ele>850.0</ele><time>2026-04-18T15:07:35.138Z</time></trkpt><trkpt lat="45.799692" lon="11.4272835"><ele>850.0</ele><time>2026-04-18T15:07:36.139Z</time></trkpt><trkpt lat="45.7996047" lon="11.427419"><ele>850.0</ele><time>2026-04-18T15:07:37.139Z</time></trkpt><trkpt lat="45.7995391" lon="11.4275744"><ele>850.0</ele><time>2026-04-18T15:07:38.138Z</time></trkpt><trkpt lat="45.7995041" lon="11.4277512"><ele>850.0</ele><time>2026-04-18T15:07:39.139Z</time></trkpt><trkpt lat="45.7994994" lon="11.4279447"><ele>850.0</ele><time>2026-04-18T15:07:40.139Z</time></trkpt><trkpt lat="45.7994955" lon="11.4281514"><ele>850.0</ele><time>2026-04-18T15:07:41.138Z</time></trkpt><trkpt lat="45.7994796" lon="11.4283622"><ele>850.0</ele><time>2026-04-18T15:07:42.139Z</time></trkpt><trkpt lat="45.7994423" lon="11.4285727"><ele>853.3333333333333</ele><time>2026-04-18T15:07:43.138Z</time></trkpt><trkpt lat="45.7993914" lon="11.4287841"><ele>856.6666666666667</ele><time>2026-04-18T15:07:44.138Z</time></trkpt><trkpt lat="45.7993335" lon="11.4289933"><ele>860.0</ele><time>2026-04-18T15:07:45.138Z</time></trkpt><trkpt lat="45.7992725" lon="11.4292093"><ele>850.0</ele><time>2026-04-18T15:07:46.138Z</time></trkpt><trkpt lat="45.7992011" lon="11.4294293"><ele>840.0</ele><time>2026-04-18T15:07:47.138Z</time></trkpt><trkpt lat="45.7991206" lon="11.4296465"><ele>830.0</ele><time>2026-04-18T15:07:48.139Z</time></trkpt><trkpt lat="45.7990261" lon="11.4298657"><ele>830.0</ele><time>2026-04-18T15:07:49.138Z</time></trkpt><trkpt lat="45.7989348" lon="11.430088"><ele>830.0</ele><time>2026-04-18T15:07:50.138Z</time></trkpt><trkpt lat="45.7988429" lon="11.4303071"><ele>830.0</ele><time>2026-04-18T15:07:51.139Z</time></trkpt><trkpt lat="45.7987546" lon="11.4305195"><ele>834.3333333333334</ele><time>2026-04-18T15:07:52.138Z</time></trkpt><trkpt lat="45.7986827" lon="11.4307354"><ele>838.6666666666667</ele><time>2026-04-18T15:07:53.138Z</time></trkpt><trkpt lat="45.7986458" lon="11.4309588"><ele>843.0</ele><time>2026-04-18T15:07:54.138Z</time></trkpt><trkpt lat="45.7986282" lon="11.4311909"><ele>846.6666666666667</ele><time>2026-04-18T15:07:55.138Z</time></trkpt><trkpt lat="45.798594" lon="11.4314099"><ele>850.3333333333334</ele><time>2026-04-18T15:07:56.138Z</time></trkpt><trkpt lat="45.7985296" lon="11.4316233"><ele>854.0</ele><time>2026-04-18T15:07:57.139Z</time></trkpt><trkpt lat="45.7984476" lon="11.4318278"><ele>843.0</ele><time>2026-04-18T15:07:58.138Z</time></trkpt><trkpt lat="45.7983523" lon="11.4320305"><ele>832.0</ele><time>2026-04-18T15:07:59.138Z</time></trkpt><trkpt lat="45.7982592" lon="11.4322437"><ele>821.0</ele><time>2026-04-18T15:08:00.139Z</time></trkpt><trkpt lat="45.7981644" lon="11.4324592"><ele>821.0</ele><time>2026-04-18T15:08:01.139Z</time></trkpt><trkpt lat="45.7980754" lon="11.4326822"><ele>821.0</ele><time>2026-04-18T15:08:02.138Z</time></trkpt><trkpt lat="45.7980041" lon="11.4329202"><ele>821.0</ele><time>2026-04-18T15:08:03.138Z</time></trkpt><trkpt lat="45.7979514" lon="11.4331703"><ele>824.0</ele><time>2026-04-18T15:08:04.138Z</time></trkpt><trkpt lat="45.7979012" lon="11.4334253"><ele>827.0</ele><time>2026-04-18T15:08:05.137Z</time></trkpt><trkpt lat="45.7978476" lon="11.4336847"><ele>830.0</ele><time>2026-04-18T15:08:06.137Z</time></trkpt><trkpt lat="45.7977866" lon="11.433941"><ele>834.0</ele><time>2026-04-18T15:08:07.138Z</time></trkpt><trkpt lat="45.7977152" lon="11.4341969"><ele>838.0</ele><time>2026-04-18T15:08:08.139Z</time></trkpt><trkpt lat="45.7976419" lon="11.4344521"><ele>842.0</ele><time>2026-04-18T15:08:09.139Z</time></trkpt><trkpt lat="45.7975665" lon="11.4347029"><ele>827.3333333333334</ele><time>2026-04-18T15:08:10.139Z</time></trkpt><trkpt lat="45.7974921" lon="11.4349529"><ele>812.6666666666667</ele><time>2026-04-18T15:08:11.139Z</time></trkpt><trkpt lat="45.797416" lon="11.4352009"><ele>798.0</ele><time>2026-04-18T15:08:12.139Z</time></trkpt><trkpt lat="45.797341" lon="11.4354396"><ele>800.6666666666667</ele><time>2026-04-18T15:08:13.139Z</time></trkpt><trkpt lat="45.7972708" lon="11.4356669"><ele>803.3333333333334</ele><time>2026-04-18T15:08:14.139Z</time></trkpt><trkpt lat="45.7971982" lon="11.4358956"><ele>806.0</ele><time>2026-04-18T15:08:15.137Z</time></trkpt><trkpt lat="45.7971325" lon="11.4361122"><ele>809.0</ele><time>2026-04-18T15:08:16.138Z</time></trkpt><trkpt lat="45.7970731" lon="11.4363128"><ele>812.0</ele><time>2026-04-18T15:08:17.137Z</time></trkpt><trkpt lat="45.7970224" lon="11.4364947"><ele>815.0</ele><time>2026-04-18T15:08:18.138Z</time></trkpt><trkpt lat="45.7969796" lon="11.4366562"><ele>818.0</ele><time>2026-04-18T15:08:19.139Z</time></trkpt><trkpt lat="45.7969458" lon="11.4367985"><ele>818.0</ele><time>2026-04-18T15:08:20.138Z</time></trkpt><trkpt lat="45.7969091" lon="11.4369126"><ele>818.0</ele><time>2026-04-18T15:08:21.138Z</time></trkpt><trkpt lat="45.796855" lon="11.4369791"><ele>818.0</ele><time>2026-04-18T15:08:22.138Z</time></trkpt><trkpt lat="45.7967468" lon="11.4369618"><ele>818.0</ele><time>2026-04-18T15:08:24.138Z</time></trkpt><trkpt lat="45.7967106" lon="11.436808"><ele>818.0</ele><time>2026-04-18T15:08:26.138Z</time></trkpt><trkpt lat="45.7967399" lon="11.4367128"><ele>818.0</ele><time>2026-04-18T15:08:27.139Z</time></trkpt><trkpt lat="45.7967801" lon="11.4366029"><ele>818.0</ele><time>2026-04-18T15:08:28.139Z</time></trkpt><trkpt lat="45.7968255" lon="11.4364802"><ele>818.0</ele><time>2026-04-18T15:08:29.139Z</time></trkpt><trkpt lat="45.7968728" lon="11.4363336"><ele>818.0</ele><time>2026-04-18T15:08:30.139Z</time></trkpt><trkpt lat="45.7969193" lon="11.4361689"><ele>818.0</ele><time>2026-04-18T15:08:31.138Z</time></trkpt><trkpt lat="45.7969674" lon="11.4359887"><ele>814.0</ele><time>2026-04-18T15:08:32.138Z</time></trkpt><trkpt lat="45.7970129" lon="11.4357789"><ele>810.0</ele><time>2026-04-18T15:08:33.139Z</time></trkpt><trkpt lat="45.7970588" lon="11.4355358"><ele>806.0</ele><time>2026-04-18T15:08:34.139Z</time></trkpt><trkpt lat="45.7970977" lon="11.4352579"><ele>803.3333333333334</ele><time>2026-04-18T15:08:35.139Z</time></trkpt><trkpt lat="45.7971371" lon="11.4349514"><ele>800.6666666666667</ele><time>2026-04-18T15:08:36.138Z</time></trkpt><trkpt lat="45.7971782" lon="11.4346244"><ele>798.0</ele><time>2026-04-18T15:08:37.138Z</time></trkpt><trkpt lat="45.7972284" lon="11.4342935"><ele>796.0</ele><time>2026-04-18T15:08:38.139Z</time></trkpt><trkpt lat="45.7972909" lon="11.4339603"><ele>794.0</ele><time>2026-04-18T15:08:39.139Z</time></trkpt><trkpt lat="45.7973445" lon="11.4336256"><ele>790.5</ele><time>2026-04-18T15:08:40.139Z</time></trkpt><trkpt lat="45.7973764" lon="11.4332835"><ele>787.0</ele><time>2026-04-18T15:08:41.138Z</time></trkpt><trkpt lat="45.7973984" lon="11.4329422"><ele>783.3333333333333</ele><time>2026-04-18T15:08:42.138Z</time></trkpt><trkpt lat="45.7974207" lon="11.4326183"><ele>779.6666666666667</ele><time>2026-04-18T15:08:43.138Z</time></trkpt><trkpt lat="45.7974493" lon="11.4323142"><ele>776.0</ele><time>2026-04-18T15:08:44.139Z</time></trkpt><trkpt lat="45.7974941" lon="11.4320386"><ele>772.6666666666667</ele><time>2026-04-18T15:08:45.138Z</time></trkpt><trkpt lat="45.797566" lon="11.4317816"><ele>769.3333333333334</ele><time>2026-04-18T15:08:46.137Z</time></trkpt><trkpt lat="45.7976631" lon="11.4315338"><ele>766.0</ele><time>2026-04-18T15:08:47.138Z</time></trkpt><trkpt lat="45.7977552" lon="11.4312785"><ele>772.3333333333334</ele><time>2026-04-18T15:08:48.139Z</time></trkpt><trkpt lat="45.7978156" lon="11.4310083"><ele>778.6666666666667</ele><time>2026-04-18T15:08:49.138Z</time></trkpt><trkpt lat="45.7978486" lon="11.4307246"><ele>785.0</ele><time>2026-04-18T15:08:50.138Z</time></trkpt><trkpt lat="45.7978707" lon="11.4304439"><ele>785.0</ele><time>2026-04-18T15:08:51.139Z</time></trkpt><trkpt lat="45.7979109" lon="11.4301709"><ele>785.0</ele><time>2026-04-18T15:08:52.138Z</time></trkpt><trkpt lat="45.7979718" lon="11.4299125"><ele>785.0</ele><time>2026-04-18T15:08:53.138Z</time></trkpt><trkpt lat="45.7980404" lon="11.4296781"><ele>782.6</ele><time>2026-04-18T15:08:54.138Z</time></trkpt><trkpt lat="45.7980991" lon="11.4294855"><ele>780.2</ele><time>2026-04-18T15:08:55.137Z</time></trkpt><trkpt lat="45.7981372" lon="11.4293285"><ele>777.8</ele><time>2026-04-18T15:08:56.139Z</time></trkpt><trkpt lat="45.7981343" lon="11.4291876"><ele>775.4</ele><time>2026-04-18T15:08:57.138Z</time></trkpt><trkpt lat="45.7981338" lon="11.4290663"><ele>773.0</ele><time>2026-04-18T15:08:58.139Z</time></trkpt><trkpt lat="45.7980987" lon="11.4289493"><ele>773.0</ele><time>2026-04-18T15:08:59.138Z</time></trkpt><trkpt lat="45.798026" lon="11.4288673"><ele>773.0</ele><time>2026-04-18T15:09:00.138Z</time></trkpt><trkpt lat="45.7978912" lon="11.428986"><ele>773.0</ele><time>2026-04-18T15:09:01.138Z</time></trkpt><trkpt lat="45.7978691" lon="11.4292721"><ele>773.0000000000001</ele><time>2026-04-18T15:09:02.138Z</time></trkpt><trkpt lat="45.7978348" lon="11.4293635"><ele>773.0</ele><time>2026-04-18T15:09:03.139Z</time></trkpt><trkpt lat="45.7978039" lon="11.4294717"><ele>773.0</ele><time>2026-04-18T15:09:04.138Z</time></trkpt><trkpt lat="45.7977822" lon="11.4295792"><ele>773.0</ele><time>2026-04-18T15:09:05.138Z</time></trkpt><trkpt lat="45.7977582" lon="11.4296839"><ele>773.0000000000001</ele><time>2026-04-18T15:09:06.137Z</time></trkpt><trkpt lat="45.7977369" lon="11.4297873"><ele>773.0</ele><time>2026-04-18T15:09:07.138Z</time></trkpt><trkpt lat="45.7977156" lon="11.4298818"><ele>774.7142857142857</ele><time>2026-04-18T15:09:08.138Z</time></trkpt><trkpt lat="45.7977006" lon="11.4299703"><ele>776.4285714285713</ele><time>2026-04-18T15:09:09.137Z</time></trkpt><trkpt lat="45.7976878" lon="11.4300623"><ele>778.1428571428571</ele><time>2026-04-18T15:09:10.137Z</time></trkpt><trkpt lat="45.7976739" lon="11.4301624"><ele>779.8571428571429</ele><time>2026-04-18T15:09:11.138Z</time></trkpt><trkpt lat="45.7976571" lon="11.4302652"><ele>781.5714285714286</ele><time>2026-04-18T15:09:12.139Z</time></trkpt><trkpt lat="45.7976375" lon="11.4303656"><ele>783.2857142857143</ele><time>2026-04-18T15:09:13.138Z</time></trkpt><trkpt lat="45.7976154" lon="11.4304731"><ele>785.0</ele><time>2026-04-18T15:09:14.139Z</time></trkpt><trkpt lat="45.7975877" lon="11.4305815"><ele>778.4</ele><time>2026-04-18T15:09:15.138Z</time></trkpt><trkpt lat="45.7975541" lon="11.430701"><ele>771.8</ele><time>2026-04-18T15:09:16.138Z</time></trkpt><trkpt lat="45.7975094" lon="11.4308294"><ele>765.2</ele><time>2026-04-18T15:09:17.138Z</time></trkpt><trkpt lat="45.7974546" lon="11.4309652"><ele>758.6</ele><time>2026-04-18T15:09:18.139Z</time></trkpt><trkpt lat="45.7973919" lon="11.4311016"><ele>752.0</ele><time>2026-04-18T15:09:19.138Z</time></trkpt><trkpt lat="45.7973225" lon="11.4312295"><ele>755.5</ele><time>2026-04-18T15:09:20.137Z</time></trkpt><trkpt lat="45.7972412" lon="11.4313576"><ele>759.0</ele><time>2026-04-18T15:09:21.138Z</time></trkpt><trkpt lat="45.7971686" lon="11.4314939"><ele>762.5</ele><time>2026-04-18T15:09:22.138Z</time></trkpt><trkpt lat="45.7971082" lon="11.4316503"><ele>766.0</ele><time>2026-04-18T15:09:23.139Z</time></trkpt><trkpt lat="45.7970613" lon="11.4318083"><ele>766.0</ele><time>2026-04-18T15:09:24.137Z</time></trkpt><trkpt lat="45.7970243" lon="11.4319629"><ele>766.0</ele><time>2026-04-18T15:09:25.139Z</time></trkpt><trkpt lat="45.7969893" lon="11.4321227"><ele>766.0</ele><time>2026-04-18T15:09:26.138Z</time></trkpt><trkpt lat="45.7969598" lon="11.4322857"><ele>766.0</ele><time>2026-04-18T15:09:27.137Z</time></trkpt><trkpt lat="45.7969333" lon="11.4324522"><ele>768.5</ele><time>2026-04-18T15:09:28.138Z</time></trkpt><trkpt lat="45.7969056" lon="11.432623"><ele>771.0</ele><time>2026-04-18T15:09:29.138Z</time></trkpt><trkpt lat="45.7968788" lon="11.4327906"><ele>773.5</ele><time>2026-04-18T15:09:30.137Z</time></trkpt><trkpt lat="45.7968441" lon="11.432952"><ele>776.0</ele><time>2026-04-18T15:09:31.138Z</time></trkpt><trkpt lat="45.7968022" lon="11.4331045"><ele>766.25</ele><time>2026-04-18T15:09:32.139Z</time></trkpt><trkpt lat="45.7967501" lon="11.4332629"><ele>756.5</ele><time>2026-04-18T15:09:33.139Z</time></trkpt><trkpt lat="45.7966958" lon="11.4334277"><ele>746.75</ele><time>2026-04-18T15:09:34.137Z</time></trkpt><trkpt lat="45.7966351" lon="11.4336062"><ele>737.0</ele><time>2026-04-18T15:09:35.139Z</time></trkpt><trkpt lat="45.7965665" lon="11.4337904"><ele>740.6666666666666</ele><time>2026-04-18T15:09:36.139Z</time></trkpt><trkpt lat="45.7964996" lon="11.4339893"><ele>744.3333333333334</ele><time>2026-04-18T15:09:37.137Z</time></trkpt><trkpt lat="45.7964324" lon="11.4341925"><ele>748.0</ele><time>2026-04-18T15:09:38.139Z</time></trkpt><trkpt lat="45.7963648" lon="11.4343898"><ele>748.0</ele><time>2026-04-18T15:09:39.138Z</time></trkpt><trkpt lat="45.7962991" lon="11.4345744"><ele>748.0</ele><time>2026-04-18T15:09:40.137Z</time></trkpt><trkpt lat="45.7962388" lon="11.4347495"><ele>748.0</ele><time>2026-04-18T15:09:41.138Z</time></trkpt><trkpt lat="45.7961849" lon="11.4349082"><ele>748.0</ele><time>2026-04-18T15:09:42.139Z</time></trkpt><trkpt lat="45.7961338" lon="11.4350614"><ele>749.2</ele><time>2026-04-18T15:09:43.139Z</time></trkpt><trkpt lat="45.7960811" lon="11.4352099"><ele>750.4</ele><time>2026-04-18T15:09:44.138Z</time></trkpt><trkpt lat="45.796028" lon="11.4353508"><ele>751.6</ele><time>2026-04-18T15:09:45.138Z</time></trkpt><trkpt lat="45.7959725" lon="11.435483"><ele>752.8000000000001</ele><time>2026-04-18T15:09:46.137Z</time></trkpt><trkpt lat="45.7959119" lon="11.4356127"><ele>754.0</ele><time>2026-04-18T15:09:47.139Z</time></trkpt><trkpt lat="45.7958475" lon="11.4357378"><ele>749.0</ele><time>2026-04-18T15:09:48.138Z</time></trkpt><trkpt lat="45.7957806" lon="11.4358617"><ele>744.0</ele><time>2026-04-18T15:09:49.139Z</time></trkpt><trkpt lat="45.7957207" lon="11.4359761"><ele>739.0</ele><time>2026-04-18T15:09:50.139Z</time></trkpt><trkpt lat="45.7956648" lon="11.4360889"><ele>734.0</ele><time>2026-04-18T15:09:51.138Z</time></trkpt><trkpt lat="45.7956034" lon="11.4361788"><ele>729.0</ele><time>2026-04-18T15:09:52.139Z</time></trkpt><trkpt lat="45.7955374" lon="11.436224"><ele>729.0</ele><time>2026-04-18T15:09:53.139Z</time></trkpt><trkpt lat="45.7954643" lon="11.4362135"><ele>729.0</ele><time>2026-04-18T15:09:54.138Z</time></trkpt><trkpt lat="45.7954101" lon="11.4361594"><ele>729.0</ele><time>2026-04-18T15:09:55.138Z</time></trkpt><trkpt lat="45.7953968" lon="11.4360515"><ele>729.0</ele><time>2026-04-18T15:09:56.139Z</time></trkpt><trkpt lat="45.7954168" lon="11.435946"><ele>729.0</ele><time>2026-04-18T15:09:57.139Z</time></trkpt><trkpt lat="45.7954718" lon="11.4358545"><ele>729.0</ele><time>2026-04-18T15:09:58.137Z</time></trkpt><trkpt lat="45.7955405" lon="11.4357752"><ele>729.0</ele><time>2026-04-18T15:09:59.138Z</time></trkpt><trkpt lat="45.7956102" lon="11.4356875"><ele>729.0</ele><time>2026-04-18T15:10:00.138Z</time></trkpt><trkpt lat="45.7956776" lon="11.435585"><ele>729.0</ele><time>2026-04-18T15:10:01.138Z</time></trkpt><trkpt lat="45.7957396" lon="11.4354492"><ele>729.0</ele><time>2026-04-18T15:10:02.137Z</time></trkpt><trkpt lat="45.7957918" lon="11.4352788"><ele>729.0</ele><time>2026-04-18T15:10:03.138Z</time></trkpt><trkpt lat="45.7958371" lon="11.4350795"><ele>725.6666666666666</ele><time>2026-04-18T15:10:04.138Z</time></trkpt><trkpt lat="45.7958833" lon="11.4348699"><ele>722.3333333333333</ele><time>2026-04-18T15:10:05.138Z</time></trkpt><trkpt lat="45.7959302" lon="11.4346492"><ele>719.0</ele><time>2026-04-18T15:10:06.138Z</time></trkpt><trkpt lat="45.7959793" lon="11.4344213"><ele>725.0</ele><time>2026-04-18T15:10:07.139Z</time></trkpt><trkpt lat="45.7960291" lon="11.4341947"><ele>731.0</ele><time>2026-04-18T15:10:08.139Z</time></trkpt><trkpt lat="45.7960777" lon="11.4339682"><ele>737.0</ele><time>2026-04-18T15:10:09.138Z</time></trkpt><trkpt lat="45.7961272" lon="11.4337505"><ele>737.0</ele><time>2026-04-18T15:10:10.137Z</time></trkpt><trkpt lat="45.7961731" lon="11.4335348"><ele>737.0</ele><time>2026-04-18T15:10:11.138Z</time></trkpt><trkpt lat="45.7962232" lon="11.4333196"><ele>737.0</ele><time>2026-04-18T15:10:12.137Z</time></trkpt><trkpt lat="45.7962735" lon="11.4331044"><ele>734.25</ele><time>2026-04-18T15:10:13.138Z</time></trkpt><trkpt lat="45.7963135" lon="11.4328929"><ele>731.5</ele><time>2026-04-18T15:10:14.139Z</time></trkpt><trkpt lat="45.7963331" lon="11.4326826"><ele>728.75</ele><time>2026-04-18T15:10:15.138Z</time></trkpt><trkpt lat="45.7963279" lon="11.4324782"><ele>726.0</ele><time>2026-04-18T15:10:16.138Z</time></trkpt><trkpt lat="45.7963098" lon="11.432275"><ele>724.5</ele><time>2026-04-18T15:10:17.138Z</time></trkpt><trkpt lat="45.7962957" lon="11.4320712"><ele>723.0</ele><time>2026-04-18T15:10:18.139Z</time></trkpt><trkpt lat="45.7962902" lon="11.4318626"><ele>721.5</ele><time>2026-04-18T15:10:19.138Z</time></trkpt><trkpt lat="45.7963005" lon="11.4316498"><ele>720.0</ele><time>2026-04-18T15:10:20.138Z</time></trkpt><trkpt lat="45.7963243" lon="11.4314359"><ele>717.0</ele><time>2026-04-18T15:10:21.138Z</time></trkpt><trkpt lat="45.796363" lon="11.4312319"><ele>714.0</ele><time>2026-04-18T15:10:22.137Z</time></trkpt><trkpt lat="45.7964149" lon="11.4310373"><ele>711.0</ele><time>2026-04-18T15:10:23.138Z</time></trkpt><trkpt lat="45.7964709" lon="11.4308478"><ele>708.0</ele><time>2026-04-18T15:10:24.139Z</time></trkpt><trkpt lat="45.7965268" lon="11.4306685"><ele>708.0</ele><time>2026-04-18T15:10:25.138Z</time></trkpt><trkpt lat="45.7965831" lon="11.4304917"><ele>708.0</ele><time>2026-04-18T15:10:26.137Z</time></trkpt><trkpt lat="45.7966335" lon="11.4303118"><ele>708.0</ele><time>2026-04-18T15:10:27.137Z</time></trkpt><trkpt lat="45.796674" lon="11.4301235"><ele>708.0</ele><time>2026-04-18T15:10:28.137Z</time></trkpt><trkpt lat="45.7966883" lon="11.4299385"><ele>705.75</ele><time>2026-04-18T15:10:29.137Z</time></trkpt><trkpt lat="45.7966891" lon="11.429755"><ele>703.5</ele><time>2026-04-18T15:10:30.136Z</time></trkpt><trkpt lat="45.7966989" lon="11.4295694"><ele>701.25</ele><time>2026-04-18T15:10:31.138Z</time></trkpt><trkpt lat="45.7967175" lon="11.4293796"><ele>699.0</ele><time>2026-04-18T15:10:32.136Z</time></trkpt><trkpt lat="45.7967473" lon="11.4291801"><ele>697.0</ele><time>2026-04-18T15:10:33.138Z</time></trkpt><trkpt lat="45.7967835" lon="11.4289851"><ele>695.0</ele><time>2026-04-18T15:10:34.138Z</time></trkpt><trkpt lat="45.7968252" lon="11.428797"><ele>693.0</ele><time>2026-04-18T15:10:35.137Z</time></trkpt><trkpt lat="45.7968787" lon="11.428636"><ele>691.0</ele><time>2026-04-18T15:10:36.136Z</time></trkpt><trkpt lat="45.7969371" lon="11.4285045"><ele>694.5</ele><time>2026-04-18T15:10:37.138Z</time></trkpt><trkpt lat="45.7970021" lon="11.4284021"><ele>698.0</ele><time>2026-04-18T15:10:38.136Z</time></trkpt><trkpt lat="45.7970651" lon="11.4283227"><ele>701.5</ele><time>2026-04-18T15:10:39.137Z</time></trkpt><trkpt lat="45.7971255" lon="11.4282561"><ele>705.0</ele><time>2026-04-18T15:10:40.137Z</time></trkpt><trkpt lat="45.7971759" lon="11.4281777"><ele>708.5</ele><time>2026-04-18T15:10:41.136Z</time></trkpt><trkpt lat="45.7972097" lon="11.4280869"><ele>712.0</ele><time>2026-04-18T15:10:42.137Z</time></trkpt><trkpt lat="45.7972115" lon="11.4279882"><ele>712.0</ele><time>2026-04-18T15:10:43.137Z</time></trkpt><trkpt lat="45.7971776" lon="11.4278998"><ele>712.0</ele><time>2026-04-18T15:10:44.137Z</time></trkpt><trkpt lat="45.7971378" lon="11.4278215"><ele>712.0</ele><time>2026-04-18T15:10:45.137Z</time></trkpt><trkpt lat="45.7969886" lon="11.4279207"><ele>712.0</ele><time>2026-04-18T15:10:47.137Z</time></trkpt><trkpt lat="45.7969329" lon="11.4280377"><ele>712.0</ele><time>2026-04-18T15:10:48.136Z</time></trkpt><trkpt lat="45.7968825" lon="11.4281789"><ele>706.75</ele><time>2026-04-18T15:10:49.137Z</time></trkpt><trkpt lat="45.7968177" lon="11.4283217"><ele>701.5</ele><time>2026-04-18T15:10:50.137Z</time></trkpt><trkpt lat="45.7967571" lon="11.428477"><ele>696.25</ele><time>2026-04-18T15:10:51.138Z</time></trkpt><trkpt lat="45.7966906" lon="11.4286457"><ele>691.0</ele><time>2026-04-18T15:10:52.137Z</time></trkpt><trkpt lat="45.7966225" lon="11.4288479"><ele>691.0</ele><time>2026-04-18T15:10:53.137Z</time></trkpt><trkpt lat="45.7965444" lon="11.4290914"><ele>691.0</ele><time>2026-04-18T15:10:54.137Z</time></trkpt><trkpt lat="45.7964668" lon="11.4293671"><ele>691.0</ele><time>2026-04-18T15:10:55.137Z</time></trkpt><trkpt lat="45.796389" lon="11.429637"><ele>693.6666666666667</ele><time>2026-04-18T15:10:56.136Z</time></trkpt><trkpt lat="45.7963039" lon="11.4298851"><ele>696.3333333333334</ele><time>2026-04-18T15:10:57.137Z</time></trkpt><trkpt lat="45.7962085" lon="11.4301036"><ele>699.0</ele><time>2026-04-18T15:10:58.137Z</time></trkpt><trkpt lat="45.7961105" lon="11.4302978"><ele>702.0</ele><time>2026-04-18T15:10:59.137Z</time></trkpt><trkpt lat="45.7960205" lon="11.4304775"><ele>705.0</ele><time>2026-04-18T15:11:00.137Z</time></trkpt><trkpt lat="45.7959339" lon="11.43067"><ele>708.0</ele><time>2026-04-18T15:11:01.138Z</time></trkpt><trkpt lat="45.7958517" lon="11.4308574"><ele>700.25</ele><time>2026-04-18T15:11:02.137Z</time></trkpt><trkpt lat="45.7957773" lon="11.4310457"><ele>692.5</ele><time>2026-04-18T15:11:03.138Z</time></trkpt><trkpt lat="45.7957157" lon="11.4312322"><ele>684.75</ele><time>2026-04-18T15:11:04.136Z</time></trkpt><trkpt lat="45.79567" lon="11.4314201"><ele>677.0</ele><time>2026-04-18T15:11:05.137Z</time></trkpt><trkpt lat="45.7956375" lon="11.4316097"><ele>677.0</ele><time>2026-04-18T15:11:06.137Z</time></trkpt><trkpt lat="45.7956043" lon="11.4318013"><ele>677.0</ele><time>2026-04-18T15:11:07.137Z</time></trkpt><trkpt lat="45.7955642" lon="11.4319942"><ele>677.0</ele><time>2026-04-18T15:11:08.137Z</time></trkpt><trkpt lat="45.795511" lon="11.4321871"><ele>677.0</ele><time>2026-04-18T15:11:09.137Z</time></trkpt><trkpt lat="45.7954458" lon="11.4323801"><ele>679.0</ele><time>2026-04-18T15:11:10.137Z</time></trkpt><trkpt lat="45.7953724" lon="11.4325535"><ele>681.0</ele><time>2026-04-18T15:11:11.138Z</time></trkpt><trkpt lat="45.7952851" lon="11.4327218"><ele>683.0</ele><time>2026-04-18T15:11:12.137Z</time></trkpt><trkpt lat="45.7951893" lon="11.4328851"><ele>685.0</ele><time>2026-04-18T15:11:13.137Z</time></trkpt><trkpt lat="45.7950927" lon="11.4330377"><ele>679.25</ele><time>2026-04-18T15:11:14.137Z</time></trkpt><trkpt lat="45.7949971" lon="11.4331887"><ele>673.5</ele><time>2026-04-18T15:11:15.137Z</time></trkpt><trkpt lat="45.7949009" lon="11.4333397"><ele>667.75</ele><time>2026-04-18T15:11:16.137Z</time></trkpt><trkpt lat="45.7948053" lon="11.4334877"><ele>662.0</ele><time>2026-04-18T15:11:17.137Z</time></trkpt><trkpt lat="45.79471" lon="11.4336361"><ele>662.0</ele><time>2026-04-18T15:11:18.137Z</time></trkpt><trkpt lat="45.794619" lon="11.4337728"><ele>662.0</ele><time>2026-04-18T15:11:19.138Z</time></trkpt><trkpt lat="45.7945298" lon="11.4339053"><ele>662.0</ele><time>2026-04-18T15:11:20.138Z</time></trkpt><trkpt lat="45.7944474" lon="11.4340388"><ele>662.0</ele><time>2026-04-18T15:11:21.137Z</time></trkpt><trkpt lat="45.7943658" lon="11.4341678"><ele>660.0</ele><time>2026-04-18T15:11:22.136Z</time></trkpt><trkpt lat="45.7942858" lon="11.43429"><ele>658.0</ele><time>2026-04-18T15:11:23.137Z</time></trkpt><trkpt lat="45.7942159" lon="11.4344036"><ele>656.0</ele><time>2026-04-18T15:11:24.137Z</time></trkpt><trkpt lat="45.7941538" lon="11.4345041"><ele>654.0</ele><time>2026-04-18T15:11:25.138Z</time></trkpt><trkpt lat="45.7941003" lon="11.4345893"><ele>652.0</ele><time>2026-04-18T15:11:26.137Z</time></trkpt><trkpt lat="45.7940565" lon="11.4346707"><ele>652.0</ele><time>2026-04-18T15:11:27.138Z</time></trkpt><trkpt lat="45.79402" lon="11.4347557"><ele>652.0</ele><time>2026-04-18T15:11:28.136Z</time></trkpt><trkpt lat="45.7939909" lon="11.4348363"><ele>652.0</ele><time>2026-04-18T15:11:29.137Z</time></trkpt><trkpt lat="45.7939345" lon="11.4349883"><ele>652.0</ele><time>2026-04-18T15:11:31.138Z</time></trkpt><trkpt lat="45.7938867" lon="11.4350501"><ele>652.0</ele><time>2026-04-18T15:11:32.138Z</time></trkpt><trkpt lat="45.7938244" lon="11.4350808"><ele>652.0</ele><time>2026-04-18T15:11:33.137Z</time></trkpt><trkpt lat="45.7937616" lon="11.4350647"><ele>652.0</ele><time>2026-04-18T15:11:34.137Z</time></trkpt><trkpt lat="45.7937006" lon="11.4349171"><ele>652.0</ele><time>2026-04-18T15:11:36.136Z</time></trkpt><trkpt lat="45.7937113" lon="11.4348161"><ele>652.0</ele><time>2026-04-18T15:11:37.137Z</time></trkpt><trkpt lat="45.7937773" lon="11.4347155"><ele>652.0</ele><time>2026-04-18T15:11:38.137Z</time></trkpt><trkpt lat="45.7938476" lon="11.4346199"><ele>652.0</ele><time>2026-04-18T15:11:39.138Z</time></trkpt><trkpt lat="45.7939273" lon="11.4345159"><ele>652.0</ele><time>2026-04-18T15:11:40.137Z</time></trkpt><trkpt lat="45.7940112" lon="11.4343947"><ele>650.5</ele><time>2026-04-18T15:11:41.137Z</time></trkpt><trkpt lat="45.7941002" lon="11.4342617"><ele>649.0</ele><time>2026-04-18T15:11:42.138Z</time></trkpt><trkpt lat="45.794186" lon="11.434109"><ele>647.5</ele><time>2026-04-18T15:11:43.137Z</time></trkpt><trkpt lat="45.7942659" lon="11.4339239"><ele>646.0</ele><time>2026-04-18T15:11:44.137Z</time></trkpt><trkpt lat="45.7943455" lon="11.433676"><ele>647.0</ele><time>2026-04-18T15:11:45.137Z</time></trkpt><trkpt lat="45.7944324" lon="11.4334103"><ele>648.0</ele><time>2026-04-18T15:11:46.136Z</time></trkpt><trkpt lat="45.7945185" lon="11.4331507"><ele>649.0</ele><time>2026-04-18T15:11:47.138Z</time></trkpt><trkpt lat="45.794603" lon="11.4328954"><ele>649.0</ele><time>2026-04-18T15:11:48.136Z</time></trkpt><trkpt lat="45.794677" lon="11.4326465"><ele>649.0</ele><time>2026-04-18T15:11:49.137Z</time></trkpt><trkpt lat="45.7947429" lon="11.4323718"><ele>649.0</ele><time>2026-04-18T15:11:50.138Z</time></trkpt><trkpt lat="45.7948018" lon="11.4320675"><ele>645.3333333333334</ele><time>2026-04-18T15:11:51.137Z</time></trkpt><trkpt lat="45.7948548" lon="11.431758"><ele>641.6666666666666</ele><time>2026-04-18T15:11:52.138Z</time></trkpt><trkpt lat="45.7949042" lon="11.4314428"><ele>638.0</ele><time>2026-04-18T15:11:53.137Z</time></trkpt><trkpt lat="45.7949501" lon="11.4311412"><ele>633.6666666666666</ele><time>2026-04-18T15:11:54.137Z</time></trkpt><trkpt lat="45.7949955" lon="11.4308466"><ele>629.3333333333334</ele><time>2026-04-18T15:11:55.137Z</time></trkpt><trkpt lat="45.7950394" lon="11.4305593"><ele>625.0</ele><time>2026-04-18T15:11:56.138Z</time></trkpt><trkpt lat="45.7950777" lon="11.4302718"><ele>622.3333333333334</ele><time>2026-04-18T15:11:57.136Z</time></trkpt><trkpt lat="45.7951167" lon="11.4299797"><ele>619.6666666666666</ele><time>2026-04-18T15:11:58.138Z</time></trkpt><trkpt lat="45.7951591" lon="11.4296828"><ele>617.0</ele><time>2026-04-18T15:11:59.136Z</time></trkpt><trkpt lat="45.7952035" lon="11.4293848"><ele>622.3333333333333</ele><time>2026-04-18T15:12:00.138Z</time></trkpt><trkpt lat="45.7952424" lon="11.4290945"><ele>627.6666666666666</ele><time>2026-04-18T15:12:01.137Z</time></trkpt><trkpt lat="45.7952821" lon="11.428826"><ele>633.0</ele><time>2026-04-18T15:12:02.136Z</time></trkpt><trkpt lat="45.7953203" lon="11.4285814"><ele>633.0</ele><time>2026-04-18T15:12:03.137Z</time></trkpt><trkpt lat="45.7953728" lon="11.4283407"><ele>633.0</ele><time>2026-04-18T15:12:04.137Z</time></trkpt><trkpt lat="45.7954422" lon="11.4281153"><ele>633.0</ele><time>2026-04-18T15:12:05.137Z</time></trkpt><trkpt lat="45.7955256" lon="11.4278916"><ele>628.6666666666666</ele><time>2026-04-18T15:12:06.138Z</time></trkpt><trkpt lat="45.7956095" lon="11.4276408"><ele>624.3333333333333</ele><time>2026-04-18T15:12:07.137Z</time></trkpt><trkpt lat="45.7956951" lon="11.427357"><ele>620.0</ele><time>2026-04-18T15:12:08.138Z</time></trkpt><trkpt lat="45.7957824" lon="11.4270801"><ele>625.6666666666666</ele><time>2026-04-18T15:12:09.136Z</time></trkpt><trkpt lat="45.7958697" lon="11.4268377"><ele>631.3333333333334</ele><time>2026-04-18T15:12:10.137Z</time></trkpt><trkpt lat="45.7959661" lon="11.4266265"><ele>637.0</ele><time>2026-04-18T15:12:11.137Z</time></trkpt><trkpt lat="45.7960622" lon="11.4264544"><ele>637.0</ele><time>2026-04-18T15:12:12.137Z</time></trkpt><trkpt lat="45.7961529" lon="11.4263138"><ele>637.0</ele><time>2026-04-18T15:12:13.138Z</time></trkpt><trkpt lat="45.7962268" lon="11.4261991"><ele>637.0</ele><time>2026-04-18T15:12:14.136Z</time></trkpt><trkpt lat="45.796257" lon="11.4260813"><ele>637.0</ele><time>2026-04-18T15:12:15.137Z</time></trkpt><trkpt lat="45.7962488" lon="11.4259643"><ele>637.0</ele><time>2026-04-18T15:12:16.137Z</time></trkpt><trkpt lat="45.7962049" lon="11.4258732"><ele>633.6</ele><time>2026-04-18T15:12:17.138Z</time></trkpt><trkpt lat="45.7961295" lon="11.4258485"><ele>630.2</ele><time>2026-04-18T15:12:18.138Z</time></trkpt><trkpt lat="45.7960571" lon="11.425885"><ele>626.8</ele><time>2026-04-18T15:12:19.137Z</time></trkpt><trkpt lat="45.7959796" lon="11.4259218"><ele>623.4</ele><time>2026-04-18T15:12:20.137Z</time></trkpt><trkpt lat="45.795937" lon="11.4261609"><ele>620.0</ele><time>2026-04-18T15:12:21.137Z</time></trkpt><trkpt lat="45.7958701" lon="11.4263467"><ele>613.6666666666666</ele><time>2026-04-18T15:12:22.138Z</time></trkpt><trkpt lat="45.795787" lon="11.4265383"><ele>607.3333333333334</ele><time>2026-04-18T15:12:23.137Z</time></trkpt><trkpt lat="45.7956996" lon="11.4267249"><ele>601.0</ele><time>2026-04-18T15:12:24.137Z</time></trkpt><trkpt lat="45.7956147" lon="11.426906"><ele>601.0</ele><time>2026-04-18T15:12:25.137Z</time></trkpt><trkpt lat="45.7955201" lon="11.4270744"><ele>601.0</ele><time>2026-04-18T15:12:26.136Z</time></trkpt><trkpt lat="45.7954202" lon="11.4272265"><ele>601.0</ele><time>2026-04-18T15:12:27.138Z</time></trkpt><trkpt lat="45.7953108" lon="11.4273611"><ele>601.0</ele><time>2026-04-18T15:12:28.137Z</time></trkpt><trkpt lat="45.7952014" lon="11.4274789"><ele>600.5</ele><time>2026-04-18T15:12:29.138Z</time></trkpt><trkpt lat="45.7950909" lon="11.4275987"><ele>600.0</ele><time>2026-04-18T15:12:30.137Z</time></trkpt><trkpt lat="45.794986" lon="11.4277435"><ele>599.5</ele><time>2026-04-18T15:12:31.137Z</time></trkpt><trkpt lat="45.7948899" lon="11.4279119"><ele>599.0</ele><time>2026-04-18T15:12:32.137Z</time></trkpt><trkpt lat="45.7948046" lon="11.4281017"><ele>599.0</ele><time>2026-04-18T15:12:33.137Z</time></trkpt><trkpt lat="45.7947264" lon="11.4282909"><ele>599.0</ele><time>2026-04-18T15:12:34.136Z</time></trkpt><trkpt lat="45.7946568" lon="11.4284821"><ele>599.0</ele><time>2026-04-18T15:12:35.137Z</time></trkpt><trkpt lat="45.7945905" lon="11.4286681"><ele>599.0</ele><time>2026-04-18T15:12:36.138Z</time></trkpt><trkpt lat="45.7945242" lon="11.4288553"><ele>601.25</ele><time>2026-04-18T15:12:37.137Z</time></trkpt><trkpt lat="45.7944527" lon="11.4290382"><ele>603.5</ele><time>2026-04-18T15:12:38.137Z</time></trkpt><trkpt lat="45.7943802" lon="11.4292109"><ele>605.75</ele><time>2026-04-18T15:12:39.137Z</time></trkpt><trkpt lat="45.7943093" lon="11.4293723"><ele>608.0</ele><time>2026-04-18T15:12:40.137Z</time></trkpt><trkpt lat="45.7942398" lon="11.4295229"><ele>602.1999999999999</ele><time>2026-04-18T15:12:41.138Z</time></trkpt><trkpt lat="45.7941727" lon="11.4296692"><ele>596.4</ele><time>2026-04-18T15:12:42.138Z</time></trkpt><trkpt lat="45.7941175" lon="11.4298168"><ele>590.5999999999999</ele><time>2026-04-18T15:12:43.137Z</time></trkpt><trkpt lat="45.7940749" lon="11.4299639"><ele>584.8</ele><time>2026-04-18T15:12:44.137Z</time></trkpt><trkpt lat="45.7940488" lon="11.4300988"><ele>579.0</ele><time>2026-04-18T15:12:45.136Z</time></trkpt><trkpt lat="45.7940302" lon="11.4302281"><ele>579.0</ele><time>2026-04-18T15:12:46.138Z</time></trkpt><trkpt lat="45.7940269" lon="11.4303408"><ele>579.0</ele><time>2026-04-18T15:12:47.137Z</time></trkpt><trkpt lat="45.7940108" lon="11.430439"><ele>579.0</ele><time>2026-04-18T15:12:48.137Z</time></trkpt><trkpt lat="45.7939305" lon="11.4305556"><ele>579.0</ele><time>2026-04-18T15:12:50.137Z</time></trkpt><trkpt lat="45.7938337" lon="11.4305096"><ele>579.0</ele><time>2026-04-18T15:12:52.138Z</time></trkpt><trkpt lat="45.7938089" lon="11.4304219"><ele>579.0</ele><time>2026-04-18T15:12:53.138Z</time></trkpt><trkpt lat="45.7938118" lon="11.4302971"><ele>579.0</ele><time>2026-04-18T15:12:54.136Z</time></trkpt><trkpt lat="45.7938405" lon="11.4301336"><ele>579.0</ele><time>2026-04-18T15:12:55.138Z</time></trkpt><trkpt lat="45.7938805" lon="11.4299535"><ele>579.0</ele><time>2026-04-18T15:12:56.138Z</time></trkpt><trkpt lat="45.7939229" lon="11.4297448"><ele>579.0</ele><time>2026-04-18T15:12:57.138Z</time></trkpt><trkpt lat="45.7939648" lon="11.4295292"><ele>577.0</ele><time>2026-04-18T15:12:58.138Z</time></trkpt><trkpt lat="45.7940162" lon="11.4292854"><ele>575.0</ele><time>2026-04-18T15:12:59.136Z</time></trkpt><trkpt lat="45.7940663" lon="11.4290058"><ele>573.0</ele><time>2026-04-18T15:13:00.137Z</time></trkpt><trkpt lat="45.7941262" lon="11.4287183"><ele>569.3333333333334</ele><time>2026-04-18T15:13:01.137Z</time></trkpt><trkpt lat="45.7941768" lon="11.4284638"><ele>565.6666666666667</ele><time>2026-04-18T15:13:02.138Z</time></trkpt><trkpt lat="45.7942162" lon="11.4282242"><ele>562.0</ele><time>2026-04-18T15:13:03.138Z</time></trkpt><trkpt lat="45.794247" lon="11.4280038"><ele>559.0</ele><time>2026-04-18T15:13:04.138Z</time></trkpt><trkpt lat="45.7942739" lon="11.4277933"><ele>556.0</ele><time>2026-04-18T15:13:05.136Z</time></trkpt><trkpt lat="45.7943032" lon="11.4275889"><ele>553.0</ele><time>2026-04-18T15:13:06.137Z</time></trkpt><trkpt lat="45.7943431" lon="11.4273873"><ele>550.0</ele><time>2026-04-18T15:13:07.138Z</time></trkpt><trkpt lat="45.7944028" lon="11.4271909"><ele>554.25</ele><time>2026-04-18T15:13:08.136Z</time></trkpt><trkpt lat="45.7944833" lon="11.427014"><ele>558.5</ele><time>2026-04-18T15:13:09.137Z</time></trkpt><trkpt lat="45.7945742" lon="11.4268575"><ele>562.75</ele><time>2026-04-18T15:13:10.138Z</time></trkpt><trkpt lat="45.7946705" lon="11.4267176"><ele>567.0</ele><time>2026-04-18T15:13:11.138Z</time></trkpt><trkpt lat="45.7947629" lon="11.4265721"><ele>567.0</ele><time>2026-04-18T15:13:12.137Z</time></trkpt><trkpt lat="45.7948441" lon="11.4264064"><ele>567.0</ele><time>2026-04-18T15:13:13.138Z</time></trkpt><trkpt lat="45.7949112" lon="11.4262353"><ele>567.0</ele><time>2026-04-18T15:13:14.138Z</time></trkpt><trkpt lat="45.7949666" lon="11.4260646"><ele>567.0</ele><time>2026-04-18T15:13:15.137Z</time></trkpt><trkpt lat="45.7950156" lon="11.4258992"><ele>567.0</ele><time>2026-04-18T15:13:16.136Z</time></trkpt><trkpt lat="45.7950654" lon="11.4257324"><ele>567.0</ele><time>2026-04-18T15:13:17.138Z</time></trkpt><trkpt lat="45.795118" lon="11.4255733"><ele>567.0</ele><time>2026-04-18T15:13:18.137Z</time></trkpt><trkpt lat="45.7951705" lon="11.425427"><ele>567.0</ele><time>2026-04-18T15:13:19.137Z</time></trkpt><trkpt lat="45.7952274" lon="11.425287"><ele>567.0</ele><time>2026-04-18T15:13:20.138Z</time></trkpt><trkpt lat="45.7952761" lon="11.4251611"><ele>567.0</ele><time>2026-04-18T15:13:21.137Z</time></trkpt><trkpt lat="45.7953021" lon="11.425045"><ele>567.0</ele><time>2026-04-18T15:13:22.138Z</time></trkpt><trkpt lat="45.7953057" lon="11.4249259"><ele>567.0</ele><time>2026-04-18T15:13:23.137Z</time></trkpt><trkpt lat="45.7953124" lon="11.4248027"><ele>567.0</ele><time>2026-04-18T15:13:24.137Z</time></trkpt><trkpt lat="45.7953472" lon="11.4246676"><ele>563.75</ele><time>2026-04-18T15:13:25.138Z</time></trkpt><trkpt lat="45.7954081" lon="11.4245203"><ele>560.5</ele><time>2026-04-18T15:13:26.137Z</time></trkpt><trkpt lat="45.7954819" lon="11.4243515"><ele>557.25</ele><time>2026-04-18T15:13:27.137Z</time></trkpt><trkpt lat="45.7955315" lon="11.4241799"><ele>554.0</ele><time>2026-04-18T15:13:28.137Z</time></trkpt><trkpt lat="45.7955594" lon="11.4239742"><ele>551.0</ele><time>2026-04-18T15:13:29.137Z</time></trkpt><trkpt lat="45.795578" lon="11.4237528"><ele>548.0</ele><time>2026-04-18T15:13:30.138Z</time></trkpt><trkpt lat="45.7955987" lon="11.4235255"><ele>545.0</ele><time>2026-04-18T15:13:31.137Z</time></trkpt><trkpt lat="45.7956277" lon="11.4232964"><ele>545.0</ele><time>2026-04-18T15:13:32.138Z</time></trkpt><trkpt lat="45.7956696" lon="11.4230738"><ele>545.0</ele><time>2026-04-18T15:13:33.137Z</time></trkpt><trkpt lat="45.7957151" lon="11.4228443"><ele>545.0</ele><time>2026-04-18T15:13:34.137Z</time></trkpt><trkpt lat="45.7957538" lon="11.4226104"><ele>541.3333333333333</ele><time>2026-04-18T15:13:35.137Z</time></trkpt><trkpt lat="45.7957933" lon="11.4223858"><ele>537.6666666666666</ele><time>2026-04-18T15:13:36.137Z</time></trkpt><trkpt lat="45.7958443" lon="11.4221812"><ele>534.0</ele><time>2026-04-18T15:13:37.138Z</time></trkpt><trkpt lat="45.795908" lon="11.4219859"><ele>529.3333333333334</ele><time>2026-04-18T15:13:38.137Z</time></trkpt><trkpt lat="45.7959802" lon="11.4217907"><ele>524.6666666666667</ele><time>2026-04-18T15:13:39.136Z</time></trkpt><trkpt lat="45.7960589" lon="11.4216004"><ele>520.0</ele><time>2026-04-18T15:13:40.137Z</time></trkpt><trkpt lat="45.7961405" lon="11.4214285"><ele>522.75</ele><time>2026-04-18T15:13:41.137Z</time></trkpt><trkpt lat="45.7962307" lon="11.4212706"><ele>525.5</ele><time>2026-04-18T15:13:42.138Z</time></trkpt><trkpt lat="45.7963233" lon="11.4211241"><ele>528.25</ele><time>2026-04-18T15:13:43.138Z</time></trkpt><trkpt lat="45.7964076" lon="11.4209734"><ele>531.0</ele><time>2026-04-18T15:13:44.138Z</time></trkpt><trkpt lat="45.7964816" lon="11.420834"><ele>531.0</ele><time>2026-04-18T15:13:45.137Z</time></trkpt><trkpt lat="45.7965396" lon="11.4207082"><ele>531.0</ele><time>2026-04-18T15:13:46.137Z</time></trkpt><trkpt lat="45.7965892" lon="11.4206002"><ele>531.0</ele><time>2026-04-18T15:13:47.137Z</time></trkpt><trkpt lat="45.7966271" lon="11.4204608"><ele>531.0</ele><time>2026-04-18T15:13:49.137Z</time></trkpt><trkpt lat="45.7965844" lon="11.4203751"><ele>531.0</ele><time>2026-04-18T15:13:51.137Z</time></trkpt><trkpt lat="45.7965156" lon="11.4203964"><ele>531.0</ele><time>2026-04-18T15:13:53.137Z</time></trkpt><trkpt lat="45.7964668" lon="11.4204965"><ele>531.0</ele><time>2026-04-18T15:13:54.137Z</time></trkpt><trkpt lat="45.7964201" lon="11.4205839"><ele>531.0</ele><time>2026-04-18T15:13:55.138Z</time></trkpt><trkpt lat="45.796362" lon="11.4206453"><ele>531.0</ele><time>2026-04-18T15:13:56.137Z</time></trkpt><trkpt lat="45.7962934" lon="11.420694"><ele>531.0</ele><time>2026-04-18T15:13:57.138Z</time></trkpt><trkpt lat="45.7962127" lon="11.420753"><ele>531.0</ele><time>2026-04-18T15:13:58.138Z</time></trkpt><trkpt lat="45.7961417" lon="11.4208247"><ele>531.0</ele><time>2026-04-18T15:13:59.136Z</time></trkpt><trkpt lat="45.7960894" lon="11.4209245"><ele>531.0</ele><time>2026-04-18T15:14:00.136Z</time></trkpt><trkpt lat="45.7960387" lon="11.421009"><ele>531.0</ele><time>2026-04-18T15:14:01.137Z</time></trkpt><trkpt lat="45.7960008" lon="11.4210842"><ele>531.0</ele><time>2026-04-18T15:14:02.138Z</time></trkpt><trkpt lat="45.7959225" lon="11.4212084"><ele>531.0</ele><time>2026-04-18T15:14:04.138Z</time></trkpt><trkpt lat="45.7958634" lon="11.4211392"><ele>531.0</ele><time>2026-04-18T15:14:06.138Z</time></trkpt><trkpt lat="45.7958642" lon="11.4209761"><ele>531.0</ele><time>2026-04-18T15:14:08.137Z</time></trkpt><trkpt lat="45.7958803" lon="11.4208778"><ele>527.5</ele><time>2026-04-18T15:14:09.137Z</time></trkpt><trkpt lat="45.7959102" lon="11.4207676"><ele>524.0</ele><time>2026-04-18T15:14:10.137Z</time></trkpt><trkpt lat="45.7959477" lon="11.4206587"><ele>520.5</ele><time>2026-04-18T15:14:11.137Z</time></trkpt><trkpt lat="45.7959923" lon="11.4205528"><ele>517.0</ele><time>2026-04-18T15:14:12.137Z</time></trkpt><trkpt lat="45.796048" lon="11.4204489"><ele>513.5</ele><time>2026-04-18T15:14:13.138Z</time></trkpt><trkpt lat="45.7961058" lon="11.4203387"><ele>510.0</ele><time>2026-04-18T15:14:14.137Z</time></trkpt><trkpt lat="45.7961635" lon="11.4202308"><ele>510.0</ele><time>2026-04-18T15:14:15.137Z</time></trkpt><trkpt lat="45.7962128" lon="11.4201212"><ele>510.0</ele><time>2026-04-18T15:14:16.137Z</time></trkpt><trkpt lat="45.796256" lon="11.4200167"><ele>510.0</ele><time>2026-04-18T15:14:17.137Z</time></trkpt><trkpt lat="45.7962855" lon="11.4199251"><ele>510.0</ele><time>2026-04-18T15:14:18.136Z</time></trkpt><trkpt lat="45.7963194" lon="11.4197849"><ele>510.0</ele><time>2026-04-18T15:14:20.137Z</time></trkpt><trkpt lat="45.7962845" lon="11.4196927"><ele>510.0</ele><time>2026-04-18T15:14:22.137Z</time></trkpt><trkpt lat="45.7961987" lon="11.4197401"><ele>510.0</ele><time>2026-04-18T15:14:24.137Z</time></trkpt><trkpt lat="45.7961487" lon="11.4198018"><ele>510.0</ele><time>2026-04-18T15:14:25.137Z</time></trkpt><trkpt lat="45.7960997" lon="11.4199214"><ele>510.0</ele><time>2026-04-18T15:14:26.138Z</time></trkpt><trkpt lat="45.7960372" lon="11.419984"><ele>510.0</ele><time>2026-04-18T15:14:27.138Z</time></trkpt><trkpt lat="45.795975" lon="11.4200527"><ele>510.0</ele><time>2026-04-18T15:14:28.136Z</time></trkpt><trkpt lat="45.7958992" lon="11.4201022"><ele>510.0</ele><time>2026-04-18T15:14:29.137Z</time></trkpt><trkpt lat="45.7958167" lon="11.4201553"><ele>508.6666666666667</ele><time>2026-04-18T15:14:30.138Z</time></trkpt><trkpt lat="45.7957498" lon="11.4202218"><ele>507.33333333333337</ele><time>2026-04-18T15:14:31.138Z</time></trkpt><trkpt lat="45.7956942" lon="11.4202947"><ele>506.0</ele><time>2026-04-18T15:14:32.138Z</time></trkpt><trkpt lat="45.7956397" lon="11.4203682"><ele>504.6666666666667</ele><time>2026-04-18T15:14:33.136Z</time></trkpt><trkpt lat="45.7955939" lon="11.4204351"><ele>503.33333333333337</ele><time>2026-04-18T15:14:34.137Z</time></trkpt><trkpt lat="45.7955051" lon="11.4205122"><ele>502.0</ele><time>2026-04-18T15:14:36.137Z</time></trkpt><trkpt lat="45.7954254" lon="11.4204619"><ele>497.25</ele><time>2026-04-18T15:14:38.137Z</time></trkpt><trkpt lat="45.7954313" lon="11.4203084"><ele>492.5</ele><time>2026-04-18T15:14:40.138Z</time></trkpt><trkpt lat="45.7954637" lon="11.4201929"><ele>487.75</ele><time>2026-04-18T15:14:41.138Z</time></trkpt><trkpt lat="45.7955261" lon="11.4200366"><ele>483.0</ele><time>2026-04-18T15:14:42.138Z</time></trkpt><trkpt lat="45.7956166" lon="11.4198493"><ele>483.0</ele><time>2026-04-18T15:14:43.138Z</time></trkpt><trkpt lat="45.7957184" lon="11.4196611"><ele>483.0</ele><time>2026-04-18T15:14:44.137Z</time></trkpt><trkpt lat="45.7958137" lon="11.419496"><ele>483.0</ele><time>2026-04-18T15:14:45.137Z</time></trkpt><trkpt lat="45.7958881" lon="11.4193631"><ele>483.0</ele><time>2026-04-18T15:14:46.137Z</time></trkpt><trkpt lat="45.795943" lon="11.4192504"><ele>477.75</ele><time>2026-04-18T15:14:47.137Z</time></trkpt><trkpt lat="45.7959929" lon="11.419138"><ele>472.5</ele><time>2026-04-18T15:14:48.137Z</time></trkpt><trkpt lat="45.795948" lon="11.4189777"><ele>467.25</ele><time>2026-04-18T15:14:50.137Z</time></trkpt><trkpt lat="45.7958297" lon="11.4190063"><ele>462.0</ele><time>2026-04-18T15:14:52.138Z</time></trkpt><trkpt lat="45.7957184" lon="11.4191871"><ele>462.0</ele><time>2026-04-18T15:14:53.136Z</time></trkpt><trkpt lat="45.7955886" lon="11.4194096"><ele>462.0</ele><time>2026-04-18T15:14:54.138Z</time></trkpt><trkpt lat="45.7954993" lon="11.4195575"><ele>462.0</ele><time>2026-04-18T15:14:55.137Z</time></trkpt><trkpt lat="45.7953972" lon="11.419692"><ele>462.0</ele><time>2026-04-18T15:14:56.138Z</time></trkpt><trkpt lat="45.7953083" lon="11.4198121"><ele>462.00000000000006</ele><time>2026-04-18T15:14:57.137Z</time></trkpt><trkpt lat="45.7952431" lon="11.4198881"><ele>462.00000000000006</ele><time>2026-04-18T15:14:58.138Z</time></trkpt><trkpt lat="45.795185" lon="11.4199266"><ele>462.0</ele><time>2026-04-18T15:14:59.137Z</time></trkpt><trkpt lat="45.7951303" lon="11.4198457"><ele>462.0</ele><time>2026-04-18T15:15:01.138Z</time></trkpt><trkpt lat="45.7952023" lon="11.4196568"><ele>462.0</ele><time>2026-04-18T15:15:03.136Z</time></trkpt><trkpt lat="45.7952566" lon="11.4195071"><ele>462.0</ele><time>2026-04-18T15:15:04.137Z</time></trkpt><trkpt lat="45.7953235" lon="11.4193318"><ele>462.0</ele><time>2026-04-18T15:15:05.137Z</time></trkpt><trkpt lat="45.795406" lon="11.4191486"><ele>462.0</ele><time>2026-04-18T15:15:06.137Z</time></trkpt><trkpt lat="45.7954805" lon="11.4189882"><ele>462.0</ele><time>2026-04-18T15:15:07.138Z</time></trkpt><trkpt lat="45.7955503" lon="11.4188662"><ele>462.00000000000006</ele><time>2026-04-18T15:15:08.137Z</time></trkpt><trkpt lat="45.7956045" lon="11.4187827"><ele>462.00000000000006</ele><time>2026-04-18T15:15:09.138Z</time></trkpt><trkpt lat="45.7956511" lon="11.4186432"><ele>462.0</ele><time>2026-04-18T15:15:11.137Z</time></trkpt><trkpt lat="45.7955874" lon="11.4185705"><ele>462.0</ele><time>2026-04-18T15:15:13.137Z</time></trkpt><trkpt lat="45.7954515" lon="11.4187566"><ele>462.0</ele><time>2026-04-18T15:15:15.137Z</time></trkpt><trkpt lat="45.7952642" lon="11.4190376"><ele>462.0</ele><time>2026-04-18T15:15:16.137Z</time></trkpt><trkpt lat="45.7951718" lon="11.4191714"><ele>462.0</ele><time>2026-04-18T15:15:17.138Z</time></trkpt><trkpt lat="45.7950688" lon="11.4193202"><ele>462.0</ele><time>2026-04-18T15:15:18.138Z</time></trkpt><trkpt lat="45.794971" lon="11.4194534"><ele>462.00000000000006</ele><time>2026-04-18T15:15:19.137Z</time></trkpt><trkpt lat="45.7948897" lon="11.4195528"><ele>462.00000000000006</ele><time>2026-04-18T15:15:20.138Z</time></trkpt><trkpt lat="45.7948277" lon="11.4196162"><ele>462.0</ele><time>2026-04-18T15:15:21.137Z</time></trkpt><trkpt lat="45.7947669" lon="11.41967"><ele>462.0</ele><time>2026-04-18T15:15:22.138Z</time></trkpt><trkpt lat="45.7947314" lon="11.4195936"><ele>457.8</ele><time>2026-04-18T15:15:23.137Z</time></trkpt><trkpt lat="45.7947524" lon="11.4194933"><ele>453.6</ele><time>2026-04-18T15:15:25.136Z</time></trkpt><trkpt lat="45.7947956" lon="11.4194085"><ele>449.40000000000003</ele><time>2026-04-18T15:15:26.138Z</time></trkpt><trkpt lat="45.7948751" lon="11.4193112"><ele>445.20000000000005</ele><time>2026-04-18T15:15:27.137Z</time></trkpt><trkpt lat="45.7949735" lon="11.4191035"><ele>441.0</ele><time>2026-04-18T15:15:28.136Z</time></trkpt><trkpt lat="45.7950607" lon="11.4189562"><ele>439.75</ele><time>2026-04-18T15:15:29.137Z</time></trkpt><trkpt lat="45.7951464" lon="11.4188117"><ele>438.5</ele><time>2026-04-18T15:15:30.137Z</time></trkpt><trkpt lat="45.795223" lon="11.4186605"><ele>437.25</ele><time>2026-04-18T15:15:31.138Z</time></trkpt><trkpt lat="45.7952944" lon="11.4185282"><ele>436.0</ele><time>2026-04-18T15:15:32.137Z</time></trkpt><trkpt lat="45.7953509" lon="11.4184344"><ele>436.00000000000006</ele><time>2026-04-18T15:15:33.136Z</time></trkpt><trkpt lat="45.7953963" lon="11.418345"><ele>436.0</ele><time>2026-04-18T15:15:34.136Z</time></trkpt><trkpt lat="45.7954032" lon="11.4182285"><ele>436.0</ele><time>2026-04-18T15:15:36.137Z</time></trkpt><trkpt lat="45.7953099" lon="11.4182557"><ele>436.0</ele><time>2026-04-18T15:15:37.137Z</time></trkpt><trkpt lat="45.7952461" lon="11.4182779"><ele>436.00000000000006</ele><time>2026-04-18T15:15:38.136Z</time></trkpt><trkpt lat="45.7951687" lon="11.4183622"><ele>436.0</ele><time>2026-04-18T15:15:39.137Z</time></trkpt><trkpt lat="45.7950934" lon="11.4185092"><ele>437.0</ele><time>2026-04-18T15:15:40.137Z</time></trkpt><trkpt lat="45.7950033" lon="11.4186379"><ele>438.0</ele><time>2026-04-18T15:15:41.136Z</time></trkpt><trkpt lat="45.7949107" lon="11.4187207"><ele>439.0</ele><time>2026-04-18T15:15:42.138Z</time></trkpt><trkpt lat="45.794811" lon="11.4187805"><ele>440.0</ele><time>2026-04-18T15:15:43.137Z</time></trkpt><trkpt lat="45.7947453" lon="11.4188347"><ele>441.0</ele><time>2026-04-18T15:15:44.138Z</time></trkpt><trkpt lat="45.7946826" lon="11.4188508"><ele>436.4</ele><time>2026-04-18T15:15:45.138Z</time></trkpt><trkpt lat="45.7946762" lon="11.4187503"><ele>431.8</ele><time>2026-04-18T15:15:47.138Z</time></trkpt><trkpt lat="45.7947665" lon="11.418694"><ele>427.2</ele><time>2026-04-18T15:15:49.138Z</time></trkpt><trkpt lat="45.7948408" lon="11.4186402"><ele>422.59999999999997</ele><time>2026-04-18T15:15:50.138Z</time></trkpt><trkpt lat="45.7949155" lon="11.4185458"><ele>418.0</ele><time>2026-04-18T15:15:51.138Z</time></trkpt><trkpt lat="45.7949781" lon="11.4184145"><ele>418.0</ele><time>2026-04-18T15:15:52.137Z</time></trkpt><trkpt lat="45.7950412" lon="11.4182668"><ele>418.0</ele><time>2026-04-18T15:15:53.137Z</time></trkpt><trkpt lat="45.7951012" lon="11.4181455"><ele>418.0</ele><time>2026-04-18T15:15:54.138Z</time></trkpt><trkpt lat="45.7951603" lon="11.4180612"><ele>418.0</ele><time>2026-04-18T15:15:55.137Z</time></trkpt><trkpt lat="45.7952164" lon="11.4179593"><ele>418.0</ele><time>2026-04-18T15:15:56.137Z</time></trkpt><trkpt lat="45.7953006" lon="11.4178805"><ele>417.2</ele><time>2026-04-18T15:15:57.137Z</time></trkpt><trkpt lat="45.7953901" lon="11.4178299"><ele>416.4</ele><time>2026-04-18T15:15:58.137Z</time></trkpt><trkpt lat="45.7954996" lon="11.4178181"><ele>415.59999999999997</ele><time>2026-04-18T15:15:59.138Z</time></trkpt><trkpt lat="45.7955609" lon="11.4177809"><ele>414.79999999999995</ele><time>2026-04-18T15:16:00.138Z</time></trkpt><trkpt lat="45.7956322" lon="11.4176931"><ele>414.0</ele><time>2026-04-18T15:16:02.138Z</time></trkpt><trkpt lat="45.7954796" lon="11.4177239"><ele>414.0</ele><time>2026-04-18T15:16:05.136Z</time></trkpt><trkpt lat="45.7953738" lon="11.4177752"><ele>414.0</ele><time>2026-04-18T15:16:06.138Z</time></trkpt><trkpt lat="45.7951966" lon="11.4178133"><ele>414.0</ele><time>2026-04-18T15:16:07.138Z</time></trkpt><trkpt lat="45.7950491" lon="11.4178339"><ele>414.0</ele><time>2026-04-18T15:16:08.137Z</time></trkpt><trkpt lat="45.7948954" lon="11.4178603"><ele>408.33333333333337</ele><time>2026-04-18T15:16:09.136Z</time></trkpt><trkpt lat="45.7947482" lon="11.4178312"><ele>402.6666666666667</ele><time>2026-04-18T15:16:10.137Z</time></trkpt><trkpt lat="45.794601" lon="11.4178245"><ele>397.0</ele><time>2026-04-18T15:16:11.138Z</time></trkpt><trkpt lat="45.7944414" lon="11.4178323"><ele>393.6666666666667</ele><time>2026-04-18T15:16:12.137Z</time></trkpt><trkpt lat="45.7942865" lon="11.4178413"><ele>390.33333333333337</ele><time>2026-04-18T15:16:13.137Z</time></trkpt><trkpt lat="45.7941257" lon="11.4179149"><ele>387.0</ele><time>2026-04-18T15:16:14.136Z</time></trkpt><trkpt lat="45.7939861" lon="11.4179422"><ele>387.0</ele><time>2026-04-18T15:16:15.136Z</time></trkpt><trkpt lat="45.7938803" lon="11.417975"><ele>387.0</ele><time>2026-04-18T15:16:16.138Z</time></trkpt><trkpt lat="45.7937812" lon="11.4179968"><ele>387.0</ele><time>2026-04-18T15:16:17.138Z</time></trkpt><trkpt lat="45.7936836" lon="11.4180212"><ele>387.0</ele><time>2026-04-18T15:16:18.137Z</time></trkpt><trkpt lat="45.7936862" lon="11.4179147"><ele>387.0</ele><time>2026-04-18T15:16:19.137Z</time></trkpt><trkpt lat="45.7937237" lon="11.4177804"><ele>387.0</ele><time>2026-04-18T15:16:21.136Z</time></trkpt><trkpt lat="45.7937902" lon="11.4177004"><ele>387.0</ele><time>2026-04-18T15:16:22.137Z</time></trkpt><trkpt lat="45.7938842" lon="11.4176207"><ele>387.0</ele><time>2026-04-18T15:16:23.136Z</time></trkpt><trkpt lat="45.793992" lon="11.4175417"><ele>387.0</ele><time>2026-04-18T15:16:24.137Z</time></trkpt><trkpt lat="45.7940822" lon="11.4174845"><ele>387.0</ele><time>2026-04-18T15:16:25.137Z</time></trkpt><trkpt lat="45.7941498" lon="11.4174374"><ele>387.0</ele><time>2026-04-18T15:16:26.137Z</time></trkpt><trkpt lat="45.7942139" lon="11.4173192"><ele>387.0</ele><time>2026-04-18T15:16:28.138Z</time></trkpt><trkpt lat="45.7942023" lon="11.4172214"><ele>387.0</ele><time>2026-04-18T15:16:29.137Z</time></trkpt><trkpt lat="45.794119" lon="11.4171748"><ele>387.0</ele><time>2026-04-18T15:16:30.138Z</time></trkpt><trkpt lat="45.7939389" lon="11.4172221"><ele>387.0</ele><time>2026-04-18T15:16:31.137Z</time></trkpt><trkpt lat="45.7938233" lon="11.4171986"><ele>387.0</ele><time>2026-04-18T15:16:32.137Z</time></trkpt><trkpt lat="45.7936835" lon="11.4171675"><ele>387.0</ele><time>2026-04-18T15:16:33.137Z</time></trkpt><trkpt lat="45.7935515" lon="11.4171477"><ele>387.0</ele><time>2026-04-18T15:16:34.137Z</time></trkpt><trkpt lat="45.7934386" lon="11.4171359"><ele>387.0</ele><time>2026-04-18T15:16:35.137Z</time></trkpt><trkpt lat="45.7933331" lon="11.417156"><ele>385.0</ele><time>2026-04-18T15:16:36.138Z</time></trkpt><trkpt lat="45.7932158" lon="11.4171707"><ele>383.0</ele><time>2026-04-18T15:16:37.137Z</time></trkpt><trkpt lat="45.7931062" lon="11.4172197"><ele>381.0</ele><time>2026-04-18T15:16:38.138Z</time></trkpt><trkpt lat="45.7929877" lon="11.4173093"><ele>379.0</ele><time>2026-04-18T15:16:39.137Z</time></trkpt><trkpt lat="45.7929" lon="11.4174742"><ele>379.0</ele><time>2026-04-18T15:16:40.137Z</time></trkpt><trkpt lat="45.7927963" lon="11.4175758"><ele>379.0</ele><time>2026-04-18T15:16:41.138Z</time></trkpt><trkpt lat="45.7927071" lon="11.4176085"><ele>379.0</ele><time>2026-04-18T15:16:42.136Z</time></trkpt><trkpt lat="45.7926058" lon="11.4176134"><ele>379.0</ele><time>2026-04-18T15:16:43.137Z</time></trkpt><trkpt lat="45.7925032" lon="11.4175836"><ele>379.0</ele><time>2026-04-18T15:16:44.136Z</time></trkpt><trkpt lat="45.7924064" lon="11.4175713"><ele>376.0</ele><time>2026-04-18T15:16:45.138Z</time></trkpt><trkpt lat="45.7923131" lon="11.4175937"><ele>373.0</ele><time>2026-04-18T15:16:46.137Z</time></trkpt><trkpt lat="45.7922121" lon="11.4176597"><ele>370.0</ele><time>2026-04-18T15:16:47.138Z</time></trkpt><trkpt lat="45.792107" lon="11.417741"><ele>367.0</ele><time>2026-04-18T15:16:48.137Z</time></trkpt><trkpt lat="45.792011" lon="11.4178187"><ele>364.0</ele><time>2026-04-18T15:16:49.137Z</time></trkpt><trkpt lat="45.7919316" lon="11.4178855"><ele>364.0</ele><time>2026-04-18T15:16:50.138Z</time></trkpt><trkpt lat="45.7918513" lon="11.4179515"><ele>364.0</ele><time>2026-04-18T15:16:51.137Z</time></trkpt><trkpt lat="45.7917491" lon="11.4180117"><ele>364.0</ele><time>2026-04-18T15:16:52.136Z</time></trkpt><trkpt lat="45.7916365" lon="11.4180831"><ele>364.0</ele><time>2026-04-18T15:16:53.138Z</time></trkpt><trkpt lat="45.791523" lon="11.4181668"><ele>362.0</ele><time>2026-04-18T15:16:54.137Z</time></trkpt><trkpt lat="45.7914256" lon="11.4182517"><ele>360.0</ele><time>2026-04-18T15:16:55.136Z</time></trkpt><trkpt lat="45.7913449" lon="11.4183405"><ele>358.0</ele><time>2026-04-18T15:16:56.137Z</time></trkpt><trkpt lat="45.7912799" lon="11.4184534"><ele>356.0</ele><time>2026-04-18T15:16:57.137Z</time></trkpt><trkpt lat="45.7912293" lon="11.4185684"><ele>354.0</ele><time>2026-04-18T15:16:58.138Z</time></trkpt><trkpt lat="45.7911967" lon="11.4186515"><ele>354.0</ele><time>2026-04-18T15:16:59.138Z</time></trkpt><trkpt lat="45.7911493" lon="11.418766"><ele>354.0</ele><time>2026-04-18T15:17:01.137Z</time></trkpt><trkpt lat="45.7910482" lon="11.4188407"><ele>354.0</ele><time>2026-04-18T15:17:03.138Z</time></trkpt><trkpt lat="45.790978" lon="11.4188399"><ele>354.0</ele><time>2026-04-18T15:17:04.136Z</time></trkpt><trkpt lat="45.7909035" lon="11.4188173"><ele>354.0</ele><time>2026-04-18T15:17:05.137Z</time></trkpt><trkpt lat="45.7908411" lon="11.418784"><ele>354.0</ele><time>2026-04-18T15:17:06.137Z</time></trkpt><trkpt lat="45.7907671" lon="11.4187142"><ele>352.1666666666667</ele><time>2026-04-18T15:17:08.137Z</time></trkpt><trkpt lat="45.7907134" lon="11.4186662"><ele>350.3333333333333</ele><time>2026-04-18T15:17:09.138Z</time></trkpt><trkpt lat="45.7906443" lon="11.4186045"><ele>348.5</ele><time>2026-04-18T15:17:10.136Z</time></trkpt><trkpt lat="45.7905628" lon="11.4185338"><ele>346.66666666666663</ele><time>2026-04-18T15:17:11.138Z</time></trkpt><trkpt lat="45.7904784" lon="11.4184539"><ele>344.8333333333333</ele><time>2026-04-18T15:17:12.137Z</time></trkpt><trkpt lat="45.7904041" lon="11.4183807"><ele>343.0</ele><time>2026-04-18T15:17:13.137Z</time></trkpt><trkpt lat="45.7903385" lon="11.4183065"><ele>343.0</ele><time>2026-04-18T15:17:14.138Z</time></trkpt><trkpt lat="45.79028" lon="11.4182348"><ele>343.0</ele><time>2026-04-18T15:17:15.136Z</time></trkpt><trkpt lat="45.7901858" lon="11.4181214"><ele>343.0</ele><time>2026-04-18T15:17:17.138Z</time></trkpt><trkpt lat="45.7901273" lon="11.4180673"><ele>343.0</ele><time>2026-04-18T15:17:18.136Z</time></trkpt><trkpt lat="45.7900696" lon="11.4179905"><ele>343.0</ele><time>2026-04-18T15:17:19.136Z</time></trkpt><trkpt lat="45.7900103" lon="11.417897"><ele>343.0</ele><time>2026-04-18T15:17:20.138Z</time></trkpt><trkpt lat="45.7899447" lon="11.417817"><ele>341.8333333333333</ele><time>2026-04-18T15:17:21.138Z</time></trkpt><trkpt lat="45.7898724" lon="11.4177683"><ele>340.66666666666663</ele><time>2026-04-18T15:17:22.138Z</time></trkpt><trkpt lat="45.789798" lon="11.4177308"><ele>339.5</ele><time>2026-04-18T15:17:23.137Z</time></trkpt><trkpt lat="45.7897299" lon="11.4176805"><ele>338.3333333333333</ele><time>2026-04-18T15:17:24.136Z</time></trkpt><trkpt lat="45.7896739" lon="11.4176154"><ele>337.1666666666667</ele><time>2026-04-18T15:17:25.138Z</time></trkpt><trkpt lat="45.7896194" lon="11.4175241"><ele>336.0</ele><time>2026-04-18T15:17:26.138Z</time></trkpt><trkpt lat="45.7895643" lon="11.4174211"><ele>336.0</ele><time>2026-04-18T15:17:27.138Z</time></trkpt><trkpt lat="45.7895095" lon="11.417302"><ele>336.0</ele><time>2026-04-18T15:17:28.137Z</time></trkpt><trkpt lat="45.7894649" lon="11.4171746"><ele>336.0</ele><time>2026-04-18T15:17:29.138Z</time></trkpt><trkpt lat="45.7894412" lon="11.4170679"><ele>336.0</ele><time>2026-04-18T15:17:30.136Z</time></trkpt><trkpt lat="45.7894303" lon="11.4169665"><ele>336.0</ele><time>2026-04-18T15:17:31.137Z</time></trkpt><trkpt lat="45.7894451" lon="11.4168634"><ele>336.0</ele><time>2026-04-18T15:17:32.137Z</time></trkpt><trkpt lat="45.7894821" lon="11.4167518"><ele>335.0</ele><time>2026-04-18T15:17:33.137Z</time></trkpt><trkpt lat="45.78953" lon="11.4166227"><ele>334.0</ele><time>2026-04-18T15:17:34.138Z</time></trkpt><trkpt lat="45.7895851" lon="11.4164777"><ele>333.0</ele><time>2026-04-18T15:17:35.136Z</time></trkpt><trkpt lat="45.7896466" lon="11.4163212"><ele>332.0</ele><time>2026-04-18T15:17:36.138Z</time></trkpt><trkpt lat="45.78971" lon="11.4161668"><ele>329.8</ele><time>2026-04-18T15:17:37.137Z</time></trkpt><trkpt lat="45.7897738" lon="11.4160242"><ele>327.6</ele><time>2026-04-18T15:17:38.137Z</time></trkpt><trkpt lat="45.789832" lon="11.4158928"><ele>325.40000000000003</ele><time>2026-04-18T15:17:39.137Z</time></trkpt><trkpt lat="45.7898772" lon="11.4157872"><ele>323.20000000000005</ele><time>2026-04-18T15:17:40.136Z</time></trkpt><trkpt lat="45.7899202" lon="11.4156792"><ele>321.0</ele><time>2026-04-18T15:17:42.137Z</time></trkpt><trkpt lat="45.7899254" lon="11.4155837"><ele>321.0</ele><time>2026-04-18T15:17:44.138Z</time></trkpt><trkpt lat="45.7898528" lon="11.4155035"><ele>321.0</ele><time>2026-04-18T15:17:46.138Z</time></trkpt><trkpt lat="45.7897943" lon="11.4154578"><ele>321.0</ele><time>2026-04-18T15:17:47.137Z</time></trkpt><trkpt lat="45.7897336" lon="11.415395"><ele>321.0</ele><time>2026-04-18T15:17:48.138Z</time></trkpt><trkpt lat="45.789661" lon="11.4153265"><ele>321.0</ele><time>2026-04-18T15:17:49.137Z</time></trkpt><trkpt lat="45.7895808" lon="11.4152521"><ele>321.0</ele><time>2026-04-18T15:17:50.137Z</time></trkpt><trkpt lat="45.789495" lon="11.4151783"><ele>319.5</ele><time>2026-04-18T15:17:51.136Z</time></trkpt><trkpt lat="45.7894115" lon="11.415116"><ele>318.0</ele><time>2026-04-18T15:17:52.137Z</time></trkpt><trkpt lat="45.7893396" lon="11.4150699"><ele>316.5</ele><time>2026-04-18T15:17:53.138Z</time></trkpt><trkpt lat="45.7892668" lon="11.4150588"><ele>315.0</ele><time>2026-04-18T15:17:54.138Z</time></trkpt><trkpt lat="45.7891906" lon="11.4150743"><ele>313.5</ele><time>2026-04-18T15:17:55.137Z</time></trkpt><trkpt lat="45.7891093" lon="11.4150905"><ele>312.0</ele><time>2026-04-18T15:17:56.138Z</time></trkpt><trkpt lat="45.7890286" lon="11.4151425"><ele>311.8571428571429</ele><time>2026-04-18T15:17:57.138Z</time></trkpt><trkpt lat="45.7889523" lon="11.4151805"><ele>311.71428571428567</ele><time>2026-04-18T15:17:58.136Z</time></trkpt><trkpt lat="45.7888828" lon="11.4152358"><ele>311.57142857142856</ele><time>2026-04-18T15:17:59.137Z</time></trkpt><trkpt lat="45.7888238" lon="11.4152784"><ele>311.42857142857144</ele><time>2026-04-18T15:18:00.138Z</time></trkpt><trkpt lat="45.7887663" lon="11.4153165"><ele>311.28571428571433</ele><time>2026-04-18T15:18:01.137Z</time></trkpt><trkpt lat="45.7887089" lon="11.4153661"><ele>311.1428571428571</ele><time>2026-04-18T15:18:02.138Z</time></trkpt><trkpt lat="45.7886465" lon="11.4154289"><ele>311.0</ele><time>2026-04-18T15:18:03.137Z</time></trkpt><trkpt lat="45.7885855" lon="11.4155089"><ele>311.2</ele><time>2026-04-18T15:18:04.137Z</time></trkpt><trkpt lat="45.7885176" lon="11.4156054"><ele>311.40000000000003</ele><time>2026-04-18T15:18:05.136Z</time></trkpt><trkpt lat="45.7884552" lon="11.4157211"><ele>311.6</ele><time>2026-04-18T15:18:06.137Z</time></trkpt><trkpt lat="45.7884057" lon="11.4158636"><ele>311.8</ele><time>2026-04-18T15:18:07.136Z</time></trkpt><trkpt lat="45.7883586" lon="11.4160142"><ele>312.0</ele><time>2026-04-18T15:18:08.138Z</time></trkpt><trkpt lat="45.7883108" lon="11.4161739"><ele>312.6</ele><time>2026-04-18T15:18:09.138Z</time></trkpt><trkpt lat="45.7882652" lon="11.4163264"><ele>313.2</ele><time>2026-04-18T15:18:10.136Z</time></trkpt><trkpt lat="45.7882202" lon="11.4164692"><ele>313.8</ele><time>2026-04-18T15:18:11.138Z</time></trkpt><trkpt lat="45.7881689" lon="11.4166107"><ele>314.4</ele><time>2026-04-18T15:18:12.138Z</time></trkpt><trkpt lat="45.7881223" lon="11.4167363"><ele>315.0</ele><time>2026-04-18T15:18:13.137Z</time></trkpt><trkpt lat="45.7880853" lon="11.4168325"><ele>315.0</ele><time>2026-04-18T15:18:14.137Z</time></trkpt><trkpt lat="45.7880396" lon="11.4169439"><ele>315.0</ele><time>2026-04-18T15:18:16.136Z</time></trkpt><trkpt lat="45.7879825" lon="11.4170089"><ele>315.0</ele><time>2026-04-18T15:18:20.136Z</time></trkpt><trkpt lat="45.787916" lon="11.4171589"><ele>315.0</ele><time>2026-04-18T15:18:22.137Z</time></trkpt><trkpt lat="45.7878672" lon="11.417267"><ele>315.0</ele><time>2026-04-18T15:18:23.137Z</time></trkpt><trkpt lat="45.787814" lon="11.4173959"><ele>315.5</ele><time>2026-04-18T15:18:24.137Z</time></trkpt><trkpt lat="45.7877577" lon="11.417537"><ele>316.0</ele><time>2026-04-18T15:18:25.137Z</time></trkpt><trkpt lat="45.7876978" lon="11.4176905"><ele>316.5</ele><time>2026-04-18T15:18:26.138Z</time></trkpt><trkpt lat="45.7876359" lon="11.4178543"><ele>317.0</ele><time>2026-04-18T15:18:27.138Z</time></trkpt><trkpt lat="45.7875703" lon="11.4180259"><ele>315.5</ele><time>2026-04-18T15:18:28.138Z</time></trkpt><trkpt lat="45.7875057" lon="11.4181891"><ele>314.0</ele><time>2026-04-18T15:18:29.138Z</time></trkpt><trkpt lat="45.7874447" lon="11.4183459"><ele>312.5</ele><time>2026-04-18T15:18:30.138Z</time></trkpt><trkpt lat="45.7873834" lon="11.4184925"><ele>311.0</ele><time>2026-04-18T15:18:31.137Z</time></trkpt><trkpt lat="45.7873233" lon="11.4186427"><ele>311.0</ele><time>2026-04-18T15:18:32.136Z</time></trkpt><trkpt lat="45.7872654" lon="11.4187949"><ele>311.0</ele><time>2026-04-18T15:18:33.138Z</time></trkpt><trkpt lat="45.7872187" lon="11.4189503"><ele>311.0</ele><time>2026-04-18T15:18:34.137Z</time></trkpt><trkpt lat="45.78718" lon="11.4191144"><ele>311.0</ele><time>2026-04-18T15:18:35.138Z</time></trkpt><trkpt lat="45.7871547" lon="11.4192827"><ele>311.25</ele><time>2026-04-18T15:18:36.137Z</time></trkpt><trkpt lat="45.7871315" lon="11.4194566"><ele>311.5</ele><time>2026-04-18T15:18:37.137Z</time></trkpt><trkpt lat="45.7871079" lon="11.4196358"><ele>311.75</ele><time>2026-04-18T15:18:38.137Z</time></trkpt><trkpt lat="45.7870821" lon="11.4198201"><ele>312.0</ele><time>2026-04-18T15:18:39.138Z</time></trkpt><trkpt lat="45.7870554" lon="11.420006"><ele>312.0</ele><time>2026-04-18T15:18:40.136Z</time></trkpt><trkpt lat="45.7870285" lon="11.4202013"><ele>312.0</ele><time>2026-04-18T15:18:41.138Z</time></trkpt><trkpt lat="45.7870002" lon="11.4203815"><ele>312.0</ele><time>2026-04-18T15:18:42.137Z</time></trkpt><trkpt lat="45.7869721" lon="11.4205492"><ele>312.0</ele><time>2026-04-18T15:18:43.137Z</time></trkpt><trkpt lat="45.7869449" lon="11.4207058"><ele>312.0</ele><time>2026-04-18T15:18:44.137Z</time></trkpt><trkpt lat="45.7869149" lon="11.4208516"><ele>312.0</ele><time>2026-04-18T15:18:45.137Z</time></trkpt><trkpt lat="45.7868788" lon="11.4209742"><ele>312.0</ele><time>2026-04-18T15:18:46.137Z</time></trkpt><trkpt lat="45.7868494" lon="11.4210686"><ele>312.0</ele><time>2026-04-18T15:18:47.137Z</time></trkpt><trkpt lat="45.7867747" lon="11.4211574"><ele>312.0</ele><time>2026-04-18T15:18:49.138Z</time></trkpt><trkpt lat="45.7866826" lon="11.4211254"><ele>310.8</ele><time>2026-04-18T15:18:51.137Z</time></trkpt><trkpt lat="45.7865606" lon="11.4210536"><ele>309.6</ele><time>2026-04-18T15:18:53.136Z</time></trkpt><trkpt lat="45.786487" lon="11.4210042"><ele>308.40000000000003</ele><time>2026-04-18T15:18:54.137Z</time></trkpt><trkpt lat="45.7864028" lon="11.4209502"><ele>307.2</ele><time>2026-04-18T15:18:55.137Z</time></trkpt><trkpt lat="45.7863163" lon="11.4208836"><ele>306.0</ele><time>2026-04-18T15:18:56.137Z</time></trkpt><trkpt lat="45.7862374" lon="11.4208363"><ele>306.0</ele><time>2026-04-18T15:18:57.138Z</time></trkpt><trkpt lat="45.7861645" lon="11.4207847"><ele>306.0</ele><time>2026-04-18T15:18:58.137Z</time></trkpt><trkpt lat="45.7860959" lon="11.4207318"><ele>306.0</ele><time>2026-04-18T15:18:59.136Z</time></trkpt><trkpt lat="45.7860517" lon="11.4206675"><ele>306.0</ele><time>2026-04-18T15:19:00.137Z</time></trkpt><trkpt lat="45.7859649" lon="11.4205983"><ele>306.0</ele><time>2026-04-18T15:19:02.137Z</time></trkpt><trkpt lat="45.7858841" lon="11.4206481"><ele>306.0</ele><time>2026-04-18T15:19:04.137Z</time></trkpt><trkpt lat="45.7858366" lon="11.4207256"><ele>306.0</ele><time>2026-04-18T15:19:07.138Z</time></trkpt><trkpt lat="45.7859361" lon="11.4207115"><ele>306.0</ele><time>2026-04-18T15:19:10.138Z</time></trkpt><trkpt lat="45.7860191" lon="11.420594"><ele>306.0</ele><time>2026-04-18T15:19:12.137Z</time></trkpt><trkpt lat="45.7860606" lon="11.4204825"><ele>306.0</ele><time>2026-04-18T15:19:13.137Z</time></trkpt><trkpt lat="45.7861086" lon="11.4203543"><ele>306.0</ele><time>2026-04-18T15:19:14.138Z</time></trkpt><trkpt lat="45.7861583" lon="11.4202306"><ele>305.8</ele><time>2026-04-18T15:19:15.136Z</time></trkpt><trkpt lat="45.7862105" lon="11.4201154"><ele>305.6</ele><time>2026-04-18T15:19:16.137Z</time></trkpt><trkpt lat="45.7862643" lon="11.4199941"><ele>305.4</ele><time>2026-04-18T15:19:17.136Z</time></trkpt><trkpt lat="45.7863173" lon="11.4198627"><ele>305.2</ele><time>2026-04-18T15:19:18.138Z</time></trkpt><trkpt lat="45.7863668" lon="11.4197259"><ele>305.0</ele><time>2026-04-18T15:19:19.138Z</time></trkpt><trkpt lat="45.7864051" lon="11.4195833"><ele>305.33333333333337</ele><time>2026-04-18T15:19:20.138Z</time></trkpt><trkpt lat="45.786431" lon="11.4194562"><ele>305.6666666666667</ele><time>2026-04-18T15:19:21.138Z</time></trkpt><trkpt lat="45.7864531" lon="11.419364"><ele>306.0</ele><time>2026-04-18T15:19:22.136Z</time></trkpt><trkpt lat="45.7864558" lon="11.4192538"><ele>306.3333333333333</ele><time>2026-04-18T15:19:25.138Z</time></trkpt><trkpt lat="45.7863712" lon="11.4192152"><ele>306.66666666666663</ele><time>2026-04-18T15:19:27.137Z</time></trkpt><trkpt lat="45.7862676" lon="11.41917"><ele>307.0</ele><time>2026-04-18T15:19:29.138Z</time></trkpt><trkpt lat="45.7861434" lon="11.4191263"><ele>307.0</ele><time>2026-04-18T15:19:31.137Z</time></trkpt><trkpt lat="45.786026" lon="11.4190804"><ele>307.0</ele><time>2026-04-18T15:19:33.138Z</time></trkpt><trkpt lat="45.7859253" lon="11.4190721"><ele>307.0</ele><time>2026-04-18T15:19:35.137Z</time></trkpt><trkpt lat="45.7858383" lon="11.4190793"><ele>307.0</ele><time>2026-04-18T15:20:29.137Z</time></trkpt><trkpt lat="45.7857449" lon="11.4191904"><ele>307.0</ele><time>2026-04-18T15:20:31.138Z</time></trkpt><trkpt lat="45.7857012" lon="11.4193048"><ele>305.5</ele><time>2026-04-18T15:20:32.137Z</time></trkpt><trkpt lat="45.785652" lon="11.4194337"><ele>304.0</ele><time>2026-04-18T15:20:33.137Z</time></trkpt><trkpt lat="45.7855988" lon="11.419572"><ele>302.5</ele><time>2026-04-18T15:20:34.137Z</time></trkpt><trkpt lat="45.7855446" lon="11.4197286"><ele>301.0</ele><time>2026-04-18T15:20:35.137Z</time></trkpt><trkpt lat="45.7854845" lon="11.4198953"><ele>301.0</ele><time>2026-04-18T15:20:36.138Z</time></trkpt><trkpt lat="45.7854199" lon="11.4200652"><ele>301.0</ele><time>2026-04-18T15:20:37.137Z</time></trkpt><trkpt lat="45.7853557" lon="11.4202407"><ele>301.0</ele><time>2026-04-18T15:20:38.137Z</time></trkpt><trkpt lat="45.7852872" lon="11.4204254"><ele>301.0</ele><time>2026-04-18T15:20:39.138Z</time></trkpt><trkpt lat="45.7852184" lon="11.4206188"><ele>300.3333333333333</ele><time>2026-04-18T15:20:40.138Z</time></trkpt><trkpt lat="45.7851505" lon="11.4208107"><ele>299.6666666666667</ele><time>2026-04-18T15:20:41.137Z</time></trkpt><trkpt lat="45.785082" lon="11.4210055"><ele>299.0</ele><time>2026-04-18T15:20:42.137Z</time></trkpt><trkpt lat="45.7850124" lon="11.4212069"><ele>298.6666666666667</ele><time>2026-04-18T15:20:43.137Z</time></trkpt><trkpt lat="45.7849382" lon="11.421409"><ele>298.3333333333333</ele><time>2026-04-18T15:20:44.137Z</time></trkpt><trkpt lat="45.7848624" lon="11.4216092"><ele>298.0</ele><time>2026-04-18T15:20:45.137Z</time></trkpt><trkpt lat="45.7847861" lon="11.4218154"><ele>298.0</ele><time>2026-04-18T15:20:46.137Z</time></trkpt><trkpt lat="45.784709" lon="11.42202"><ele>298.0</ele><time>2026-04-18T15:20:47.137Z</time></trkpt><trkpt lat="45.7846343" lon="11.4222146"><ele>298.0</ele><time>2026-04-18T15:20:48.137Z</time></trkpt><trkpt lat="45.7845679" lon="11.4223989"><ele>298.0</ele><time>2026-04-18T15:20:49.136Z</time></trkpt><trkpt lat="45.7844971" lon="11.4225808"><ele>298.0</ele><time>2026-04-18T15:20:50.136Z</time></trkpt><trkpt lat="45.7844251" lon="11.4227663"><ele>298.0</ele><time>2026-04-18T15:20:51.138Z</time></trkpt><trkpt lat="45.7843562" lon="11.4229539"><ele>298.0</ele><time>2026-04-18T15:20:52.136Z</time></trkpt><trkpt lat="45.7842885" lon="11.4231291"><ele>298.0</ele><time>2026-04-18T15:20:53.138Z</time></trkpt><trkpt lat="45.7842229" lon="11.4232981"><ele>298.0</ele><time>2026-04-18T15:20:54.137Z</time></trkpt><trkpt lat="45.784154" lon="11.4234595"><ele>298.0</ele><time>2026-04-18T15:20:55.137Z</time></trkpt><trkpt lat="45.7840853" lon="11.4236254"><ele>298.0</ele><time>2026-04-18T15:20:56.138Z</time></trkpt><trkpt lat="45.7840216" lon="11.4237982"><ele>298.3333333333333</ele><time>2026-04-18T15:20:57.136Z</time></trkpt><trkpt lat="45.7839657" lon="11.4239911"><ele>298.6666666666667</ele><time>2026-04-18T15:20:58.137Z</time></trkpt><trkpt lat="45.7839033" lon="11.4241894"><ele>299.0</ele><time>2026-04-18T15:20:59.136Z</time></trkpt><trkpt lat="45.7838312" lon="11.4243906"><ele>299.0</ele><time>2026-04-18T15:21:00.138Z</time></trkpt><trkpt lat="45.7837605" lon="11.4245945"><ele>299.0</ele><time>2026-04-18T15:21:01.137Z</time></trkpt><trkpt lat="45.7836874" lon="11.4248105"><ele>299.0</ele><time>2026-04-18T15:21:02.137Z</time></trkpt><trkpt lat="45.7836112" lon="11.4250345"><ele>299.0</ele><time>2026-04-18T15:21:03.138Z</time></trkpt><trkpt lat="45.7835302" lon="11.4252591"><ele>299.0</ele><time>2026-04-18T15:21:04.137Z</time></trkpt><trkpt lat="45.783447" lon="11.4254892"><ele>299.0</ele><time>2026-04-18T15:21:05.138Z</time></trkpt><trkpt lat="45.7833632" lon="11.4257186"><ele>298.0</ele><time>2026-04-18T15:21:06.138Z</time></trkpt><trkpt lat="45.783281" lon="11.4259506"><ele>297.0</ele><time>2026-04-18T15:21:07.137Z</time></trkpt><trkpt lat="45.7831952" lon="11.4261829"><ele>296.0</ele><time>2026-04-18T15:21:08.137Z</time></trkpt><trkpt lat="45.7831126" lon="11.4264131"><ele>296.0</ele><time>2026-04-18T15:21:09.137Z</time></trkpt><trkpt lat="45.7830259" lon="11.4266469"><ele>296.0</ele><time>2026-04-18T15:21:10.138Z</time></trkpt><trkpt lat="45.7829404" lon="11.42688"><ele>296.0</ele><time>2026-04-18T15:21:11.138Z</time></trkpt><trkpt lat="45.7828522" lon="11.4271172"><ele>295.33333333333337</ele><time>2026-04-18T15:21:12.137Z</time></trkpt><trkpt lat="45.7827603" lon="11.4273565"><ele>294.6666666666667</ele><time>2026-04-18T15:21:13.136Z</time></trkpt><trkpt lat="45.7826697" lon="11.427597"><ele>294.0</ele><time>2026-04-18T15:21:14.137Z</time></trkpt><trkpt lat="45.7825733" lon="11.4278306"><ele>293.0</ele><time>2026-04-18T15:21:15.138Z</time></trkpt><trkpt lat="45.7824747" lon="11.4280543"><ele>292.0</ele><time>2026-04-18T15:21:16.136Z</time></trkpt><trkpt lat="45.782364" lon="11.4282694"><ele>291.0</ele><time>2026-04-18T15:21:17.138Z</time></trkpt><trkpt lat="45.7822388" lon="11.4284688"><ele>291.0</ele><time>2026-04-18T15:21:18.137Z</time></trkpt><trkpt lat="45.7821057" lon="11.4286481"><ele>291.0</ele><time>2026-04-18T15:21:19.137Z</time></trkpt><trkpt lat="45.7819622" lon="11.4288202"><ele>291.0</ele><time>2026-04-18T15:21:20.136Z</time></trkpt><trkpt lat="45.7818114" lon="11.4289677"><ele>290.3333333333333</ele><time>2026-04-18T15:21:21.136Z</time></trkpt><trkpt lat="45.7816557" lon="11.4291002"><ele>289.66666666666663</ele><time>2026-04-18T15:21:22.138Z</time></trkpt><trkpt lat="45.781494" lon="11.4292186"><ele>289.0</ele><time>2026-04-18T15:21:23.138Z</time></trkpt><trkpt lat="45.7813257" lon="11.4293129"><ele>289.0</ele><time>2026-04-18T15:21:24.136Z</time></trkpt><trkpt lat="45.7811521" lon="11.4293797"><ele>289.0</ele><time>2026-04-18T15:21:25.137Z</time></trkpt><trkpt lat="45.7809709" lon="11.4294253"><ele>289.0</ele><time>2026-04-18T15:21:26.137Z</time></trkpt><trkpt lat="45.7807872" lon="11.4294522"><ele>289.66666666666663</ele><time>2026-04-18T15:21:27.137Z</time></trkpt><trkpt lat="45.7806031" lon="11.4294535"><ele>290.3333333333333</ele><time>2026-04-18T15:21:28.137Z</time></trkpt><trkpt lat="45.7804175" lon="11.4294426"><ele>291.0</ele><time>2026-04-18T15:21:29.137Z</time></trkpt><trkpt lat="45.780232" lon="11.4294155"><ele>291.0</ele><time>2026-04-18T15:21:30.136Z</time></trkpt><trkpt lat="45.7800435" lon="11.4293824"><ele>291.0</ele><time>2026-04-18T15:21:31.138Z</time></trkpt><trkpt lat="45.7798541" lon="11.4293437"><ele>291.0</ele><time>2026-04-18T15:21:32.138Z</time></trkpt><trkpt lat="45.7796628" lon="11.4293076"><ele>291.0</ele><time>2026-04-18T15:21:33.136Z</time></trkpt><trkpt lat="45.7794713" lon="11.4292705"><ele>291.0</ele><time>2026-04-18T15:21:34.137Z</time></trkpt><trkpt lat="45.7792772" lon="11.4292326"><ele>291.0</ele><time>2026-04-18T15:21:35.136Z</time></trkpt><trkpt lat="45.7790866" lon="11.4291906"><ele>290.3333333333333</ele><time>2026-04-18T15:21:36.137Z</time></trkpt><trkpt lat="45.7788945" lon="11.4291518"><ele>289.66666666666663</ele><time>2026-04-18T15:21:37.137Z</time></trkpt><trkpt lat="45.7786995" lon="11.4291133"><ele>289.0</ele><time>2026-04-18T15:21:38.136Z</time></trkpt><trkpt lat="45.7785077" lon="11.4290723"><ele>288.3333333333333</ele><time>2026-04-18T15:21:39.138Z</time></trkpt><trkpt lat="45.778316" lon="11.4290275"><ele>287.6666666666667</ele><time>2026-04-18T15:21:40.138Z</time></trkpt><trkpt lat="45.7781268" lon="11.4289737"><ele>287.0</ele><time>2026-04-18T15:21:41.137Z</time></trkpt><trkpt lat="45.7779389" lon="11.4289085"><ele>287.0</ele><time>2026-04-18T15:21:42.138Z</time></trkpt><trkpt lat="45.777751" lon="11.4288337"><ele>287.0</ele><time>2026-04-18T15:21:43.138Z</time></trkpt><trkpt lat="45.7775632" lon="11.4287528"><ele>287.0</ele><time>2026-04-18T15:21:44.137Z</time></trkpt><trkpt lat="45.7773749" lon="11.4286671"><ele>285.6666666666667</ele><time>2026-04-18T15:21:45.138Z</time></trkpt><trkpt lat="45.7771862" lon="11.4285793"><ele>284.3333333333333</ele><time>2026-04-18T15:21:46.136Z</time></trkpt><trkpt lat="45.7769963" lon="11.428494"><ele>283.0</ele><time>2026-04-18T15:21:47.138Z</time></trkpt><trkpt lat="45.7768053" lon="11.4284091"><ele>282.3333333333333</ele><time>2026-04-18T15:21:48.138Z</time></trkpt><trkpt lat="45.7766153" lon="11.428322"><ele>281.6666666666667</ele><time>2026-04-18T15:21:49.137Z</time></trkpt><trkpt lat="45.7764214" lon="11.4282379"><ele>281.0</ele><time>2026-04-18T15:21:50.138Z</time></trkpt><trkpt lat="45.7762276" lon="11.4281525"><ele>281.0</ele><time>2026-04-18T15:21:51.137Z</time></trkpt><trkpt lat="45.7760342" lon="11.4280648"><ele>281.0</ele><time>2026-04-18T15:21:52.137Z</time></trkpt><trkpt lat="45.7758382" lon="11.4279713"><ele>281.0</ele><time>2026-04-18T15:21:53.138Z</time></trkpt><trkpt lat="45.775643" lon="11.427882"><ele>281.0</ele><time>2026-04-18T15:21:54.137Z</time></trkpt><trkpt lat="45.7754466" lon="11.4277902"><ele>281.0</ele><time>2026-04-18T15:21:55.137Z</time></trkpt><trkpt lat="45.7752514" lon="11.427698"><ele>281.0</ele><time>2026-04-18T15:21:56.138Z</time></trkpt><trkpt lat="45.7750572" lon="11.4275978"><ele>281.6666666666667</ele><time>2026-04-18T15:21:57.137Z</time></trkpt><trkpt lat="45.7748588" lon="11.4275018"><ele>282.3333333333333</ele><time>2026-04-18T15:21:58.138Z</time></trkpt><trkpt lat="45.7746604" lon="11.4274009"><ele>283.0</ele><time>2026-04-18T15:21:59.136Z</time></trkpt><trkpt lat="45.7744618" lon="11.4273032"><ele>282.66666666666663</ele><time>2026-04-18T15:22:00.137Z</time></trkpt><trkpt lat="45.7742657" lon="11.4272042"><ele>282.3333333333333</ele><time>2026-04-18T15:22:01.138Z</time></trkpt><trkpt lat="45.7740676" lon="11.4271054"><ele>282.0</ele><time>2026-04-18T15:22:02.138Z</time></trkpt><trkpt lat="45.7738715" lon="11.4270084"><ele>281.6666666666667</ele><time>2026-04-18T15:22:03.138Z</time></trkpt><trkpt lat="45.7736783" lon="11.4269093"><ele>281.33333333333337</ele><time>2026-04-18T15:22:04.137Z</time></trkpt><trkpt lat="45.773485" lon="11.4268037"><ele>281.0</ele><time>2026-04-18T15:22:05.137Z</time></trkpt><trkpt lat="45.7732899" lon="11.4266974"><ele>281.0</ele><time>2026-04-18T15:22:06.137Z</time></trkpt><trkpt lat="45.7730915" lon="11.4265899"><ele>281.0</ele><time>2026-04-18T15:22:07.138Z</time></trkpt><trkpt lat="45.7728905" lon="11.4264901"><ele>281.0</ele><time>2026-04-18T15:22:08.137Z</time></trkpt><trkpt lat="45.7726867" lon="11.4263914"><ele>276.6666666666667</ele><time>2026-04-18T15:22:09.137Z</time></trkpt><trkpt lat="45.7724773" lon="11.4263011"><ele>272.3333333333333</ele><time>2026-04-18T15:22:10.137Z</time></trkpt><trkpt lat="45.7722686" lon="11.4262162"><ele>268.0</ele><time>2026-04-18T15:22:11.137Z</time></trkpt><trkpt lat="45.7720619" lon="11.4261316"><ele>268.0</ele><time>2026-04-18T15:22:12.138Z</time></trkpt><trkpt lat="45.7718616" lon="11.4260472"><ele>268.0</ele><time>2026-04-18T15:22:13.138Z</time></trkpt><trkpt lat="45.7716589" lon="11.4259608"><ele>268.0</ele><time>2026-04-18T15:22:14.136Z</time></trkpt><trkpt lat="45.7714591" lon="11.4258765"><ele>262.66666666666663</ele><time>2026-04-18T15:22:15.137Z</time></trkpt><trkpt lat="45.7712617" lon="11.4257961"><ele>257.3333333333333</ele><time>2026-04-18T15:22:16.137Z</time></trkpt><trkpt lat="45.7710609" lon="11.4257154"><ele>252.0</ele><time>2026-04-18T15:22:17.137Z</time></trkpt><trkpt lat="45.7708601" lon="11.4256264"><ele>265.3333333333333</ele><time>2026-04-18T15:22:18.137Z</time></trkpt><trkpt lat="45.7706644" lon="11.4255581"><ele>278.66666666666663</ele><time>2026-04-18T15:22:19.137Z</time></trkpt><trkpt lat="45.7704736" lon="11.4255013"><ele>292.0</ele><time>2026-04-18T15:22:20.137Z</time></trkpt><trkpt lat="45.7702842" lon="11.4255385"><ele>294.66666666666663</ele><time>2026-04-18T15:22:21.137Z</time></trkpt><trkpt lat="45.7701082" lon="11.4255458"><ele>297.3333333333333</ele><time>2026-04-18T15:22:22.136Z</time></trkpt><trkpt lat="45.7699545" lon="11.4256162"><ele>300.0</ele><time>2026-04-18T15:22:23.138Z</time></trkpt><trkpt lat="45.7698049" lon="11.4257122"><ele>300.0</ele><time>2026-04-18T15:22:24.137Z</time></trkpt><trkpt lat="45.7696753" lon="11.4258443"><ele>300.0</ele><time>2026-04-18T15:22:25.138Z</time></trkpt><trkpt lat="45.7695607" lon="11.4260063"><ele>300.0</ele><time>2026-04-18T15:22:26.137Z</time></trkpt><trkpt lat="45.7694454" lon="11.4262028"><ele>298.6666666666667</ele><time>2026-04-18T15:22:27.137Z</time></trkpt><trkpt lat="45.7693356" lon="11.4264161"><ele>297.33333333333337</ele><time>2026-04-18T15:22:28.138Z</time></trkpt><trkpt lat="45.7692308" lon="11.4266378"><ele>296.0</ele><time>2026-04-18T15:22:29.138Z</time></trkpt><trkpt lat="45.7691253" lon="11.4268639"><ele>296.0</ele><time>2026-04-18T15:22:30.138Z</time></trkpt><trkpt lat="45.7690251" lon="11.4270809"><ele>296.0</ele><time>2026-04-18T15:22:31.138Z</time></trkpt><trkpt lat="45.7689271" lon="11.4272948"><ele>296.0</ele><time>2026-04-18T15:22:32.137Z</time></trkpt><trkpt lat="45.7688381" lon="11.4274867"><ele>294.0</ele><time>2026-04-18T15:22:33.137Z</time></trkpt><trkpt lat="45.7687604" lon="11.4276451"><ele>292.0</ele><time>2026-04-18T15:22:34.137Z</time></trkpt><trkpt lat="45.7686935" lon="11.4277803"><ele>290.0</ele><time>2026-04-18T15:22:35.137Z</time></trkpt><trkpt lat="45.7686276" lon="11.427909"><ele>288.0</ele><time>2026-04-18T15:22:36.138Z</time></trkpt><trkpt lat="45.7685656" lon="11.4280299"><ele>290.0</ele><time>2026-04-18T15:22:37.137Z</time></trkpt><trkpt lat="45.7685028" lon="11.4281457"><ele>292.0</ele><time>2026-04-18T15:22:38.137Z</time></trkpt><trkpt lat="45.7684348" lon="11.4282752"><ele>294.0</ele><time>2026-04-18T15:22:39.138Z</time></trkpt><trkpt lat="45.7683559" lon="11.4284301"><ele>296.0</ele><time>2026-04-18T15:22:40.136Z</time></trkpt><trkpt lat="45.7682641" lon="11.428609"><ele>296.0</ele><time>2026-04-18T15:22:41.137Z</time></trkpt><trkpt lat="45.76816" lon="11.4288042"><ele>296.0</ele><time>2026-04-18T15:22:42.138Z</time></trkpt><trkpt lat="45.7680494" lon="11.4289978"><ele>296.0</ele><time>2026-04-18T15:22:43.138Z</time></trkpt><trkpt lat="45.7679379" lon="11.429195"><ele>294.0</ele><time>2026-04-18T15:22:44.137Z</time></trkpt><trkpt lat="45.7678304" lon="11.4293936"><ele>292.0</ele><time>2026-04-18T15:22:45.138Z</time></trkpt><trkpt lat="45.7677253" lon="11.4295901"><ele>290.0</ele><time>2026-04-18T15:22:46.137Z</time></trkpt><trkpt lat="45.7676182" lon="11.4297858"><ele>289.33333333333337</ele><time>2026-04-18T15:22:47.136Z</time></trkpt><trkpt lat="45.7675203" lon="11.4299723"><ele>288.6666666666667</ele><time>2026-04-18T15:22:48.137Z</time></trkpt><trkpt lat="45.7674236" lon="11.4301476"><ele>288.0</ele><time>2026-04-18T15:22:49.138Z</time></trkpt><trkpt lat="45.7673305" lon="11.4303144"><ele>288.0</ele><time>2026-04-18T15:22:50.138Z</time></trkpt><trkpt lat="45.767236" lon="11.4304612"><ele>288.0</ele><time>2026-04-18T15:22:51.137Z</time></trkpt><trkpt lat="45.7671412" lon="11.430591"><ele>288.0</ele><time>2026-04-18T15:22:52.138Z</time></trkpt><trkpt lat="45.7670451" lon="11.4307077"><ele>288.0</ele><time>2026-04-18T15:22:53.137Z</time></trkpt><trkpt lat="45.7669467" lon="11.4308057"><ele>288.0</ele><time>2026-04-18T15:22:54.138Z</time></trkpt><trkpt lat="45.7668481" lon="11.4308901"><ele>288.0</ele><time>2026-04-18T15:22:55.138Z</time></trkpt><trkpt lat="45.7667531" lon="11.4309665"><ele>288.0</ele><time>2026-04-18T15:22:56.136Z</time></trkpt><trkpt lat="45.7666582" lon="11.431039"><ele>288.0</ele><time>2026-04-18T15:22:57.138Z</time></trkpt><trkpt lat="45.7665626" lon="11.4311039"><ele>288.0</ele><time>2026-04-18T15:22:58.138Z</time></trkpt><trkpt lat="45.766464" lon="11.4311684"><ele>288.0</ele><time>2026-04-18T15:22:59.137Z</time></trkpt><trkpt lat="45.7663637" lon="11.431223"><ele>288.0</ele><time>2026-04-18T15:23:00.138Z</time></trkpt><trkpt lat="45.7662658" lon="11.4312711"><ele>288.0</ele><time>2026-04-18T15:23:01.136Z</time></trkpt><trkpt lat="45.7661707" lon="11.4313132"><ele>288.0</ele><time>2026-04-18T15:23:02.138Z</time></trkpt><trkpt lat="45.7660778" lon="11.4313452"><ele>288.0</ele><time>2026-04-18T15:23:03.136Z</time></trkpt><trkpt lat="45.7659829" lon="11.4313734"><ele>286.6</ele><time>2026-04-18T15:23:04.137Z</time></trkpt><trkpt lat="45.7658908" lon="11.4314033"><ele>285.20000000000005</ele><time>2026-04-18T15:23:05.138Z</time></trkpt><trkpt lat="45.7658011" lon="11.4314266"><ele>283.8</ele><time>2026-04-18T15:23:06.137Z</time></trkpt><trkpt lat="45.7657137" lon="11.4314549"><ele>282.40000000000003</ele><time>2026-04-18T15:23:07.136Z</time></trkpt><trkpt lat="45.7656271" lon="11.431481"><ele>281.0</ele><time>2026-04-18T15:23:08.137Z</time></trkpt><trkpt lat="45.7655419" lon="11.4315101"><ele>281.0</ele><time>2026-04-18T15:23:09.136Z</time></trkpt><trkpt lat="45.7654589" lon="11.4315331"><ele>281.0</ele><time>2026-04-18T15:23:10.137Z</time></trkpt><trkpt lat="45.7653759" lon="11.4315569"><ele>281.0</ele><time>2026-04-18T15:23:11.136Z</time></trkpt><trkpt lat="45.7652975" lon="11.4315768"><ele>281.0</ele><time>2026-04-18T15:23:12.136Z</time></trkpt><trkpt lat="45.7652295" lon="11.4315985"><ele>281.0</ele><time>2026-04-18T15:23:13.138Z</time></trkpt><trkpt lat="45.7651157" lon="11.4316412"><ele>281.0</ele><time>2026-04-18T15:23:15.137Z</time></trkpt><trkpt lat="45.7650232" lon="11.4316636"><ele>281.0</ele><time>2026-04-18T15:23:17.138Z</time></trkpt><trkpt lat="45.7649449" lon="11.4316798"><ele>281.0</ele><time>2026-04-18T15:23:20.136Z</time></trkpt><trkpt lat="45.7648224" lon="11.4317236"><ele>281.0</ele><time>2026-04-18T15:23:46.136Z</time></trkpt><trkpt lat="45.7647558" lon="11.4317506"><ele>281.0</ele><time>2026-04-18T15:23:47.137Z</time></trkpt><trkpt lat="45.7646802" lon="11.4317952"><ele>281.0</ele><time>2026-04-18T15:23:48.137Z</time></trkpt><trkpt lat="45.7646107" lon="11.4318514"><ele>281.0</ele><time>2026-04-18T15:23:49.137Z</time></trkpt><trkpt lat="45.7645526" lon="11.4319719"><ele>281.0</ele><time>2026-04-18T15:23:50.136Z</time></trkpt><trkpt lat="45.7644869" lon="11.4320991"><ele>281.0</ele><time>2026-04-18T15:23:51.137Z</time></trkpt><trkpt lat="45.7644221" lon="11.4322409"><ele>281.0</ele><time>2026-04-18T15:23:52.136Z</time></trkpt><trkpt lat="45.7643496" lon="11.4324017"><ele>281.0</ele><time>2026-04-18T15:23:53.138Z</time></trkpt><trkpt lat="45.7642756" lon="11.4325625"><ele>280.25</ele><time>2026-04-18T15:23:54.138Z</time></trkpt><trkpt lat="45.7642025" lon="11.4327317"><ele>279.5</ele><time>2026-04-18T15:23:55.138Z</time></trkpt><trkpt lat="45.7641254" lon="11.4329088"><ele>278.75</ele><time>2026-04-18T15:23:56.137Z</time></trkpt><trkpt lat="45.7640401" lon="11.4330947"><ele>278.0</ele><time>2026-04-18T15:23:57.137Z</time></trkpt><trkpt lat="45.76396" lon="11.4332803"><ele>277.6666666666667</ele><time>2026-04-18T15:23:58.136Z</time></trkpt><trkpt lat="45.7638766" lon="11.4334739"><ele>277.3333333333333</ele><time>2026-04-18T15:23:59.137Z</time></trkpt><trkpt lat="45.7637914" lon="11.4336667"><ele>277.0</ele><time>2026-04-18T15:24:00.137Z</time></trkpt><trkpt lat="45.763705" lon="11.43387"><ele>276.66666666666663</ele><time>2026-04-18T15:24:01.137Z</time></trkpt><trkpt lat="45.7636189" lon="11.434069"><ele>276.3333333333333</ele><time>2026-04-18T15:24:02.138Z</time></trkpt><trkpt lat="45.7635378" lon="11.4342595"><ele>276.0</ele><time>2026-04-18T15:24:03.136Z</time></trkpt><trkpt lat="45.763461" lon="11.4344422"><ele>275.25</ele><time>2026-04-18T15:24:04.136Z</time></trkpt><trkpt lat="45.7633888" lon="11.4346095"><ele>274.5</ele><time>2026-04-18T15:24:05.137Z</time></trkpt><trkpt lat="45.7633241" lon="11.4347609"><ele>273.75</ele><time>2026-04-18T15:24:06.138Z</time></trkpt><trkpt lat="45.763268" lon="11.4348878"><ele>273.0</ele><time>2026-04-18T15:24:07.137Z</time></trkpt><trkpt lat="45.7632218" lon="11.4349906"><ele>272.8</ele><time>2026-04-18T15:24:08.138Z</time></trkpt><trkpt lat="45.7631841" lon="11.4350769"><ele>272.6</ele><time>2026-04-18T15:24:09.137Z</time></trkpt><trkpt lat="45.7631192" lon="11.4352298"><ele>272.4</ele><time>2026-04-18T15:24:11.138Z</time></trkpt><trkpt lat="45.7630551" lon="11.4353754"><ele>272.2</ele><time>2026-04-18T15:24:13.137Z</time></trkpt><trkpt lat="45.7629926" lon="11.4355181"><ele>272.0</ele><time>2026-04-18T15:24:15.138Z</time></trkpt><trkpt lat="45.7629558" lon="11.4356026"><ele>271.5</ele><time>2026-04-18T15:24:16.136Z</time></trkpt><trkpt lat="45.762915" lon="11.4356906"><ele>271.0</ele><time>2026-04-18T15:24:17.137Z</time></trkpt><trkpt lat="45.7628709" lon="11.4357788"><ele>270.5</ele><time>2026-04-18T15:24:18.137Z</time></trkpt><trkpt lat="45.7628213" lon="11.4358766"><ele>270.0</ele><time>2026-04-18T15:24:19.137Z</time></trkpt><trkpt lat="45.762769" lon="11.4359785"><ele>269.5</ele><time>2026-04-18T15:24:20.137Z</time></trkpt><trkpt lat="45.7627085" lon="11.4360857"><ele>269.0</ele><time>2026-04-18T15:24:21.137Z</time></trkpt><trkpt lat="45.7626394" lon="11.4361976"><ele>268.75</ele><time>2026-04-18T15:24:22.138Z</time></trkpt><trkpt lat="45.7625667" lon="11.436315"><ele>268.5</ele><time>2026-04-18T15:24:23.138Z</time></trkpt><trkpt lat="45.7624916" lon="11.4364298"><ele>268.25</ele><time>2026-04-18T15:24:24.138Z</time></trkpt><trkpt lat="45.7624142" lon="11.4365495"><ele>268.0</ele><time>2026-04-18T15:24:25.137Z</time></trkpt><trkpt lat="45.7623335" lon="11.4366812"><ele>268.0</ele><time>2026-04-18T15:24:26.137Z</time></trkpt><trkpt lat="45.762255" lon="11.4368149"><ele>268.0</ele><time>2026-04-18T15:24:27.137Z</time></trkpt><trkpt lat="45.7621726" lon="11.4369599"><ele>268.0</ele><time>2026-04-18T15:24:28.137Z</time></trkpt><trkpt lat="45.7620883" lon="11.4371004"><ele>268.0</ele><time>2026-04-18T15:24:29.137Z</time></trkpt><trkpt lat="45.7620141" lon="11.4372358"><ele>267.75</ele><time>2026-04-18T15:24:30.136Z</time></trkpt><trkpt lat="45.7619403" lon="11.4373671"><ele>267.5</ele><time>2026-04-18T15:24:31.137Z</time></trkpt><trkpt lat="45.7618661" lon="11.4374946"><ele>267.25</ele><time>2026-04-18T15:24:32.137Z</time></trkpt><trkpt lat="45.7617933" lon="11.4376236"><ele>267.0</ele><time>2026-04-18T15:24:33.137Z</time></trkpt><trkpt lat="45.761719" lon="11.4377561"><ele>267.0</ele><time>2026-04-18T15:24:34.137Z</time></trkpt><trkpt lat="45.7616438" lon="11.437884"><ele>267.0</ele><time>2026-04-18T15:24:35.138Z</time></trkpt><trkpt lat="45.7615672" lon="11.4380063"><ele>267.0</ele><time>2026-04-18T15:24:36.137Z</time></trkpt><trkpt lat="45.7614912" lon="11.4381137"><ele>267.0</ele><time>2026-04-18T15:24:37.138Z</time></trkpt><trkpt lat="45.7614138" lon="11.4382109"><ele>267.0</ele><time>2026-04-18T15:24:38.137Z</time></trkpt><trkpt lat="45.7613386" lon="11.4382941"><ele>266.6</ele><time>2026-04-18T15:24:39.138Z</time></trkpt><trkpt lat="45.7612531" lon="11.4383602"><ele>266.2</ele><time>2026-04-18T15:24:40.138Z</time></trkpt><trkpt lat="45.7611582" lon="11.4384216"><ele>265.8</ele><time>2026-04-18T15:24:41.137Z</time></trkpt><trkpt lat="45.7610484" lon="11.4384696"><ele>265.4</ele><time>2026-04-18T15:24:42.138Z</time></trkpt><trkpt lat="45.7609251" lon="11.4384989"><ele>265.0</ele><time>2026-04-18T15:24:43.137Z</time></trkpt><trkpt lat="45.7607905" lon="11.4385052"><ele>264.66666666666663</ele><time>2026-04-18T15:24:44.138Z</time></trkpt><trkpt lat="45.7606446" lon="11.4384983"><ele>264.3333333333333</ele><time>2026-04-18T15:24:45.137Z</time></trkpt><trkpt lat="45.7604875" lon="11.4384903"><ele>264.0</ele><time>2026-04-18T15:24:46.138Z</time></trkpt><trkpt lat="45.760333" lon="11.4384797"><ele>263.6666666666667</ele><time>2026-04-18T15:24:47.136Z</time></trkpt><trkpt lat="45.760174" lon="11.4384681"><ele>263.33333333333337</ele><time>2026-04-18T15:24:48.137Z</time></trkpt><trkpt lat="45.760011" lon="11.4384585"><ele>263.0</ele><time>2026-04-18T15:24:49.137Z</time></trkpt><trkpt lat="45.7598435" lon="11.4384413"><ele>263.0</ele><time>2026-04-18T15:24:50.137Z</time></trkpt><trkpt lat="45.7596764" lon="11.4384255"><ele>263.0</ele><time>2026-04-18T15:24:51.137Z</time></trkpt><trkpt lat="45.7595183" lon="11.4384111"><ele>263.0</ele><time>2026-04-18T15:24:52.137Z</time></trkpt><trkpt lat="45.7593674" lon="11.438399"><ele>261.6666666666667</ele><time>2026-04-18T15:24:53.137Z</time></trkpt><trkpt lat="45.7592161" lon="11.4383936"><ele>260.3333333333333</ele><time>2026-04-18T15:24:54.138Z</time></trkpt><trkpt lat="45.7590638" lon="11.4383798"><ele>259.0</ele><time>2026-04-18T15:24:55.137Z</time></trkpt><trkpt lat="45.758913" lon="11.4383724"><ele>259.0</ele><time>2026-04-18T15:24:56.137Z</time></trkpt><trkpt lat="45.7587675" lon="11.4383622"><ele>259.0</ele><time>2026-04-18T15:24:57.137Z</time></trkpt><trkpt lat="45.7586288" lon="11.4383521"><ele>259.0</ele><time>2026-04-18T15:24:58.138Z</time></trkpt><trkpt lat="45.7584947" lon="11.4383447"><ele>259.0</ele><time>2026-04-18T15:24:59.138Z</time></trkpt><trkpt lat="45.7583694" lon="11.4383363"><ele>258.8</ele><time>2026-04-18T15:25:00.136Z</time></trkpt><trkpt lat="45.7582501" lon="11.4383295"><ele>258.59999999999997</ele><time>2026-04-18T15:25:01.138Z</time></trkpt><trkpt lat="45.7581372" lon="11.438319"><ele>258.4</ele><time>2026-04-18T15:25:02.137Z</time></trkpt><trkpt lat="45.7580338" lon="11.4383094"><ele>258.2</ele><time>2026-04-18T15:25:03.137Z</time></trkpt><trkpt lat="45.7579442" lon="11.4383084"><ele>258.0</ele><time>2026-04-18T15:25:04.137Z</time></trkpt><trkpt lat="45.7578696" lon="11.4383005"><ele>258.0</ele><time>2026-04-18T15:25:05.137Z</time></trkpt><trkpt lat="45.7577707" lon="11.438284"><ele>258.0</ele><time>2026-04-18T15:25:07.137Z</time></trkpt><trkpt lat="45.7576767" lon="11.4382489"><ele>258.0</ele><time>2026-04-18T15:25:09.137Z</time></trkpt><trkpt lat="45.7576164" lon="11.4382199"><ele>258.0</ele><time>2026-04-18T15:25:10.138Z</time></trkpt><trkpt lat="45.7575542" lon="11.438194"><ele>258.0</ele><time>2026-04-18T15:25:11.136Z</time></trkpt><trkpt lat="45.7574286" lon="11.4382346"><ele>257.2</ele><time>2026-04-18T15:25:13.138Z</time></trkpt><trkpt lat="45.7573909" lon="11.4383316"><ele>256.4</ele><time>2026-04-18T15:25:14.136Z</time></trkpt><trkpt lat="45.7573544" lon="11.4384425"><ele>255.59999999999997</ele><time>2026-04-18T15:25:15.138Z</time></trkpt><trkpt lat="45.7573101" lon="11.4385664"><ele>254.79999999999998</ele><time>2026-04-18T15:25:16.137Z</time></trkpt><trkpt lat="45.7572428" lon="11.4387137"><ele>254.0</ele><time>2026-04-18T15:25:17.138Z</time></trkpt><trkpt lat="45.7571757" lon="11.4388651"><ele>254.0</ele><time>2026-04-18T15:25:18.138Z</time></trkpt><trkpt lat="45.7570965" lon="11.4390372"><ele>254.0</ele><time>2026-04-18T15:25:19.138Z</time></trkpt><trkpt lat="45.7570129" lon="11.4392239"><ele>254.0</ele><time>2026-04-18T15:25:20.137Z</time></trkpt><trkpt lat="45.7569389" lon="11.4393911"><ele>254.0</ele><time>2026-04-18T15:25:21.136Z</time></trkpt><trkpt lat="45.7568751" lon="11.4395339"><ele>253.5</ele><time>2026-04-18T15:25:22.137Z</time></trkpt><trkpt lat="45.7568093" lon="11.4396759"><ele>253.0</ele><time>2026-04-18T15:25:23.137Z</time></trkpt><trkpt lat="45.7567381" lon="11.4398248"><ele>252.5</ele><time>2026-04-18T15:25:24.137Z</time></trkpt><trkpt lat="45.756663" lon="11.4399792"><ele>252.0</ele><time>2026-04-18T15:25:25.136Z</time></trkpt><trkpt lat="45.7565863" lon="11.4401397"><ele>252.0</ele><time>2026-04-18T15:25:26.137Z</time></trkpt><trkpt lat="45.7565212" lon="11.4402877"><ele>252.0</ele><time>2026-04-18T15:25:27.138Z</time></trkpt><trkpt lat="45.7564652" lon="11.4404136"><ele>252.0</ele><time>2026-04-18T15:25:28.137Z</time></trkpt><trkpt lat="45.7564165" lon="11.4405271"><ele>252.0</ele><time>2026-04-18T15:25:29.138Z</time></trkpt><trkpt lat="45.7563666" lon="11.4406409"><ele>252.0</ele><time>2026-04-18T15:25:30.137Z</time></trkpt><trkpt lat="45.7563128" lon="11.440765"><ele>251.75</ele><time>2026-04-18T15:25:31.137Z</time></trkpt><trkpt lat="45.756248" lon="11.4409033"><ele>251.5</ele><time>2026-04-18T15:25:32.138Z</time></trkpt><trkpt lat="45.7561803" lon="11.4410498"><ele>251.25</ele><time>2026-04-18T15:25:33.137Z</time></trkpt><trkpt lat="45.756105" lon="11.4412036"><ele>251.0</ele><time>2026-04-18T15:25:34.136Z</time></trkpt><trkpt lat="45.7560257" lon="11.4413545"><ele>250.5</ele><time>2026-04-18T15:25:35.136Z</time></trkpt><trkpt lat="45.7559408" lon="11.4415052"><ele>250.0</ele><time>2026-04-18T15:25:36.138Z</time></trkpt><trkpt lat="45.7558554" lon="11.4416417"><ele>249.5</ele><time>2026-04-18T15:25:37.137Z</time></trkpt><trkpt lat="45.7557757" lon="11.4417625"><ele>249.0</ele><time>2026-04-18T15:25:38.137Z</time></trkpt><trkpt lat="45.7556955" lon="11.4418944"><ele>249.0</ele><time>2026-04-18T15:25:39.138Z</time></trkpt><trkpt lat="45.7555969" lon="11.4420379"><ele>249.0</ele><time>2026-04-18T15:25:40.136Z</time></trkpt><trkpt lat="45.7554826" lon="11.4422034"><ele>249.0</ele><time>2026-04-18T15:25:41.137Z</time></trkpt><trkpt lat="45.7553536" lon="11.4423818"><ele>248.0</ele><time>2026-04-18T15:25:42.137Z</time></trkpt><trkpt lat="45.7552223" lon="11.4425639"><ele>247.0</ele><time>2026-04-18T15:25:43.138Z</time></trkpt><trkpt lat="45.7550933" lon="11.4427652"><ele>246.0</ele><time>2026-04-18T15:25:44.137Z</time></trkpt><trkpt lat="45.7549716" lon="11.4429828"><ele>245.66666666666669</ele><time>2026-04-18T15:25:45.138Z</time></trkpt><trkpt lat="45.7548528" lon="11.4432078"><ele>245.33333333333334</ele><time>2026-04-18T15:25:46.137Z</time></trkpt><trkpt lat="45.7547378" lon="11.4434454"><ele>245.0</ele><time>2026-04-18T15:25:47.138Z</time></trkpt><trkpt lat="45.7546218" lon="11.4436841"><ele>244.66666666666669</ele><time>2026-04-18T15:25:48.137Z</time></trkpt><trkpt lat="45.7545092" lon="11.4439207"><ele>244.33333333333331</ele><time>2026-04-18T15:25:49.138Z</time></trkpt><trkpt lat="45.7543926" lon="11.4441657"><ele>244.0</ele><time>2026-04-18T15:25:50.137Z</time></trkpt><trkpt lat="45.7542733" lon="11.4444144"><ele>243.66666666666666</ele><time>2026-04-18T15:25:51.137Z</time></trkpt><trkpt lat="45.7541547" lon="11.4446653"><ele>243.33333333333331</ele><time>2026-04-18T15:25:52.138Z</time></trkpt><trkpt lat="45.7540398" lon="11.4449058"><ele>243.0</ele><time>2026-04-18T15:25:53.137Z</time></trkpt><trkpt lat="45.7539267" lon="11.4451446"><ele>243.0</ele><time>2026-04-18T15:25:54.137Z</time></trkpt><trkpt lat="45.7538125" lon="11.4453829"><ele>243.0</ele><time>2026-04-18T15:25:55.137Z</time></trkpt><trkpt lat="45.7536998" lon="11.4456216"><ele>243.0</ele><time>2026-04-18T15:25:56.137Z</time></trkpt><trkpt lat="45.7535849" lon="11.4458641"><ele>241.66666666666669</ele><time>2026-04-18T15:25:57.136Z</time></trkpt><trkpt lat="45.7534691" lon="11.4461087"><ele>240.33333333333334</ele><time>2026-04-18T15:25:58.137Z</time></trkpt><trkpt lat="45.7533493" lon="11.4463606"><ele>239.0</ele><time>2026-04-18T15:25:59.137Z</time></trkpt><trkpt lat="45.7532284" lon="11.4466079"><ele>239.0</ele><time>2026-04-18T15:26:00.137Z</time></trkpt><trkpt lat="45.7531096" lon="11.4468636"><ele>239.0</ele><time>2026-04-18T15:26:01.137Z</time></trkpt><trkpt lat="45.7529879" lon="11.4471196"><ele>239.0</ele><time>2026-04-18T15:26:02.137Z</time></trkpt><trkpt lat="45.7528642" lon="11.447378"><ele>238.0</ele><time>2026-04-18T15:26:03.138Z</time></trkpt><trkpt lat="45.7527393" lon="11.44764"><ele>237.0</ele><time>2026-04-18T15:26:04.138Z</time></trkpt><trkpt lat="45.7526131" lon="11.4479016"><ele>236.0</ele><time>2026-04-18T15:26:05.137Z</time></trkpt><trkpt lat="45.7524849" lon="11.4481654"><ele>236.0</ele><time>2026-04-18T15:26:06.138Z</time></trkpt><trkpt lat="45.7523605" lon="11.4484271"><ele>236.0</ele><time>2026-04-18T15:26:07.137Z</time></trkpt><trkpt lat="45.7522366" lon="11.4486852"><ele>236.0</ele><time>2026-04-18T15:26:08.138Z</time></trkpt><trkpt lat="45.7521141" lon="11.4489405"><ele>235.66666666666669</ele><time>2026-04-18T15:26:09.137Z</time></trkpt><trkpt lat="45.751994" lon="11.4491936"><ele>235.33333333333331</ele><time>2026-04-18T15:26:10.136Z</time></trkpt><trkpt lat="45.7518736" lon="11.449447"><ele>235.0</ele><time>2026-04-18T15:26:11.138Z</time></trkpt><trkpt lat="45.7517548" lon="11.4496986"><ele>234.33333333333331</ele><time>2026-04-18T15:26:12.138Z</time></trkpt><trkpt lat="45.7516392" lon="11.449945"><ele>233.66666666666669</ele><time>2026-04-18T15:26:13.137Z</time></trkpt><trkpt lat="45.7515209" lon="11.4501876"><ele>233.0</ele><time>2026-04-18T15:26:14.137Z</time></trkpt><trkpt lat="45.7514024" lon="11.4504287"><ele>233.0</ele><time>2026-04-18T15:26:15.138Z</time></trkpt><trkpt lat="45.7512854" lon="11.4506721"><ele>233.0</ele><time>2026-04-18T15:26:16.136Z</time></trkpt><trkpt lat="45.7511722" lon="11.4509184"><ele>233.0</ele><time>2026-04-18T15:26:17.137Z</time></trkpt><trkpt lat="45.7510576" lon="11.4511609"><ele>232.33333333333334</ele><time>2026-04-18T15:26:18.138Z</time></trkpt><trkpt lat="45.7509426" lon="11.4514013"><ele>231.66666666666669</ele><time>2026-04-18T15:26:19.136Z</time></trkpt><trkpt lat="45.7508274" lon="11.4516429"><ele>231.0</ele><time>2026-04-18T15:26:20.138Z</time></trkpt><trkpt lat="45.7507129" lon="11.4518874"><ele>231.0</ele><time>2026-04-18T15:26:21.137Z</time></trkpt><trkpt lat="45.7505996" lon="11.4521226"><ele>231.0</ele><time>2026-04-18T15:26:22.137Z</time></trkpt><trkpt lat="45.7504901" lon="11.4523461"><ele>231.0</ele><time>2026-04-18T15:26:23.138Z</time></trkpt><trkpt lat="45.7503879" lon="11.4525607"><ele>230.33333333333331</ele><time>2026-04-18T15:26:24.137Z</time></trkpt><trkpt lat="45.7502939" lon="11.4527624"><ele>229.66666666666666</ele><time>2026-04-18T15:26:25.137Z</time></trkpt><trkpt lat="45.7502024" lon="11.4529584"><ele>229.0</ele><time>2026-04-18T15:26:26.137Z</time></trkpt><trkpt lat="45.7501116" lon="11.453146"><ele>228.25</ele><time>2026-04-18T15:26:27.138Z</time></trkpt><trkpt lat="45.7500305" lon="11.4533215"><ele>227.5</ele><time>2026-04-18T15:26:28.138Z</time></trkpt><trkpt lat="45.7499539" lon="11.4534819"><ele>226.75</ele><time>2026-04-18T15:26:29.136Z</time></trkpt><trkpt lat="45.7498798" lon="11.4536362"><ele>226.0</ele><time>2026-04-18T15:26:30.137Z</time></trkpt><trkpt lat="45.7498059" lon="11.4537863"><ele>225.75</ele><time>2026-04-18T15:26:31.137Z</time></trkpt><trkpt lat="45.7497323" lon="11.4539337"><ele>225.5</ele><time>2026-04-18T15:26:32.137Z</time></trkpt><trkpt lat="45.7496634" lon="11.4540804"><ele>225.25</ele><time>2026-04-18T15:26:33.137Z</time></trkpt><trkpt lat="45.7495972" lon="11.4542307"><ele>225.0</ele><time>2026-04-18T15:26:34.138Z</time></trkpt><trkpt lat="45.7495268" lon="11.4543798"><ele>225.0</ele><time>2026-04-18T15:26:35.137Z</time></trkpt><trkpt lat="45.7494547" lon="11.4545295"><ele>225.0</ele><time>2026-04-18T15:26:36.137Z</time></trkpt><trkpt lat="45.7493828" lon="11.4546798"><ele>225.0</ele><time>2026-04-18T15:26:37.136Z</time></trkpt><trkpt lat="45.7493137" lon="11.4548309"><ele>225.0</ele><time>2026-04-18T15:26:38.138Z</time></trkpt><trkpt lat="45.7492478" lon="11.454972"><ele>225.0</ele><time>2026-04-18T15:26:39.138Z</time></trkpt><trkpt lat="45.749184" lon="11.4551052"><ele>225.0</ele><time>2026-04-18T15:26:40.137Z</time></trkpt><trkpt lat="45.7491233" lon="11.4552295"><ele>225.0</ele><time>2026-04-18T15:26:41.137Z</time></trkpt><trkpt lat="45.7490664" lon="11.4553519"><ele>225.0</ele><time>2026-04-18T15:26:42.137Z</time></trkpt><trkpt lat="45.7490133" lon="11.4554647"><ele>225.0</ele><time>2026-04-18T15:26:43.136Z</time></trkpt><trkpt lat="45.7489608" lon="11.45557"><ele>224.83333333333334</ele><time>2026-04-18T15:26:44.136Z</time></trkpt><trkpt lat="45.7489089" lon="11.4556683"><ele>224.66666666666669</ele><time>2026-04-18T15:26:45.137Z</time></trkpt><trkpt lat="45.7488636" lon="11.4557618"><ele>224.5</ele><time>2026-04-18T15:26:46.136Z</time></trkpt><trkpt lat="45.7488151" lon="11.4558637"><ele>224.33333333333334</ele><time>2026-04-18T15:26:47.137Z</time></trkpt><trkpt lat="45.7487662" lon="11.4559679"><ele>224.16666666666669</ele><time>2026-04-18T15:26:48.136Z</time></trkpt><trkpt lat="45.7487134" lon="11.4560812"><ele>224.0</ele><time>2026-04-18T15:26:49.138Z</time></trkpt><trkpt lat="45.7486597" lon="11.4561885"><ele>224.0</ele><time>2026-04-18T15:26:50.137Z</time></trkpt><trkpt lat="45.7486085" lon="11.4562858"><ele>223.99999999999997</ele><time>2026-04-18T15:26:51.137Z</time></trkpt><trkpt lat="45.7485613" lon="11.4563615"><ele>223.99999999999997</ele><time>2026-04-18T15:26:52.137Z</time></trkpt><trkpt lat="45.7484766" lon="11.4564794"><ele>224.0</ele><time>2026-04-18T15:26:54.137Z</time></trkpt><trkpt lat="45.7483796" lon="11.4565507"><ele>224.0</ele><time>2026-04-18T15:26:56.136Z</time></trkpt><trkpt lat="45.7483102" lon="11.4565769"><ele>223.0</ele><time>2026-04-18T15:26:57.138Z</time></trkpt><trkpt lat="45.7482386" lon="11.4565789"><ele>223.0</ele><time>2026-04-18T15:26:58.137Z</time></trkpt><trkpt lat="45.7481708" lon="11.4565686"><ele>223.0</ele><time>2026-04-18T15:26:59.137Z</time></trkpt><trkpt lat="45.7480805" lon="11.4565332"><ele>223.0</ele><time>2026-04-18T15:27:01.136Z</time></trkpt><trkpt lat="45.7480449" lon="11.4564526"><ele>223.0</ele><time>2026-04-18T15:27:04.137Z</time></trkpt><trkpt lat="45.7479728" lon="11.4564162"><ele>223.0</ele><time>2026-04-18T15:27:07.137Z</time></trkpt><trkpt lat="45.7479068" lon="11.4563878"><ele>223.0</ele><time>2026-04-18T15:27:10.137Z</time></trkpt></trkseg></trk></gpx>